ECMWFFLT1_925_temp_000.txt.gz
Temp
27 27 26 26 26 26 26 25 25 25 25 24 24 24 24 24 24 24 24 24 24 25 25 25 26 26 26 25 25 25 25 25 25 24 24 24 24 24 23 23 23 23 22 22 22 21 21 21 21 21 21 20 20 20 20 20 20 20 20 20 20 20 20
27 26 26 26 26 26 26 25 25 25 25 25 24 24 24 24 24 24 25 25 25 25 25 25 25 25 25 25 25 25 24 24 24 24 24 24 24 24 24 23 23 23 22 22 22 22 21 21 21 21 21 21 20 20 20 20 20 20 20 20 20 20 20
27 26 26 26 26 26 26 25 25 25 25 25 25 24 24 24 24 24 25 25 25 25 25 25 25 25 25 25 24 24 24 24 24 24 24 24 24 24 24 23 23 23 22 22 22 22 22 21 21 21 21 21 21 20 20 20 20 20 20 20 20 20 20
27 26 26 26 26 26 26 26 25 25 25 25 25 25 24 24 24 24 25 25 25 25 25 25 25 25 25 24 24 23 23 23 24 24 24 25 24 24 24 23 23 23 22 22 22 22 22 21 21 21 21 21 21 21 20 20 20 20 20 20 20 20 20
27 27 26 26 26 26 26 26 25 25 25 25 25 25 25 25 24 24 24 25 25 25 25 25 24 24 24 24 23 23 23 23 24 25 25 25 24 24 24 23 23 23 22 22 22 22 21 21 21 21 21 21 21 21 20 20 20 20 20 20 20 20 20
26 26 26 26 26 26 26 26 25 25 25 25 25 25 25 25 24 24 24 24 25 25 25 24 24 24 24 23 23 23 23 24 24 25 25 25 24 24 24 23 23 23 23 22 22 21 21 21 21 21 21 21 21 21 20 20 20 20 20 20 20 20 20
27 26 26 26 26 26 26 26 26 26 25 25 25 25 25 25 25 25 25 24 24 24 24 24 24 24 24 23 23 23 23 24 24 25 25 25 24 24 24 24 23 23 23 22 22 21 21 21 21 21 21 21 20 20 20 20 20 20 20 20 20 20 20
27 26 26 26 26 26 26 26 25 25 25 25 25 25 25 25 25 25 24 24 24 24 24 24 24 24 24 23 23 23 23 24 25 25 25 24 24 24 24 24 24 23 22 22 22 22 21 21 21 21 21 21 20 20 20 20 20 20 20 20 20 20 20
27 27 26 26 26 26 26 26 25 25 25 25 25 25 25 25 25 25 25 24 24 24 24 24 24 24 23 23 23 23 23 24 25 24 24 24 24 24 24 24 24 23 23 22 22 22 21 21 21 21 21 20 20 20 20 20 20 20 20 20 20 20 20
27 26 26 26 26 26 26 26 25 25 25 25 25 25 25 25 25 25 25 24 24 24 24 24 24 23 23 23 23 23 23 24 24 24 24 24 24 24 24 24 23 23 23 22 22 22 21 21 21 21 21 20 20 20 20 20 20 20 20 20 20 20 20
26 26 26 26 26 26 26 26 25 25 25 25 25 25 25 25 25 24 24 24 24 24 24 24 24 23 23 23 22 22 22 23 23 23 23 23 23 24 24 24 23 23 23 22 22 22 22 21 21 21 21 20 20 20 20 20 20 20 20 20 20 20 20
25 25 26 26 26 26 26 26 25 25 24 24 25 25 25 25 25 24 24 24 24 24 24 24 24 23 23 23 22 22 22 22 22 22 22 23 23 23 23 23 23 23 23 22 22 22 22 21 21 21 21 21 21 21 21 21 21 21 21 21 21 20 20
25 25 25 25 25 25 26 25 25 25 24 24 25 25 25 25 25 24 24 24 24 24 24 24 24 23 23 23 22 22 21 21 21 21 22 23 22 22 23 23 23 23 23 23 22 22 22 21 21 21 21 21 21 21 21 21 21 21 21 21 21 21 20
25 25 25 25 25 25 25 25 25 25 24 24 25 25 25 25 25 25 24 24 24 24 24 24 23 23 23 23 22 22 21 22 21 22 22 21 21 22 22 22 22 23 23 23 22 22 22 21 21 21 21 21 21 21 21 21 21 21 21 21 21 21 21
25 26 26 25 25 25 25 25 25 25 24 24 24 25 25 25 25 24 24 24 24 24 24 24 23 23 23 22 22 22 22 21 21 20 20 20 20 20 20 20 22 23 23 22 22 22 22 22 22 22 21 21 21 21 21 21 21 21 21 21 21 21 21
26 26 26 25 25 25 25 25 25 25 24 24 24 24 24 24 24 24 24 24 24 24 24 24 23 23 22 22 22 22 21 21 20 19 19 19 19 19 20 20 20 21 22 22 22 22 22 22 22 22 22 22 21 21 21 21 21 21 21 21 21 21 21
27 27 26 25 25 25 25 25 25 25 25 24 23 24 24 24 24 24 24 24 24 24 24 23 23 23 22 22 22 22 21 20 19 18 18 19 19 20 20 21 20 20 20 20 20 21 21 22 22 22 22 21 21 21 21 21 21 21 21 21 21 21 21
27 26 26 25 25 25 25 25 25 25 25 24 23 24 24 24 24 24 24 24 24 24 24 23 23 22 22 22 22 21 20 19 18 18 19 19 20 19 20 21 20 20 20 20 20 19 20 21 22 22 22 21 22 22 22 21 21 21 21 21 21 21 21
26 26 26 25 25 25 25 25 25 24 24 23 23 24 24 24 24 24 24 24 24 24 23 23 23 22 22 21 21 20 20 19 19 19 19 19 19 19 19 19 20 20 21 21 20 19 19 20 21 22 22 22 22 22 22 22 22 21 21 21 21 21 21
26 25 25 25 25 25 24 24 23 23 23 23 23 23 23 24 24 24 24 24 23 23 23 23 23 22 21 20 20 20 19 19 19 19 19 19 19 19 20 20 21 21 21 22 21 20 20 20 20 21 22 22 22 22 22 22 22 22 22 22 22 21 21
25 25 25 24 24 24 24 24 23 22 22 24 24 24 24 25 24 24 24 24 24 23 23 23 23 21 20 19 19 19 19 19 20 19 19 19 20 20 21 21 22 21 21 21 21 20 20 20 19 20 20 21 22 22 22 22 22 22 22 22 22 22 22
25 25 25 24 24 24 23 24 24 23 24 25 25 25 25 25 24 24 23 23 23 23 23 23 22 21 20 19 19 19 20 20 20 19 19 19 20 21 22 22 22 22 22 21 21 21 21 19 18 19 20 20 21 21 22 22 22 22 22 22 22 21 21
24 25 25 24 23 24 23 23 24 25 25 26 25 25 25 24 24 24 23 23 23 23 23 22 21 20 20 19 19 19 19 19 19 18 18 19 20 22 22 21 22 23 22 22 22 22 20 18 18 18 19 19 20 20 20 21 21 21 21 21 21 20 20
24 24 24 22 22 22 22 23 24 25 25 25 24 24 24 24 24 24 23 23 23 23 22 22 20 20 19 19 18 18 18 19 20 19 19 20 21 21 20 20 22 23 23 22 22 20 18 17 18 18 18 19 19 19 19 20 20 20 20 20 20 20 20
24 23 22 21 21 21 21 23 24 24 24 24 24 26 26 25 24 23 23 22 22 22 21 21 20 20 19 18 19 19 19 20 21 20 20 21 21 20 20 20 20 20 20 20 19 18 17 18 18 18 19 18 19 19 19 19 20 20 19 19 19 19 19
24 24 23 20 21 24 25 25 25 25 24 25 27 27 27 25 24 23 22 22 21 21 21 20 20 20 19 19 20 20 20 20 21 21 20 20 20 19 19 18 17 17 17 18 18 17 18 18 18 19 19 18 18 19 20 20 20 20 19 19 19 19 19
23 23 22 20 22 26 27 25 26 26 25 26 27 26 25 24 23 22 21 21 21 21 21 20 19 19 19 20 20 20 20 21 21 20 20 18 18 18 18 17 18 18 18 18 18 18 19 19 18 18 18 18 19 19 20 20 20 20 20 19 19 19 19
23 23 23 22 23 24 24 24 24 24 24 25 25 25 25 25 23 21 21 21 21 21 20 20 20 20 19 19 19 20 21 21 20 19 18 17 17 18 18 19 19 19 18 18 19 19 18 18 18 18 18 19 19 20 20 20 20 19 19 19 18 19 19
22 23 22 22 22 22 23 23 22 22 23 24 25 26 26 24 22 21 20 20 20 20 20 20 20 20 20 20 20 21 21 20 18 18 17 17 17 18 18 18 18 18 18 19 19 19 19 18 18 18 18 19 20 19 20 20 19 19 18 18 18 18 18
22 22 21 20 20 22 22 21 19 20 22 24 25 25 24 23 22 20 20 20 20 20 20 20 20 20 20 20 20 20 20 19 18 18 18 18 18 18 18 18 18 19 19 19 19 19 19 19 18 17 17 18 18 18 18 18 18 18 17 17 18 18 18
21 21 20 19 20 23 24 22 21 21 22 22 23 23 23 23 22 20 20 20 21 21 21 20 20 20 20 20 19 19 19 19 19 18 18 19 19 19 18 18 19 19 19 19 19 18 19 19 17 16 17 17 17 17 17 17 17 17 17 18 18 18 18
22 20 19 19 20 23 24 23 22 21 21 21 21 21 22 23 23 22 20 20 21 21 21 21 20 20 19 19 19 19 19 19 19 18 19 19 19 19 19 19 19 19 19 19 18 17 18 17 16 16 16 16 16 16 16 16 17 17 18 18 18 18 17
24 21 20 21 22 23 25 24 21 20 20 20 20 21 22 22 23 22 21 21 21 21 21 20 20 19 19 19 19 19 19 19 19 19 19 19 19 19 19 19 19 19 19 19 19 18 17 17 16 16 15 15 16 17 17 17 18 18 18 18 18 17 16
22 20 20 21 22 24 25 23 20 19 19 19 20 21 21 21 22 22 21 21 21 21 20 19 19 19 19 19 19 19 20 20 20 20 20 20 20 20 20 20 20 20 20 20 20 19 18 17 16 16 16 16 17 17 17 18 18 18 18 18 17 16 15
19 18 18 19 21 23 23 21 20 19 19 19 19 20 21 21 21 21 21 21 20 20 19 19 19 19 19 19 20 19 20 20 20 20 20 21 21 20 20 19 19 19 20 20 20 19 18 17 17 18 18 18 18 18 18 18 19 19 18 17 16 15 14
17 17 18 19 20 21 21 21 20 19 18 18 19 20 21 21 21 20 21 20 20 20 20 20 20 19 19 19 19 19 19 20 20 20 20 20 19 18 17 16 16 17 17 18 18 17 17 18 19 20 20 19 19 19 19 19 19 18 17 16 15 14 13
17 18 18 19 19 20 19 19 19 18 17 18 19 20 20 20 19 20 20 20 20 21 21 21 20 19 18 18 18 18 19 20 19 19 19 18 16 16 16 16 16 16 16 16 17 17 17 18 19 19 19 19 19 19 19 18 18 17 16 15 14 13 13
18 18 18 18 18 18 17 17 17 17 17 18 19 19 19 19 19 19 20 20 21 21 21 20 20 18 18 18 18 18 18 19 19 19 19 17 16 16 17 17 16 15 14 15 15 16 17 17 17 18 18 19 19 18 18 18 17 16 15 14 14 13 13

ECMWFFLT1_925_temp_003.txt.gz
Temp
30 29 29 29 28 28 28 27 27 27 26 26 26 25 25 25 25 24 24 24 25 24 24 24 24 24 24 23 23 24 24 24 25 25 24 24 24 24 24 23 23 23 23 23 22 22 22 22 21 21 21 21 20 20 20 20 20 20 20 20 20 20 20
30 30 30 29 28 28 28 28 28 27 27 26 26 26 25 25 25 25 25 25 25 25 25 24 24 24 24 24 23 24 24 24 24 25 24 24 24 24 24 24 23 23 23 23 23 22 22 22 21 21 21 21 20 20 20 20 20 20 20 20 20 20 20
30 30 30 29 29 28 28 28 28 28 27 27 26 26 26 25 25 25 25 25 25 25 25 24 24 24 23 23 23 24 24 24 24 25 25 25 25 24 24 24 23 23 23 23 23 22 22 22 21 21 21 21 20 20 20 20 20 20 20 20 20 20 20
30 30 30 29 29 28 28 28 28 28 28 27 27 26 26 25 25 26 25 25 25 25 25 25 24 24 23 23 23 23 24 24 24 25 25 25 25 25 24 24 23 23 23 23 23 22 22 22 21 21 21 21 21 21 20 20 20 20 20 20 20 20 20
30 30 29 29 29 28 28 28 28 28 28 28 27 26 26 26 26 26 25 25 25 25 25 25 24 24 23 23 23 23 24 24 25 25 25 25 25 24 24 24 24 23 23 23 23 22 22 22 21 21 21 21 21 21 21 20 20 20 20 20 20 20 20
30 29 29 29 29 29 28 28 29 29 28 28 28 27 26 26 26 26 26 25 25 25 25 25 24 24 24 24 24 24 24 25 25 25 26 26 25 24 24 24 24 24 23 23 23 22 22 22 21 21 21 21 21 21 21 20 20 20 20 20 20 20 20
30 29 29 29 29 29 29 29 29 29 28 28 28 27 27 27 27 27 27 26 26 25 25 25 25 24 24 24 24 24 24 25 25 25 26 25 24 23 23 24 24 24 23 23 23 22 22 21 21 21 21 21 21 21 21 21 20 20 20 20 20 20 20
30 29 29 29 29 29 29 29 29 29 29 28 28 28 28 28 27 27 27 27 26 26 26 26 25 25 24 24 24 24 24 24 24 24 24 24 23 22 23 23 23 23 23 23 23 22 22 22 21 21 21 21 21 21 21 21 21 20 20 20 20 20 20
30 29 29 29 29 29 29 29 29 29 28 28 28 28 28 27 27 27 27 27 27 27 26 26 26 25 24 24 24 24 23 23 22 22 22 22 21 22 23 23 23 23 23 23 22 22 22 22 21 21 21 21 21 21 21 21 21 20 20 20 20 20 20
29 28 28 29 29 29 29 29 29 28 28 27 27 27 27 27 27 27 27 27 27 27 27 27 27 26 25 25 24 23 22 22 22 22 22 21 21 22 23 23 23 23 23 23 22 22 22 21 21 21 21 21 21 21 20 20 20 20 20 20 20 20 20
28 28 28 28 28 28 28 28 28 27 27 27 27 27 27 27 27 27 27 27 27 27 27 27 27 26 25 25 24 22 21 23 24 24 22 21 22 22 23 23 23 23 23 23 22 22 21 21 21 21 21 21 21 20 20 20 20 20 20 20 20 20 20
27 27 27 27 28 28 28 27 27 27 27 27 27 27 27 26 27 27 27 27 27 27 27 27 26 26 25 25 24 22 22 24 25 23 22 21 22 22 23 23 23 23 23 22 22 22 21 21 21 21 21 21 21 20 20 21 20 20 20 20 20 20 20
27 27 27 27 27 27 27 27 27 27 27 27 27 27 27 27 27 27 26 26 27 27 27 26 26 26 25 25 24 22 23 24 24 23 23 22 21 21 22 23 23 22 22 22 21 21 21 21 21 21 21 21 21 21 20 21 21 21 20 20 20 20 21
26 27 27 27 27 27 27 27 26 26 27 27 27 27 27 27 27 27 26 26 26 27 26 26 26 25 25 25 24 23 23 22 22 24 23 21 20 21 22 22 22 21 21 21 21 21 22 21 21 21 21 21 21 21 21 21 21 21 21 21 20 21 21
26 27 27 27 26 26 27 27 26 26 26 27 27 27 27 27 26 26 26 26 26 26 26 26 25 25 25 24 23 23 22 21 21 22 22 20 21 21 21 20 19 20 21 21 21 22 22 21 21 21 21 21 21 21 21 21 21 21 21 21 21 21 21
27 27 27 27 27 26 27 26 26 26 26 26 27 27 27 27 26 26 26 26 26 26 26 26 25 25 25 24 23 22 22 21 21 21 20 20 20 20 20 19 19 20 21 22 21 21 21 21 21 21 21 21 21 21 21 21 21 21 21 21 21 21 21
28 28 27 28 27 26 26 26 26 26 26 26 26 26 26 26 26 26 27 27 26 26 26 25 25 25 24 24 23 22 22 21 21 20 20 20 19 19 19 20 20 20 21 21 21 20 20 20 21 21 21 21 21 21 21 21 21 21 21 21 21 21 21
28 28 28 28 27 26 26 26 26 26 26 27 27 26 26 26 26 26 26 26 26 26 26 25 25 24 24 23 23 22 22 21 20 20 19 19 18 18 19 21 21 20 19 19 19 20 20 20 20 21 21 21 21 21 21 21 21 21 21 21 21 21 21
28 28 28 28 27 26 26 27 27 26 27 27 27 26 26 26 26 26 26 26 25 25 25 25 25 24 23 23 22 21 21 20 20 19 18 18 18 19 20 22 21 19 18 18 18 19 20 20 20 20 20 20 21 21 21 21 21 21 21 22 22 21 21
28 27 27 27 27 26 26 26 27 27 26 27 27 26 26 26 26 25 25 25 25 25 25 25 24 24 23 22 21 21 20 20 19 18 18 18 19 19 20 20 19 18 18 18 18 18 19 19 19 20 20 20 20 20 20 20 21 21 21 21 21 21 20
27 26 26 27 27 26 25 25 25 26 26 26 26 26 25 25 25 25 25 25 25 24 24 24 24 23 22 22 21 20 20 19 18 18 18 18 19 19 19 19 18 18 18 18 19 19 19 19 20 20 19 19 19 19 20 21 21 20 20 19 20 19 19
28 27 27 27 27 26 25 25 25 26 26 26 25 25 26 26 26 26 26 25 24 24 24 23 23 22 22 21 20 20 19 19 18 18 18 18 19 19 19 18 18 18 18 18 19 19 19 19 19 18 18 19 19 20 21 21 20 19 19 19 19 19 19
27 27 27 27 26 25 25 25 26 26 25 25 25 26 26 26 25 26 25 25 24 24 23 23 22 22 21 21 20 20 19 19 19 18 18 18 18 18 18 18 17 17 18 18 18 19 18 18 18 17 18 19 19 20 20 20 19 19 19 19 20 19 20
26 26 26 26 26 25 25 25 25 25 25 25 25 25 25 25 25 25 24 24 24 23 23 23 22 21 21 21 20 20 20 19 19 18 18 18 18 18 18 18 18 18 18 18 18 18 18 18 18 18 19 20 20 20 21 21 20 19 19 20 20 20 20
25 25 25 25 26 25 25 24 24 25 25 24 24 24 25 26 25 24 24 23 23 23 23 23 22 21 21 21 20 20 20 19 19 19 19 18 18 18 18 18 18 18 17 18 18 18 18 19 19 19 20 20 20 21 22 21 20 19 20 20 20 21 21
25 25 25 26 25 24 24 23 24 25 25 25 25 26 27 27 26 24 23 23 23 23 23 22 21 21 21 20 20 20 20 20 20 19 19 19 19 19 18 18 18 17 18 18 18 18 19 19 20 20 21 21 21 21 22 21 20 20 20 21 21 21 21
25 25 25 25 24 24 23 23 24 25 25 26 27 28 28 27 25 23 23 22 23 23 22 22 22 21 21 20 20 20 20 20 20 20 20 20 20 19 18 18 18 18 18 19 19 19 19 20 21 21 22 21 21 21 21 21 20 20 21 20 20 19 19
25 25 25 24 23 24 24 24 24 24 24 25 27 27 27 26 24 22 22 23 22 22 22 22 22 21 21 20 20 19 19 19 20 20 20 20 20 19 18 18 18 18 19 19 19 19 20 21 21 21 21 21 20 20 20 20 19 19 20 19 19 18 18
25 24 24 24 25 26 26 25 24 24 23 23 25 26 26 25 23 22 22 22 22 22 22 22 22 21 21 20 19 19 19 20 20 21 20 19 19 19 18 18 18 18 19 19 20 20 20 20 20 20 20 19 19 19 19 18 18 18 18 19 19 19 19
27 26 26 26 27 28 28 26 24 23 22 23 25 26 26 26 24 22 22 22 22 22 22 22 21 21 20 20 19 19 19 20 20 20 19 18 18 18 19 18 18 18 19 19 19 19 19 18 18 18 18 18 17 17 17 16 17 18 19 19 19 19 19
25 26 27 26 26 26 27 25 23 22 21 22 23 24 26 27 26 23 22 23 22 22 22 21 21 20 20 19 19 19 19 20 20 19 18 18 18 18 19 18 18 18 19 19 18 18 18 18 17 17 17 17 17 17 16 17 18 19 19 19 19 19 18
23 24 25 25 24 23 24 24 23 22 21 21 21 22 24 27 27 25 24 23 22 21 21 20 20 20 19 19 19 19 19 19 19 18 18 18 18 18 18 19 18 18 18 18 18 18 18 18 17 17 17 18 18 17 17 17 18 18 19 19 19 18 18
22 22 23 23 22 21 22 24 24 23 23 22 21 21 22 24 25 25 24 22 21 20 20 20 20 19 19 19 19 19 19 19 18 18 18 18 18 18 19 19 19 18 18 18 18 18 18 18 18 18 18 18 18 17 17 17 17 18 18 19 18 17 17
21 21 21 21 20 21 22 23 24 23 23 22 20 21 21 21 22 23 23 21 20 20 20 20 20 20 19 19 19 19 19 19 18 18 18 18 18 19 19 18 18 18 18 18 18 18 18 18 19 19 20 19 18 17 17 16 16 17 19 18 18 17 16
20 21 20 20 20 20 21 22 22 22 22 21 20 20 21 21 22 22 22 21 20 20 20 19 19 20 20 20 20 19 19 19 19 19 18 18 19 19 19 18 17 17 17 17 18 18 19 19 19 20 20 19 19 18 17 17 17 18 19 19 18 17 16
21 21 21 20 20 20 20 21 21 22 21 20 20 20 20 21 21 21 21 21 20 20 20 20 19 20 20 20 20 20 19 19 19 19 19 19 19 18 17 16 16 16 16 16 17 18 18 19 19 20 20 19 19 19 19 18 18 19 19 18 17 17 16
21 21 21 20 20 21 20 20 21 21 21 20 20 20 20 21 21 21 20 21 21 21 20 20 19 20 20 20 20 19 19 19 19 18 18 18 18 17 15 15 16 16 15 15 16 17 18 19 19 20 20 19 18 19 19 18 18 19 18 18 17 16 16
20 20 20 20 21 20 20 20 20 21 20 19 20 20 20 20 20 20 20 21 21 20 20 20 19 19 20 19 19 19 19 18 18 18 18 17 16 16 16 16 16 16 15 16 16 17 18 18 19 19 19 18 18 18 18 18 18 18 18 17 17 16 15

ECMWFFLT1_925_temp_006.txt.gz
Temp
35 34 34 33 33 33 32 32 32 32 31 30 30 29 29 29 28 28 28 27 27 27 26 26 25 25 25 25 25 25 25 25 25 25 25 25 25 25 25 25 25 24 25 25 24 24 24 23 23 23 22 22 22 22 21 21 21 21 21 21 21 21 21
36 35 34 34 33 33 32 32 32 32 31 30 30 29 30 29 28 28 28 27 27 27 27 26 26 25 25 25 25 25 25 25 25 25 25 25 25 25 25 25 25 24 24 24 24 24 23 23 23 23 22 22 22 21 21 21 21 21 21 21 21 21 21
36 35 35 34 33 33 32 32 32 32 32 31 31 30 30 29 28 28 28 28 27 27 27 26 26 26 25 25 25 25 25 25 25 25 25 26 25 25 25 25 25 25 24 24 24 23 23 23 23 22 22 22 22 21 21 21 21 21 21 21 21 21 21
35 36 35 34 34 33 33 32 32 32 32 32 31 30 30 29 28 28 28 28 28 27 27 27 26 26 26 25 25 25 25 25 25 25 25 26 25 25 25 25 24 24 24 24 23 23 23 23 22 22 22 22 22 22 21 21 21 21 21 21 21 21 21
36 35 35 35 34 33 33 33 33 33 33 33 32 31 30 29 28 28 28 28 28 28 27 27 27 26 26 26 25 25 25 25 25 25 25 26 25 25 25 25 25 25 24 24 23 23 23 23 23 22 22 22 22 22 21 21 21 21 21 21 21 21 21
36 35 35 35 34 34 33 33 34 34 33 33 32 31 30 30 29 30 29 28 28 28 28 27 27 27 26 26 26 25 25 25 25 25 25 25 25 25 25 25 25 25 24 24 23 23 23 23 23 22 22 22 22 22 22 21 21 21 21 21 21 21 21
37 36 35 35 35 34 34 34 35 35 34 34 33 31 31 31 31 31 31 30 29 29 28 28 28 27 26 26 26 25 25 25 25 25 25 25 25 25 24 25 25 24 24 24 23 23 23 23 22 22 22 22 22 22 22 21 21 21 21 21 21 21 21
37 36 35 35 34 34 34 34 35 35 34 34 33 32 32 32 32 32 32 31 30 30 30 29 29 27 26 26 26 25 25 25 25 25 25 25 25 24 24 25 25 24 24 23 23 23 23 22 22 22 21 22 22 21 21 21 21 21 21 21 21 21 21
37 35 35 35 35 35 35 34 35 35 34 33 33 33 32 32 33 32 32 32 32 31 31 31 30 28 27 26 26 25 25 25 25 25 25 25 24 24 25 25 24 24 24 24 23 23 23 23 22 22 22 21 21 21 21 21 21 21 21 21 21 21 21
36 35 34 35 35 35 35 34 34 34 33 33 32 32 32 32 32 33 33 33 33 32 32 32 31 29 27 26 26 25 25 25 25 25 25 25 25 25 25 25 24 24 24 24 23 23 23 23 22 22 22 21 21 21 21 20 20 21 21 21 21 21 21
35 34 33 34 34 34 34 34 34 33 32 32 31 32 32 32 32 32 32 33 33 33 32 32 32 31 28 27 27 26 25 25 25 25 25 25 25 25 25 25 24 24 24 23 23 23 23 23 22 22 21 21 21 21 20 20 20 20 21 21 21 21 21
33 32 32 32 33 33 33 33 32 32 31 31 31 31 31 31 31 32 32 32 33 33 33 32 32 31 29 28 28 26 25 25 25 25 25 25 25 25 25 25 24 24 23 23 23 23 23 22 22 21 21 21 21 21 20 20 20 20 21 21 21 21 21
32 32 31 32 32 32 32 32 31 31 31 31 31 31 31 31 31 31 31 31 32 33 33 32 32 32 30 29 29 27 26 26 26 26 25 25 24 24 24 24 23 23 23 23 23 23 22 22 22 22 21 20 20 20 20 20 20 20 20 21 21 21 21
32 32 31 31 31 31 31 31 30 30 30 31 31 30 30 30 31 31 31 31 31 32 32 32 31 31 30 30 29 27 26 26 25 25 24 23 23 23 23 23 23 23 24 24 24 23 22 22 22 22 21 20 20 20 21 20 20 20 20 20 20 21 21
33 33 32 32 31 31 31 30 30 30 30 30 31 30 31 30 30 30 30 30 31 31 32 31 30 30 30 29 29 27 25 26 25 23 21 21 22 22 23 23 23 24 24 24 24 23 22 22 23 23 21 20 20 20 21 21 20 20 20 20 20 20 20
35 34 33 33 31 31 31 30 30 30 29 30 31 31 30 30 30 30 30 30 30 30 31 30 29 29 29 28 28 26 25 25 24 21 20 20 21 22 23 24 24 25 24 24 22 21 21 22 23 22 21 20 19 19 20 21 21 21 20 20 20 20 20
36 35 35 34 32 31 31 30 30 30 29 30 30 30 30 30 30 30 30 31 30 30 30 30 29 28 28 28 27 26 25 25 23 20 20 21 21 22 23 23 24 24 24 23 22 21 22 22 22 21 20 19 19 19 19 20 21 21 21 21 21 20 21
36 35 35 34 33 31 31 31 30 30 30 30 30 30 30 30 30 30 31 31 31 30 30 29 29 28 28 28 27 25 25 24 22 20 20 20 21 22 23 23 23 23 23 23 22 22 21 21 21 20 19 19 19 20 20 20 21 21 21 21 21 21 21
35 35 34 33 32 31 31 31 31 30 30 31 31 30 30 30 30 30 30 30 30 30 30 29 29 28 28 27 26 24 24 24 22 20 20 20 21 21 22 22 22 22 22 22 22 21 21 20 19 19 19 19 20 20 20 21 21 21 21 21 21 21 20
34 34 33 32 32 32 31 31 31 31 31 31 31 31 30 30 30 29 29 29 29 29 29 28 28 28 27 26 25 24 24 24 22 20 20 20 20 21 21 21 21 21 21 21 21 21 20 19 19 19 19 19 20 20 20 20 20 21 21 21 21 20 20
33 33 32 32 32 31 30 30 31 31 31 31 31 30 30 30 29 29 29 29 28 28 28 28 28 28 27 26 25 24 24 23 22 21 20 20 20 20 20 21 21 21 21 21 20 20 20 19 19 19 19 19 20 20 20 19 20 20 21 20 20 20 20
34 33 32 32 31 30 30 30 31 30 31 31 30 30 30 30 30 30 30 29 28 27 27 27 27 27 26 25 24 24 24 23 22 21 21 20 20 20 20 20 21 21 21 21 21 20 20 20 20 19 20 20 19 19 19 19 20 20 20 20 20 20 20
34 33 33 33 32 31 30 30 31 30 30 30 30 31 31 31 31 31 30 29 28 27 27 27 27 26 25 25 24 24 23 22 22 22 22 21 21 21 21 21 21 21 21 21 21 21 20 20 20 20 20 19 19 19 19 19 20 20 20 20 20 20 21
32 32 33 33 32 31 30 29 30 30 29 30 31 31 31 31 31 30 30 29 28 27 27 27 26 26 25 25 24 23 23 22 22 22 22 22 22 22 22 21 21 21 21 21 21 21 21 21 20 19 19 18 18 19 19 19 20 20 20 20 20 21 21
31 31 32 32 31 30 30 30 30 30 30 31 31 31 31 30 30 29 29 28 27 27 27 26 26 26 25 25 24 23 23 22 22 22 22 22 22 22 22 22 22 21 21 21 21 20 20 20 20 20 19 19 19 19 19 19 20 20 20 20 21 22 21
31 31 31 32 31 30 29 29 29 30 30 30 30 29 29 29 28 28 28 27 27 27 27 26 26 25 25 25 24 23 23 23 22 22 22 22 22 21 22 22 22 21 21 21 21 21 20 20 20 20 20 20 20 20 20 20 20 20 21 22 22 22 21
30 31 31 31 30 29 29 29 30 31 31 29 28 28 28 28 28 27 27 27 27 28 27 26 25 25 25 25 24 23 23 22 22 22 22 22 22 21 22 23 22 21 21 21 22 22 21 21 21 21 21 21 21 21 20 21 21 21 22 22 21 21 20
30 30 30 30 29 30 31 31 31 31 29 28 27 28 28 28 27 27 27 27 28 28 26 25 25 24 24 24 24 24 23 23 22 22 22 22 22 22 22 22 21 20 20 21 22 22 21 21 21 22 22 22 22 21 21 21 21 21 21 20 19 19 19
30 30 30 30 30 31 32 31 30 30 29 28 28 28 28 28 27 27 27 28 27 26 25 24 24 24 24 24 23 23 23 23 22 22 22 22 22 22 21 21 20 20 20 21 21 21 21 21 21 22 22 22 22 21 21 20 19 19 19 19 18 19 19
31 31 31 32 32 32 31 29 29 29 28 28 28 28 28 28 27 27 27 27 26 25 24 24 24 23 23 23 23 22 23 22 22 22 21 21 21 21 20 20 20 20 20 21 21 21 21 21 21 22 22 22 22 21 20 19 19 19 19 19 19 19 19
31 32 32 32 32 32 31 29 28 28 27 27 27 27 27 27 26 26 26 25 24 24 24 23 23 23 23 23 22 22 22 22 21 21 21 21 21 21 21 20 21 21 20 21 21 21 21 22 22 22 22 22 22 21 20 19 19 19 19 19 19 19 18
29 30 31 30 30 30 31 30 29 28 27 26 26 26 26 26 26 25 24 23 23 23 23 23 23 23 23 22 22 22 22 21 21 21 21 21 21 21 21 21 21 21 21 21 21 21 22 22 22 22 22 22 22 21 20 19 19 18 19 19 18 18 17
27 27 28 27 27 28 29 30 29 29 28 27 26 27 27 26 26 24 23 23 23 23 23 23 23 23 23 22 22 22 22 22 22 21 21 21 21 21 21 21 21 21 21 21 22 22 22 22 22 22 22 22 22 21 20 19 19 19 19 18 17 17 16
25 26 26 26 26 26 28 29 29 29 28 27 26 27 27 27 26 24 24 24 24 23 23 23 23 23 23 23 22 22 22 22 22 22 21 22 22 22 22 21 22 22 22 22 22 22 21 21 22 22 22 22 22 21 20 20 19 19 19 18 18 17 17
25 25 25 25 25 25 26 27 27 28 27 26 26 26 26 25 25 24 24 24 24 24 23 23 23 24 24 23 23 23 22 22 22 22 22 22 21 21 21 21 21 21 21 21 21 21 21 21 22 22 22 22 22 21 20 20 20 19 19 19 19 19 19
25 25 25 24 24 24 25 25 26 26 26 25 25 25 25 25 25 25 25 25 24 24 23 23 24 24 24 24 24 23 23 23 23 22 22 22 21 19 19 19 19 20 20 19 19 20 20 20 20 21 21 22 22 21 21 20 20 20 19 19 19 19 19
25 25 25 25 24 24 24 24 25 25 25 24 25 25 25 25 25 25 25 24 24 23 23 23 24 25 25 25 25 24 23 23 23 23 22 22 22 20 19 18 18 18 18 18 18 18 18 19 19 20 20 20 20 20 20 20 20 19 19 19 19 19 18
24 25 25 25 25 24 24 24 24 24 24 24 24 24 24 24 24 24 24 24 23 23 23 23 24 25 25 25 25 23 23 23 24 23 22 22 22 21 20 20 19 17 17 17 17 17 18 18 19 19 20 19 19 19 20 19 18 18 19 19 19 18 17

ECMWFFLT1_925_temp_009.txt.gz
Temp
37 37 37 36 35 36 35 34 34 34 33 33 32 32 31 31 31 31 30 29 29 28 28 28 28 27 27 27 27 27 27 27 27 27 26 27 27 27 27 26 26 26 26 26 26 25 25 25 25 25 24 24 24 23 23 22 22 22 22 22 22 22 22
37 37 37 36 35 36 35 35 34 34 34 33 32 32 32 31 31 31 30 29 29 29 28 28 28 28 27 27 27 27 27 27 27 27 27 27 26 26 27 26 26 26 26 26 26 25 25 25 25 25 24 24 23 23 23 22 22 22 22 22 22 22 22
38 37 37 36 36 36 35 35 35 34 34 33 33 32 32 32 31 31 30 30 29 29 29 28 28 28 28 27 27 27 27 27 27 27 27 27 27 27 27 26 26 26 26 26 26 25 25 25 25 24 24 24 23 23 23 22 22 22 22 22 22 22 22
39 38 37 37 37 36 35 35 35 34 34 34 33 32 32 32 31 31 30 30 29 29 29 29 28 28 28 28 27 27 27 27 27 27 27 27 27 27 27 26 26 26 26 26 26 25 25 25 24 24 24 23 23 23 23 23 22 22 22 22 22 22 22
40 38 36 36 37 36 36 35 35 35 35 34 34 33 32 32 31 31 31 30 30 29 29 29 29 28 28 28 28 28 27 27 27 27 27 27 27 27 27 27 26 26 26 26 26 25 24 24 24 24 23 23 23 23 23 22 22 22 22 22 22 22 22
40 38 36 37 38 37 36 36 36 36 35 35 34 33 33 32 32 32 31 31 30 30 29 29 29 29 28 28 28 28 28 27 27 27 27 27 27 27 27 27 27 26 26 26 25 25 24 24 24 24 23 23 23 23 23 22 22 22 22 22 22 22 22
41 39 37 37 37 37 36 36 37 36 36 36 35 34 33 33 33 32 32 31 31 31 30 30 30 29 28 28 28 28 28 27 27 27 27 27 27 27 27 27 27 26 26 26 25 25 24 24 24 24 24 23 23 23 23 22 22 22 22 22 22 22 22
41 40 39 38 38 38 37 36 37 37 36 36 36 35 34 34 33 33 33 32 32 32 31 31 31 30 29 28 28 28 28 28 27 27 27 27 27 27 27 26 26 26 26 26 25 25 24 24 24 24 23 23 23 23 22 22 22 22 22 22 22 21 21
42 40 39 39 38 38 38 37 37 37 37 36 36 35 34 34 34 34 34 34 33 33 32 32 32 31 29 28 28 28 28 28 27 27 27 27 27 27 27 27 26 26 26 26 26 25 24 24 24 24 23 23 23 23 22 22 22 22 22 21 21 21 21
41 40 39 39 38 38 38 38 37 37 36 36 36 35 35 34 35 35 35 35 34 34 33 33 33 32 30 29 29 28 28 28 28 27 27 27 27 27 27 27 26 26 25 26 26 25 24 24 24 24 23 23 23 22 22 22 21 21 21 21 21 21 21
39 39 39 38 38 38 38 38 37 36 36 35 35 35 35 34 35 35 35 35 35 35 34 34 34 33 31 29 29 29 28 28 28 28 27 28 28 28 27 27 26 25 25 26 26 25 24 24 24 24 23 22 22 22 22 21 21 21 21 21 21 21 21
38 38 37 37 37 37 38 37 36 36 35 35 35 36 35 34 35 36 35 35 36 36 35 34 34 34 32 30 30 29 28 28 28 28 28 28 28 28 28 27 26 26 26 26 25 25 25 25 24 24 23 22 22 22 21 21 21 20 21 21 21 21 21
38 37 36 36 36 36 36 36 36 35 35 35 35 35 35 35 35 36 36 35 36 36 36 35 35 34 33 31 31 30 29 28 28 28 28 28 27 27 28 27 27 27 27 26 25 25 25 25 24 23 22 23 23 22 21 21 20 20 20 21 22 22 21
37 36 36 35 35 35 35 35 35 35 34 35 35 35 35 35 35 36 36 35 36 36 36 36 35 34 33 32 31 30 29 29 28 28 28 28 27 27 28 27 26 27 26 26 25 25 25 25 24 23 22 23 23 22 21 21 20 20 20 21 21 22 22
38 37 36 35 35 35 35 34 34 34 34 34 34 34 34 34 34 35 35 35 35 36 36 36 35 34 34 33 31 30 29 29 28 27 27 27 27 27 27 26 26 26 26 26 26 26 25 25 24 23 23 23 23 21 21 21 20 21 21 21 21 22 22
39 38 38 37 36 34 34 34 34 33 33 33 33 33 34 34 34 34 34 35 35 36 36 35 34 34 34 33 32 30 29 28 27 27 26 26 26 27 27 26 26 26 27 27 26 25 25 24 24 23 23 22 22 21 21 21 21 21 21 21 21 21 22
41 40 40 40 38 35 34 34 33 33 32 32 33 33 33 33 33 34 34 34 35 35 36 35 34 33 33 33 32 30 29 27 26 26 26 26 26 26 26 26 26 26 26 26 25 24 24 23 23 23 23 22 21 21 21 21 21 21 21 21 21 21 21
41 41 41 40 38 36 34 33 33 32 32 32 33 33 33 33 33 33 34 34 34 35 35 35 34 33 32 32 31 29 28 25 24 25 25 25 25 25 25 25 26 26 25 24 24 23 23 22 22 22 22 22 21 21 21 21 21 21 21 21 21 21 21
40 40 41 39 37 36 35 34 34 33 33 33 33 33 33 33 33 33 34 34 34 34 34 34 33 32 31 31 30 28 26 24 24 24 24 25 25 25 25 25 25 25 24 24 23 22 22 22 22 22 22 22 22 22 22 22 21 21 21 21 22 21 21
40 40 40 39 37 37 36 35 35 34 33 33 33 33 33 33 33 33 33 33 33 33 34 33 32 31 30 30 29 27 25 23 24 24 24 24 24 24 24 24 24 24 24 23 23 22 22 22 22 21 21 21 22 22 22 22 22 21 21 22 22 21 20
40 40 39 38 37 38 36 35 35 34 34 34 34 34 33 33 33 33 33 33 33 32 32 32 31 30 30 30 29 26 24 23 24 24 24 24 24 24 24 24 24 24 23 24 23 23 22 22 22 21 21 21 21 22 22 22 22 22 21 22 22 21 20
41 40 38 37 37 36 35 35 35 35 34 34 34 34 33 33 33 33 34 33 32 32 32 31 30 29 29 29 28 26 24 23 23 24 24 23 24 24 24 24 24 24 23 24 24 23 23 22 22 22 21 21 21 22 22 22 22 22 21 21 21 20 20
41 40 39 38 37 36 35 35 35 35 34 34 34 34 34 33 33 33 33 33 32 31 31 30 30 29 29 29 28 27 25 24 23 23 23 23 24 24 24 24 24 24 24 23 24 24 24 23 23 22 22 22 22 22 22 22 21 21 21 21 20 20 20
40 39 39 38 37 36 35 34 35 34 33 34 34 34 33 33 33 33 33 32 31 30 30 30 30 29 29 28 27 26 26 24 23 23 23 23 23 23 23 24 23 23 23 23 24 24 24 24 23 23 23 22 22 22 22 21 21 20 20 21 21 20 20
38 39 38 37 37 36 34 34 34 33 33 34 34 33 33 33 33 32 32 31 30 30 30 30 29 29 28 28 27 26 25 25 24 23 23 23 23 23 23 23 23 23 23 23 23 23 23 23 23 23 22 22 22 22 21 21 20 19 20 21 21 20 20
37 37 37 37 37 36 34 33 33 33 33 33 33 33 33 33 33 32 31 30 30 30 30 29 29 28 28 27 27 26 25 25 25 24 24 23 23 23 23 23 23 23 22 22 23 23 22 22 22 22 22 21 21 21 20 20 20 20 20 20 20 20 20
36 36 36 36 36 34 33 32 32 33 33 33 33 33 33 32 32 31 30 30 30 30 30 29 28 27 27 27 26 26 26 25 25 25 25 24 24 24 24 23 23 23 22 23 23 23 23 22 22 22 22 21 21 21 20 20 20 20 20 20 20 20 20
35 35 36 36 34 33 32 32 32 33 33 33 33 32 32 31 30 30 29 29 30 30 29 28 27 27 26 26 26 26 25 25 25 25 24 24 24 24 23 24 24 24 24 24 25 24 23 23 22 22 22 22 22 22 21 21 20 20 20 20 20 20 20
34 34 34 33 32 32 32 32 32 33 32 32 32 31 31 30 29 29 29 30 30 29 29 28 27 27 26 26 25 25 25 24 24 24 23 23 23 24 24 25 25 24 24 24 24 24 23 23 23 23 23 23 22 22 22 21 21 21 21 21 21 21 21
33 33 33 32 32 33 33 32 32 32 31 31 31 31 30 29 29 29 30 30 29 29 28 27 27 27 26 26 25 25 24 24 23 23 23 23 23 24 25 24 23 23 22 22 23 23 23 23 23 23 23 23 23 23 22 21 20 21 21 21 21 21 20
32 32 33 33 33 33 32 32 32 32 32 32 32 31 30 29 29 29 29 29 28 28 27 27 26 26 26 25 25 24 24 23 23 23 23 23 23 24 24 23 22 22 22 22 23 23 23 22 23 23 23 24 24 23 23 21 20 20 20 20 20 19 19
33 33 33 33 32 32 32 32 32 32 31 31 30 30 30 29 29 28 28 27 27 26 26 26 26 25 25 25 25 24 24 24 24 24 24 24 24 24 23 22 22 22 22 22 23 23 22 23 23 23 23 24 24 24 23 21 20 19 18 18 18 18 18
31 32 32 32 32 32 32 31 31 30 30 30 30 30 30 29 28 27 26 26 26 26 25 25 25 25 25 25 25 24 24 24 24 24 24 24 23 23 22 22 23 23 22 23 23 23 23 23 23 24 24 24 24 24 23 22 21 19 18 18 18 18 18
28 29 30 31 32 32 32 32 31 31 31 31 31 31 30 29 28 26 26 26 26 26 25 25 25 25 25 25 25 25 25 24 24 24 25 24 24 23 23 23 24 24 23 23 24 24 23 23 24 24 24 24 24 24 23 21 21 20 20 19 19 18 18
27 27 28 29 30 30 31 31 30 30 30 30 30 30 29 28 27 27 27 27 26 26 25 25 25 25 25 25 25 25 25 24 24 24 25 24 23 22 22 23 23 24 23 22 23 23 23 23 23 24 24 24 24 24 22 21 21 21 21 20 20 19 18
27 27 28 28 28 28 29 29 29 28 28 28 28 28 28 28 28 28 28 28 27 26 25 25 26 26 26 26 26 25 25 25 25 25 25 24 23 21 20 21 22 22 22 21 21 22 22 22 22 22 22 23 23 23 23 22 22 22 21 20 19 19 19
28 28 28 27 27 27 27 27 27 27 27 27 27 28 28 28 28 28 28 27 26 26 25 26 26 27 27 27 27 26 25 25 25 25 25 25 24 22 21 20 20 20 20 21 21 21 21 21 21 21 21 21 21 22 22 22 22 21 21 20 19 19 18
27 28 28 27 27 26 26 26 26 26 26 26 27 27 27 27 27 27 27 26 26 26 25 26 27 27 27 27 26 25 25 26 26 25 25 25 24 23 22 21 20 19 19 19 20 20 20 20 20 20 20 20 20 21 21 21 20 20 20 19 19 18 18

ECMWFFLT1_925_temp_012.txt.gz
Temp
37 36 35 35 34 34 34 34 33 33 33 33 32 31 31 31 31 30 30 29 28 28 27 27 27 27 27 27 26 26 26 26 26 26 26 26 27 27 27 26 26 26 25 25 25 25 25 25 25 24 24 24 24 24 23 23 23 23 23 23 23 23 23
37 36 36 35 35 35 35 34 33 33 34 33 32 32 31 31 31 30 30 29 28 28 27 27 27 27 27 27 26 26 26 26 26 26 26 26 27 27 27 26 26 26 26 25 25 25 25 25 25 25 24 24 24 24 23 23 23 22 22 22 22 22 22
37 37 36 36 36 35 35 34 34 34 34 34 33 32 32 31 31 31 30 29 28 28 28 27 27 27 27 27 27 27 26 26 26 26 26 26 27 27 27 26 26 26 26 26 26 25 25 25 25 25 25 24 24 24 23 23 22 22 22 22 22 22 22
37 37 37 37 37 36 35 35 34 34 35 35 34 33 32 31 31 31 30 30 29 28 28 27 27 27 27 27 27 27 27 26 27 27 26 26 27 27 27 27 26 26 26 26 26 25 25 25 25 25 25 25 24 24 23 23 22 22 22 22 22 22 22
38 38 37 37 37 36 35 35 35 35 35 35 34 33 32 31 31 31 30 30 29 29 28 28 28 28 27 27 27 27 27 27 27 27 27 27 27 27 27 27 26 26 26 26 26 25 25 25 25 25 25 24 24 24 23 23 22 22 22 22 22 22 22
37 38 37 37 38 37 36 35 36 36 36 35 35 33 32 32 31 31 31 30 30 29 28 28 28 28 28 27 27 27 27 27 27 27 27 27 27 27 27 27 26 26 26 26 26 26 25 25 25 25 24 24 24 24 23 23 23 22 22 22 22 22 22
37 37 38 38 38 38 37 36 37 37 36 35 35 34 33 32 32 32 32 31 30 29 29 29 28 28 28 28 27 27 27 27 27 27 27 27 27 27 27 27 26 26 26 26 26 26 25 25 25 25 24 24 24 24 23 23 23 22 22 22 22 22 22
39 38 38 38 38 38 38 37 37 37 36 35 35 35 34 33 33 32 32 31 31 30 29 29 29 28 28 28 28 28 27 27 27 27 27 27 27 27 27 27 26 26 26 26 26 26 25 25 25 24 24 24 24 24 23 23 23 22 22 22 22 22 22
39 37 38 38 38 38 37 37 36 35 34 34 35 35 34 33 33 33 32 32 31 31 30 30 30 29 28 28 28 28 28 27 27 27 27 27 27 27 27 27 27 26 26 26 26 26 25 25 25 24 24 24 24 24 23 23 23 22 22 22 22 22 22
39 37 38 38 38 38 37 36 35 34 33 33 33 34 34 34 33 33 33 32 32 31 31 30 30 30 29 28 28 28 28 28 28 27 27 27 27 28 28 27 27 27 27 26 26 26 25 25 25 25 24 24 24 24 23 23 23 22 22 22 22 22 21
37 37 37 37 37 37 37 36 35 34 34 33 33 34 34 33 33 33 33 33 33 32 31 31 31 30 29 29 29 29 28 28 28 28 28 28 28 28 28 28 27 27 27 27 26 26 25 25 25 24 24 24 24 24 23 23 23 22 22 22 22 22 21
37 38 37 37 37 37 36 35 35 34 34 33 34 34 34 33 34 34 33 33 33 33 32 32 32 31 30 29 29 29 29 28 28 28 28 28 28 28 28 28 27 27 27 27 27 26 26 25 25 24 24 24 24 23 23 23 22 22 22 22 22 22 21
38 38 37 37 37 36 36 35 34 35 34 34 34 35 34 34 34 34 34 34 34 33 33 33 32 32 31 30 30 29 29 29 29 29 28 28 28 28 28 28 28 27 27 27 27 26 26 25 25 25 24 24 24 23 23 23 22 22 22 22 22 21 21
38 38 37 37 37 36 36 35 35 35 35 35 35 35 35 34 34 34 34 34 34 34 34 33 33 33 31 30 30 29 29 29 28 29 28 28 28 28 28 28 28 28 27 27 27 27 26 26 25 25 24 24 24 23 23 23 22 22 22 21 21 21 21
38 38 37 37 36 36 36 36 36 35 35 35 35 35 35 35 34 34 34 34 35 35 35 34 33 33 32 30 30 30 29 29 29 29 29 28 28 28 28 28 29 28 28 27 27 27 27 26 25 24 24 24 23 23 23 23 22 22 21 21 21 21 21
39 39 38 36 36 36 36 36 36 35 35 35 35 35 35 35 34 34 34 35 35 35 35 34 33 33 32 31 31 30 30 29 29 29 29 28 28 28 28 28 28 28 28 27 27 27 27 26 25 24 24 24 23 23 23 22 22 21 21 21 22 21 21
41 41 39 37 36 35 35 35 35 35 34 34 34 34 35 35 34 34 35 35 35 35 36 35 34 33 33 32 31 30 30 29 29 29 28 28 28 28 28 28 28 28 28 27 27 27 27 26 25 24 24 23 23 22 22 22 22 21 21 22 22 22 21
41 40 39 38 37 35 35 35 34 34 34 34 34 34 34 34 34 34 35 36 36 36 36 35 34 33 33 33 32 31 30 29 29 29 28 28 28 28 28 28 28 28 27 27 27 26 26 25 25 24 24 23 23 22 22 22 22 22 21 21 22 22 21
40 40 40 38 37 36 35 35 34 34 34 35 34 35 35 35 34 34 35 35 36 36 36 36 34 33 33 33 32 31 30 29 29 28 28 28 28 28 27 27 27 27 27 26 26 25 25 24 24 24 24 23 23 23 22 22 22 22 21 21 22 22 21
40 40 40 39 37 36 35 35 35 34 34 34 34 34 35 34 34 34 34 35 35 35 36 36 35 33 33 32 32 31 30 29 29 28 28 27 27 27 27 27 27 26 26 26 25 25 24 24 24 24 24 24 23 23 23 22 22 22 21 21 22 22 22
39 39 40 40 38 36 35 35 34 34 34 34 34 34 34 34 34 34 34 35 35 35 35 35 34 33 33 32 31 30 28 28 28 28 27 27 26 26 26 27 26 26 25 25 25 24 24 24 23 23 23 23 23 23 22 22 22 22 21 21 22 23 22
40 40 40 40 39 37 36 35 35 34 34 34 34 34 34 34 34 34 34 35 35 34 34 35 34 33 32 30 29 28 27 27 27 27 26 26 26 26 26 26 26 25 25 25 25 24 24 23 23 23 23 23 23 22 22 22 22 22 22 21 22 22 22
40 40 40 41 40 38 36 35 36 35 34 34 34 34 34 34 34 34 34 34 34 34 34 33 33 32 30 28 27 26 27 27 26 26 26 26 25 25 25 25 25 25 25 25 25 25 24 23 23 23 22 22 22 22 22 22 23 22 22 22 22 22 22
40 40 40 41 40 39 36 35 36 36 34 34 35 34 34 34 34 34 33 34 34 33 33 32 31 31 30 28 26 26 26 26 26 26 26 25 25 25 25 25 25 25 25 24 25 25 24 24 24 23 22 22 22 22 22 22 23 22 22 22 21 22 21
40 40 40 41 41 40 37 35 36 35 35 35 34 35 34 34 34 33 33 33 33 33 32 31 30 30 30 28 26 25 25 26 26 26 26 25 25 25 25 25 24 24 24 24 24 24 24 25 24 24 23 23 22 22 22 22 22 22 22 22 21 21 21
39 40 40 40 41 39 36 35 35 35 35 35 34 35 34 34 33 33 33 33 33 32 32 31 30 30 29 27 26 25 25 26 26 25 25 25 24 25 24 24 24 24 24 24 24 24 24 24 24 24 23 23 23 22 22 22 22 21 21 21 21 21 21
36 38 40 41 39 38 35 34 34 35 35 35 34 34 34 33 33 33 32 32 32 32 32 31 30 30 29 27 26 25 25 25 25 25 24 24 24 24 24 24 24 24 23 24 24 24 24 24 24 24 23 23 23 22 22 22 22 21 21 21 20 20 20
36 36 38 39 38 36 35 34 34 35 35 34 34 34 34 33 33 32 32 31 31 31 31 31 30 29 28 27 26 25 25 25 25 25 24 24 24 24 24 24 24 23 23 24 24 23 23 23 23 23 23 23 23 22 22 21 21 21 21 20 20 20 20
35 34 35 37 36 35 35 34 33 34 34 34 34 34 34 33 32 31 31 31 31 31 31 30 29 28 27 27 27 26 26 25 25 24 24 23 24 24 24 23 23 23 23 24 24 23 23 23 23 23 23 22 22 22 22 21 21 21 21 20 20 19 19
33 33 34 35 35 35 34 33 33 33 34 34 34 34 33 32 31 30 30 30 30 30 29 29 28 27 27 27 26 26 26 25 24 24 24 23 23 24 23 23 23 23 23 24 24 23 23 23 23 23 23 23 22 22 22 22 21 21 21 21 20 20 19
33 33 33 34 35 34 33 33 33 33 33 33 33 32 32 31 30 29 30 29 29 28 28 27 27 27 26 26 26 25 25 25 24 24 24 24 24 23 23 23 23 23 23 23 24 23 23 23 23 23 23 23 23 23 22 21 21 21 21 21 21 20 20
30 31 31 32 33 33 33 33 33 33 33 32 31 30 30 30 29 29 29 28 28 27 27 26 26 26 26 25 25 25 24 24 23 23 24 24 23 23 23 23 23 23 23 23 23 23 23 23 23 23 23 23 23 23 22 21 20 21 21 21 21 20 20
25 26 25 26 28 31 33 32 32 33 32 30 30 30 30 29 29 28 28 28 27 27 26 26 26 25 25 25 25 24 24 24 24 24 23 23 24 24 23 23 23 22 23 23 23 23 23 23 23 23 23 23 24 23 22 20 20 20 20 20 20 20 19
23 23 22 23 27 30 31 31 31 31 30 29 30 29 29 28 28 27 28 28 27 26 26 25 25 25 25 24 24 24 24 24 24 24 24 24 24 24 23 23 23 23 22 23 23 23 23 23 23 23 23 24 24 23 22 20 20 20 20 20 20 19 19
23 22 22 25 28 29 30 30 30 30 30 29 29 28 27 27 27 27 27 27 26 26 26 25 25 25 25 24 24 24 24 24 24 24 24 23 22 22 22 22 23 23 22 22 23 23 23 23 23 24 24 24 24 24 22 21 20 20 21 21 20 20 19
24 24 25 27 28 28 29 29 29 29 29 29 28 28 27 27 28 28 28 27 26 26 25 25 26 26 26 26 25 25 25 25 25 25 24 22 21 21 21 21 22 22 22 22 22 23 23 23 23 23 23 23 24 24 23 22 21 21 21 21 20 19 19
23 25 27 27 27 27 27 27 28 28 28 28 28 28 28 28 29 28 27 26 26 25 25 26 26 26 26 26 26 26 25 25 25 25 23 22 21 21 20 20 20 21 21 22 22 22 22 23 22 22 22 22 23 23 23 22 22 21 21 20 20 19 19
22 24 26 27 27 26 26 27 27 28 28 28 29 29 29 29 29 28 27 26 26 26 26 26 26 27 27 27 26 25 25 25 25 25 23 22 21 21 21 20 19 19 19 20 21 21 22 22 22 22 22 22 22 23 23 22 22 22 21 20 20 19 19

ECMWFFLT1_925_temp_015.txt.gz
Temp
36 36 35 35 34 34 33 32 32 31 31 30 30 30 30 29 29 29 28 27 27 26 26 26 26 26 26 25 25 25 25 25 25 25 26 26 26 26 26 26 26 25 25 25 24 24 24 24 23 23 24 23 23 24 24 24 24 24 23 23 23 23 23
36 35 35 34 34 33 33 32 31 31 31 30 30 30 30 30 29 29 28 27 27 26 26 26 26 26 26 25 25 25 25 25 25 25 26 26 26 26 26 26 26 25 25 25 25 24 24 24 23 23 24 23 24 24 24 23 24 23 23 23 23 22 23
36 35 35 34 34 33 33 32 31 31 31 31 30 30 30 30 29 29 28 27 27 27 26 26 26 26 26 25 25 25 25 25 25 25 26 26 26 26 26 26 26 25 25 25 25 24 24 24 24 24 24 24 24 24 24 23 23 23 23 23 23 22 22
36 36 35 34 34 33 33 33 32 31 31 31 31 30 30 30 30 29 29 28 27 27 26 26 26 26 26 26 25 25 25 25 25 26 26 26 26 26 26 26 26 25 25 25 25 25 25 24 24 24 24 24 24 24 24 23 23 23 23 23 23 22 22
36 35 35 34 34 33 33 33 32 31 31 32 31 30 30 30 30 29 29 28 28 27 27 26 26 26 26 26 26 25 25 25 25 26 26 26 26 26 26 26 26 25 25 25 25 25 25 25 24 24 24 24 24 24 23 23 23 23 22 22 22 22 22
36 35 35 34 34 33 33 33 32 32 32 32 32 31 30 30 30 30 29 28 28 27 27 27 26 26 26 26 26 25 25 25 25 26 26 26 26 26 26 26 26 26 25 25 25 25 25 25 24 24 24 24 24 24 23 23 23 23 22 22 22 22 22
36 35 35 34 34 34 33 33 33 33 32 33 32 31 31 30 30 30 29 29 28 28 27 27 27 26 26 26 26 26 25 25 26 26 26 26 26 26 26 26 26 26 25 25 25 25 25 25 25 24 24 24 24 24 23 23 23 23 22 22 22 22 22
36 35 35 35 34 34 34 33 33 33 33 33 32 31 31 31 30 30 30 29 28 28 27 27 27 26 26 26 26 26 26 26 26 26 26 26 26 26 26 26 26 26 26 25 25 25 25 25 25 25 24 24 24 24 23 23 23 23 22 22 22 22 22
36 36 35 35 35 35 35 34 33 33 32 33 32 31 31 31 31 30 30 30 29 28 28 28 27 27 27 26 26 26 26 26 26 26 26 26 26 26 26 26 26 26 26 26 25 25 25 25 25 25 25 24 24 24 24 23 23 23 22 22 22 22 22
36 36 35 35 35 35 35 34 34 33 32 32 32 31 31 31 31 31 31 30 30 29 28 28 28 27 27 26 26 26 26 26 26 26 26 26 26 26 26 26 26 26 26 26 26 25 25 25 25 25 25 24 24 24 23 23 23 23 22 22 22 22 22
36 36 35 35 35 35 35 34 34 33 33 32 31 31 31 31 31 31 31 31 30 30 29 28 28 28 27 27 26 26 26 26 26 26 26 26 26 26 26 26 26 26 26 26 26 25 25 25 25 25 24 24 24 24 23 23 23 23 22 22 22 22 22
35 36 35 35 35 35 34 34 33 33 32 31 31 32 31 31 31 31 31 31 31 30 30 29 29 28 27 27 27 26 26 26 26 26 26 26 26 26 26 26 26 26 26 26 26 25 25 25 25 24 24 24 24 24 23 23 23 23 22 22 22 22 22
34 35 35 35 35 34 34 34 33 32 32 30 31 31 31 31 31 31 31 31 31 31 30 29 29 29 28 27 27 27 26 26 26 26 26 26 26 26 26 26 26 26 26 26 26 25 25 25 25 25 24 24 24 24 23 23 23 23 22 22 22 22 22
34 35 35 35 34 34 34 33 32 32 31 30 31 31 31 31 31 32 31 31 31 31 30 30 29 29 28 28 27 27 27 27 26 26 26 26 26 26 26 26 26 26 26 26 26 26 25 25 25 24 24 24 24 23 23 23 23 22 22 22 22 22 22
34 34 34 34 34 33 33 33 32 32 31 31 31 31 31 31 31 32 31 31 32 31 31 30 30 29 29 28 28 27 27 27 27 27 27 26 26 26 27 27 27 27 26 26 26 26 26 25 25 24 24 24 24 23 23 23 23 22 22 22 22 22 22
35 35 35 34 34 33 33 33 32 31 31 31 31 30 31 31 31 31 31 31 32 31 31 31 30 30 29 28 28 28 27 27 27 27 27 27 27 27 27 27 27 27 27 26 26 26 26 25 25 24 24 24 23 23 23 23 23 22 22 22 22 22 22
35 35 35 34 34 33 33 33 32 31 31 31 31 31 31 31 31 32 32 32 32 32 32 31 30 30 29 29 28 28 28 27 27 27 27 27 27 27 27 27 27 27 27 27 26 26 26 26 25 25 24 24 23 23 23 23 22 22 22 22 22 22 22
36 36 36 35 34 34 33 33 32 32 32 32 31 31 31 32 31 32 32 32 32 32 32 31 31 30 30 29 29 28 28 28 27 27 27 27 27 27 27 27 27 27 27 26 26 26 26 26 25 25 24 24 23 23 23 23 22 22 22 22 22 22 22
36 35 35 35 35 34 34 33 33 33 33 32 32 32 32 32 32 32 32 32 32 32 32 32 31 30 30 30 29 28 28 28 28 27 27 27 27 27 27 27 26 27 27 26 26 26 26 26 26 25 25 24 23 23 23 23 22 22 22 22 22 22 21
37 36 35 35 35 34 34 33 33 33 32 32 33 33 33 33 32 32 32 33 32 33 32 32 32 31 30 30 29 29 28 28 28 27 27 27 27 27 27 26 26 26 26 27 26 26 26 26 26 25 25 24 24 23 23 23 22 22 22 22 22 22 21
38 36 35 35 35 34 34 34 34 33 32 32 33 33 33 33 33 32 33 33 33 32 33 33 32 31 31 30 30 29 28 28 28 27 27 27 27 27 27 26 26 26 26 27 27 26 26 26 25 25 24 24 24 23 23 22 22 22 22 22 21 21 21
38 37 36 35 34 34 33 33 33 33 32 32 33 33 33 33 33 33 33 33 33 32 33 33 32 31 31 30 30 29 29 28 28 27 27 27 27 27 26 26 26 26 27 27 26 26 26 25 25 24 24 24 23 23 22 22 22 22 22 21 21 21 21
38 38 38 37 34 33 33 32 32 33 32 33 33 33 33 33 33 33 33 33 33 32 32 32 32 31 31 30 30 30 29 28 28 27 27 27 27 26 26 26 26 26 27 26 25 25 25 25 25 24 24 23 23 23 22 22 22 22 22 22 22 21 21
39 39 39 38 36 33 32 32 33 33 33 33 33 33 34 34 33 33 33 33 33 32 32 32 32 31 31 30 31 30 29 29 28 28 27 27 27 26 26 26 26 26 26 26 25 25 24 24 24 24 24 23 23 23 23 22 22 22 22 22 22 22 22
38 38 38 38 36 34 32 32 33 33 32 32 32 33 33 33 33 33 32 32 33 32 32 32 32 32 31 31 31 30 29 29 28 27 27 27 26 26 26 26 26 26 25 25 25 24 24 24 24 23 23 23 23 23 23 23 22 22 22 22 22 22 22
36 37 37 37 35 34 33 33 33 33 32 32 32 33 33 33 32 32 31 32 32 32 32 32 32 32 31 31 30 29 29 28 28 27 27 26 26 26 26 26 26 25 25 25 25 24 24 24 23 23 23 23 23 23 23 22 22 22 22 22 22 22 22
34 35 35 35 35 35 33 32 33 33 32 32 33 33 32 32 32 31 31 31 31 32 32 32 32 32 30 29 29 28 28 28 27 27 26 26 26 26 25 25 25 25 25 24 24 24 24 23 23 23 22 23 23 23 22 22 22 22 22 22 22 22 21
34 34 33 33 34 34 32 31 32 32 33 33 32 32 32 32 31 30 30 30 31 32 32 32 31 30 28 27 27 27 27 27 26 26 26 25 25 25 25 25 25 24 24 24 24 24 24 23 23 22 22 22 22 22 22 22 22 22 22 22 22 21 21
30 32 33 33 33 33 32 32 32 31 32 32 32 32 32 31 30 30 30 30 31 32 32 31 30 28 27 26 26 26 26 26 25 25 25 25 25 25 24 24 24 24 24 24 23 24 24 23 23 23 22 22 22 22 22 22 22 22 22 21 21 21 21
25 27 29 32 33 33 33 32 31 31 32 32 32 32 32 31 30 29 29 30 31 31 30 29 27 26 26 25 25 25 25 25 25 25 24 24 24 24 24 23 23 23 23 23 23 23 23 23 23 23 22 22 22 22 22 21 21 21 21 21 21 21 20
23 23 25 26 29 31 32 32 31 30 30 30 31 31 32 32 30 29 29 30 31 30 28 27 26 25 25 25 24 24 24 24 24 24 24 24 24 23 23 23 23 23 23 23 23 23 23 22 23 22 22 22 22 22 21 21 21 21 21 21 20 20 20
21 22 22 23 24 26 28 30 30 27 26 26 27 26 27 29 30 30 29 29 29 28 27 26 25 25 24 24 24 24 23 23 23 23 23 23 23 23 23 23 23 23 23 23 23 22 22 22 22 22 22 22 22 21 21 21 21 21 21 20 19 19 19
21 21 21 21 22 22 23 25 26 26 25 24 23 23 23 24 27 29 28 28 28 27 26 26 25 24 24 23 23 23 23 23 23 23 23 23 23 23 23 23 23 23 23 22 22 22 22 22 22 22 22 21 21 21 21 20 21 21 21 20 20 19 19
20 20 21 21 21 21 21 22 23 24 23 21 21 22 23 22 23 25 26 26 25 25 24 23 23 22 22 22 21 22 22 22 23 23 22 22 22 22 22 23 23 23 23 22 22 22 22 22 22 22 22 22 21 20 20 20 20 21 21 21 20 20 19
20 20 20 21 21 21 21 21 21 21 21 21 21 22 22 21 20 20 21 21 21 22 21 21 21 21 21 21 22 22 22 23 23 22 22 22 22 22 22 22 23 23 22 22 22 22 22 22 22 23 23 23 22 21 19 19 20 21 22 21 21 21 20
19 20 20 20 21 21 20 20 20 20 20 20 20 21 21 20 19 19 20 21 21 21 21 21 22 22 22 23 23 23 23 23 22 21 21 21 21 21 20 21 22 23 22 22 22 22 23 23 23 23 23 23 22 22 21 21 22 22 22 21 21 21 21
19 19 20 20 20 20 21 20 20 20 20 20 20 20 20 20 20 20 21 22 22 22 22 22 23 23 23 23 23 23 23 22 21 20 20 20 20 20 19 19 20 21 22 22 22 22 22 22 22 22 23 23 22 22 22 23 23 22 21 21 21 20 20
19 19 19 19 19 19 20 21 20 20 19 20 20 20 20 21 21 21 22 23 23 23 23 23 23 23 23 23 23 23 23 22 20 20 19 19 19 19 19 17 17 17 18 20 21 22 22 22 22 22 23 23 23 22 22 22 22 22 21 21 21 20 19

ECMWFFLT1_925_temp_021.txt.gz
Temp
31 31 31 30 30 30 30 29 29 29 28 28 28 28 27 27 27 26 26 25 25 25 25 24 24 24 24 24 24 24 24 24 24 24 24 24 24 23 23 23 23 23 23 24 24 24 24 24 24 24 23 23 23 23 23 23 23 23 23 23 22 22 22
31 31 31 31 30 30 30 29 29 29 29 29 28 28 28 27 27 26 26 26 25 25 25 25 24 24 24 24 24 24 24 24 24 24 24 24 23 23 23 23 24 23 23 24 24 24 24 24 24 24 23 23 23 23 23 23 23 23 23 22 22 22 22
31 31 31 31 31 30 30 30 29 29 29 29 29 28 28 28 27 27 26 26 25 25 25 25 24 24 24 24 24 24 24 24 24 24 24 24 24 23 23 24 24 23 23 24 24 24 24 24 24 24 23 23 23 23 23 23 23 23 23 23 22 23 23
31 32 32 31 31 30 30 30 29 29 29 29 29 29 28 28 28 27 27 26 26 25 25 25 25 24 24 24 24 24 24 24 24 24 24 24 24 24 23 23 23 23 23 23 24 24 24 24 24 23 23 23 23 23 23 23 23 23 23 23 23 23 23
31 32 32 31 31 31 30 30 30 29 30 30 30 29 29 28 28 27 27 26 26 26 25 25 25 25 24 24 24 24 24 24 24 24 24 24 24 24 24 24 24 23 23 23 23 24 24 24 24 23 23 23 23 23 23 23 23 23 23 22 23 23 23
31 31 32 32 31 31 31 31 30 30 30 30 30 29 29 28 28 27 27 26 26 26 26 25 25 25 25 24 24 24 24 24 24 24 24 24 24 23 24 24 24 23 23 23 23 23 24 24 24 24 23 23 23 23 23 23 23 23 22 22 23 23 23
32 32 32 32 32 32 31 31 31 30 30 30 30 30 29 29 28 28 27 27 26 26 25 25 25 25 25 24 24 24 24 24 24 24 24 24 23 23 24 24 24 24 23 23 23 23 24 24 24 24 24 23 23 23 23 23 23 23 22 23 23 23 23
33 32 32 32 32 32 32 32 31 31 30 30 30 30 29 29 28 28 27 27 26 26 26 25 25 25 25 25 24 24 24 24 24 24 24 23 23 23 23 24 24 24 23 23 23 23 23 24 24 24 24 23 23 23 23 23 23 22 22 23 23 23 23
33 33 33 32 32 32 32 32 32 31 30 30 30 30 29 29 29 28 28 27 27 26 26 26 25 25 25 25 24 24 24 24 24 24 24 23 23 23 23 23 24 23 23 23 23 23 23 24 24 24 24 23 23 23 23 23 23 22 22 22 22 23 23
34 33 33 33 32 32 32 32 32 31 30 30 29 29 29 29 29 28 28 28 27 27 26 26 26 25 25 25 25 24 24 24 24 24 24 23 23 23 23 23 23 23 23 23 23 23 23 23 24 23 23 23 23 23 23 23 23 22 22 22 22 22 23
33 33 33 33 32 32 32 32 32 31 30 29 29 29 29 29 29 28 28 28 27 27 27 26 26 25 25 25 25 24 24 24 24 24 24 23 23 23 23 23 23 23 23 23 23 23 23 23 23 23 23 23 23 23 23 23 23 22 22 22 22 22 23
33 33 33 33 32 32 32 32 31 31 30 29 28 29 29 28 29 28 28 28 28 27 27 26 26 26 25 25 25 24 24 24 24 24 24 24 24 23 23 23 23 23 23 23 23 23 23 23 23 23 23 23 23 23 23 23 23 23 22 22 22 22 22
33 33 33 32 33 32 32 32 31 30 30 29 29 29 29 28 29 28 28 28 28 28 27 27 26 26 25 25 25 25 24 24 24 24 24 24 24 24 23 23 23 23 23 23 23 23 23 23 23 23 23 23 23 23 23 23 23 23 22 22 22 22 22
33 33 33 32 32 32 32 31 31 30 30 29 29 29 29 28 29 29 28 28 28 28 27 27 26 26 26 25 25 25 25 24 24 24 24 24 24 24 23 23 23 23 23 23 23 23 23 23 23 23 22 22 22 22 22 22 22 22 22 22 22 22 22
33 33 33 33 32 32 32 31 31 30 30 29 28 28 28 28 28 28 28 28 28 28 27 27 27 26 26 25 25 25 25 25 24 24 24 24 24 24 23 23 23 23 23 23 23 23 23 23 23 23 22 22 22 22 22 22 22 22 22 22 22 22 22
33 33 33 33 33 32 31 31 31 30 29 29 29 28 28 28 28 28 28 28 28 28 28 27 27 26 26 26 25 25 25 25 24 24 24 24 24 24 23 23 23 23 23 23 23 23 23 23 23 23 22 22 22 22 22 22 22 22 22 22 22 22 21
33 33 33 33 33 32 31 31 31 30 29 29 28 28 28 28 28 28 28 28 28 28 28 27 27 26 26 26 26 25 25 25 25 24 24 24 24 24 23 23 23 23 23 23 23 23 23 23 23 23 22 22 22 22 22 22 22 22 22 22 22 22 22
32 32 33 33 32 31 31 31 30 29 29 29 28 28 28 28 28 28 28 28 28 28 28 27 27 27 26 26 26 25 25 25 25 24 24 24 24 24 24 23 23 23 23 23 23 23 23 23 23 23 23 22 22 22 22 22 22 22 22 22 22 22 22
32 32 32 33 32 31 30 30 30 30 29 29 28 28 29 29 28 28 28 28 28 28 28 28 27 27 26 26 26 25 25 25 25 24 24 24 24 24 24 23 23 23 23 23 23 23 23 23 23 23 23 23 22 22 22 22 22 22 22 22 22 22 22
30 30 31 31 32 31 31 30 30 29 29 29 29 29 29 29 29 29 29 29 28 28 28 28 27 27 27 26 26 26 25 25 25 25 24 24 24 24 24 23 23 23 23 23 23 23 23 23 23 23 23 23 23 22 22 22 22 22 22 22 22 22 22
30 31 31 31 31 31 30 30 30 30 29 29 29 30 29 29 29 29 29 29 28 28 28 28 28 27 27 27 26 26 26 25 25 25 24 24 24 24 24 24 23 23 23 23 23 23 23 23 23 23 23 23 23 22 22 22 22 22 22 22 22 22 22
28 29 30 31 31 30 29 29 29 29 29 29 29 29 29 29 30 29 29 29 29 28 28 28 28 27 27 27 26 26 26 25 25 25 25 24 24 24 24 24 24 23 23 23 23 23 23 23 23 23 23 23 23 22 22 22 22 22 22 22 22 22 22
25 25 26 27 28 29 29 29 29 29 28 29 29 29 30 30 30 29 29 29 28 28 28 28 28 28 27 27 27 26 26 26 25 25 25 24 24 24 24 24 24 23 23 23 23 23 23 23 23 23 23 23 23 23 22 22 22 22 22 22 22 22 22
22 23 23 23 25 26 26 28 30 30 29 29 28 29 30 30 30 29 29 28 28 28 28 28 28 28 27 27 27 27 26 26 26 25 25 24 24 24 24 24 24 24 24 23 23 23 23 23 23 23 23 23 23 23 23 22 22 22 22 22 22 22 22
21 22 22 22 23 23 23 25 29 30 30 29 28 29 29 29 29 29 28 28 28 28 27 27 28 28 28 28 28 27 27 26 26 26 25 25 25 24 24 24 24 24 24 24 23 23 23 23 23 23 23 23 23 23 23 23 22 22 22 22 22 22 22
20 21 21 21 21 21 21 23 26 28 29 28 29 29 29 29 29 28 28 28 28 27 28 28 28 28 28 28 28 27 27 27 26 26 25 25 25 25 24 24 24 24 24 24 24 24 23 23 23 23 23 23 23 23 23 23 23 22 23 23 22 22 22
19 19 20 20 20 21 20 21 23 25 27 29 30 30 29 29 28 27 28 28 27 27 28 29 29 29 28 28 28 27 27 27 26 26 26 25 25 25 25 25 24 24 24 24 24 23 23 23 23 23 23 23 23 23 23 23 23 23 23 23 23 23 22
19 19 19 19 20 20 20 20 21 22 24 27 29 29 29 29 28 28 27 27 27 28 29 29 29 29 29 28 28 28 27 27 27 26 26 26 25 25 25 25 24 24 24 24 23 23 23 23 23 23 22 22 22 22 22 23 23 23 23 23 23 22 22
19 19 19 19 19 19 19 20 21 20 22 24 27 29 30 28 27 27 27 27 28 29 29 29 29 29 29 28 28 28 28 27 27 27 26 26 26 25 25 25 25 24 24 24 23 23 23 23 22 22 21 21 21 22 22 22 23 23 23 23 23 22 22
19 19 19 19 19 19 19 19 19 20 22 24 25 27 29 29 28 26 26 27 29 29 29 29 29 29 29 28 28 28 28 27 27 27 26 26 26 25 25 25 24 24 24 24 23 23 22 22 21 21 21 20 20 20 21 21 22 23 23 23 23 22 22
18 18 19 19 18 18 19 19 19 19 21 24 25 25 26 27 27 26 26 28 29 29 29 29 29 29 29 28 28 28 28 27 27 27 26 26 26 25 25 25 24 24 24 23 23 22 22 21 21 20 20 20 19 19 19 19 20 22 23 22 22 22 21
18 18 18 18 18 18 18 18 19 18 19 22 24 25 25 25 25 26 27 29 29 29 28 29 29 29 28 28 28 28 28 27 27 27 26 26 26 25 25 25 24 24 23 23 22 22 21 20 20 20 19 19 19 18 18 18 19 21 22 22 22 22 21
17 17 17 18 18 18 18 18 19 19 19 19 21 22 24 25 25 25 26 27 28 29 29 29 29 28 28 28 28 28 27 27 27 26 26 26 26 25 25 25 24 23 23 22 22 21 20 20 20 19 19 19 19 18 18 18 19 21 22 21 21 21 21
17 17 17 18 18 18 18 18 18 19 19 19 19 19 20 22 24 24 25 25 26 27 28 29 28 28 28 28 27 27 27 27 26 26 26 25 25 25 24 24 23 23 22 22 22 21 20 19 20 19 19 19 19 18 18 18 19 21 21 21 22 21 21
17 17 17 18 18 18 18 18 19 19 19 19 19 19 19 20 21 22 23 24 24 25 26 27 27 27 27 27 26 26 26 26 26 26 25 25 24 24 24 23 23 23 22 23 22 22 21 21 21 20 19 19 19 19 18 17 19 21 22 22 22 21 21
17 17 17 18 18 18 18 18 19 19 19 19 19 19 19 19 19 20 21 22 23 24 24 24 25 25 25 25 25 25 25 25 25 25 24 23 23 22 22 22 22 22 22 22 22 22 23 23 23 21 20 20 20 20 21 21 21 22 22 22 21 21 21
17 17 18 18 18 18 18 18 19 19 19 19 19 19 19 19 19 19 19 20 21 22 23 23 23 23 23 23 23 23 24 24 23 23 22 22 22 21 19 19 19 20 21 21 21 22 22 22 22 22 21 21 21 21 22 23 23 23 22 21 21 21 21
17 17 18 18 18 18 18 18 18 18 19 19 19 19 20 19 19 18 19 19 19 20 21 21 21 21 22 22 22 22 22 22 22 21 20 20 20 19 18 17 17 17 18 19 20 20 20 20 21 21 22 23 22 22 21 22 23 22 21 21 21 20 20

ECMWFFLT1_925_temp_024.txt.gz
Temp
30 29 29 29 29 28 28 28 27 27 27 27 26 26 26 26 26 25 25 24 24 24 24 23 23 23 23 23 23 23 23 23 23 23 23 23 23 23 23 23 23 23 23 24 24 24 24 24 24 23 24 24 24 24 23 23 23 23 22 22 22 22 22
30 29 29 29 29 29 28 28 28 27 27 27 27 27 26 26 26 25 25 25 24 24 24 24 23 23 23 23 23 23 23 23 23 23 23 23 23 23 24 24 24 24 24 24 24 24 24 24 24 23 23 23 23 24 23 23 23 23 23 22 22 22 22
30 30 30 29 29 29 29 28 28 28 28 28 27 27 27 26 26 26 25 25 25 24 24 24 24 23 23 23 23 23 23 23 23 23 23 23 23 23 23 24 24 24 24 24 24 24 24 23 23 23 23 23 23 23 23 23 23 23 23 23 23 23 23
31 30 30 30 30 29 29 29 28 28 28 28 28 28 27 27 27 26 26 25 25 25 24 24 24 24 23 23 23 23 23 23 23 23 23 23 23 23 23 23 23 24 24 24 24 24 24 23 23 23 23 23 23 23 23 23 23 23 23 23 23 23 23
31 30 30 30 30 29 29 29 29 28 29 29 28 28 28 27 27 26 26 26 26 25 25 25 24 24 24 23 23 23 23 23 23 23 23 23 23 23 23 23 23 23 23 24 24 23 23 23 23 23 23 23 23 23 23 23 23 23 23 23 23 23 23
31 30 30 30 30 30 29 29 29 29 29 29 29 28 28 28 27 27 26 26 26 25 25 25 24 24 24 23 23 23 23 23 23 23 23 23 23 23 23 23 23 23 23 23 23 23 23 23 23 23 23 23 23 23 23 23 23 23 23 23 23 23 23
32 30 30 30 30 30 30 30 30 29 29 29 29 29 28 28 27 27 27 26 26 26 25 25 25 24 24 24 23 23 23 23 23 23 23 23 23 23 23 23 23 23 23 23 23 23 23 23 23 24 23 23 23 23 23 23 23 23 23 23 23 23 23
32 31 31 30 31 31 30 30 30 29 29 29 29 29 29 28 28 27 27 27 26 26 26 25 25 25 24 24 24 24 23 23 23 23 23 23 23 23 23 23 23 23 23 23 23 23 23 23 23 23 23 23 23 23 23 23 23 23 23 23 23 23 22
32 31 31 31 31 31 31 30 30 29 29 29 29 29 29 28 28 28 27 27 26 26 26 26 26 25 25 24 24 24 24 24 24 23 23 23 23 23 23 23 23 23 23 23 23 23 23 23 23 23 23 23 23 23 23 23 23 23 23 23 23 23 22
31 31 31 31 31 31 31 30 30 29 29 29 28 29 29 28 28 28 28 27 27 27 26 26 26 25 25 24 24 24 24 24 24 23 23 23 23 23 23 23 23 23 23 23 23 23 23 23 23 23 23 23 23 23 23 23 23 23 23 23 23 23 22
31 31 31 31 30 31 31 30 30 30 29 28 28 28 29 28 28 28 28 28 27 27 27 26 26 26 25 25 24 24 24 24 24 23 23 23 23 23 23 23 23 23 23 23 22 23 22 22 23 23 23 23 23 23 23 23 23 23 23 23 23 23 22
31 31 31 31 30 30 30 30 30 30 29 28 28 28 28 28 28 28 28 28 27 27 27 27 26 26 25 25 25 24 24 24 24 24 23 23 23 23 23 23 23 23 23 23 22 22 22 22 22 22 23 23 23 23 23 23 23 23 23 23 23 22 22
30 30 30 30 30 30 30 30 30 30 29 28 28 28 28 28 28 28 28 28 28 28 27 27 26 26 26 25 25 24 24 24 24 24 24 23 23 23 23 23 23 23 23 23 22 22 22 22 22 22 23 23 23 23 23 23 23 23 23 23 23 22 22
29 30 30 30 30 30 30 30 30 29 29 29 28 28 28 28 28 28 28 28 28 28 27 27 27 26 26 25 25 25 24 24 24 24 24 24 23 23 23 23 23 23 23 23 22 22 22 22 22 22 23 23 23 23 23 23 23 23 23 23 22 22 22
31 30 30 30 30 30 30 30 29 29 29 29 28 28 28 28 28 28 28 28 28 28 28 27 27 26 26 25 25 25 25 24 24 24 24 24 24 23 23 23 23 23 23 23 22 22 22 22 22 22 22 22 22 22 22 22 22 23 23 23 23 22 22
33 32 30 29 29 29 29 30 30 29 29 29 28 28 28 28 28 28 28 28 28 28 28 27 27 26 26 25 25 25 25 25 24 24 24 24 24 23 23 23 23 23 23 23 22 22 22 22 22 22 22 22 22 22 22 22 22 23 23 23 23 23 22
34 33 31 30 29 29 29 29 29 29 28 29 28 27 27 28 28 28 28 28 28 28 28 27 27 26 26 26 25 25 25 25 24 24 24 24 24 23 23 23 23 23 23 23 22 22 22 22 22 22 22 22 21 21 21 22 22 23 23 23 23 23 22
35 34 31 30 29 29 29 29 29 29 29 28 28 27 28 28 28 28 28 28 28 28 28 27 27 26 26 26 25 25 25 25 24 24 24 24 24 23 23 23 23 23 23 23 22 22 22 22 22 22 22 22 21 21 22 22 22 23 23 23 23 23 22
33 32 30 28 29 29 29 29 29 29 29 28 28 28 28 29 28 28 28 28 28 28 28 27 27 27 26 26 26 25 25 25 24 24 24 24 24 23 23 23 23 23 23 23 22 22 22 22 22 22 22 21 21 22 22 22 22 22 22 22 22 22 22
27 27 27 27 28 30 30 29 29 29 28 28 28 29 29 29 29 28 28 28 28 28 28 27 27 27 26 26 26 25 25 25 24 24 24 24 24 23 23 23 23 23 23 23 22 22 22 22 22 22 22 22 22 22 22 22 22 22 22 22 22 22 22
25 24 25 26 27 28 29 29 29 29 28 28 29 29 29 29 29 29 28 28 28 28 27 27 27 27 26 26 26 25 25 25 24 24 24 24 24 23 23 23 23 23 23 23 22 22 22 22 22 22 22 22 22 22 22 22 22 22 22 22 22 22 22
23 22 23 23 24 25 26 27 27 28 28 28 28 28 28 29 29 28 28 28 28 27 27 27 27 26 26 26 26 25 25 25 24 24 24 24 24 23 23 23 23 23 23 23 22 22 22 22 22 22 22 22 22 22 22 22 22 22 22 22 22 22 22
21 21 21 21 21 22 22 23 25 27 27 28 28 28 28 29 29 28 28 28 27 27 27 27 26 26 26 26 26 26 25 25 25 24 24 24 24 23 23 23 23 23 23 23 22 22 22 22 22 22 22 22 22 22 22 22 21 22 22 22 22 22 21
20 20 20 20 20 21 20 21 24 26 28 28 28 28 28 29 28 28 27 27 27 27 27 26 26 26 26 26 26 26 25 25 25 24 24 24 24 24 24 23 23 23 23 23 23 23 22 22 22 22 22 22 22 22 22 22 21 22 22 22 22 22 21
19 19 19 19 20 20 20 21 23 26 27 27 27 28 29 29 28 28 27 27 27 27 26 26 27 27 27 26 26 26 26 25 25 25 24 24 24 24 24 24 23 23 23 23 23 23 23 22 22 22 22 22 22 22 22 22 21 21 21 21 22 22 22
18 18 19 19 19 19 20 20 22 24 24 25 26 28 28 28 28 27 27 27 27 26 26 27 27 27 27 27 26 26 26 25 25 25 25 24 24 24 24 24 24 23 23 23 23 23 23 22 22 22 22 22 22 22 22 22 21 21 21 22 22 22 22
18 18 19 19 19 19 19 20 21 22 22 23 26 27 28 28 27 26 26 26 26 26 27 27 27 27 27 27 27 26 26 25 25 25 25 25 24 24 24 24 24 24 23 23 23 23 23 22 22 22 22 22 22 22 22 22 21 21 21 22 22 22 22
18 18 18 18 18 19 19 19 20 21 21 22 25 26 27 27 27 26 26 26 26 27 27 27 27 27 27 27 27 26 26 26 25 25 25 25 25 24 24 24 24 24 24 23 23 23 23 22 22 22 22 22 22 22 22 21 21 21 22 22 22 22 22
18 18 18 18 18 18 18 19 19 19 20 21 23 24 26 26 26 25 25 25 27 28 28 27 27 27 27 27 27 26 26 26 26 26 25 25 25 24 24 24 24 24 24 23 23 23 23 22 22 22 22 22 22 22 22 21 21 22 22 22 22 22 22
17 18 18 18 18 18 18 18 18 18 19 19 20 22 23 24 25 25 25 25 27 27 27 27 28 27 27 27 27 27 26 26 26 26 25 25 25 24 24 24 24 24 24 23 23 23 23 22 22 22 22 22 21 21 21 21 21 22 22 22 23 23 22
17 18 18 18 18 18 18 18 18 18 18 18 19 19 20 21 22 22 23 24 25 26 26 27 27 27 27 27 27 27 27 26 26 26 25 25 25 25 24 24 24 24 23 23 23 23 23 23 22 22 22 21 21 20 20 21 21 22 22 22 22 23 23
18 18 18 18 18 18 18 18 18 18 18 18 19 19 19 19 19 20 20 22 23 24 25 26 26 27 27 27 27 27 26 26 26 26 25 25 25 25 25 24 24 24 24 23 23 23 23 23 22 22 22 21 20 20 19 20 21 21 22 22 22 22 22
18 18 18 18 18 19 19 19 19 19 19 19 19 19 19 19 19 19 19 21 22 23 23 24 25 26 26 26 26 26 26 26 26 26 25 25 25 25 25 24 24 24 24 23 23 23 23 22 22 21 21 21 20 19 19 20 20 20 21 21 21 21 21
18 18 18 18 18 18 19 19 19 19 19 19 19 19 19 19 19 19 19 19 21 22 22 23 23 24 25 26 26 26 26 26 26 26 25 25 25 25 25 25 24 24 24 24 23 23 23 22 22 21 21 21 20 19 19 19 19 20 21 21 21 20 19
18 18 18 18 18 18 18 19 19 19 19 19 19 19 19 19 19 19 19 19 19 21 21 22 22 23 23 24 24 25 25 25 25 25 25 25 25 25 25 25 25 24 24 24 24 24 23 23 22 22 22 21 20 19 19 18 19 20 21 22 21 20 18
17 18 18 18 18 18 18 18 19 19 19 19 19 19 19 19 19 19 19 19 19 20 20 21 21 22 22 22 23 23 23 23 24 24 25 25 25 24 25 25 25 24 24 24 24 24 24 24 24 23 22 21 20 20 20 20 20 21 22 23 22 21 20
17 17 18 18 18 18 18 18 18 18 18 18 18 18 19 19 19 19 19 19 19 20 20 20 20 20 20 21 21 21 22 22 23 23 23 24 24 24 24 23 23 24 24 24 24 23 24 24 24 23 22 21 20 20 21 21 21 21 22 23 22 21 20
17 17 17 17 18 18 18 18 18 18 18 18 18 18 18 18 18 18 19 19 19 19 19 19 19 19 19 19 19 19 20 21 21 22 22 23 23 23 23 22 21 21 21 22 23 23 23 23 23 22 22 21 21 20 20 20 20 21 22 23 22 20 20

ECMWFFLT1_925_temp_027.txt.gz
Temp
31 31 30 30 30 29 29 29 29 29 28 27 27 27 27 26 26 25 25 24 24 24 23 23 23 23 23 23 23 23 23 22 23 23 23 23 23 23 23 23 23 23 23 23 24 24 24 24 24 24 23 23 23 22 22 22 22 23 24 23 23 23 22
31 31 31 30 30 30 29 29 29 29 28 28 27 27 27 26 26 26 25 25 24 24 24 23 23 23 23 23 23 23 23 23 23 23 23 23 23 23 23 23 23 23 24 24 24 24 24 24 24 24 24 23 23 23 22 22 22 23 23 23 22 22 22
32 32 31 31 31 30 30 29 29 29 29 29 28 28 27 27 26 26 26 25 25 24 24 24 23 23 23 23 23 23 23 23 23 23 23 23 23 23 23 23 23 23 24 24 24 24 24 24 24 24 24 24 23 23 22 22 22 22 23 23 23 23 23
32 32 32 31 31 30 30 30 30 30 30 29 29 28 27 27 26 26 26 25 25 25 24 24 24 23 23 23 23 23 23 23 23 23 23 23 23 23 23 23 23 23 23 24 24 24 24 24 23 23 24 23 23 23 23 22 22 21 22 23 23 23 23
32 32 32 31 31 30 30 30 30 30 30 30 29 29 28 27 27 26 26 26 26 25 25 24 24 24 23 23 23 23 23 23 23 23 23 23 23 23 23 23 23 23 23 23 24 24 24 24 23 23 23 23 23 23 23 22 22 21 21 22 23 23 22
33 32 31 31 31 31 31 30 31 31 31 30 30 29 28 28 28 27 27 26 26 26 25 25 24 24 23 23 23 23 23 23 23 23 23 23 23 23 23 23 23 23 23 23 23 24 24 24 23 23 23 22 22 23 23 22 22 21 21 22 23 23 22
34 32 31 31 32 31 31 31 32 32 31 31 30 30 29 29 29 28 28 27 26 26 25 25 25 24 24 24 23 23 23 23 23 23 23 23 23 23 23 23 23 23 23 23 23 24 24 23 23 23 23 22 22 23 23 22 22 22 21 21 22 23 22
34 33 32 32 32 32 32 31 32 32 31 31 31 30 30 30 29 29 28 28 27 27 26 26 26 25 24 24 24 23 23 23 23 23 23 23 23 23 23 23 23 23 23 23 23 24 24 24 24 24 23 23 23 23 23 23 22 22 21 22 23 23 22
34 33 32 32 32 33 32 32 32 32 31 31 30 30 30 30 30 29 29 28 28 28 27 27 26 25 24 24 24 24 24 24 23 23 23 23 23 23 23 23 23 23 23 23 23 23 23 24 24 24 24 23 23 23 23 23 22 21 21 23 24 23 23
33 32 32 32 32 32 32 32 32 31 30 30 30 30 30 30 30 30 29 29 29 28 28 28 27 26 25 24 24 24 24 24 24 24 24 24 24 24 24 24 23 23 23 23 23 23 23 24 24 24 24 24 23 23 23 22 22 21 22 24 25 24 23
31 31 31 31 31 32 32 32 31 30 30 30 29 30 30 30 30 30 29 29 29 29 28 28 28 27 26 25 25 24 24 24 24 24 24 24 24 24 24 24 24 23 23 23 23 23 23 23 23 23 24 24 23 23 23 22 22 21 23 25 24 24 24
30 30 31 31 31 30 31 31 30 30 30 29 30 30 30 30 30 30 29 29 29 29 29 28 28 27 26 26 26 25 24 24 24 24 24 24 24 24 24 24 24 24 23 23 23 23 23 23 23 23 23 24 24 23 23 22 22 22 24 25 24 24 24
29 30 30 30 30 30 30 30 30 30 29 29 30 30 30 30 30 30 29 29 29 29 29 28 28 27 27 27 26 26 25 25 25 24 24 24 24 24 24 24 24 24 24 24 23 23 23 23 23 23 23 24 23 23 23 23 22 22 24 24 24 24 24
30 30 30 29 29 29 29 29 29 29 29 29 30 30 30 30 30 30 29 29 29 29 29 28 28 27 27 27 26 26 25 25 25 24 24 24 24 24 24 24 24 24 24 23 23 23 23 23 23 23 23 23 23 23 23 22 22 23 23 24 24 24 23
30 31 31 30 29 29 29 29 29 29 29 29 30 30 30 30 30 30 29 29 29 29 29 28 27 27 27 26 26 26 25 25 25 24 24 24 24 24 24 24 24 24 24 23 23 23 23 23 23 23 23 23 23 23 22 22 22 23 23 23 24 24 23
32 32 31 31 30 29 29 29 29 29 29 29 29 30 30 30 30 30 30 30 29 29 29 28 27 27 27 27 26 26 25 25 25 24 24 24 24 24 24 24 23 23 23 23 23 23 23 23 23 23 23 22 23 22 22 22 22 22 23 24 24 24 23
35 35 32 31 30 29 29 29 29 29 29 28 29 29 30 30 30 30 30 30 30 29 29 29 28 28 27 27 26 26 26 25 25 24 24 24 24 24 24 23 23 23 23 23 23 23 23 23 23 23 23 23 23 22 22 23 22 22 23 24 24 24 23
36 36 33 29 28 28 28 28 28 28 29 29 29 29 29 29 30 30 30 30 30 30 29 29 28 28 27 27 26 26 26 25 25 25 24 24 24 24 23 23 23 23 23 23 23 23 23 23 23 23 23 23 23 23 23 23 22 22 23 24 23 23 23
34 34 32 28 27 27 28 29 29 29 29 30 30 30 30 30 30 30 30 30 30 30 30 29 29 28 27 27 27 26 26 25 25 25 24 24 24 24 23 23 23 23 23 23 23 23 23 23 23 23 23 23 23 23 23 23 22 22 23 23 23 23 22
31 31 29 27 27 27 28 28 29 29 29 30 30 30 30 30 30 30 30 30 29 29 29 29 29 28 28 27 27 26 26 25 25 25 24 24 24 24 24 23 23 23 23 23 23 23 23 23 23 23 23 23 23 23 23 23 23 22 23 23 23 23 22
28 28 27 26 26 26 25 25 26 28 29 30 30 30 30 30 30 30 30 30 29 29 29 29 29 28 28 27 27 26 26 25 25 25 24 24 24 24 24 24 23 23 23 24 24 23 23 23 23 23 23 23 23 23 23 23 23 22 23 23 23 22 22
27 26 25 25 24 24 24 24 25 26 28 29 30 30 30 30 30 30 30 30 29 29 29 28 28 28 28 27 27 26 26 25 25 25 24 24 24 24 24 24 23 23 23 24 24 24 24 24 23 23 23 23 23 23 23 23 23 22 23 23 22 22 21
25 24 24 24 23 23 23 24 24 24 26 28 29 30 30 31 31 31 30 30 30 29 28 28 28 28 27 27 27 26 26 25 25 25 25 24 24 24 24 24 24 23 23 24 24 24 24 24 24 24 24 23 23 23 23 23 23 22 22 22 22 21 21
23 23 23 23 23 24 24 24 24 24 25 27 29 30 30 30 30 30 30 30 29 29 28 28 28 27 27 27 27 26 26 26 25 25 25 24 24 24 24 24 24 24 24 24 24 24 24 24 24 24 24 24 24 23 23 23 23 22 22 22 22 21 21
22 22 22 23 23 23 24 23 24 25 26 27 28 29 29 29 30 29 29 29 29 28 28 28 28 28 27 27 27 26 26 26 25 25 25 25 25 25 24 24 24 24 24 24 24 24 25 25 25 24 24 24 24 24 23 23 23 23 22 22 22 21 21
21 21 22 23 23 23 23 23 24 26 27 27 27 28 28 28 29 29 29 28 28 29 29 28 28 28 27 27 27 26 26 26 25 25 25 25 25 25 25 24 24 24 24 24 24 25 25 25 25 25 25 24 24 24 23 23 23 23 22 22 22 21 21
21 21 21 22 22 22 23 24 24 25 25 24 24 26 27 28 28 28 28 28 28 29 29 28 28 27 27 27 27 27 26 26 25 25 25 25 25 25 25 25 25 24 24 24 25 25 25 25 25 25 25 25 24 24 24 23 23 23 23 22 22 22 21
20 21 21 21 21 21 23 24 24 23 23 23 23 25 26 27 28 28 27 28 28 28 28 28 28 28 27 27 27 27 26 26 26 25 25 25 25 25 25 25 25 25 24 25 25 25 25 25 25 25 25 25 25 24 24 23 23 23 23 22 22 22 21
19 19 20 21 21 21 22 23 23 22 22 22 22 23 25 27 27 27 27 27 27 27 27 27 27 27 27 27 27 26 26 26 26 26 25 25 25 25 25 25 25 25 24 24 25 25 25 24 24 24 25 25 24 24 24 24 23 23 23 22 22 22 22
19 19 20 20 21 21 21 22 22 21 21 21 20 21 23 25 26 26 25 25 24 25 26 26 27 27 27 27 27 26 26 26 26 26 25 25 25 25 25 25 25 24 24 24 24 25 24 24 24 24 24 25 24 24 24 24 23 22 22 22 22 22 22
19 19 20 20 20 20 20 21 21 21 21 21 20 20 20 22 23 23 23 22 22 24 25 25 26 26 26 26 26 26 26 26 26 26 25 25 25 25 25 25 25 25 24 24 24 25 25 25 24 24 24 24 24 24 24 23 23 22 22 22 22 22 22
19 19 20 20 20 20 20 21 21 21 21 21 20 20 20 20 20 21 20 20 21 22 23 24 25 25 26 26 26 26 26 26 26 26 25 25 25 25 25 25 25 25 25 25 25 25 25 25 25 25 24 24 24 24 23 23 22 22 21 21 22 22 22
19 19 19 19 20 20 21 21 21 21 21 21 21 20 20 20 20 19 20 20 20 21 22 23 24 24 25 25 26 26 26 26 26 26 26 26 26 26 25 25 25 25 25 25 25 25 25 25 25 25 25 24 24 24 23 23 22 21 20 20 21 21 21
19 19 19 19 19 20 21 21 21 21 21 21 21 21 20 20 20 19 20 20 20 21 22 22 23 24 24 24 25 25 25 25 26 26 26 26 26 26 26 26 25 25 25 25 25 26 25 25 25 25 25 25 25 24 23 22 22 21 20 20 21 21 21
19 19 19 19 19 20 20 20 21 21 21 21 21 20 20 20 20 19 20 20 20 20 21 22 22 23 23 24 24 24 24 25 25 26 26 26 26 26 26 26 25 25 25 25 25 25 26 26 26 26 25 25 25 24 23 22 22 21 20 20 21 22 21
18 19 20 20 20 20 20 20 20 20 20 21 20 20 20 20 19 19 20 20 20 20 20 21 21 22 22 22 22 23 23 24 25 25 25 25 26 26 26 25 25 25 25 25 25 25 25 26 26 26 26 26 25 25 23 23 22 22 21 21 22 22 22
18 18 18 19 19 19 20 20 20 20 20 20 20 20 20 20 19 19 19 19 20 20 21 20 21 21 21 21 21 21 21 22 22 22 23 23 24 25 25 25 25 25 25 25 25 25 25 25 25 25 25 25 25 25 24 23 23 22 21 21 21 21 21
18 18 18 18 19 19 19 19 20 20 20 20 20 20 20 20 20 19 19 19 19 20 20 20 20 21 20 20 20 20 20 20 20 20 21 21 21 22 23 23 24 24 24 25 25 25 25 24 24 24 24 25 25 24 24 23 22 21 20 21 21 21 20

ECMWFFLT1_925_temp_030.txt.gz
Temp
36 36 35 34 33 33 33 32 32 32 31 30 30 30 29 29 29 28 28 27 26 26 25 25 25 25 25 25 25 25 25 25 25 25 25 25 25 26 26 26 26 26 26 26 26 26 26 25 25 25 25 24 24 24 24 24 24 24 24 24 24 24 24
37 36 36 35 34 33 33 33 32 32 31 31 30 30 30 29 29 28 28 27 27 26 26 25 25 25 25 25 25 25 25 25 24 24 25 25 25 25 25 25 26 25 26 26 26 26 26 25 25 25 25 24 24 24 24 24 24 24 24 24 24 24 23
37 37 36 35 35 34 33 33 33 32 32 31 31 30 30 29 29 28 28 28 27 26 26 26 25 25 25 25 25 25 25 25 25 25 25 25 25 25 25 25 25 26 26 26 26 26 26 25 25 25 25 25 25 24 24 24 24 24 24 24 24 24 23
37 38 37 36 35 34 33 33 33 33 33 32 31 31 30 29 29 28 28 28 27 27 27 26 26 25 25 25 25 25 25 25 25 25 25 25 25 25 25 25 25 25 26 26 26 26 26 25 25 25 25 25 25 24 24 24 24 24 24 24 24 24 24
37 37 37 36 35 35 34 33 33 33 33 33 32 31 30 30 29 29 28 28 28 27 27 27 26 26 25 25 25 25 25 25 25 25 25 25 25 25 25 25 25 25 26 26 25 25 25 25 25 25 25 24 25 25 24 24 24 24 24 24 24 24 24
38 37 37 37 36 35 34 34 34 34 34 34 33 32 31 31 30 30 29 29 28 28 28 27 27 27 26 26 26 26 25 25 25 25 25 25 25 25 25 25 26 26 26 26 25 25 25 25 25 25 25 25 25 25 25 24 24 24 24 24 24 24 25
39 38 37 37 37 36 35 35 35 35 34 34 34 33 32 32 31 31 30 29 29 29 28 28 28 27 26 26 26 26 25 25 25 25 25 25 25 25 25 25 26 26 26 26 25 25 25 25 25 25 25 25 25 25 25 25 25 25 24 24 24 24 24
40 38 37 37 37 37 36 35 35 36 35 34 34 34 33 33 32 32 31 31 30 30 29 29 29 28 27 26 26 26 26 26 26 25 25 25 25 25 25 25 26 26 26 26 26 25 25 25 25 25 25 25 25 25 25 25 24 25 24 24 24 24 24
40 38 37 37 37 37 37 36 36 36 35 35 35 34 34 33 33 33 32 32 31 31 30 30 30 28 27 27 26 26 26 26 26 26 25 26 26 26 26 26 26 25 26 26 26 26 25 25 25 25 25 25 25 25 25 24 24 24 25 24 24 24 24
39 37 37 37 37 37 37 36 36 35 35 34 34 34 34 33 33 33 33 32 32 32 31 31 30 29 28 27 27 27 26 26 26 26 26 26 26 27 27 27 26 26 26 26 26 26 25 25 25 25 25 25 25 25 24 24 24 24 25 25 24 24 24
37 36 35 36 36 36 36 36 35 34 34 34 33 34 34 33 33 33 33 33 33 33 32 31 31 30 29 28 28 27 27 27 27 27 27 27 27 27 27 27 27 27 26 26 26 26 26 25 25 25 25 25 25 25 24 24 24 25 25 25 24 24 24
35 35 34 34 35 35 35 35 35 34 33 33 33 33 33 33 33 33 33 33 33 33 33 32 31 31 30 29 28 28 27 27 27 27 27 27 28 28 28 28 28 27 27 26 26 27 26 26 25 25 25 25 25 25 24 24 24 25 25 25 25 24 24
34 34 34 34 34 34 34 34 34 33 33 33 34 34 33 33 33 33 33 33 33 33 33 32 32 31 30 30 29 28 28 28 27 27 28 28 27 28 28 28 28 28 28 27 27 27 27 26 25 25 25 25 25 25 25 24 24 25 24 25 25 24 24
35 35 35 34 34 33 33 33 33 33 32 33 34 34 33 33 33 33 33 33 33 33 33 33 32 31 31 30 30 29 28 28 28 27 27 28 27 27 28 28 28 28 28 27 27 27 27 26 26 25 25 25 25 25 25 25 25 25 24 25 25 24 24
37 38 37 36 34 33 33 32 32 32 32 33 34 34 33 33 33 33 33 33 33 33 33 33 32 31 31 30 29 29 28 28 28 27 27 27 27 27 27 27 27 28 28 27 27 27 27 27 26 25 25 25 25 25 25 25 25 25 25 25 25 24 24
37 38 39 38 36 34 33 33 32 32 32 32 33 33 34 33 33 33 33 33 32 32 33 33 32 31 31 30 30 29 28 28 28 27 27 27 27 26 27 27 27 27 27 27 27 26 26 27 26 26 26 25 25 25 25 25 25 25 25 25 24 24 24
37 38 38 38 37 36 34 33 33 32 32 31 32 33 33 33 33 33 33 33 33 32 33 33 32 31 30 30 30 29 28 28 27 27 27 26 26 26 26 26 26 27 27 27 26 26 26 26 26 26 26 26 26 25 25 25 25 25 25 24 24 24 24
37 37 38 38 37 36 35 34 33 32 32 32 33 33 33 33 33 33 33 34 33 33 33 33 32 31 30 30 30 29 28 27 27 27 26 26 26 26 26 26 26 26 26 26 26 26 26 26 26 26 26 26 26 26 26 26 25 25 25 24 24 24 24
37 37 38 38 37 35 35 35 35 34 33 34 34 33 33 33 33 33 33 33 33 33 33 33 32 31 30 30 29 28 28 27 27 27 26 26 26 26 26 26 26 26 26 26 26 26 26 26 26 26 26 26 26 26 26 26 26 25 25 24 24 24 24
36 37 37 37 36 35 35 34 34 34 34 34 35 34 34 33 33 33 33 33 33 33 33 32 32 31 30 29 29 28 28 27 27 27 27 26 26 26 26 26 26 26 26 26 26 26 26 26 26 26 26 26 26 26 26 26 26 25 25 25 24 24 23
36 36 36 36 35 34 33 32 32 32 33 34 34 34 34 34 33 33 33 33 33 33 32 32 32 31 30 29 29 28 28 27 27 27 27 26 26 26 26 26 26 26 26 26 26 26 26 26 26 26 26 26 26 26 26 26 26 25 25 25 24 24 23
35 35 35 34 33 31 30 30 30 31 32 32 33 34 34 34 34 34 34 33 33 33 32 31 31 31 30 29 29 28 28 28 27 27 27 27 26 26 26 26 26 26 26 26 26 26 26 26 26 26 26 26 26 26 26 27 26 26 26 25 24 24 23
34 32 32 31 30 30 29 29 29 30 30 30 31 33 34 35 34 34 34 34 33 32 32 31 31 31 30 29 29 29 28 28 28 27 27 27 27 26 26 26 26 26 26 26 26 27 27 26 26 27 27 26 26 26 27 27 26 26 26 25 24 24 23
31 30 30 29 29 30 29 29 28 28 29 29 30 32 33 34 34 34 34 34 33 32 31 31 31 30 30 30 30 29 29 28 28 28 27 27 27 27 27 26 26 26 26 26 26 27 27 27 27 27 27 27 27 26 26 27 27 26 25 25 25 24 23
29 29 29 29 29 29 28 27 27 28 29 30 30 31 32 33 33 33 33 33 33 32 32 31 31 31 30 30 30 29 29 28 28 28 27 27 27 27 27 27 27 27 26 26 27 27 27 28 28 27 27 27 27 27 26 26 27 26 25 25 24 24 23
27 27 28 28 28 27 26 27 27 28 30 30 30 31 31 31 32 33 32 32 33 33 32 32 31 31 31 30 30 29 29 28 28 28 28 27 27 27 27 27 27 27 27 27 27 27 27 28 28 28 28 28 28 27 26 26 27 27 26 25 24 24 23
26 26 27 27 26 25 26 27 28 28 29 29 28 29 30 31 31 32 31 31 32 32 32 32 31 31 30 30 30 30 29 28 28 28 28 27 27 27 27 27 27 27 27 27 27 27 27 28 28 28 28 28 28 28 27 27 27 27 26 26 25 24 23
25 26 26 26 26 25 26 27 27 27 27 27 28 29 30 30 30 31 31 31 31 32 32 32 31 30 30 30 30 30 29 28 28 28 28 27 27 27 27 27 27 27 27 27 28 28 27 28 28 28 28 28 28 28 28 27 27 26 26 26 25 24 23
24 24 25 26 26 25 26 27 27 26 26 26 27 28 29 30 30 30 30 30 30 31 31 31 30 30 29 29 29 30 29 29 28 28 28 27 27 27 27 27 27 27 27 27 27 27 27 27 27 28 28 28 28 28 28 27 27 26 26 25 25 25 24
23 24 25 26 26 25 25 26 26 26 26 25 25 26 28 29 30 29 29 29 28 29 30 30 29 29 29 29 29 29 29 29 28 28 28 27 27 27 27 27 27 27 27 27 27 27 27 27 27 27 28 28 28 28 28 28 27 26 26 25 25 24 24
23 24 24 25 25 24 25 25 26 26 26 25 24 24 25 27 28 28 27 26 26 27 28 28 29 29 29 29 29 29 29 29 28 28 28 28 27 27 27 27 27 27 27 27 27 27 27 28 27 27 28 28 28 28 28 28 27 27 26 26 25 25 24
23 23 24 24 24 24 25 25 25 26 26 25 25 24 24 25 25 25 25 24 25 26 26 27 28 28 28 29 29 28 28 29 28 28 28 28 28 27 27 27 27 27 27 27 28 27 27 28 28 28 28 27 27 27 27 27 27 27 26 25 25 24 24
22 22 22 23 23 23 24 25 25 25 25 25 24 24 24 23 24 24 24 24 25 25 26 27 27 28 28 28 28 28 28 28 29 29 29 28 28 28 28 28 28 28 27 28 28 28 27 27 28 28 28 28 28 27 27 27 27 27 26 25 24 24 24
22 22 22 22 22 23 23 24 24 24 25 24 23 23 23 23 23 23 23 24 24 25 26 26 27 27 27 27 28 28 28 28 28 29 29 29 29 29 29 29 28 28 28 28 28 28 28 28 28 28 28 28 28 28 27 27 27 27 26 25 24 23 22
22 22 22 22 22 22 23 23 24 24 24 23 23 23 23 22 23 23 23 23 24 24 25 25 26 27 27 27 28 28 27 28 28 28 28 29 29 29 29 29 28 28 28 28 28 28 28 29 29 29 28 29 29 28 28 28 28 28 27 26 24 23 22
21 21 22 22 22 22 22 22 23 23 23 22 22 22 22 22 22 23 23 23 23 24 24 25 25 26 26 27 28 28 27 28 29 29 28 28 29 29 29 28 28 28 28 28 28 27 27 28 28 29 29 29 29 28 28 28 28 28 27 26 25 24 23
20 21 21 21 22 22 22 22 22 23 23 22 22 22 22 22 22 22 23 23 23 24 24 24 25 25 25 25 25 25 26 27 28 27 27 27 27 27 28 28 28 27 27 27 27 27 26 26 26 27 27 28 28 28 28 28 28 28 27 27 26 24 23
20 20 21 21 21 21 21 21 21 21 21 22 22 22 22 22 22 22 22 23 23 23 23 23 24 24 24 24 23 23 24 25 25 25 25 25 25 25 25 26 26 26 25 25 25 25 25 25 25 25 25 25 26 26 26 26 27 27 27 26 26 25 24

ECMWFFLT1_925_temp_033.txt.gz
Temp
38 39 39 37 36 36 35 35 34 34 34 33 32 32 32 32 31 30 29 28 27 27 26 26 26 26 26 26 26 26 26 26 26 26 27 27 27 27 27 27 27 27 28 28 27 27 27 27 28 27 27 26 26 26 26 25 25 25 25 25 25 25 25
38 39 39 38 36 36 36 35 35 35 34 33 32 32 32 32 31 30 30 28 28 27 27 26 26 26 26 26 26 26 26 26 26 26 27 27 27 27 27 27 27 27 27 28 28 28 27 27 27 27 27 26 26 26 26 26 25 25 25 25 25 25 25
38 39 39 38 37 36 36 35 35 35 34 34 33 32 32 32 31 31 30 29 28 27 27 27 27 27 26 26 26 26 26 26 26 26 27 27 27 27 27 27 27 27 27 28 28 28 28 27 27 27 27 27 26 26 26 26 25 25 25 25 25 25 25
38 39 40 39 38 37 36 35 35 35 35 34 33 33 32 32 31 31 30 29 29 28 28 27 27 27 27 27 27 26 26 26 26 27 27 27 27 27 27 27 27 27 27 27 28 28 28 28 27 27 27 27 26 26 26 26 26 25 25 25 25 25 25
39 40 40 40 38 37 36 36 35 35 35 35 34 33 33 32 31 31 30 30 29 29 28 28 28 28 27 27 27 27 27 26 27 27 27 27 27 27 27 28 27 27 28 28 28 28 28 28 27 27 27 26 27 27 26 26 26 25 25 25 25 26 25
40 40 40 40 39 37 37 36 36 36 36 35 34 33 33 32 32 32 31 30 30 30 29 29 28 28 27 27 28 27 27 27 27 27 27 27 27 27 27 28 28 28 28 28 28 28 28 27 27 27 27 27 27 27 27 26 26 26 25 25 25 25 26
41 40 39 40 39 38 37 37 37 37 36 36 35 34 33 33 33 32 32 31 31 30 30 29 29 29 28 28 28 28 28 27 27 27 27 27 27 27 27 27 28 28 28 28 28 28 27 27 27 27 27 27 27 27 27 27 26 26 26 25 25 25 26
41 40 39 39 38 38 38 38 37 37 37 36 36 35 34 34 33 33 33 32 32 31 31 30 30 29 29 28 28 28 28 28 27 27 27 27 27 27 27 27 27 28 28 28 28 28 28 27 27 27 27 27 27 27 27 27 26 26 26 26 25 25 26
41 40 39 39 39 39 39 38 38 38 37 36 36 36 35 34 34 34 34 33 33 32 32 31 31 30 29 29 29 28 28 28 28 28 27 28 28 28 28 28 28 27 28 28 28 28 28 27 27 27 27 27 27 27 27 27 26 26 26 26 26 26 26
41 41 40 40 41 40 39 38 38 38 37 36 36 36 35 35 35 34 34 34 34 33 33 32 32 31 30 29 29 29 28 28 28 28 28 28 28 29 29 29 28 28 28 28 29 28 28 28 27 27 27 27 27 27 27 27 26 26 26 26 26 26 26
41 40 40 40 40 40 40 39 38 37 36 36 36 36 36 35 35 35 35 35 34 34 34 33 33 32 31 30 30 30 29 29 29 29 29 29 29 29 29 29 29 28 28 28 29 29 28 28 27 27 27 27 27 27 27 26 26 26 26 26 26 26 26
39 38 38 38 39 39 39 39 38 36 36 36 36 36 36 35 35 35 35 35 35 35 34 34 34 33 32 31 31 30 30 29 29 30 29 29 30 30 30 30 30 29 29 28 29 29 29 28 27 27 27 27 27 27 26 26 26 26 26 26 26 26 26
38 37 37 37 38 38 38 38 37 36 35 36 37 36 36 36 36 36 36 35 35 35 35 34 34 34 33 32 31 31 30 30 30 30 30 30 30 30 30 30 30 30 30 29 29 29 29 29 28 27 27 27 27 27 27 26 26 26 26 26 27 26 26
39 38 37 37 37 36 36 36 36 36 35 36 37 36 36 36 36 36 36 35 36 36 36 35 34 34 33 32 32 31 31 30 30 30 30 30 30 30 30 30 31 31 31 30 29 29 29 29 28 27 27 27 27 27 27 26 26 26 26 26 26 27 26
40 40 38 37 37 36 36 35 35 35 35 35 36 36 36 36 36 36 35 35 35 36 36 36 35 34 33 33 32 31 31 30 30 29 30 30 30 30 30 30 30 31 31 30 29 29 29 29 29 28 27 27 27 27 27 27 26 26 26 26 26 27 27
40 40 40 38 37 36 36 35 35 35 34 35 35 36 36 36 36 36 36 36 35 35 36 36 35 34 34 33 32 31 31 30 30 29 29 30 30 29 29 30 30 30 30 30 30 29 29 29 29 28 28 27 27 27 27 27 27 26 26 26 26 26 27
39 40 40 39 38 37 36 36 35 34 34 34 34 35 36 36 35 35 36 36 35 35 36 36 35 34 33 33 32 31 31 30 30 29 29 29 29 29 29 29 30 29 30 30 30 29 29 29 29 29 28 28 27 27 27 27 27 27 26 26 26 26 26
38 38 39 39 39 39 37 36 36 35 34 35 35 35 35 35 35 35 36 36 36 36 35 35 35 34 33 33 32 31 30 30 29 29 29 28 29 29 28 29 29 29 29 29 29 29 29 28 28 29 29 28 28 28 28 27 27 27 27 26 26 26 26
38 38 38 39 39 39 39 38 37 36 36 37 36 36 35 35 35 35 35 36 36 36 35 35 35 35 33 33 32 31 30 30 29 29 29 28 28 28 28 28 28 29 28 29 29 29 28 28 28 28 28 29 28 28 28 28 28 27 27 27 26 26 26
37 37 38 38 38 38 38 38 37 37 37 37 38 37 37 36 36 35 35 35 35 35 35 35 35 35 33 32 32 31 30 29 29 29 29 28 28 28 28 28 28 28 28 28 29 28 28 28 28 28 28 28 28 28 28 28 28 27 27 27 26 26 26
37 37 38 37 37 36 35 35 35 35 36 36 37 38 37 37 36 36 35 35 35 35 35 34 34 34 33 32 32 31 30 29 29 29 29 28 28 28 28 28 28 28 28 28 28 28 28 28 28 28 28 28 28 28 28 28 28 28 27 27 26 26 26
38 38 37 37 35 34 33 33 34 34 34 34 35 36 37 37 37 36 36 36 35 35 35 34 34 34 33 32 31 31 30 29 29 29 29 28 28 28 28 28 28 28 28 28 29 28 28 28 28 28 28 28 28 28 28 28 28 28 28 27 27 26 26
38 37 36 35 34 34 33 32 32 33 32 33 34 35 36 37 38 37 37 36 36 35 34 34 33 33 33 32 31 31 30 30 29 29 29 28 28 28 28 28 28 28 28 28 29 29 28 28 28 28 28 28 28 28 28 28 28 28 28 27 27 26 26
35 34 34 33 33 33 33 32 31 31 31 32 33 34 34 35 37 37 37 36 36 35 34 34 33 33 33 32 31 31 30 30 29 29 29 29 28 28 28 28 28 28 28 28 29 29 29 29 28 28 28 28 28 28 28 28 28 28 28 27 27 26 26
32 32 32 32 32 32 31 30 29 30 31 32 33 33 33 33 34 36 36 36 36 35 35 34 34 33 33 32 32 31 30 30 29 29 29 29 28 28 28 28 28 28 28 28 28 29 29 29 29 29 29 29 28 28 28 28 28 28 28 28 27 26 25
30 30 31 32 32 30 29 29 30 31 32 32 31 32 32 33 33 34 35 35 35 36 35 34 34 33 33 32 32 31 30 30 30 29 29 29 29 29 29 29 29 29 28 28 29 29 29 30 30 29 29 29 29 29 28 28 28 28 28 27 27 26 25
29 30 30 31 30 29 29 30 30 30 31 31 30 30 31 32 33 33 34 34 34 35 35 34 33 33 32 32 32 31 31 30 30 29 29 29 29 29 29 29 29 29 29 29 29 29 29 29 30 30 30 29 29 29 29 29 28 28 28 27 27 27 26
28 29 29 30 29 28 29 30 30 30 30 30 30 30 31 32 32 32 33 33 33 34 35 34 33 33 32 32 32 32 31 31 30 30 29 29 29 29 29 29 29 29 29 29 29 29 29 29 29 30 30 30 30 30 29 29 29 28 28 28 27 27 26
27 27 28 29 29 29 29 29 29 29 29 29 29 30 30 31 32 32 32 33 33 33 34 34 33 33 32 32 32 32 32 31 30 30 29 29 29 29 29 29 29 29 29 29 29 29 29 29 29 29 30 30 30 30 30 29 29 29 28 28 28 27 26
27 27 27 29 29 28 28 28 28 28 28 28 28 28 29 31 32 31 31 32 31 31 32 33 33 32 32 31 31 31 31 31 30 30 30 29 29 29 29 29 29 29 29 29 29 29 29 29 29 29 29 29 30 30 30 30 30 29 29 28 28 28 27
26 26 27 28 28 27 27 28 28 28 28 28 27 27 27 29 31 31 30 29 29 29 31 32 32 31 31 31 31 31 31 31 30 30 30 29 29 29 29 29 29 29 29 29 29 29 29 29 29 29 29 29 30 30 30 30 30 30 29 29 28 28 27
26 26 26 27 27 26 27 28 28 28 28 28 27 27 27 27 28 29 28 27 28 28 29 30 31 30 30 30 30 30 30 31 30 30 30 29 29 29 29 29 29 29 29 29 29 29 29 29 29 29 29 29 29 30 30 30 30 30 30 29 28 28 27
25 25 25 26 26 25 26 27 28 28 28 27 26 27 26 26 27 27 27 27 28 28 28 28 29 29 30 30 30 30 30 30 31 30 30 30 30 30 29 29 29 29 29 29 29 29 29 29 29 30 30 30 29 29 29 30 30 30 30 29 28 27 27
24 24 25 25 25 25 26 27 27 27 27 26 25 25 25 26 26 26 26 27 27 28 28 28 29 29 29 29 30 30 30 30 30 31 31 31 30 31 31 30 30 30 30 30 30 30 30 30 30 30 30 30 30 30 29 29 30 30 30 29 28 26 25
24 24 24 25 25 25 25 26 26 26 26 25 25 25 25 25 25 26 26 26 26 27 28 28 28 29 29 29 30 30 30 30 30 30 31 31 31 31 31 31 30 30 30 30 30 30 30 30 30 30 30 30 30 30 29 30 30 29 29 29 28 27 25
23 24 24 24 24 25 25 25 25 25 25 24 24 24 25 25 25 25 26 26 26 26 27 28 29 30 30 30 30 30 30 31 31 31 30 31 31 31 31 31 30 30 29 29 29 28 28 28 28 28 27 27 27 28 28 28 28 28 27 27 26 26 25
23 23 23 23 24 24 24 24 24 25 24 24 24 24 24 25 25 25 25 25 26 26 27 27 28 29 29 29 28 28 29 30 31 31 30 29 30 30 30 30 29 29 28 28 27 27 27 27 27 27 26 26 25 26 26 26 26 26 26 25 25 24 24
22 22 23 23 23 23 23 23 23 24 24 24 24 24 25 24 25 25 25 25 25 26 26 27 27 27 27 27 26 26 27 28 28 28 28 28 28 28 27 28 28 28 28 27 26 26 26 26 26 26 26 26 25 25 25 25 25 25 24 24 24 23 23

ECMWFFLT1_925_temp_036.txt.gz
Temp
38 36 36 36 36 35 34 33 32 32 32 31 31 31 31 31 30 29 28 27 27 26 26 26 26 26 26 26 26 26 26 26 26 26 26 27 27 27 27 27 27 27 27 27 27 27 27 27 27 27 26 26 26 26 26 26 26 25 25 25 25 25 25
38 37 35 35 35 35 34 33 33 33 33 32 32 31 32 31 30 30 28 27 27 27 26 26 26 26 26 26 26 26 26 26 26 26 26 27 27 27 27 27 27 27 27 27 27 27 27 27 27 27 27 26 26 26 26 26 26 25 25 25 25 25 25
38 38 36 35 35 34 34 34 33 33 33 33 33 32 32 32 30 30 29 28 27 27 27 26 26 26 26 26 26 26 26 26 26 26 26 27 27 27 27 27 27 27 27 27 27 27 27 27 27 27 27 27 26 26 26 26 26 25 25 25 25 25 25
38 39 38 36 35 34 34 34 33 33 32 33 33 32 32 32 31 30 29 28 27 27 27 26 27 26 26 26 26 26 26 26 26 27 27 27 27 27 27 27 27 27 27 27 27 28 28 27 27 27 27 27 27 26 26 26 26 25 25 25 25 25 25
38 39 39 36 35 35 34 34 33 33 33 33 33 33 32 32 31 30 29 28 28 27 27 27 27 27 26 26 26 26 26 26 26 27 27 27 27 27 27 27 27 27 27 27 27 28 28 28 27 27 27 27 27 26 26 26 26 25 25 25 25 25 25
38 39 39 37 36 35 35 35 35 35 34 34 33 33 33 32 32 31 30 29 28 28 27 27 27 27 27 26 26 27 26 26 27 27 27 27 27 27 27 28 28 28 28 28 27 28 28 28 28 27 27 27 27 27 26 26 26 26 25 25 25 25 25
39 39 39 38 37 37 36 36 36 36 35 35 35 34 33 33 32 32 31 30 29 28 28 28 28 27 27 27 27 27 27 27 27 27 27 27 27 28 27 28 28 28 28 28 28 28 28 28 28 28 27 27 27 27 27 26 26 26 26 25 25 25 26
39 39 39 39 39 38 38 37 37 36 36 36 35 34 34 33 33 32 32 31 30 29 29 28 28 28 27 27 27 27 27 27 27 27 27 27 28 28 28 28 28 28 28 28 28 28 28 28 28 28 28 27 27 27 27 27 26 26 26 26 25 25 26
39 39 39 40 40 40 39 37 37 36 36 35 35 35 34 34 34 33 32 32 31 30 30 29 29 29 28 28 28 28 28 27 27 27 27 28 28 28 28 28 28 28 28 28 28 28 28 28 28 28 28 27 27 27 27 27 27 26 26 26 25 25 25
39 38 39 40 40 40 38 37 36 36 35 34 35 35 35 34 34 33 33 33 32 31 31 30 30 29 29 28 28 28 28 28 28 27 28 28 28 28 28 28 28 28 28 28 28 28 28 28 28 28 28 28 27 27 27 27 27 27 26 26 26 25 26
39 38 39 40 40 39 37 36 35 35 34 34 34 35 35 34 34 34 34 33 33 32 32 31 31 30 29 29 29 29 28 28 28 28 28 28 28 28 29 29 28 28 28 28 28 28 28 28 28 28 28 28 27 27 27 27 27 27 27 26 26 26 26
38 38 39 39 38 37 37 36 35 35 34 34 35 36 35 34 35 35 34 34 34 33 33 32 32 31 30 29 29 29 29 29 29 29 28 28 29 29 29 29 29 29 28 28 28 29 29 28 28 28 28 27 27 27 27 27 27 27 27 26 26 26 26
38 38 38 38 38 37 36 35 34 35 35 34 35 36 35 35 35 35 35 34 34 34 34 33 32 32 31 30 30 30 29 29 29 29 29 29 29 29 29 29 30 29 29 28 28 29 29 29 28 28 28 27 27 27 27 27 27 27 27 27 26 26 26
38 38 38 38 37 37 36 35 35 35 35 35 36 36 36 36 35 35 35 35 35 35 34 34 33 33 32 31 31 30 30 30 30 30 30 29 30 30 30 30 30 30 30 29 29 29 29 29 29 28 28 28 27 27 27 27 27 27 27 27 27 26 26
39 38 38 38 37 37 37 36 35 35 35 35 36 36 36 36 36 35 35 35 35 35 35 35 34 33 33 32 31 31 30 30 30 30 30 30 30 30 30 30 30 30 30 30 29 29 29 29 29 28 28 28 28 27 27 27 27 27 27 27 27 27 26
40 39 38 37 36 36 36 36 36 35 35 36 35 35 36 36 36 35 35 35 35 35 35 35 34 34 33 32 31 31 31 30 30 30 30 30 30 30 30 30 30 30 30 30 30 29 29 29 30 29 28 28 28 27 27 27 27 27 27 27 27 27 27
40 39 38 37 36 36 36 36 35 35 35 35 35 35 36 36 36 36 36 36 36 35 36 35 35 34 33 33 32 31 31 31 30 30 30 30 30 30 30 30 30 30 30 30 30 30 29 29 30 30 29 28 28 27 27 27 27 27 27 27 27 27 27
39 39 38 37 37 36 36 35 35 34 35 35 35 35 36 36 36 36 36 36 36 36 36 36 35 34 34 34 33 32 31 31 30 30 30 30 30 30 30 30 30 30 30 30 30 30 30 29 29 30 30 29 28 28 27 27 27 27 27 27 27 27 27
38 39 39 38 38 37 36 36 36 35 35 36 36 36 36 36 36 36 36 36 36 36 36 36 36 35 34 34 33 32 31 31 30 30 30 30 30 30 30 30 30 30 30 30 30 30 30 30 29 29 30 29 29 28 28 28 27 27 27 27 27 27 27
38 38 39 39 38 36 35 36 36 35 36 37 37 36 36 36 36 36 36 36 36 36 36 36 36 35 34 33 33 32 31 31 31 30 30 30 29 30 30 29 30 30 30 30 30 30 30 30 29 29 29 29 29 29 28 28 28 28 27 27 27 27 27
38 38 38 38 36 34 34 34 35 35 36 36 36 37 37 36 36 36 36 36 36 36 36 35 35 35 34 33 33 32 31 31 30 30 30 30 29 29 29 29 29 29 30 30 30 30 30 29 29 29 29 29 29 29 29 28 28 28 28 27 27 27 27
37 37 36 35 33 32 33 33 34 34 34 34 34 36 37 37 37 36 36 36 36 36 35 35 35 35 34 33 33 32 31 31 30 30 30 30 29 29 29 29 29 29 29 30 30 30 30 29 29 29 29 29 29 29 29 29 29 29 28 28 27 27 27
34 34 34 34 33 33 32 32 32 33 33 33 34 35 36 37 38 37 37 36 36 35 35 35 34 34 34 33 32 32 31 31 30 30 30 29 29 29 29 29 29 29 29 29 29 30 29 29 29 29 29 29 29 29 29 29 29 29 29 28 28 27 27
33 33 33 33 33 32 31 31 31 31 32 33 33 34 34 35 36 36 36 36 36 35 35 35 34 34 34 33 32 32 32 31 30 30 29 29 29 29 29 29 29 29 29 29 29 29 29 29 29 29 29 29 29 29 29 29 29 29 29 29 28 27 27
31 32 32 33 32 31 31 30 30 31 32 32 32 32 33 34 34 34 34 35 36 36 35 34 34 34 34 33 32 32 32 31 30 30 29 29 29 29 29 29 29 28 28 28 29 29 29 30 29 29 29 29 29 29 28 28 29 29 29 29 28 28 27
30 30 32 32 31 30 30 31 30 31 32 32 30 31 32 32 33 33 33 34 35 36 35 34 34 34 34 33 33 32 32 31 30 30 29 29 29 29 29 29 29 28 28 28 29 29 29 30 30 29 29 29 29 29 28 28 28 28 28 28 28 28 27
30 30 31 31 31 30 30 31 31 31 31 31 30 31 31 31 31 32 33 33 34 35 36 35 35 34 34 33 33 32 31 31 30 30 29 29 29 29 29 29 29 29 29 28 29 29 29 29 30 30 30 29 29 29 29 28 28 28 28 28 28 28 27
29 29 29 30 31 30 30 30 30 30 30 30 30 30 31 31 31 32 32 33 33 34 35 35 35 34 33 33 33 32 31 31 31 30 29 29 29 29 29 29 29 29 29 29 29 29 29 29 29 30 30 30 29 29 29 29 29 29 28 28 28 28 28
27 28 28 30 30 29 29 30 29 29 30 29 29 29 29 30 31 32 32 32 33 33 34 35 34 34 33 33 33 33 32 31 30 30 30 29 29 29 29 29 29 29 29 29 29 29 29 29 29 29 29 30 30 30 30 29 29 29 29 28 28 28 28
26 27 28 29 29 28 28 29 29 29 29 28 28 28 28 28 30 32 31 30 30 31 32 33 33 33 33 32 32 32 32 31 30 30 30 30 29 29 29 29 29 29 29 29 29 29 29 29 29 29 29 29 29 30 30 30 30 29 29 29 29 28 28
26 27 27 28 28 27 27 28 29 29 29 28 28 28 27 28 29 30 29 28 28 29 29 31 32 33 32 32 32 32 32 31 31 30 30 30 29 29 29 29 29 29 29 29 29 29 29 29 29 29 29 29 29 29 29 30 30 30 29 29 29 29 28
25 26 27 27 27 26 27 28 29 29 29 28 27 27 27 27 27 28 28 28 28 28 28 29 31 32 32 32 32 31 31 32 31 31 30 30 30 29 29 29 29 29 29 29 29 29 29 29 29 29 29 29 29 29 29 29 29 30 30 30 29 29 29
25 25 26 26 26 26 26 27 28 29 28 27 26 27 27 27 27 27 27 27 28 28 28 29 30 31 31 31 31 31 31 31 31 31 30 30 30 30 29 29 29 29 29 29 29 29 29 29 29 29 29 29 29 29 29 29 29 29 29 28 27 27 27
24 25 25 25 26 26 26 27 28 28 27 26 26 26 26 26 26 26 26 27 27 28 28 29 29 30 30 30 30 31 30 30 31 31 31 31 30 30 30 29 29 29 29 29 29 29 29 29 29 29 29 29 30 29 29 30 29 28 26 25 25 25 25
24 25 25 25 25 25 25 26 26 26 26 25 25 26 26 26 26 26 26 26 26 27 28 28 29 29 30 30 30 30 30 30 30 31 31 31 30 31 30 30 29 30 29 29 29 29 29 29 29 29 29 29 29 29 29 28 26 24 23 23 24 24 23
24 25 25 25 25 25 25 25 26 26 25 25 25 25 26 26 26 26 26 26 27 27 28 28 29 29 29 29 29 30 30 30 31 31 31 31 31 30 30 29 29 30 29 28 27 28 28 28 28 27 27 27 26 25 25 24 23 23 23 23 24 24 24
24 24 24 24 24 24 24 24 25 25 25 25 25 25 25 26 26 26 26 26 27 27 27 28 28 28 28 27 27 27 28 28 29 30 30 29 29 29 28 28 27 28 27 27 27 27 27 27 26 26 26 26 25 24 24 23 23 23 24 24 24 24 24
23 23 23 24 24 24 24 24 24 24 24 25 25 25 25 25 26 26 26 26 26 27 27 27 27 26 26 26 26 26 26 26 27 27 28 27 27 27 28 27 27 26 26 26 27 26 26 26 25 25 25 25 24 24 24 24 24 24 24 24 24 24 24

ECMWFFLT1_925_temp_039.txt.gz
Temp
34 33 33 32 32 32 31 31 31 30 30 29 30 30 29 29 28 28 27 26 26 26 26 26 25 25 25 25 25 25 25 25 25 25 26 26 26 26 26 26 26 26 26 26 26 26 26 26 26 25 25 25 25 25 25 25 25 25 25 25 25 25 25
34 33 33 33 32 32 31 31 31 31 30 29 30 29 29 29 28 28 27 26 26 26 25 26 25 25 25 25 25 25 25 25 25 25 25 26 26 26 26 26 26 26 27 27 26 26 26 26 26 26 26 25 25 25 25 25 25 25 25 25 25 25 25
34 33 33 33 32 32 31 31 31 31 30 29 29 29 29 29 29 28 27 26 26 26 26 25 25 25 25 25 25 25 25 25 25 25 25 26 26 26 26 26 26 26 27 27 27 26 26 26 26 26 26 26 25 25 25 25 25 25 25 25 25 25 25
34 34 34 33 33 32 32 31 31 31 30 30 30 29 29 29 29 28 28 27 26 26 26 25 25 25 25 25 25 25 25 25 25 25 25 25 26 26 26 26 26 26 26 27 27 26 26 26 26 26 26 26 26 26 25 25 25 25 25 25 25 25 25
35 34 34 33 33 32 32 31 31 31 31 30 30 30 29 29 29 29 28 27 27 26 26 26 25 25 25 25 25 25 25 25 25 25 25 25 26 26 26 26 26 26 26 26 26 26 26 26 26 26 26 26 26 26 26 26 25 25 25 25 25 25 25
35 34 34 34 33 32 32 32 31 31 31 31 30 30 30 30 29 29 28 28 27 26 26 26 26 25 25 25 25 25 25 25 25 25 25 25 25 26 26 26 26 26 26 26 26 26 26 26 26 26 26 26 26 26 26 26 25 25 25 25 25 25 25
35 35 34 34 33 33 33 32 32 32 32 31 31 30 30 30 30 30 29 28 27 27 26 26 26 26 25 25 25 25 25 25 25 25 25 25 25 26 26 26 26 26 26 26 26 26 27 27 27 26 26 26 26 26 26 26 26 25 25 25 25 25 25
35 35 34 34 34 33 33 33 32 32 32 32 31 31 31 31 31 30 29 29 28 27 27 26 26 26 26 26 25 25 25 25 25 25 25 25 25 26 26 26 26 26 27 26 26 26 27 27 27 27 27 27 26 26 26 26 26 25 25 25 25 25 25
36 35 35 35 34 34 34 33 33 32 32 32 32 31 31 31 31 30 30 29 28 28 27 27 26 26 26 26 25 25 25 25 25 25 25 25 26 26 26 26 26 26 27 27 26 27 27 27 27 27 27 27 27 26 26 26 26 26 25 25 25 25 25
36 35 35 35 34 34 34 33 33 32 32 32 32 32 32 31 31 31 30 30 29 28 28 27 27 26 26 26 26 26 25 25 25 25 25 25 26 26 26 26 26 26 27 27 27 27 27 27 27 27 27 27 27 27 26 26 26 26 25 25 25 25 25
36 34 34 35 35 34 34 33 33 32 31 31 31 32 32 32 32 32 31 30 29 29 28 28 27 27 27 26 26 26 26 26 26 25 25 26 26 26 26 26 26 26 27 27 27 27 27 27 27 27 27 27 27 27 27 26 26 26 26 25 25 25 25
36 34 34 35 35 34 34 33 33 32 31 31 31 31 31 31 32 32 32 31 30 29 28 28 28 27 27 27 26 26 26 26 26 26 26 26 26 26 26 27 27 27 27 27 27 27 27 27 27 27 27 27 27 27 27 27 26 26 26 26 25 25 25
36 35 34 35 35 34 34 34 33 33 32 31 32 32 31 32 32 32 32 32 31 30 29 28 28 28 28 27 27 26 26 26 26 26 26 26 26 26 27 27 27 27 27 27 27 27 27 27 27 27 27 27 27 27 27 27 26 26 26 26 26 25 25
35 35 35 35 34 34 34 33 33 33 32 32 32 32 32 32 32 32 32 32 32 31 30 29 29 28 28 28 27 27 27 27 27 27 27 27 27 27 27 27 27 27 27 27 27 27 27 27 27 27 27 27 27 27 27 27 26 26 26 26 26 25 25
36 35 34 34 34 34 33 33 32 32 32 32 32 32 33 32 32 33 32 32 32 32 31 30 29 29 29 28 28 27 27 27 27 27 27 27 27 27 27 27 28 28 28 28 27 27 27 27 27 27 27 27 27 27 27 27 26 26 26 26 26 26 25
36 35 34 33 33 33 32 32 32 32 32 32 32 32 33 33 32 33 32 32 32 32 32 31 30 30 29 29 28 28 28 28 27 27 27 27 27 27 27 28 28 28 28 28 28 28 28 28 28 27 27 27 27 27 27 27 26 26 26 26 26 26 26
36 35 34 34 33 33 33 32 32 32 32 32 32 32 33 33 33 33 33 33 33 33 33 32 31 30 30 30 29 28 28 28 28 28 28 27 27 27 28 28 28 28 28 28 28 28 28 28 28 28 28 27 27 27 27 27 27 26 26 26 26 26 26
35 35 35 34 34 33 33 33 32 32 32 32 32 32 33 33 33 33 33 33 33 33 33 33 32 31 30 30 30 29 29 28 28 28 28 28 28 27 28 28 28 28 28 28 28 28 28 28 28 28 28 28 27 27 27 27 27 27 27 26 26 26 26
35 35 34 34 33 34 33 33 33 33 33 33 33 33 33 33 33 33 34 34 34 34 33 33 33 32 31 31 30 29 29 29 28 28 28 28 28 28 28 28 28 28 28 28 28 28 28 28 28 28 28 28 28 27 27 27 27 27 27 27 27 26 26
35 34 33 33 33 33 33 33 33 32 32 33 34 34 34 34 34 34 34 34 34 34 34 34 33 33 32 31 31 30 29 29 29 28 28 28 28 28 28 28 28 28 28 28 28 28 28 28 28 28 28 28 28 28 28 27 27 27 27 27 27 27 26
32 32 31 31 31 31 32 33 32 31 31 33 34 35 35 35 35 35 35 35 34 34 34 34 34 33 32 31 31 30 30 29 29 29 28 28 28 28 28 28 28 28 28 28 28 28 28 28 28 28 28 28 28 28 28 28 28 27 27 27 27 27 27
31 30 30 29 29 29 30 30 31 30 30 32 33 34 34 35 35 35 35 35 35 34 34 34 34 34 33 32 31 31 30 29 29 29 29 28 28 28 28 28 28 28 28 28 28 28 28 28 28 28 28 28 28 28 28 28 28 28 27 27 27 27 27
31 30 29 29 29 29 29 29 30 31 31 32 32 33 33 34 34 35 35 35 35 35 34 33 33 33 33 32 31 31 30 30 29 29 29 29 28 28 28 28 28 28 28 28 28 28 28 28 28 28 28 28 28 28 28 28 28 28 28 27 27 27 27
30 29 29 29 29 29 29 29 30 30 31 31 31 31 32 32 33 33 33 34 34 35 34 33 33 33 33 32 32 31 31 30 29 29 29 29 28 28 28 28 28 28 28 28 28 28 29 29 29 29 29 28 28 28 28 28 28 28 28 28 27 27 27
29 29 29 29 29 29 29 30 30 30 30 30 30 31 31 31 31 32 32 32 33 33 33 33 33 33 33 32 32 32 31 30 30 29 29 29 29 29 28 28 28 28 28 28 28 28 29 29 29 29 29 29 29 28 28 28 28 28 28 28 28 27 27
28 28 28 29 29 29 29 29 29 29 29 29 29 30 30 30 31 31 31 31 32 32 33 33 34 34 34 33 33 32 31 31 30 30 29 29 29 29 29 28 28 28 28 28 28 28 29 29 29 29 29 29 29 29 28 28 28 28 28 28 28 28 27
27 27 28 28 28 29 29 29 29 29 29 29 29 29 29 29 29 29 30 31 31 32 32 33 34 34 34 34 33 32 31 31 30 30 30 29 29 29 29 29 28 28 28 28 28 28 28 28 29 29 29 29 29 29 29 28 28 28 28 28 28 28 28
26 27 27 27 27 28 28 28 28 29 28 28 28 28 28 28 27 28 30 30 29 30 32 33 33 34 34 34 33 32 32 31 30 30 30 29 29 29 29 29 28 28 28 28 28 28 28 28 28 28 28 29 29 29 29 29 29 28 28 28 28 28 28
25 25 26 27 27 26 27 27 27 28 28 27 27 27 27 27 27 28 28 28 28 29 31 32 33 33 34 34 33 32 32 31 30 30 29 29 29 29 28 28 28 28 28 28 28 28 28 28 28 28 28 28 28 29 29 29 29 29 28 28 28 28 28
24 25 25 26 26 26 26 26 26 27 28 27 27 27 26 26 26 27 27 27 28 29 30 31 31 32 33 33 32 32 31 31 30 30 29 29 29 29 28 28 28 28 28 28 28 28 27 27 27 27 27 28 28 28 29 29 29 29 29 28 28 28 28
24 24 25 25 25 26 26 25 26 27 27 26 26 26 26 26 26 26 26 27 28 28 29 30 31 31 31 32 32 31 31 30 30 30 29 29 29 29 28 28 28 28 28 28 28 27 27 27 27 27 27 27 27 28 28 29 29 29 29 29 29 28 28
23 23 24 24 25 25 25 25 26 26 26 25 26 26 26 26 26 26 26 27 27 28 29 29 30 31 31 31 31 31 31 30 30 29 29 29 29 29 28 28 28 28 28 27 27 27 27 27 27 27 27 27 27 28 28 28 29 29 28 28 28 28 28
23 23 23 24 24 25 25 24 24 25 25 25 25 26 26 26 26 26 26 26 27 28 28 29 29 30 30 31 31 31 30 30 30 29 29 29 29 29 28 28 28 28 28 27 27 27 27 27 27 27 27 27 27 28 28 28 28 27 27 27 27 26 26
23 23 24 24 24 24 25 24 24 24 24 25 25 25 25 26 26 26 26 26 27 27 28 28 29 29 30 30 30 31 31 30 30 29 29 29 29 29 28 28 28 28 28 28 28 28 27 27 27 27 27 27 27 28 28 27 26 25 25 25 25 25 25
22 23 23 24 24 24 24 24 24 24 24 25 25 25 25 25 26 26 26 26 27 27 27 28 28 29 29 30 30 30 30 30 30 30 29 29 29 28 28 28 28 28 28 28 28 28 28 28 28 28 27 27 27 27 26 25 24 24 24 24 25 25 25
22 22 23 24 23 24 24 24 24 24 25 25 25 25 25 25 26 26 26 26 26 27 27 27 28 27 28 28 28 29 29 30 30 30 30 29 28 27 26 26 27 27 27 27 27 28 28 28 27 27 27 26 26 25 25 24 24 24 24 24 24 24 24
22 22 23 23 23 23 24 23 23 24 24 24 25 25 25 25 25 25 26 26 26 26 26 27 26 26 26 26 26 27 28 28 28 29 29 28 27 26 25 24 24 25 25 25 25 26 27 26 26 26 26 26 24 24 23 23 23 24 24 24 24 24 24
23 23 23 23 23 23 23 23 23 23 23 23 24 24 24 24 24 24 25 25 26 26 26 26 25 25 25 25 25 25 26 27 27 27 27 26 25 25 24 23 21 21 22 23 24 24 24 25 24 24 24 24 24 23 23 23 23 23 23 23 23 23 24

ECMWFFLT1_925_temp_042.txt.gz
Temp
32 31 31 30 30 30 30 30 29 29 29 28 28 27 27 27 26 26 26 25 25 25 25 25 25 24 24 24 24 24 24 24 24 24 24 25 25 25 25 25 26 25 25 25 25 25 25 25 25 25 25 24 24 24 24 25 25 24 24 24 24 24 24
32 31 31 31 30 30 30 30 29 29 29 29 28 28 27 27 26 26 26 25 25 25 25 25 25 25 24 24 24 24 24 24 24 24 24 24 25 25 25 25 25 26 26 26 26 26 25 25 26 25 25 25 24 25 25 25 25 24 24 24 24 24 24
32 32 31 31 30 30 30 30 29 29 29 29 29 28 28 27 27 26 26 26 25 25 25 25 25 25 25 24 24 24 24 24 24 24 24 24 25 25 25 25 25 26 26 26 26 26 26 26 26 26 25 25 25 25 25 25 25 24 24 24 24 24 24
32 32 32 31 31 30 30 30 29 29 29 29 29 28 28 28 27 27 26 26 26 25 25 25 25 25 25 24 24 24 24 24 24 24 24 25 25 25 25 25 25 25 25 25 26 26 26 26 26 26 26 25 25 25 25 25 25 25 24 24 24 24 24
32 32 32 31 31 30 30 30 29 30 29 29 29 29 28 28 27 27 26 26 26 26 25 25 25 25 24 24 24 24 24 24 24 24 24 24 25 25 25 25 25 25 25 25 26 26 26 26 26 26 26 25 25 25 25 25 25 25 24 24 24 24 24
32 32 32 31 31 30 30 30 30 30 30 29 29 29 29 28 28 27 27 26 26 26 26 25 25 25 25 24 24 24 24 24 24 24 24 24 24 24 25 25 25 25 25 25 25 26 26 26 26 26 26 25 25 25 25 25 25 25 25 24 24 24 24
32 32 32 32 31 31 30 30 30 30 30 30 29 29 29 28 28 27 27 26 26 26 26 25 25 25 25 25 24 24 24 24 24 24 24 24 24 24 24 25 25 25 25 25 25 25 26 26 26 26 26 26 25 25 25 25 25 25 24 24 24 24 24
33 32 32 32 32 31 31 30 30 30 30 30 29 29 29 29 28 28 27 27 26 26 26 25 25 25 25 25 24 24 24 24 24 24 24 24 24 24 24 24 25 25 25 25 25 25 25 26 26 26 26 26 25 25 25 25 25 25 24 24 24 24 24
33 33 32 32 32 31 31 31 30 30 30 29 29 29 29 29 28 28 28 27 26 26 26 26 25 25 25 25 25 25 24 24 24 24 24 24 24 24 24 24 25 25 25 25 25 25 25 26 26 26 26 26 25 26 25 25 25 25 25 24 24 24 24
33 33 32 32 32 32 31 31 30 30 29 29 29 29 29 29 29 28 28 27 27 26 26 26 26 25 25 25 25 25 24 24 24 24 24 24 24 24 24 24 24 25 25 25 25 25 25 26 26 26 26 25 25 25 25 25 25 25 25 25 25 24 24
33 33 32 32 32 32 31 31 30 30 29 29 29 29 29 29 29 29 28 28 27 27 26 26 26 26 25 25 25 25 24 24 24 24 24 24 24 24 24 24 24 24 25 25 25 25 25 25 25 25 26 26 26 26 25 25 25 25 25 25 25 25 25
33 33 32 32 32 31 31 30 30 30 29 29 29 29 29 29 29 29 29 28 28 27 27 26 26 26 25 25 25 25 24 24 24 24 24 24 24 24 24 24 24 24 25 25 25 25 25 25 25 25 25 26 26 26 26 26 25 25 25 25 25 25 25
33 32 32 32 32 31 31 30 30 30 29 29 29 29 29 29 29 29 29 29 28 28 27 27 26 26 26 25 25 25 25 25 24 24 24 24 24 24 24 24 24 25 25 25 25 25 25 25 25 25 25 26 26 26 26 26 25 25 25 25 25 25 24
33 32 32 32 32 31 31 30 30 30 29 29 29 29 29 29 29 30 29 29 29 28 28 27 27 26 26 26 25 25 25 25 25 25 25 25 24 24 24 24 25 25 25 25 25 25 25 25 25 25 25 26 26 26 26 25 25 25 25 25 25 25 25
33 32 32 32 32 31 31 30 30 30 29 29 29 29 29 30 30 30 30 29 29 29 28 28 27 27 26 26 26 26 25 25 25 25 25 25 25 25 25 25 25 25 25 25 25 25 25 25 25 25 25 25 25 26 26 25 25 25 25 25 25 25 25
33 33 33 32 32 32 31 30 30 29 29 29 29 29 30 30 30 30 30 30 29 29 29 28 27 27 27 26 26 26 26 25 25 25 25 25 25 25 25 25 25 25 25 25 25 25 25 25 26 26 25 25 25 25 25 25 25 26 26 25 25 25 25
33 33 33 32 32 32 31 31 30 29 30 29 29 29 30 30 30 30 30 30 30 29 29 28 28 27 27 27 26 26 26 26 25 25 25 25 25 25 25 25 25 25 25 25 25 25 25 25 26 26 26 26 25 25 25 25 26 26 26 26 26 25 25
34 33 33 33 32 32 31 31 30 30 30 30 30 30 30 30 30 30 31 31 30 30 29 29 28 28 27 27 27 27 26 26 26 25 25 25 25 25 25 25 25 25 25 25 25 25 25 25 26 26 26 26 26 26 25 26 26 26 26 26 26 26 25
32 32 32 32 32 32 31 31 30 30 30 30 30 30 31 30 30 30 31 31 31 31 30 29 29 28 28 27 27 27 27 26 26 26 26 25 25 25 25 25 25 25 25 25 25 26 25 26 26 26 26 26 26 26 26 26 26 26 26 26 26 26 25
30 30 30 31 31 31 31 30 30 29 30 30 31 31 31 31 31 31 31 31 31 31 31 30 30 29 28 28 28 27 27 27 26 26 26 26 26 25 25 25 25 25 25 25 25 26 26 26 26 26 26 26 26 26 26 26 26 26 26 26 26 26 26
28 28 28 28 29 29 29 30 30 29 29 31 31 31 31 31 31 31 31 31 31 31 31 31 30 30 29 28 28 28 27 27 27 26 26 26 26 26 25 25 25 25 25 25 26 26 26 26 26 26 26 26 26 26 26 26 26 26 26 26 26 26 26
27 27 27 27 27 28 28 28 29 28 28 30 31 31 31 32 32 31 31 31 31 31 31 31 31 30 30 29 28 28 28 27 27 27 27 26 26 26 26 26 26 25 26 26 26 26 26 26 26 26 26 26 26 26 26 26 26 26 26 26 26 26 26
27 27 27 27 27 26 26 27 27 27 27 28 29 30 30 31 32 32 32 32 31 31 31 31 31 31 30 29 29 29 28 28 27 27 27 27 26 26 26 26 26 26 26 26 26 26 26 26 26 26 26 26 26 26 26 26 26 26 26 26 26 26 26
27 27 26 26 26 26 26 26 27 27 27 27 27 28 29 30 31 32 31 31 31 31 31 31 31 31 30 30 29 29 29 28 28 28 27 27 27 26 26 26 26 26 26 26 26 26 26 27 27 27 26 26 26 26 26 26 26 26 26 26 26 26 26
26 26 26 26 26 26 26 26 27 27 27 26 26 27 28 29 30 30 30 31 31 31 30 30 30 31 31 30 30 30 29 29 28 28 28 27 27 27 27 27 27 27 26 26 26 26 27 27 27 27 27 27 27 27 26 26 26 26 26 27 27 26 26
25 25 25 25 25 25 26 26 26 26 26 25 26 27 28 28 29 29 29 29 30 30 30 30 30 31 31 31 31 30 30 29 29 28 28 28 28 27 27 27 27 27 27 26 26 27 27 27 27 27 27 27 27 27 27 27 26 26 27 27 27 27 27
24 24 25 24 25 25 25 25 25 25 25 26 26 27 27 28 28 28 28 29 29 29 29 30 30 31 31 31 31 31 30 30 29 29 28 28 28 28 28 27 27 27 27 27 27 27 27 27 27 27 27 27 27 27 27 27 27 27 27 27 27 27 27
23 24 24 24 24 24 24 24 24 25 25 26 26 26 26 27 26 26 27 27 27 28 29 29 30 31 31 31 31 31 31 30 29 29 28 28 28 28 28 28 27 27 27 27 27 27 27 27 27 27 27 27 27 27 27 27 27 27 27 27 27 27 27
23 23 23 23 23 24 24 23 23 24 25 25 26 26 26 26 25 25 25 26 26 27 28 29 30 31 31 31 31 31 31 30 29 29 29 28 28 28 28 28 28 27 27 27 27 27 27 27 27 27 27 27 27 27 27 27 28 28 28 28 28 28 28
22 22 22 22 23 23 23 23 23 24 24 25 26 25 26 26 25 24 25 25 26 27 28 29 30 31 31 31 31 31 31 30 30 29 29 28 28 28 28 28 27 27 27 27 27 27 26 26 26 26 26 26 27 27 27 27 28 28 28 28 28 28 28
21 22 22 22 22 23 23 23 23 24 24 25 25 25 25 26 25 25 25 25 26 27 27 28 29 30 31 30 30 30 30 30 29 29 29 28 28 28 27 27 27 27 27 27 27 26 26 26 26 26 26 26 26 27 27 27 27 28 28 28 28 28 28
21 21 21 21 22 23 23 23 23 23 23 24 25 25 25 25 25 25 25 26 26 26 27 28 28 29 30 30 30 29 29 29 29 28 28 28 28 28 28 27 27 27 26 26 26 26 26 26 26 26 26 26 26 26 27 27 27 27 28 28 27 28 28
21 20 20 21 22 22 23 23 23 23 23 23 24 25 25 25 25 25 25 26 26 26 27 28 28 28 29 30 30 29 29 29 28 28 28 28 28 27 27 27 27 27 26 26 26 26 26 26 26 26 26 25 26 26 27 27 27 27 27 27 27 27 27
21 21 21 21 22 22 22 22 22 23 23 23 24 25 25 25 25 25 25 26 26 26 27 28 28 27 28 29 29 29 29 29 28 28 27 27 27 27 27 27 27 27 27 27 26 26 26 26 26 26 26 26 26 26 26 26 26 26 26 26 26 27 27
21 20 21 21 22 22 22 21 22 23 23 24 24 24 24 24 24 24 25 25 26 26 27 27 27 27 27 28 28 28 28 28 28 28 27 26 26 25 25 25 26 26 26 26 27 27 27 26 26 26 26 26 26 26 25 25 25 25 25 25 26 26 26
20 20 21 22 22 22 22 22 22 22 22 23 23 24 23 24 24 24 24 25 25 26 26 26 27 27 27 27 27 27 28 28 28 27 27 26 25 24 23 23 24 25 25 25 26 26 26 26 26 26 26 26 26 25 25 25 25 24 24 25 25 25 25
20 20 21 21 22 22 22 22 22 22 22 22 22 23 23 23 23 24 24 24 24 25 26 26 26 26 26 26 27 27 28 28 27 27 26 25 24 24 23 22 22 23 24 24 25 25 26 26 26 25 25 25 25 25 24 24 24 24 24 24 24 25 25
21 21 21 21 21 21 21 21 21 21 21 21 22 22 23 23 23 23 24 24 24 25 25 25 25 25 25 25 26 27 28 28 27 26 25 24 23 23 23 22 20 20 21 22 23 24 24 24 24 24 24 24 24 24 23 23 23 23 23 24 24 24 24

ECMWFFLT1_925_temp_045.txt.gz
Temp
31 30 30 29 29 29 29 29 28 28 28 27 27 27 26 26 26 25 25 25 25 24 24 24 24 24 24 24 24 24 24 24 24 24 24 24 24 24 24 24 24 24 24 24 25 25 25 25 25 25 25 25 24 24 25 24 24 24 24 24 24 24 24
31 30 30 30 29 29 29 29 28 28 28 28 27 27 27 26 26 26 25 25 25 24 24 24 24 24 24 24 24 24 24 24 24 24 23 23 23 24 24 24 24 24 24 25 25 25 25 25 25 25 25 25 25 25 24 25 24 24 24 24 24 24 24
31 31 30 30 30 29 29 29 28 28 28 28 27 27 27 26 26 26 25 25 25 25 24 24 24 24 24 24 24 24 24 24 24 24 23 23 23 23 24 24 24 24 24 25 25 25 25 25 25 25 25 25 25 25 24 24 24 24 24 24 24 24 24
31 31 31 30 30 29 29 29 28 28 28 28 28 27 27 27 26 26 26 25 25 25 24 24 24 24 24 24 24 23 24 23 24 24 24 24 24 23 23 24 24 24 24 24 25 25 25 25 25 25 25 25 25 25 25 24 24 24 24 24 24 24 24
31 31 31 30 30 30 29 29 29 29 29 28 28 27 27 27 26 26 26 25 25 25 25 24 24 24 24 24 24 24 24 23 23 24 24 24 23 23 23 24 24 24 24 24 25 25 25 25 25 25 25 25 25 25 25 25 24 24 24 24 24 24 24
31 31 31 30 30 30 29 29 29 29 29 29 28 28 27 27 26 26 26 26 25 25 25 24 24 24 24 24 24 24 23 23 23 23 23 23 23 23 23 24 24 24 24 24 25 25 25 25 25 25 25 25 25 25 25 25 25 25 24 24 24 24 24
32 31 31 31 30 30 30 30 29 29 29 29 28 28 27 27 27 26 26 26 25 25 25 24 24 24 24 24 24 24 24 23 23 23 23 23 23 23 23 24 24 24 24 24 24 25 25 25 25 25 25 25 25 25 25 25 25 25 24 24 24 24 24
32 32 31 31 31 30 30 30 29 29 29 29 28 28 27 27 27 26 26 26 25 25 25 25 24 24 24 24 24 24 24 24 23 23 23 23 23 23 23 23 24 24 24 24 24 24 25 25 25 25 25 25 25 25 25 25 25 25 25 24 24 24 24
32 32 32 31 31 31 30 30 29 29 29 29 28 28 28 27 27 27 26 26 26 25 25 25 25 24 24 24 24 24 24 24 24 23 23 23 23 23 23 23 24 24 24 24 24 24 24 25 25 25 25 25 25 25 25 25 25 25 25 24 24 24 24
32 32 32 32 31 31 30 30 29 29 28 28 28 28 28 27 27 27 27 26 26 26 25 25 25 25 24 24 24 24 24 24 24 23 23 23 23 23 23 23 23 23 24 24 24 24 24 24 25 25 25 25 25 25 25 25 25 25 25 25 24 24 24
32 32 32 32 31 31 30 29 29 29 28 28 28 28 28 28 28 27 27 27 26 26 26 25 25 25 24 24 24 24 24 24 24 23 23 23 23 23 23 23 23 23 23 24 24 24 24 24 24 24 24 25 25 25 25 25 25 25 25 25 25 24 24
32 31 31 31 31 30 30 29 29 29 28 28 28 28 28 28 28 27 27 27 26 26 26 25 25 25 25 24 24 24 24 24 24 24 23 23 23 23 23 23 23 23 23 24 24 24 24 24 24 24 24 25 25 25 25 25 25 25 25 25 24 24 24
32 31 31 31 31 30 30 29 29 29 28 28 28 28 28 28 28 28 27 27 27 26 26 26 26 25 25 25 24 24 24 24 24 24 24 24 23 23 23 23 23 23 23 24 24 24 24 24 24 24 24 24 25 25 25 25 25 25 24 24 24 24 24
31 31 31 31 30 30 29 29 29 29 28 28 28 28 28 28 28 28 28 27 27 27 26 26 26 25 25 25 25 24 24 24 24 24 24 24 24 24 23 23 23 23 23 23 23 24 24 24 24 24 24 24 24 24 24 24 24 24 24 24 24 24 24
31 31 31 30 30 30 29 29 29 29 28 28 28 28 28 28 28 28 28 28 27 27 27 26 26 25 25 25 25 25 24 24 24 24 24 24 24 24 23 23 23 23 23 23 23 24 24 24 24 24 24 24 24 24 24 24 24 24 24 24 24 24 24
31 31 31 30 30 30 29 29 29 28 28 28 28 28 28 28 28 28 28 28 27 27 27 26 26 26 25 25 25 25 25 24 24 24 24 24 24 24 23 23 23 23 23 23 23 24 24 24 24 24 24 24 24 24 24 24 24 24 24 24 24 24 24
31 31 31 30 30 30 30 29 29 28 28 28 28 28 28 28 28 28 28 28 28 27 27 27 26 26 25 25 25 25 25 24 24 24 24 24 24 24 24 23 23 23 23 23 23 24 24 24 24 24 24 24 24 24 24 24 24 24 24 25 25 24 24
31 31 31 31 30 30 30 29 29 28 28 28 28 28 28 28 28 28 28 28 28 28 27 27 26 26 26 25 25 25 25 25 24 24 24 24 24 24 24 23 23 23 23 23 23 23 23 24 24 24 24 24 24 24 24 24 24 24 24 24 24 24 24
31 31 31 31 30 30 30 29 29 28 28 28 28 28 28 28 28 28 28 28 28 28 28 27 27 26 26 26 26 25 25 25 24 24 24 24 24 24 24 23 23 23 23 23 23 23 23 24 24 24 24 24 24 24 24 24 24 24 24 24 24 24 24
31 31 31 31 30 30 30 29 29 28 28 28 29 29 29 29 29 29 29 29 29 28 28 28 27 27 26 26 26 26 25 25 25 24 24 24 24 24 24 23 23 23 23 23 23 23 24 24 24 24 24 24 24 24 24 24 24 24 24 24 25 24 24
30 30 30 30 30 29 29 29 29 28 28 28 29 29 29 29 29 29 29 29 29 29 28 28 27 27 27 26 26 26 26 25 25 25 24 24 24 24 24 24 24 24 23 24 24 24 24 24 24 24 24 24 24 24 24 24 24 25 25 25 25 24 24
27 28 28 28 29 28 28 28 28 27 28 28 29 29 29 29 29 29 29 29 29 29 28 28 28 27 27 26 26 26 26 25 25 25 25 25 24 24 24 24 24 24 24 24 24 24 24 24 24 24 24 24 24 24 24 24 25 25 25 25 25 24 24
25 26 26 26 26 26 26 26 27 27 28 29 29 29 29 29 29 29 29 29 29 29 28 28 28 27 27 27 27 26 26 26 26 25 25 25 24 24 24 24 24 24 24 24 24 24 24 24 24 24 24 24 24 24 24 24 25 25 25 25 25 25 24
24 25 25 25 25 25 25 25 26 26 27 28 28 28 30 30 30 29 29 29 29 29 28 28 28 28 27 27 27 27 27 26 26 26 25 25 25 25 24 24 24 24 24 24 24 24 24 24 24 24 24 24 24 24 24 24 25 25 25 25 25 25 25
24 24 24 24 25 24 24 25 25 25 26 26 25 27 29 30 30 30 29 29 29 29 29 28 28 28 28 28 28 27 27 27 26 26 26 25 25 25 25 25 25 25 24 24 24 24 24 24 24 24 25 25 25 25 25 25 25 25 25 25 25 25 25
23 23 23 23 24 24 24 24 24 24 24 24 25 26 28 29 29 28 28 29 29 29 29 29 29 29 29 29 28 28 28 27 27 26 26 26 26 26 25 25 25 25 25 24 24 24 24 25 25 25 25 25 25 25 25 25 25 25 25 25 25 25 25
22 22 23 23 23 23 24 24 24 23 23 23 25 27 28 28 27 26 26 27 27 27 27 28 28 29 29 29 29 28 28 28 27 27 27 27 26 26 26 26 25 25 25 25 25 24 25 25 25 25 25 25 25 25 25 25 25 25 25 25 25 25 26
22 22 22 22 23 23 23 23 23 23 23 24 25 26 27 27 25 24 25 26 25 25 26 27 28 28 28 29 29 29 28 28 28 27 27 27 27 26 26 26 26 26 25 25 25 25 25 25 25 25 25 25 25 25 25 25 26 26 26 26 26 26 26
21 21 21 22 22 22 22 22 22 22 22 24 25 26 26 26 25 24 25 25 25 26 27 27 27 28 28 29 29 29 29 29 28 28 27 27 27 27 26 26 26 26 26 25 25 25 25 25 25 25 25 25 25 25 26 26 26 26 26 26 26 26 26
20 21 21 21 21 22 22 21 21 22 22 24 25 25 25 25 24 24 24 24 25 26 27 27 28 28 28 28 28 29 29 29 28 28 28 28 28 27 27 26 26 26 26 25 25 25 25 25 25 25 25 25 25 25 26 26 26 26 26 26 26 26 26
20 20 20 21 21 22 22 22 22 22 22 23 24 24 24 25 25 24 24 24 26 26 27 27 28 28 28 28 28 28 28 28 28 28 28 28 27 27 27 27 26 26 25 25 25 25 25 25 25 25 25 25 25 25 26 26 26 26 27 27 27 27 27
20 20 20 20 21 21 22 22 22 22 21 21 23 24 24 24 24 24 24 25 26 26 26 27 27 28 28 28 28 27 28 27 27 27 27 27 27 27 27 27 26 26 26 25 25 25 25 25 25 25 25 25 25 25 25 26 26 26 27 27 27 27 27
20 19 19 20 20 21 21 21 21 21 20 20 22 23 24 24 24 24 24 25 26 26 26 27 27 27 28 28 27 27 27 27 27 27 27 27 27 27 27 27 26 26 26 25 25 25 25 25 25 25 24 24 25 25 25 26 26 26 26 26 27 27 27
20 19 19 20 20 20 20 20 20 20 20 20 21 22 23 23 24 24 24 25 25 26 26 26 26 27 27 27 27 27 26 26 27 26 26 26 26 26 26 26 26 26 26 25 25 25 25 25 25 25 25 25 25 25 25 25 26 26 26 26 26 27 26
19 19 19 19 20 20 20 20 19 19 19 19 20 22 23 23 23 24 24 24 25 25 26 26 26 26 27 27 26 26 26 26 26 26 25 25 25 24 24 24 25 25 25 25 25 25 25 25 25 25 25 25 25 25 25 25 25 26 26 26 26 26 26
18 18 19 19 20 20 20 20 20 20 19 19 21 22 23 23 24 23 23 23 24 25 25 25 26 26 26 26 26 25 25 25 25 25 24 24 23 22 22 22 23 24 24 25 25 25 25 25 25 26 26 26 25 25 25 25 26 26 25 25 25 25 25
18 18 19 19 19 19 19 20 20 20 19 20 21 22 22 23 23 23 23 23 24 24 24 24 25 25 25 25 25 25 25 25 24 24 23 23 22 22 21 21 21 22 23 24 24 24 25 25 25 25 26 25 25 25 24 25 25 25 24 24 24 24 24
19 19 19 19 19 19 19 19 19 19 19 20 21 22 22 22 23 23 23 23 24 24 24 24 24 24 24 24 25 25 25 25 24 23 22 22 22 22 22 22 21 20 20 22 23 24 24 24 24 25 25 25 24 24 24 23 23 23 23 23 23 23 23

ECMWFFLT1_925_temp_048.txt.gz
Temp
29 29 29 29 28 28 28 28 27 27 27 26 26 26 26 25 25 25 24 24 24 23 23 23 23 23 23 23 23 23 23 23 23 23 23 23 23 23 24 24 24 24 24 24 24 24 24 25 25 25 25 25 25 25 24 24 24 24 24 24 24 23 23
29 29 29 29 29 28 28 28 27 27 27 27 26 26 26 25 25 25 24 24 24 24 24 23 23 23 23 23 23 23 23 23 23 23 23 23 23 23 24 24 24 24 24 24 24 24 24 25 25 25 25 25 25 25 24 24 24 24 24 24 24 24 23
30 30 29 29 29 28 28 28 27 27 27 27 27 26 26 26 25 25 25 24 24 24 24 23 23 23 23 23 23 23 23 23 23 23 23 23 23 23 23 24 24 24 24 24 24 24 24 24 25 25 25 25 25 25 25 24 24 24 24 24 24 24 24
30 30 30 29 29 29 28 28 28 28 28 27 27 26 26 26 25 25 25 25 24 24 24 23 23 23 23 23 23 23 23 23 23 23 23 23 23 23 23 23 23 24 24 24 24 24 24 24 24 24 25 25 25 25 25 25 24 24 24 24 24 24 24
30 30 30 30 29 29 28 28 28 28 28 28 27 27 26 26 26 25 25 25 25 24 24 24 23 23 23 23 23 23 23 23 23 23 23 23 23 23 23 23 23 23 24 24 24 24 24 24 24 24 24 25 25 25 25 25 25 24 24 24 24 24 24
30 30 30 30 29 29 29 28 28 28 28 28 28 27 27 26 26 26 25 25 25 24 24 24 24 23 23 23 23 23 23 23 23 23 23 23 23 23 23 23 23 23 23 24 24 24 24 24 24 24 24 24 25 25 25 25 25 24 24 24 24 24 24
30 30 30 30 30 30 29 29 29 28 28 28 28 27 27 26 26 26 25 25 25 25 24 24 24 24 23 23 23 23 23 23 23 23 23 23 23 23 23 23 23 23 23 23 24 24 24 24 24 24 24 24 24 25 25 25 25 25 24 24 24 24 24
31 30 30 30 30 30 29 29 29 29 28 28 28 27 27 27 26 26 26 25 25 25 24 24 24 24 24 23 23 23 23 23 23 23 23 23 23 23 23 23 23 23 23 23 23 24 24 24 24 25 24 24 24 24 24 24 24 24 24 24 24 24 24
31 31 30 31 30 30 30 29 29 29 28 28 28 27 27 27 26 26 26 25 25 25 25 24 24 24 24 23 23 23 23 23 23 23 23 23 23 23 23 23 23 23 23 23 23 23 24 24 24 24 24 24 24 24 24 24 24 24 24 24 24 24 24
32 31 31 31 31 31 30 30 29 28 28 28 27 27 27 27 27 26 26 26 25 25 25 25 24 24 24 24 23 23 23 23 23 23 23 23 23 23 23 23 23 23 23 23 23 23 23 24 24 24 24 24 24 24 24 24 24 24 24 24 24 24 24
32 31 31 31 30 30 30 29 29 28 27 27 27 27 27 27 27 26 26 26 26 25 25 25 25 24 24 24 23 23 23 23 23 23 23 23 23 23 23 23 23 23 23 23 23 23 23 23 23 23 24 24 24 24 24 24 24 24 24 24 24 24 24
31 31 31 31 30 30 30 29 29 28 27 27 27 28 27 27 27 27 26 26 26 26 25 25 25 24 24 24 23 23 23 23 23 23 23 23 23 23 23 23 23 23 23 23 23 23 23 23 23 23 23 24 24 24 24 25 24 24 24 24 24 24 24
31 31 31 30 30 30 29 29 28 28 27 27 28 28 27 27 27 27 26 26 26 26 25 25 25 24 24 24 24 23 23 23 23 23 23 23 23 23 23 23 23 23 23 23 23 23 23 23 23 23 23 24 24 24 24 24 24 24 24 24 24 24 24
30 30 31 30 30 29 29 28 28 28 28 27 28 28 27 27 27 27 26 26 26 26 26 25 25 25 24 24 24 24 23 23 23 23 23 23 23 23 23 23 23 23 23 23 23 23 23 23 23 23 23 23 24 24 24 24 24 24 24 24 24 24 24
30 30 30 30 30 29 29 28 28 28 28 28 27 27 27 27 27 27 26 26 26 26 26 25 25 25 24 24 24 24 24 24 23 23 23 23 23 23 23 23 23 23 23 23 23 23 23 23 23 23 23 23 23 23 23 23 23 23 24 24 24 24 24
30 30 30 30 29 29 29 28 28 28 28 28 27 27 27 27 27 27 27 26 26 26 26 26 25 25 25 24 24 24 24 24 23 23 23 23 23 23 23 23 23 23 23 23 23 23 23 23 23 23 23 23 23 23 23 23 23 23 24 24 24 24 24
29 30 30 30 29 29 29 28 28 28 28 27 27 27 27 27 27 27 27 27 26 26 26 26 25 25 25 24 24 24 24 24 23 23 23 23 23 23 23 23 23 23 23 23 23 23 23 23 23 23 23 23 23 23 23 23 23 23 23 24 24 24 24
29 29 29 29 29 29 29 28 28 27 28 27 27 27 27 27 27 27 27 27 27 26 26 26 25 25 25 25 24 24 24 24 23 23 23 23 23 23 23 23 23 23 23 23 23 23 23 23 23 23 23 23 23 23 23 23 23 23 23 23 23 23 23
29 29 29 29 29 29 29 28 28 28 28 28 27 28 28 28 27 27 27 27 27 26 26 26 25 25 25 25 25 24 24 24 24 23 23 23 23 23 23 23 23 23 23 23 23 23 23 23 23 23 23 23 23 23 23 23 23 23 23 23 23 23 23
29 29 29 29 29 29 29 28 28 28 28 28 28 28 28 28 28 27 27 27 27 27 26 26 26 25 25 25 25 24 24 24 24 24 23 23 23 23 23 23 23 23 23 23 23 23 22 23 23 23 23 23 23 23 23 23 23 23 23 23 23 23 23
30 30 29 29 29 29 28 28 28 28 27 28 28 28 28 28 28 28 27 27 27 27 26 26 26 25 25 25 25 24 24 24 24 24 24 23 23 23 23 23 23 23 23 23 23 23 23 23 23 23 23 23 23 23 23 23 23 23 23 23 23 23 23
28 30 29 29 29 28 28 28 28 27 27 28 28 28 28 28 28 28 28 27 27 27 26 26 26 26 25 25 25 25 24 24 24 24 24 24 23 23 23 23 23 23 23 23 23 23 23 23 23 23 23 23 23 23 23 23 23 23 23 23 23 23 23
25 27 29 28 27 27 27 27 27 27 27 27 28 28 28 28 28 28 27 27 27 27 26 26 26 26 25 25 25 25 25 24 24 24 24 24 23 23 23 23 23 23 23 23 23 23 23 23 23 23 23 23 23 23 23 23 23 23 23 23 23 23 23
23 25 26 27 26 25 25 26 27 27 27 27 27 28 28 28 28 27 27 27 27 27 26 26 26 26 26 25 25 25 25 25 24 24 24 24 23 23 23 23 23 23 23 23 23 23 23 23 23 23 23 23 23 23 23 23 23 23 23 23 23 23 23
22 23 24 25 26 26 25 26 27 27 27 27 27 27 28 28 28 27 27 27 27 27 26 26 26 26 26 26 26 25 25 25 25 25 24 24 24 24 24 24 23 23 23 23 23 23 23 23 23 23 23 23 23 23 23 23 23 23 23 23 23 23 23
21 22 23 23 24 25 25 26 26 26 27 27 27 28 28 28 28 27 27 27 27 27 26 27 27 27 27 26 26 26 26 25 25 25 24 24 24 24 24 24 24 24 23 23 23 23 23 23 23 23 23 23 23 23 23 23 23 23 24 24 24 24 23
21 22 22 22 23 24 24 25 25 25 25 26 27 28 28 28 27 27 27 27 27 27 27 27 27 27 27 27 27 26 26 26 25 25 25 25 25 24 24 24 24 24 24 23 23 23 23 23 23 23 23 23 23 23 23 23 23 24 24 24 24 24 24
21 21 22 22 22 23 23 23 23 23 23 24 26 27 28 28 27 26 26 26 26 27 27 27 27 27 27 27 27 27 26 26 26 26 25 25 25 25 24 24 24 24 24 24 23 23 23 23 23 23 23 23 23 24 24 24 24 24 24 24 24 24 24
20 21 21 21 21 22 22 22 21 21 22 23 24 26 27 27 25 25 25 25 25 26 27 27 27 27 27 27 27 27 27 26 26 26 26 26 25 25 25 25 24 24 24 24 24 24 23 23 23 23 23 23 24 24 24 24 24 24 24 24 24 24 24
20 20 21 21 21 21 21 21 21 20 21 22 23 24 25 25 24 24 24 24 25 26 27 27 27 27 27 28 28 27 27 27 27 26 26 26 26 25 25 25 25 24 24 24 24 24 23 23 23 23 23 23 24 24 24 24 24 24 25 25 25 25 25
20 20 20 20 20 21 21 20 20 20 20 21 22 23 24 25 24 23 23 23 25 26 27 27 27 27 27 28 28 28 28 28 27 27 27 27 26 26 25 25 25 24 24 24 24 24 23 23 23 23 23 23 23 24 24 24 24 25 25 25 25 25 25
19 19 19 20 20 20 20 20 20 20 20 20 22 23 24 25 25 23 23 24 25 26 26 27 27 27 27 27 27 27 27 27 27 27 27 26 26 26 26 25 25 25 24 24 24 24 24 24 23 23 23 23 23 24 24 24 25 25 25 25 25 25 25
19 19 19 19 19 20 20 20 20 20 20 19 20 22 23 23 24 23 24 25 25 26 26 26 27 27 27 27 27 27 27 26 26 26 26 26 26 26 26 25 25 25 24 24 24 24 24 24 24 23 23 23 24 24 24 24 25 25 25 25 25 25 26
19 19 19 19 19 19 19 19 19 19 19 19 20 21 22 22 23 24 25 25 25 26 26 26 26 27 27 27 27 27 27 26 26 25 25 25 25 25 25 25 25 25 24 24 24 24 24 24 24 24 24 24 24 24 24 24 24 25 25 25 26 26 26
18 18 18 18 19 19 19 19 19 19 19 19 20 21 22 22 22 24 25 25 25 26 26 26 26 26 26 26 26 26 26 25 25 25 25 24 24 24 24 24 24 25 25 25 25 25 24 24 24 24 25 24 24 24 24 24 24 25 26 26 26 26 26
18 18 18 18 19 19 19 19 19 19 18 19 20 21 21 22 22 23 24 24 25 25 25 25 25 25 25 26 26 25 25 24 24 24 24 23 22 22 21 22 23 24 24 24 24 25 25 25 25 25 25 25 25 25 24 25 25 25 25 25 25 25 25
17 18 18 18 18 19 19 18 19 19 18 19 20 21 21 22 22 23 23 24 24 25 25 25 25 24 24 24 24 24 24 24 23 22 21 21 21 21 21 21 21 22 23 24 24 24 24 25 25 25 25 25 25 25 24 24 24 24 24 24 24 24 24
17 18 18 18 18 18 18 18 18 18 18 19 20 21 21 22 22 22 23 23 24 24 24 24 24 24 23 23 23 24 23 23 22 21 20 19 20 21 21 21 20 20 20 22 23 23 24 24 24 24 24 24 24 24 24 23 23 23 23 23 23 23 23

ECMWFFLT1_925_temp_054.txt.gz
Temp
35 35 34 33 33 32 32 31 31 31 30 30 29 29 29 29 28 28 27 26 26 25 25 24 24 24 24 24 24 24 24 24 24 24 24 25 25 25 25 25 26 26 26 27 26 26 26 26 25 25 25 25 25 24 24 24 24 24 24 24 24 24 24
36 35 35 34 33 32 32 32 32 31 31 30 29 29 29 29 28 28 27 26 26 25 25 24 24 24 24 24 25 24 24 24 24 24 24 25 25 25 25 25 26 25 26 27 27 26 26 25 25 25 25 25 25 25 24 24 24 24 24 24 24 24 24
36 36 36 35 34 33 32 32 32 31 31 30 30 29 29 29 28 28 27 27 26 26 25 25 24 25 24 24 25 24 24 24 25 25 25 25 25 25 25 25 25 26 26 26 26 26 26 25 25 25 25 25 25 25 25 24 24 24 24 24 24 24 24
36 37 36 35 34 33 33 32 32 32 31 31 30 30 29 29 28 28 27 27 26 26 26 25 25 25 25 25 25 25 24 24 25 25 25 25 25 25 25 25 25 26 26 26 26 26 26 26 25 25 25 25 25 25 25 25 25 24 24 24 24 24 24
37 37 37 36 35 34 33 33 33 32 32 32 31 30 29 29 28 28 28 27 27 27 26 26 26 25 25 25 25 25 25 24 25 25 25 25 25 25 25 26 25 26 26 26 26 26 25 26 26 25 25 25 25 25 25 25 25 25 24 24 25 25 25
37 37 37 37 36 35 34 33 34 33 32 32 31 30 30 29 29 29 28 28 28 27 27 26 26 26 25 25 25 25 25 25 25 25 25 25 25 25 25 26 26 26 26 26 26 26 25 25 26 26 25 25 26 26 26 25 25 25 25 24 25 25 25
37 37 37 37 37 36 35 34 34 34 33 33 32 31 31 30 30 30 29 28 28 28 27 27 27 26 26 26 26 25 25 25 25 25 25 25 25 25 25 26 26 26 26 26 26 26 25 25 26 26 26 26 26 26 26 26 25 25 25 25 25 25 25
38 38 37 37 37 37 36 35 35 35 33 33 33 32 31 31 31 30 30 29 29 29 28 28 28 27 26 26 26 26 25 25 25 25 25 25 25 25 25 25 25 26 26 26 26 26 26 25 25 25 25 26 26 26 26 25 25 25 25 25 25 25 25
38 38 37 38 38 38 37 35 35 35 34 33 33 32 32 31 31 31 31 30 30 29 29 29 28 28 27 26 26 26 26 26 26 25 25 26 26 26 26 26 26 25 26 26 26 26 25 26 26 25 25 25 25 25 25 25 25 25 25 25 25 25 25
38 38 37 38 38 38 37 36 35 35 34 33 33 32 32 32 32 31 31 31 31 30 30 29 29 28 27 26 26 26 26 26 26 26 26 26 27 27 27 27 26 26 26 26 26 26 26 26 26 25 25 25 25 25 25 25 25 25 25 25 25 25 25
38 38 37 37 37 37 37 36 35 34 33 33 32 32 32 32 32 32 31 31 31 31 30 30 30 29 28 27 27 27 27 26 27 27 26 27 27 27 27 27 27 26 26 26 27 27 26 25 25 25 25 25 25 25 25 25 25 25 25 25 25 25 25
36 36 35 35 36 36 36 35 34 33 33 33 32 33 32 31 32 32 32 32 31 31 31 30 30 29 28 28 28 28 27 27 27 27 27 27 28 28 28 28 28 27 26 26 27 27 27 26 25 25 25 25 25 25 25 25 25 25 25 25 26 25 25
35 35 35 34 35 35 35 35 34 33 32 33 33 33 32 32 32 32 32 32 32 31 31 30 30 30 29 28 28 28 28 27 27 27 27 27 28 28 28 28 28 28 27 27 27 27 27 26 25 25 25 25 25 25 25 25 25 25 24 25 26 26 25
34 35 35 34 34 34 34 34 33 32 32 33 33 33 33 32 32 32 32 31 32 32 31 31 30 30 29 29 28 28 28 28 28 27 27 27 27 28 28 28 28 28 27 27 27 27 27 27 26 25 25 25 25 25 25 25 25 25 24 25 25 25 25
34 35 35 35 34 33 33 33 33 32 32 33 33 33 33 32 32 32 32 31 31 32 31 31 30 30 29 29 28 28 28 28 28 27 27 27 27 27 27 28 27 27 27 27 27 27 27 27 27 26 26 25 25 25 25 25 25 25 25 25 25 25 26
34 35 35 35 35 34 33 33 32 32 31 32 33 33 33 33 32 32 32 31 31 31 31 31 30 30 29 29 28 28 28 28 27 27 27 27 26 26 27 27 27 27 27 26 26 26 27 27 27 27 26 26 25 25 25 25 25 25 25 25 25 25 26
32 32 33 34 34 34 34 33 33 32 31 32 32 33 33 33 32 32 32 32 31 31 31 31 30 29 29 29 29 28 27 27 27 27 26 26 26 26 26 26 26 26 26 26 26 26 26 26 26 27 27 26 26 26 26 26 26 25 25 25 25 25 25
30 30 31 31 32 32 33 34 34 33 32 32 33 33 33 32 32 32 32 32 31 31 31 31 30 29 29 29 28 28 27 27 27 26 26 26 26 26 26 26 26 26 26 26 26 25 26 26 26 26 27 27 27 26 26 26 26 25 25 25 26 26 26
29 29 30 30 30 30 31 33 34 34 33 33 33 33 33 33 32 32 32 32 31 31 31 31 30 29 29 29 28 27 27 26 26 26 26 26 25 25 25 25 25 26 25 26 26 25 25 26 26 26 26 26 27 27 27 27 26 25 25 25 26 26 26
28 28 29 29 30 30 30 31 32 34 34 34 33 33 33 33 32 32 32 32 31 31 31 31 30 29 29 28 28 27 26 26 26 26 26 25 25 25 25 25 25 25 26 26 26 25 25 25 25 25 25 26 26 26 27 27 27 26 25 25 25 26 25
27 28 28 28 29 29 29 29 30 33 35 34 34 34 33 33 32 32 32 32 31 31 31 30 30 29 28 28 28 27 26 26 26 26 26 25 25 25 25 25 25 25 26 26 26 26 25 25 25 25 25 25 26 26 26 27 27 26 25 25 25 25 24
25 26 27 28 28 29 29 29 30 32 34 34 34 34 34 33 33 32 32 32 31 31 31 30 29 29 28 28 28 27 27 27 26 26 26 25 25 25 25 25 25 25 25 26 26 26 26 26 26 26 25 25 26 26 26 27 26 26 25 25 24 24 24
23 24 27 28 29 29 29 29 30 31 33 34 34 34 34 33 33 33 33 32 32 31 30 30 29 29 28 28 28 27 27 27 26 26 26 26 25 25 25 25 25 25 25 26 27 27 27 26 26 26 26 26 26 26 26 26 26 26 25 25 24 24 24
21 23 27 29 29 29 30 30 31 32 33 34 34 34 34 33 33 33 33 32 32 31 30 30 29 29 28 28 28 28 27 27 27 26 26 26 26 26 26 26 25 25 25 26 26 27 27 27 27 27 27 26 26 26 26 26 26 26 25 25 24 24 24
20 23 27 29 29 29 30 31 32 32 33 33 33 34 34 33 33 32 32 32 32 31 30 30 29 29 28 28 28 28 27 27 27 27 26 26 26 26 26 26 26 26 26 26 27 27 28 27 27 27 27 27 27 26 26 26 27 26 25 25 25 24 24
19 23 28 29 29 29 29 31 31 32 33 33 33 34 33 33 33 32 32 32 31 31 30 30 29 29 29 28 28 28 27 27 27 27 26 26 26 26 26 26 26 26 26 26 27 27 27 28 28 28 27 27 27 27 26 27 27 26 26 25 25 25 24
20 24 28 29 29 28 29 31 32 32 33 33 32 33 33 32 32 32 31 31 31 31 31 30 30 29 29 28 29 28 28 27 27 27 27 26 26 26 26 27 27 27 27 27 27 27 27 28 28 28 28 28 28 28 27 27 27 27 26 25 25 25 24
20 25 27 28 29 28 29 31 32 32 33 33 32 32 32 32 32 31 30 31 31 31 31 30 30 29 28 28 29 28 28 27 27 27 27 27 26 26 27 27 27 27 27 27 28 28 27 27 27 28 28 28 28 28 27 27 27 26 26 26 25 25 24
18 23 26 27 29 29 29 31 32 32 33 32 32 32 32 32 31 30 30 31 31 31 31 30 29 29 28 28 28 28 28 27 27 27 27 27 27 26 27 27 27 27 27 27 27 27 27 27 27 27 28 28 28 28 27 27 27 26 26 26 25 25 25
17 22 25 26 28 28 29 29 30 32 33 32 32 32 32 31 31 30 30 30 30 30 31 30 29 29 28 28 28 28 28 27 27 27 27 27 27 26 27 27 27 27 27 26 27 27 27 27 27 27 28 28 28 28 28 28 27 27 26 25 25 25 25
17 22 24 24 25 27 28 29 29 30 31 32 32 31 31 31 30 29 30 30 30 30 30 29 29 28 28 28 28 28 28 28 27 27 27 27 27 27 27 27 27 27 27 26 27 27 27 27 27 27 28 28 28 28 29 28 28 27 26 25 25 25 24
17 22 24 23 23 25 27 28 29 29 29 30 30 31 31 30 30 29 29 29 29 30 30 29 28 28 28 28 28 28 28 28 28 27 27 27 27 27 27 27 27 27 27 27 27 27 27 28 28 28 28 28 28 29 29 29 28 28 27 26 25 24 24
16 21 23 22 22 23 25 26 27 28 28 28 28 29 29 30 30 29 29 29 29 29 29 28 28 28 28 28 28 28 28 28 28 28 28 28 28 28 27 27 27 27 27 27 28 28 28 28 28 29 28 28 28 29 29 29 28 28 28 27 25 24 24
16 20 23 22 22 22 23 24 25 25 26 27 27 27 27 28 28 28 28 29 29 29 29 28 28 28 28 28 28 28 28 28 29 29 29 29 29 29 28 28 28 28 28 28 28 28 28 28 29 29 29 29 29 29 29 29 29 28 28 28 27 25 24
16 20 22 22 22 22 22 22 23 23 24 25 26 26 26 26 26 27 27 28 28 28 28 28 28 28 28 28 29 29 28 28 29 29 29 30 28 27 27 27 27 28 28 27 28 28 28 28 29 29 29 29 29 29 29 29 28 27 27 27 27 27 26
16 20 21 21 22 22 21 22 22 22 23 24 24 25 25 26 26 26 26 26 27 27 28 28 28 28 28 28 29 29 29 29 30 29 30 30 28 25 24 24 25 27 27 26 27 27 27 28 28 28 29 29 28 27 28 28 27 26 27 27 27 26 26
16 18 19 20 21 21 21 21 21 22 22 23 23 24 24 24 25 25 25 26 26 27 27 27 27 28 29 28 29 29 29 30 30 30 30 30 28 25 24 23 23 24 25 25 25 26 26 27 27 27 28 27 26 26 26 26 26 26 26 26 26 25 25
16 17 18 18 19 20 21 21 21 21 21 22 23 23 23 23 23 24 24 25 25 26 27 27 27 28 29 29 28 28 28 29 30 30 30 29 27 25 24 23 22 21 21 22 23 24 24 25 26 26 26 26 26 26 26 25 25 25 25 25 25 25 25

ECMWFFLT1_925_temp_057.txt.gz
Temp
36 36 33 31 32 32 31 31 32 34 33 32 31 31 31 31 31 30 29 28 27 27 26 26 26 26 26 26 26 26 26 26 26 26 26 27 27 27 27 27 27 27 28 28 27 27 27 27 27 27 26 25 25 25 25 25 25 25 25 25 25 26 26
37 37 34 32 32 33 32 32 33 33 33 32 32 31 31 31 30 30 29 28 27 27 26 26 26 26 26 26 26 26 26 26 26 26 26 27 27 27 27 27 27 27 28 28 28 28 27 27 27 27 26 26 26 25 25 25 25 25 25 25 25 25 25
38 38 36 34 33 32 32 33 33 33 33 33 32 32 32 31 30 30 29 28 27 27 27 26 26 26 26 26 26 26 26 26 26 26 26 27 27 27 27 27 27 27 27 28 28 28 28 27 27 27 26 26 26 26 26 25 25 25 25 25 25 25 25
38 39 38 35 34 33 33 33 33 34 34 33 32 32 32 31 31 30 29 29 28 27 27 26 26 26 26 26 26 26 26 26 26 26 26 27 27 27 27 27 27 28 28 28 28 28 28 27 27 27 26 26 26 26 26 26 25 25 25 25 25 25 25
39 39 39 37 35 34 34 33 34 34 34 34 33 32 32 31 31 30 30 29 28 28 27 27 27 27 26 26 26 26 26 26 26 26 27 27 27 27 27 27 27 28 28 28 28 28 28 28 27 27 26 26 26 27 26 26 26 25 25 25 25 26 26
39 39 39 38 36 35 35 33 33 34 34 34 33 32 32 32 31 31 30 29 29 28 28 28 28 27 27 27 27 27 27 26 26 26 27 27 27 27 27 28 28 28 28 28 28 28 28 27 27 27 27 27 27 27 27 26 26 26 26 25 25 26 26
39 39 39 38 37 36 35 34 33 34 34 34 34 33 33 32 32 31 31 30 30 29 29 28 28 28 27 27 28 27 27 27 26 26 27 27 27 27 27 27 28 28 28 28 28 28 28 27 28 27 27 27 27 28 27 27 26 26 26 26 25 26 26
39 39 39 39 38 36 35 35 34 34 33 34 35 34 33 33 32 32 32 31 30 30 29 29 29 28 28 28 28 28 27 27 27 27 27 27 27 27 27 27 28 28 28 28 28 28 28 27 28 28 27 27 27 28 28 27 27 27 26 26 26 26 26
40 39 39 39 38 37 36 35 35 34 33 33 35 34 33 33 33 33 32 32 31 31 30 30 30 29 28 28 28 28 28 27 27 27 27 28 28 28 28 28 28 28 28 28 28 28 28 28 28 28 27 27 28 28 28 27 27 27 27 26 26 26 26
40 40 39 40 39 38 37 36 36 35 34 34 35 35 34 34 33 33 33 32 32 32 31 31 31 30 29 28 28 28 28 28 28 28 28 28 28 28 28 28 28 28 28 28 29 28 28 28 28 28 27 27 28 27 27 27 27 27 27 27 26 26 26
40 39 39 39 39 39 38 37 36 35 34 35 35 35 34 34 34 34 33 33 33 32 32 32 31 31 29 29 29 29 28 28 28 28 28 29 29 29 29 29 29 28 28 28 29 29 28 28 28 28 27 27 27 27 27 27 27 27 27 27 27 26 26
39 39 39 39 39 39 39 37 36 35 35 35 35 35 34 34 34 34 34 33 33 33 33 32 32 32 30 30 30 29 29 29 29 29 29 29 29 29 29 30 30 29 28 28 29 29 29 28 28 28 27 27 27 27 27 27 27 26 27 27 27 27 27
37 38 38 38 38 39 38 36 35 35 35 35 35 35 35 34 34 34 34 34 34 34 33 33 32 32 31 30 30 30 29 29 29 29 29 29 30 30 30 30 30 30 29 29 29 29 29 29 28 27 27 27 27 27 27 26 27 26 26 27 28 27 27
37 37 37 37 36 37 37 36 35 35 35 35 36 35 35 35 34 34 34 34 34 34 34 33 33 32 31 30 30 30 30 30 30 30 30 29 30 30 30 30 30 30 30 29 29 29 30 29 28 27 27 27 27 27 27 26 26 26 26 26 27 27 27
36 37 37 37 36 36 36 36 36 35 35 35 36 35 36 35 34 34 34 34 34 34 34 33 33 32 31 31 31 30 30 30 30 30 30 29 29 30 30 30 30 30 30 29 29 29 29 30 29 28 27 27 27 27 27 27 27 27 26 26 27 27 27
35 35 35 36 35 35 36 36 36 35 34 35 35 35 36 35 35 34 34 34 34 34 34 34 33 32 32 31 31 30 30 30 30 29 29 29 29 29 30 30 30 30 30 29 29 29 29 29 29 29 28 27 27 27 27 27 27 27 27 26 26 27 28
33 33 33 33 33 33 34 35 35 35 34 34 35 35 35 35 35 34 34 34 34 34 34 34 33 32 32 31 31 30 30 30 29 29 29 29 29 29 29 30 30 30 30 29 29 29 29 29 29 29 29 28 28 28 28 28 28 27 27 26 26 27 27
32 32 32 32 32 32 33 33 35 35 35 34 35 35 35 35 35 34 35 34 34 34 34 34 33 32 32 31 31 30 30 29 29 29 29 29 29 28 29 29 29 29 29 29 29 28 28 29 29 29 29 29 28 28 28 28 28 28 27 26 27 27 27
31 31 31 31 31 32 32 32 33 34 35 35 35 35 35 35 35 34 35 35 34 34 34 34 33 32 32 31 30 30 29 29 29 29 28 28 28 28 28 29 29 29 29 29 28 28 28 28 28 29 29 29 29 29 29 29 28 28 27 27 27 27 27
29 29 29 29 30 31 31 31 32 32 33 34 35 35 35 35 35 35 34 34 34 34 34 34 33 32 32 31 30 30 29 29 29 28 28 28 28 28 28 28 28 28 28 29 28 28 28 28 28 28 28 29 29 29 29 29 29 28 27 27 27 27 27
27 27 28 28 28 29 29 30 31 32 32 32 34 35 35 35 35 35 35 35 34 34 34 34 33 32 31 31 30 29 29 29 28 28 28 28 27 27 27 28 28 28 28 28 28 28 27 28 28 28 28 28 29 29 29 29 29 28 28 27 27 27 27
25 26 26 27 27 28 28 29 31 32 32 32 32 34 35 36 35 35 35 35 34 34 34 33 33 32 31 31 30 29 29 29 28 28 28 27 27 27 27 27 27 28 28 28 29 28 28 28 28 28 28 28 28 28 29 29 29 29 28 27 27 26 26
24 24 25 26 27 27 28 29 30 31 31 32 32 33 35 36 36 36 35 35 35 34 33 33 33 32 31 30 30 29 29 29 28 28 28 27 27 27 27 27 27 27 28 28 29 29 28 28 28 28 28 28 28 28 28 29 29 28 28 27 27 26 25
23 23 24 25 26 27 27 28 30 31 31 32 33 33 34 36 36 36 35 35 35 34 33 33 33 32 31 30 30 30 29 29 28 28 28 27 27 27 27 27 27 27 28 28 29 30 29 29 29 29 28 28 28 28 28 29 29 28 28 27 27 26 25
22 23 24 24 25 26 27 28 30 31 30 31 32 33 34 35 36 36 35 35 35 34 33 33 33 32 31 30 30 30 29 29 28 28 28 27 27 28 28 28 28 28 28 28 29 30 30 30 29 29 29 29 28 28 28 29 29 28 28 27 27 26 25
20 21 22 23 25 25 26 28 30 31 31 31 32 33 34 35 36 36 35 35 35 34 34 33 33 32 31 30 30 30 29 29 28 28 28 28 27 28 28 28 28 28 28 28 29 29 30 30 30 30 30 29 29 29 28 29 29 29 28 27 27 26 26
20 20 21 23 23 23 25 28 31 31 31 32 33 33 34 35 36 35 34 34 34 34 34 33 32 32 31 30 30 30 29 29 29 28 28 28 28 28 28 28 28 28 28 29 29 29 30 30 30 30 30 30 30 30 29 29 29 29 28 27 27 26 26
18 19 20 22 22 22 25 29 31 31 32 33 33 34 34 35 35 35 34 34 34 34 34 33 32 31 30 30 30 30 30 29 29 28 28 28 28 28 28 28 29 29 28 29 30 29 29 30 30 31 31 30 30 30 30 29 29 28 28 28 27 26 26
17 18 19 21 21 23 26 29 30 31 32 33 34 34 34 35 35 34 34 34 34 34 34 33 32 31 30 30 30 30 30 29 29 28 28 28 28 28 28 28 29 29 28 29 29 29 29 29 29 30 30 31 30 30 30 29 29 28 28 28 27 27 26
16 17 19 20 20 22 26 29 29 30 31 33 34 34 34 35 34 33 33 33 33 33 33 32 31 31 30 30 30 30 30 29 29 29 29 28 28 28 28 28 29 29 28 28 29 29 29 29 29 29 30 30 31 30 30 30 29 28 28 28 27 27 26
15 16 18 19 19 21 25 28 29 30 31 32 34 34 34 34 34 33 33 33 32 33 33 32 31 30 30 30 30 30 30 29 29 29 29 29 28 28 28 28 29 29 28 28 29 29 29 29 29 29 29 30 30 30 30 30 29 28 28 27 27 27 26
15 16 17 18 19 22 25 27 29 31 31 31 33 34 34 33 33 32 32 32 32 32 32 31 31 30 30 30 30 30 30 29 29 29 29 29 28 28 28 28 29 29 28 28 29 29 29 29 29 29 29 29 30 30 30 30 30 29 28 28 27 27 26
14 16 17 17 19 22 25 26 28 29 29 30 31 32 33 33 33 32 31 31 31 32 32 31 30 30 30 30 30 30 30 30 29 29 29 29 29 29 29 29 29 29 28 28 29 29 29 29 29 29 29 29 30 30 30 30 30 30 29 27 27 27 26
14 15 16 17 19 22 23 25 26 27 27 28 28 28 30 32 32 31 31 31 31 31 31 30 30 29 30 30 30 30 30 30 29 29 30 30 30 30 29 29 29 29 29 29 29 29 29 29 29 29 30 30 30 30 30 30 30 30 29 28 27 27 26
14 15 16 16 18 21 22 23 24 26 26 27 27 27 28 29 30 30 30 30 31 31 30 30 29 29 30 30 30 30 29 30 30 30 30 30 29 29 29 28 29 29 29 29 29 30 30 30 30 30 30 30 30 30 30 29 29 30 29 28 27 27 26
14 15 16 15 17 20 21 22 23 24 25 26 26 26 26 26 27 28 29 30 30 30 30 29 29 30 30 30 30 30 30 30 31 30 31 31 28 26 26 26 27 29 29 28 29 29 29 30 30 30 30 30 30 29 29 29 29 29 29 28 27 27 26
14 14 15 15 16 19 21 21 22 23 24 24 24 25 25 25 26 26 27 28 29 30 29 29 29 30 30 30 31 31 30 31 31 31 31 31 28 26 25 25 25 26 27 27 28 28 28 29 29 29 29 29 29 28 28 28 28 28 28 28 27 27 26
14 14 14 14 16 19 21 21 22 23 23 23 23 24 24 24 25 25 26 27 27 28 29 29 29 30 31 31 31 31 31 31 32 31 31 31 28 27 26 25 24 24 24 24 26 27 27 27 27 27 28 28 28 28 28 28 28 28 28 28 27 27 27

ECMWFFLT1_925_temp_060.txt.gz
Temp
33 33 33 32 32 32 32 31 31 32 31 30 30 30 30 31 31 30 29 28 27 27 27 27 26 26 26 26 26 26 27 27 27 27 27 27 28 28 27 27 27 27 27 27 27 27 27 27 27 27 26 26 25 26 25 25 25 25 26 26 26 26 26
34 33 33 32 32 32 31 31 31 32 31 31 30 30 31 31 31 31 29 28 27 27 27 27 26 26 26 26 26 27 27 27 27 27 27 27 27 28 27 27 27 27 27 27 27 27 27 27 27 27 26 26 25 25 25 25 25 25 25 25 25 25 26
34 34 33 32 32 32 32 32 31 32 31 31 30 30 30 31 31 31 30 28 27 27 27 27 26 26 26 26 26 26 27 27 27 27 27 27 27 27 27 27 27 27 27 28 27 27 27 27 27 27 27 26 26 26 25 25 25 25 25 25 25 25 25
35 35 34 33 33 32 31 32 32 31 31 30 30 29 30 30 30 31 30 29 28 27 27 26 26 26 26 26 26 26 27 27 27 27 27 27 27 27 28 27 27 27 27 28 28 28 28 27 27 27 27 26 26 26 25 25 25 25 25 25 25 25 25
36 36 35 34 33 32 32 32 32 31 31 30 29 29 29 29 30 30 30 29 28 27 27 27 27 27 26 26 26 26 26 27 27 27 27 27 27 27 28 28 27 27 27 27 28 28 28 28 27 27 27 26 26 26 26 25 25 25 25 25 25 25 25
36 36 35 34 33 33 32 32 32 32 31 31 30 29 29 29 28 29 29 30 29 28 27 27 27 27 27 27 27 27 26 27 27 27 27 27 27 27 28 28 28 27 28 28 28 28 28 28 27 27 27 26 26 26 26 26 26 25 25 25 25 25 26
38 35 34 34 34 34 33 33 33 33 32 32 31 30 29 28 27 27 28 29 29 28 28 27 28 27 27 27 27 27 26 26 27 27 27 27 27 27 27 28 28 28 28 28 28 28 28 28 28 27 27 27 26 26 26 26 26 26 25 25 25 25 26
40 36 34 35 35 34 34 34 34 34 33 33 32 30 28 28 27 27 26 28 29 29 28 28 28 28 27 27 27 27 27 27 27 27 27 27 28 28 27 28 28 28 28 28 28 28 28 28 28 27 27 27 27 27 27 26 26 26 26 25 25 25 26
40 38 35 35 35 35 35 34 34 34 33 33 32 30 28 28 28 28 28 28 28 29 29 29 28 28 27 27 27 27 27 27 27 27 27 28 28 28 28 28 28 28 28 28 28 28 28 28 28 27 27 27 27 27 27 27 26 26 26 26 25 25 26
40 39 37 36 35 35 35 35 35 34 33 32 32 31 30 29 29 29 29 29 29 29 30 29 29 29 28 27 28 28 27 27 27 27 27 28 28 28 28 28 28 28 28 28 28 28 28 28 28 28 27 27 27 27 27 27 27 26 26 26 26 26 26
39 39 38 38 36 36 36 35 34 34 33 32 32 32 31 30 30 31 31 30 29 29 30 30 30 29 28 28 28 28 28 28 28 28 28 28 29 28 28 28 28 28 28 28 29 29 28 28 28 28 28 27 27 27 27 27 27 27 27 26 26 26 26
38 38 38 39 37 35 35 35 34 33 32 32 32 33 32 32 32 31 31 31 30 30 30 30 30 30 29 28 29 28 28 28 28 28 28 28 29 29 29 29 29 28 28 28 29 29 28 28 28 28 28 27 27 27 27 27 27 27 27 27 27 26 26
38 39 38 39 38 35 34 34 34 33 32 32 33 34 33 32 33 32 32 32 31 31 31 31 31 30 29 29 29 29 29 29 29 29 29 29 29 29 29 29 29 29 29 28 29 29 29 28 28 28 28 28 28 27 27 27 27 27 27 27 27 27 26
37 38 37 36 36 35 34 34 34 33 32 33 34 34 34 33 33 33 32 32 32 31 32 32 31 31 30 29 29 29 29 29 29 29 29 29 29 29 29 29 29 29 29 29 29 29 29 29 28 28 28 27 27 27 27 27 27 27 27 27 27 27 27
35 35 34 33 33 33 33 33 33 33 33 33 34 34 34 34 34 33 33 33 33 32 32 33 32 31 30 30 30 30 29 29 29 29 29 29 29 30 30 30 30 30 29 29 29 29 30 29 29 28 28 28 27 27 27 27 27 27 27 27 27 27 27
34 34 33 33 32 32 32 32 33 32 31 32 34 35 35 35 34 34 34 34 33 33 33 33 32 32 31 30 30 30 30 29 29 29 29 29 29 29 30 30 30 30 30 29 29 29 29 30 29 28 28 28 27 27 27 27 27 27 27 27 27 27 28
32 32 32 32 31 32 32 32 32 31 29 26 27 30 34 35 35 35 34 34 34 34 34 33 33 32 31 31 30 30 30 29 29 29 29 29 29 29 30 30 30 30 30 29 29 29 29 30 30 29 28 28 28 27 27 27 27 27 27 27 27 27 28
31 31 31 31 31 31 32 31 31 31 29 26 24 24 27 30 33 34 34 34 34 34 34 34 33 32 32 31 31 30 30 29 29 29 29 29 29 29 29 30 30 30 30 30 29 29 29 29 30 30 29 28 28 27 27 27 28 27 27 27 27 27 28
30 29 30 29 29 30 30 30 30 30 31 30 29 27 27 28 30 32 34 35 35 34 34 34 34 33 32 32 31 30 30 29 29 29 29 29 29 29 29 30 30 30 30 30 29 29 29 29 29 30 29 29 28 28 28 28 28 28 27 27 27 27 27
28 27 28 28 28 29 29 28 29 30 30 31 31 31 31 31 31 33 33 33 34 34 33 34 34 33 32 32 31 30 30 29 29 29 29 29 29 29 29 29 30 30 30 30 30 29 29 29 29 29 29 29 29 28 28 28 28 28 28 27 27 27 27
26 26 26 26 27 27 27 27 28 29 29 30 31 31 31 32 33 34 33 31 31 32 32 33 34 33 32 32 31 30 30 29 29 29 29 29 29 29 29 29 29 30 30 30 30 29 29 29 29 29 29 29 29 29 29 29 28 28 28 28 27 27 27
24 24 24 25 25 26 26 27 27 28 28 29 30 31 32 32 33 34 34 33 32 32 32 33 34 33 32 32 31 30 30 29 29 29 29 29 29 29 29 29 29 29 30 30 30 29 29 29 29 29 29 29 29 29 29 29 29 29 28 28 28 27 27
23 23 23 24 24 25 25 26 27 28 28 29 29 31 32 31 32 33 34 34 32 32 33 33 33 33 32 32 31 30 30 30 29 29 29 29 29 28 28 29 29 29 29 30 30 30 29 28 29 29 29 29 29 29 29 29 29 29 29 28 28 27 27
22 23 23 23 23 24 25 26 26 26 27 27 28 30 31 31 31 33 34 34 33 33 33 34 33 33 32 32 31 31 30 30 29 29 29 29 29 28 28 29 29 29 29 29 30 30 29 29 28 29 29 29 29 29 29 29 29 29 29 29 28 28 27
21 22 21 21 22 23 23 24 24 24 26 27 28 30 31 31 31 32 33 34 34 34 33 33 33 33 32 31 31 31 30 30 29 29 29 28 28 28 28 28 29 29 29 29 29 30 29 29 28 29 29 29 29 29 29 29 29 29 29 29 29 28 27
20 20 21 21 21 22 22 22 23 25 26 27 29 30 32 32 32 32 33 34 34 34 34 33 33 33 32 32 32 31 30 29 29 29 28 28 28 28 28 28 28 29 29 29 29 30 30 29 29 29 29 29 29 29 28 29 29 29 29 29 28 28 27
19 19 20 20 20 20 21 22 24 25 26 27 28 30 31 32 32 32 33 33 34 34 34 34 34 34 33 32 31 31 30 29 29 29 28 28 28 28 28 28 28 28 29 29 29 30 30 30 29 29 29 29 29 29 29 28 29 29 29 29 28 28 27
19 18 18 18 19 19 20 21 23 23 25 26 28 30 31 32 33 33 33 33 34 34 35 35 34 33 33 32 31 31 30 30 29 29 29 28 28 28 28 28 28 28 28 29 29 29 30 30 30 30 30 30 30 30 29 29 28 29 29 29 28 28 27
18 17 17 18 18 18 19 20 21 22 24 26 28 29 31 32 33 33 32 33 34 35 35 35 34 33 32 31 31 31 30 30 29 29 29 28 28 28 28 28 28 28 28 29 29 29 30 30 30 30 30 30 30 30 30 29 29 29 29 29 29 28 28
17 17 17 17 17 17 18 19 20 21 23 26 28 29 30 31 32 33 33 33 34 34 35 35 33 33 32 31 31 31 30 30 29 29 29 29 28 28 28 28 28 28 28 28 29 29 29 29 30 30 30 30 30 30 30 30 30 29 29 29 29 28 28
16 16 16 16 16 16 17 18 19 20 23 26 28 29 30 30 31 32 33 33 34 34 34 34 33 32 32 31 31 31 30 30 29 29 29 29 28 28 28 28 28 28 28 28 29 29 29 29 29 30 30 30 31 30 30 30 30 30 29 29 29 28 28
16 15 15 15 15 16 16 17 18 19 22 26 28 29 30 29 30 33 33 33 33 34 34 33 32 32 31 31 30 30 30 30 29 29 29 29 29 28 28 28 28 29 28 28 29 29 29 29 29 29 29 30 30 30 31 31 30 30 29 29 29 28 28
15 15 14 15 15 15 16 17 17 18 21 24 26 28 28 28 30 32 33 33 33 33 33 33 32 31 31 30 30 30 30 30 30 29 29 29 29 28 28 28 29 29 28 28 29 29 29 29 29 29 29 29 30 30 31 31 30 29 29 29 29 28 28
14 14 14 14 14 15 15 16 17 17 19 23 25 27 27 28 29 31 33 33 33 33 33 32 31 31 30 30 30 30 30 30 30 30 29 29 29 29 29 29 29 29 28 29 29 29 29 29 29 29 29 29 30 30 30 30 30 30 29 29 29 28 28
14 14 14 14 14 14 14 15 16 17 19 22 25 26 27 27 27 29 31 32 33 33 32 31 30 30 30 30 30 30 30 30 30 30 30 30 29 29 29 29 29 29 29 29 29 29 29 29 29 29 29 29 30 30 30 30 30 30 30 29 29 29 28
14 14 14 14 13 14 14 15 15 17 19 22 24 25 26 26 26 28 29 31 31 32 32 30 30 30 30 30 30 30 30 30 30 30 30 30 29 28 27 27 28 29 29 29 29 29 30 30 29 29 30 30 30 30 30 30 30 30 30 30 29 29 29
14 14 14 13 13 14 14 14 15 17 20 22 24 25 25 26 25 26 27 29 29 30 31 30 30 30 30 30 30 30 30 30 30 30 30 30 28 26 26 25 25 27 28 29 29 29 29 29 30 30 30 30 30 30 30 30 30 30 30 30 29 29 28
14 14 13 13 13 14 14 14 16 18 19 21 24 25 25 25 25 25 26 27 27 27 29 29 29 30 30 30 30 30 30 30 30 30 30 29 27 26 25 25 24 24 25 26 28 28 29 29 29 30 30 30 30 30 30 30 30 30 30 30 29 28 28

ECMWFFLT1_925_temp_063.txt.gz
Temp
29 30 30 30 30 30 30 30 30 30 30 30 30 30 30 29 29 28 27 26 26 26 26 26 25 25 25 25 26 26 26 26 27 27 27 27 27 28 28 28 28 28 27 27 26 26 26 26 26 25 25 25 25 25 25 25 26 26 26 26 26 26 26
30 30 31 31 30 31 31 30 30 30 30 30 30 30 30 29 29 28 27 26 26 26 26 26 25 25 25 25 25 26 26 26 26 27 27 27 27 27 28 28 28 28 27 27 27 27 26 26 26 26 25 26 25 25 25 25 25 26 26 26 26 26 26
30 31 31 31 31 31 31 30 30 30 30 30 30 30 30 30 29 28 27 27 26 26 26 26 25 25 25 25 25 25 26 26 26 26 27 27 27 27 27 28 28 28 27 27 27 27 27 26 26 26 26 26 26 25 25 25 25 25 25 26 26 26 26
31 32 32 31 31 31 31 31 30 30 31 30 30 30 30 30 29 29 28 27 26 26 26 26 26 25 25 25 25 25 26 26 26 26 27 27 27 27 27 27 27 27 27 27 27 27 27 26 26 26 26 26 26 26 25 25 25 25 25 25 25 26 26
32 32 32 32 31 31 31 30 30 30 31 31 30 30 30 30 29 29 28 27 27 26 26 26 26 25 25 25 25 25 25 26 26 26 26 27 27 27 27 27 27 27 27 27 27 27 27 27 27 26 26 26 26 26 25 25 25 25 25 25 25 25 25
33 32 32 32 31 31 31 31 30 31 31 31 30 30 30 30 30 29 29 28 27 26 26 26 26 26 25 25 25 25 25 26 26 26 26 26 27 27 27 27 27 27 27 27 27 27 27 27 27 27 26 26 26 26 26 25 25 25 25 25 25 25 25
33 32 32 32 32 31 31 31 31 31 31 31 30 30 30 30 30 30 29 28 27 27 26 26 26 26 26 25 25 25 25 25 26 26 26 26 26 27 27 27 27 27 27 27 27 27 27 27 27 27 27 26 26 26 26 25 25 25 25 25 25 25 25
33 33 32 32 32 32 31 31 31 31 31 31 30 30 30 30 30 30 30 29 28 27 27 26 26 26 26 26 25 26 26 26 26 26 26 26 26 27 27 27 27 27 27 27 27 27 27 27 27 27 27 26 26 26 26 25 25 25 25 25 25 25 25
34 33 33 32 32 32 31 31 31 31 31 30 30 30 30 30 30 30 30 29 28 27 27 27 27 26 26 26 26 26 26 26 26 26 26 26 26 27 27 27 27 27 27 27 27 27 27 27 27 27 27 27 26 26 26 25 25 25 25 25 25 25 25
34 33 33 33 32 32 32 31 31 31 30 30 30 29 29 29 29 29 29 29 28 28 27 27 27 27 26 26 26 26 26 26 26 26 26 26 26 27 27 27 27 27 27 27 27 27 27 27 27 27 27 27 26 26 26 26 25 25 25 25 25 25 25
34 34 33 33 32 32 32 31 31 31 30 30 30 29 29 29 29 29 29 29 28 28 28 27 27 27 27 26 26 26 26 26 26 26 26 26 26 27 27 27 27 27 27 27 27 27 27 27 27 27 27 27 26 26 26 26 26 26 25 25 25 25 25
33 33 33 33 33 33 32 31 31 31 30 30 30 30 29 29 29 29 29 29 28 28 27 27 27 27 27 27 26 26 26 26 26 26 26 26 26 27 27 27 27 27 27 27 27 27 27 27 27 27 27 27 27 26 26 26 26 26 26 26 26 25 25
31 31 31 31 32 32 32 32 31 31 30 30 30 30 30 29 29 29 29 29 28 28 27 27 27 28 27 27 27 26 26 26 26 26 26 26 27 27 27 27 27 27 27 27 27 27 27 27 27 27 27 27 27 26 26 26 26 26 26 26 26 25 25
30 30 29 29 28 28 30 30 30 31 30 30 31 30 30 29 29 29 29 29 28 28 28 28 28 28 28 27 27 27 27 26 26 26 26 27 27 27 27 27 27 27 27 27 27 27 27 27 27 27 27 27 27 27 26 26 26 26 26 26 26 26 25
29 29 28 27 26 26 26 26 27 29 29 29 30 31 30 30 30 29 29 29 29 29 28 28 28 28 28 28 27 27 27 27 27 27 27 27 27 27 27 28 28 28 27 27 27 27 28 28 27 27 27 27 27 27 26 26 26 26 26 26 26 26 26
27 27 27 26 26 26 25 24 24 25 26 26 26 28 29 29 29 29 29 29 29 29 29 29 28 28 28 28 28 27 27 27 27 27 27 27 27 27 28 28 28 28 28 28 27 28 28 28 28 27 27 27 27 27 26 26 26 26 27 27 26 26 26
25 26 26 26 25 25 24 24 24 24 24 24 24 25 27 27 28 29 29 28 27 27 28 28 29 29 29 28 28 28 27 27 27 27 27 27 27 27 28 28 28 28 28 28 28 28 28 28 28 27 27 27 27 27 26 26 26 27 27 27 27 26 26
24 24 24 24 25 24 24 24 24 23 23 23 24 25 26 27 27 28 28 28 28 27 25 25 26 28 29 29 29 28 28 27 27 27 27 27 27 27 28 28 28 28 28 28 28 28 28 28 28 28 27 27 27 27 27 26 27 27 27 27 27 27 27
23 23 23 23 23 23 23 23 24 24 23 23 23 24 26 28 28 28 28 28 28 28 27 25 25 24 26 28 28 28 28 27 28 27 27 27 27 27 28 28 28 28 28 28 28 28 28 28 28 28 27 27 27 27 27 27 27 27 27 27 27 27 27
21 22 22 22 22 22 22 22 23 24 24 24 24 24 25 28 30 30 29 27 28 28 28 28 27 25 24 24 26 28 28 28 28 28 27 27 27 27 28 28 28 28 28 28 28 28 28 28 28 28 28 27 27 27 27 27 27 27 27 27 27 27 27
21 21 21 21 21 21 21 22 23 24 23 23 24 24 24 27 30 30 29 28 28 29 28 28 28 27 27 26 26 28 29 28 28 28 27 27 27 27 27 27 28 28 28 28 28 28 28 28 28 28 28 28 27 27 27 27 27 27 27 27 27 27 27
20 20 20 20 20 20 21 21 22 22 22 22 23 23 24 26 28 30 30 29 29 29 28 28 28 27 28 27 27 28 29 28 28 28 28 27 27 27 27 27 28 28 28 28 28 28 28 28 28 28 28 28 28 27 27 27 27 27 27 27 27 27 27
19 20 19 20 20 20 20 20 20 20 21 22 23 24 24 25 27 28 30 30 29 29 28 28 28 27 27 27 27 28 29 29 28 28 28 28 27 27 27 27 28 28 28 28 28 28 28 28 28 28 28 28 28 27 27 27 27 27 27 27 27 27 26
19 19 19 19 19 19 19 19 19 20 21 21 23 23 24 25 26 27 28 29 29 29 28 27 28 28 27 27 28 29 29 29 29 28 28 28 27 27 27 27 27 28 28 28 28 28 28 28 28 28 28 28 28 28 28 27 27 27 27 27 27 27 27
18 19 18 18 18 18 18 18 18 19 20 21 21 22 22 23 25 26 27 29 29 29 29 28 28 29 29 29 29 30 29 29 29 28 28 28 28 28 28 27 28 28 28 28 28 29 28 28 28 28 28 28 28 28 28 28 28 28 27 27 27 27 27
17 18 18 18 17 17 17 17 18 18 19 19 20 20 21 22 24 25 26 28 29 30 30 30 30 30 30 30 30 30 30 29 29 29 28 28 28 28 28 28 28 28 28 28 28 29 29 28 28 28 28 28 28 28 28 28 28 28 28 28 28 28 27
17 17 17 17 17 17 17 17 17 18 18 18 19 19 20 21 23 24 26 27 29 29 30 31 31 31 31 31 31 30 30 29 29 29 29 28 28 28 28 28 28 28 28 28 28 29 29 29 28 28 28 28 28 28 28 28 28 28 28 28 28 28 28
17 16 16 16 16 16 16 16 17 17 17 17 18 18 19 20 21 23 25 26 28 29 30 31 31 32 32 32 31 31 30 29 29 29 29 28 28 28 28 28 28 28 28 28 28 28 29 29 28 28 28 28 28 28 28 28 28 28 28 28 28 28 28
16 16 16 16 16 16 16 16 16 16 17 17 17 18 19 19 21 22 24 25 27 28 29 30 31 32 32 32 31 31 30 30 29 29 29 28 28 28 28 28 28 28 28 28 28 28 28 28 28 28 28 28 28 28 28 28 28 28 28 28 28 28 28
16 16 16 16 15 15 15 15 16 16 16 16 17 17 18 19 20 21 23 25 26 27 28 29 30 32 32 32 31 31 30 30 29 29 29 28 28 28 28 28 28 28 28 28 28 28 28 28 28 28 28 28 28 28 28 28 28 28 28 28 28 28 28
15 15 15 15 15 15 15 15 15 15 16 16 16 17 17 18 19 20 22 24 26 27 28 28 30 31 32 32 31 31 30 30 29 29 29 29 28 28 28 28 28 28 27 27 28 28 28 28 28 28 28 28 28 28 28 28 28 28 28 28 28 28 28
15 15 15 15 14 14 15 15 14 15 15 16 16 16 17 17 18 19 22 24 26 27 27 28 29 31 32 31 31 31 30 30 29 29 29 28 28 28 28 28 27 27 27 27 27 27 27 28 28 28 28 28 28 28 28 28 28 28 28 28 28 28 28
15 15 14 14 14 14 14 14 14 15 15 16 16 16 17 17 18 19 21 24 25 26 26 28 29 31 31 31 31 30 30 30 29 29 28 28 28 28 28 27 27 27 27 27 27 27 27 27 27 28 28 28 28 28 28 28 28 28 28 28 28 28 28
14 14 14 14 14 14 14 14 14 14 15 16 16 16 17 17 18 20 22 24 25 26 26 28 30 31 31 31 30 30 30 29 29 29 28 28 28 28 28 27 27 27 27 27 27 27 27 27 27 27 28 28 28 28 28 28 28 28 28 29 29 28 28
14 14 14 14 14 14 14 14 14 14 15 15 16 16 17 18 19 20 22 24 25 25 26 27 30 31 30 30 30 30 30 29 29 29 29 28 28 28 28 27 27 27 27 27 27 27 27 27 27 28 28 28 28 28 28 28 28 29 29 29 29 29 29
14 14 14 14 13 13 14 14 14 14 15 16 16 17 18 18 19 21 23 24 24 25 25 27 29 30 30 30 30 29 29 29 29 29 28 28 28 28 28 27 27 27 27 27 27 27 28 28 28 28 28 28 29 29 29 29 29 29 30 30 30 30 30
14 13 13 13 13 13 13 14 14 14 15 16 16 17 18 18 19 21 22 23 24 24 24 25 27 29 29 30 30 30 29 29 29 29 29 29 29 28 27 26 26 26 27 27 27 27 27 28 28 28 28 28 29 29 29 29 30 29 29 29 30 30 30
14 14 13 13 13 13 13 13 14 14 15 15 16 17 17 17 18 19 20 21 22 23 23 24 26 27 28 28 28 28 28 28 27 27 27 27 27 27 26 25 25 25 25 26 27 27 28 28 28 28 28 29 29 29 29 29 29 29 29 29 30 29 29

ECMWFFLT1_925_temp_069.txt.gz
Temp
28 28 28 28 28 29 29 28 28 27 27 27 26 26 26 26 25 25 24 24 24 24 24 24 24 24 24 24 25 25 25 25 25 25 26 26 26 26 26 26 26 26 26 26 26 25 25 25 24 24 24 24 24 24 24 24 24 24 24 24 24 24 24
28 28 28 28 28 28 29 28 28 28 27 27 27 26 26 26 25 25 25 24 24 24 24 24 24 24 24 24 24 24 25 25 25 25 25 26 26 26 26 26 26 26 26 26 26 26 26 25 24 24 24 24 24 24 24 24 24 24 24 24 24 24 24
28 28 28 28 28 29 29 28 28 28 28 27 27 26 26 26 26 25 25 24 24 24 24 24 24 24 24 24 24 24 25 25 25 25 25 26 26 26 26 26 26 27 27 27 26 26 26 26 25 24 24 24 24 24 24 24 24 24 24 24 24 24 25
28 28 29 29 29 29 29 28 28 28 28 27 27 27 27 26 26 26 25 25 24 24 24 24 24 24 24 24 24 24 24 25 25 25 25 26 26 26 26 26 26 26 26 27 27 27 26 26 25 25 24 24 24 24 24 24 24 24 24 24 24 24 25
28 28 28 29 29 29 29 29 28 28 28 28 27 27 27 27 26 26 25 25 25 24 24 24 24 24 24 24 24 24 24 25 25 25 25 25 26 26 26 26 26 26 26 27 27 27 27 26 26 25 25 25 25 24 24 24 24 24 24 24 24 24 25
28 28 28 28 28 29 29 29 29 29 28 28 28 27 27 27 26 26 26 25 25 25 24 24 24 24 24 24 24 24 24 25 25 25 25 25 25 25 26 26 26 26 27 27 27 27 27 26 26 26 25 25 25 25 25 25 24 24 24 24 24 24 25
28 28 28 29 29 29 29 29 29 29 29 28 28 28 27 27 27 26 26 25 25 25 24 24 24 24 24 24 24 24 24 24 24 25 25 25 25 25 25 26 26 26 27 27 27 27 27 27 26 26 26 26 25 25 25 25 25 25 24 24 24 24 24
29 28 28 28 29 29 29 29 29 29 29 29 28 28 27 27 27 26 26 26 25 25 25 24 24 24 24 24 24 24 24 24 24 24 24 24 24 25 25 26 26 26 26 26 27 27 27 27 27 26 26 26 26 25 25 25 25 25 25 24 24 24 24
26 27 28 29 29 29 29 29 29 29 29 28 28 28 27 27 27 27 26 26 26 25 25 25 25 24 24 24 24 24 24 24 24 24 24 24 24 24 25 25 25 26 26 26 27 26 26 27 27 27 26 26 26 26 26 25 25 25 25 25 25 24 24
22 23 25 26 27 29 29 29 29 29 28 28 28 28 28 27 27 27 27 26 26 26 25 25 25 25 24 24 24 24 24 24 24 24 24 24 24 25 25 25 25 25 25 26 26 26 26 26 27 26 26 26 26 26 25 25 25 25 25 25 25 25 25
20 20 21 22 23 24 25 26 26 26 27 28 28 28 28 28 28 27 27 27 26 26 26 26 25 25 25 24 24 24 24 24 24 24 24 24 24 25 25 25 25 25 25 25 25 25 26 26 26 26 26 26 26 26 25 25 25 25 25 25 25 25 25
20 20 20 20 20 21 21 22 22 22 24 26 28 28 28 28 28 28 27 27 27 26 26 26 26 25 25 25 24 24 24 24 24 24 24 24 24 24 25 25 25 25 25 24 25 25 25 26 26 26 26 26 26 26 26 26 25 25 25 25 25 25 25
20 19 19 19 19 19 19 20 20 20 21 22 25 27 28 28 28 28 28 27 27 27 26 26 26 26 25 25 25 24 24 24 24 24 24 24 24 24 24 25 25 25 25 25 25 25 25 25 25 26 26 26 26 26 26 26 26 25 25 25 25 25 25
19 19 19 19 18 18 19 19 19 19 20 20 21 23 26 27 28 28 28 28 27 27 27 26 26 26 25 25 25 25 24 24 24 24 24 24 24 24 24 24 24 25 25 25 25 25 25 25 25 25 25 26 26 26 26 26 25 25 25 25 25 25 25
19 19 19 18 18 18 18 18 18 18 19 19 19 20 22 23 25 27 28 28 28 27 27 26 26 26 26 25 25 25 25 24 24 24 24 24 24 24 24 24 24 24 24 25 25 25 25 25 25 25 25 25 25 25 25 25 25 25 25 25 25 25 24
18 18 18 18 18 18 17 17 18 18 18 18 18 19 20 20 22 24 25 27 27 27 27 27 26 25 25 25 25 25 25 25 25 24 24 24 24 24 24 24 24 24 24 24 24 25 25 25 25 25 25 25 25 25 25 25 25 25 25 25 25 25 25
17 17 18 18 18 17 17 17 17 18 17 17 18 19 19 19 20 22 23 24 25 25 26 26 26 25 25 25 25 25 25 25 25 24 24 24 24 24 24 24 24 24 24 24 24 24 25 25 25 25 25 25 25 25 25 25 25 25 25 25 25 25 25
16 17 17 17 17 17 17 16 17 17 17 17 18 18 18 19 19 20 21 22 23 23 23 23 24 25 25 25 24 24 25 25 25 25 24 24 24 24 24 24 24 24 24 24 24 24 24 25 25 25 25 25 25 25 25 25 25 25 25 25 25 25 25
15 16 16 17 17 17 16 16 16 17 16 16 17 17 18 18 18 19 20 21 21 21 22 22 23 23 24 24 24 24 24 25 25 24 24 25 24 24 24 24 24 24 24 24 24 24 24 24 25 25 25 25 25 25 25 25 25 25 25 25 25 25 25
15 15 15 16 16 16 16 16 16 16 16 16 17 17 17 17 18 18 19 20 20 21 22 23 23 23 23 24 24 24 24 25 24 24 24 25 25 24 24 24 24 24 24 24 24 24 24 24 25 25 25 25 25 25 25 25 25 25 25 25 25 25 25
15 15 15 15 16 16 16 16 16 16 16 16 16 17 17 17 17 17 18 19 20 21 21 22 22 23 23 23 23 23 24 24 24 24 25 25 24 24 24 24 24 24 24 24 24 24 24 24 25 25 25 25 25 25 25 25 25 25 25 25 25 25 25
15 14 14 15 15 15 16 16 16 15 15 16 16 16 16 16 16 17 18 19 20 21 21 21 21 22 22 22 22 22 23 23 24 24 24 24 24 24 24 24 24 24 24 24 24 24 25 25 25 25 25 25 25 25 25 25 25 25 25 25 25 25 25
15 15 14 15 15 15 16 16 15 15 15 15 15 15 16 16 16 16 17 18 19 20 20 21 21 22 22 22 22 22 22 23 23 23 24 24 23 24 24 24 24 24 24 24 24 24 24 25 25 25 25 25 25 25 25 25 25 25 25 26 25 25 25
15 15 15 15 15 15 15 15 15 15 15 15 15 15 15 15 15 16 17 18 18 19 19 20 21 22 22 22 23 23 23 23 23 23 23 23 23 23 24 24 24 24 24 24 24 24 25 25 25 25 25 25 25 25 25 25 25 25 25 26 26 25 25
15 15 15 15 15 15 15 15 15 15 15 15 15 15 15 15 15 16 16 17 18 18 19 20 20 21 22 22 23 23 23 23 23 23 23 23 23 24 24 24 24 24 24 24 24 24 25 25 25 25 25 25 25 25 25 25 25 25 26 26 26 25 25
15 15 15 15 15 15 15 15 15 15 15 15 15 14 15 15 15 15 16 16 17 18 18 19 19 20 20 21 22 23 23 23 23 24 24 24 24 24 24 24 24 24 24 24 24 25 25 25 25 25 25 25 25 25 25 25 25 25 26 26 26 26 25
15 15 15 15 15 15 15 15 15 15 15 15 15 14 14 14 15 15 15 16 16 17 18 18 18 19 19 20 21 22 23 23 24 24 24 24 24 24 24 24 25 25 25 25 25 25 25 25 25 25 25 25 25 25 25 25 25 25 26 26 26 26 26
14 14 15 15 15 15 15 15 15 15 15 15 15 14 14 14 14 15 15 16 16 17 17 17 18 18 18 19 20 21 22 23 24 24 25 24 24 24 24 25 25 25 25 25 25 25 25 25 25 25 25 25 25 25 25 25 26 26 26 26 26 26 26
13 13 14 14 15 15 15 15 15 15 15 15 15 14 14 14 14 15 15 16 16 16 16 17 17 18 18 19 19 20 21 23 23 23 24 25 25 25 25 25 25 25 25 25 25 25 25 25 25 25 25 25 25 25 26 26 26 26 26 26 26 26 26
13 13 13 14 14 15 15 14 14 14 14 15 15 15 14 14 14 15 15 15 16 16 16 17 17 18 18 19 19 20 21 22 23 22 23 25 25 25 25 25 25 25 25 25 25 25 25 25 25 25 25 25 25 25 26 26 26 26 26 26 26 26 26
12 12 13 13 14 14 14 14 14 14 14 15 15 15 15 14 14 14 15 15 15 15 16 16 17 18 19 19 20 20 21 22 23 23 23 25 26 26 25 25 25 25 25 25 25 25 25 25 25 25 25 25 25 25 26 26 26 26 26 26 26 26 26
12 12 12 13 13 14 14 14 14 14 14 15 15 15 15 14 14 14 14 15 15 15 15 16 17 18 19 19 20 21 22 22 22 23 23 24 25 26 26 26 26 25 25 25 25 25 25 25 25 25 25 25 25 25 26 26 26 26 26 26 26 26 26
11 12 12 12 13 13 13 13 13 14 14 14 15 15 15 15 14 14 14 14 15 15 15 16 17 18 18 19 20 21 21 22 22 22 23 24 25 26 26 26 26 26 26 25 25 25 25 25 25 25 25 25 25 25 26 26 26 26 26 26 26 26 26
11 11 12 12 12 12 13 13 13 13 14 14 15 15 15 15 15 14 14 14 14 14 15 15 16 17 17 18 19 20 21 21 22 22 23 24 25 26 26 26 26 26 26 26 26 25 25 25 25 25 25 25 25 25 26 26 26 26 26 25 25 26 26
11 11 11 11 12 12 12 12 13 13 13 14 15 15 15 15 15 14 14 14 14 14 14 15 15 16 17 17 19 20 21 21 21 22 23 24 24 25 26 26 26 26 26 26 26 26 26 26 26 26 26 26 26 26 26 25 26 26 26 26 26 26 26
10 11 11 11 12 12 12 12 13 13 13 14 15 15 14 14 15 14 14 14 14 14 14 14 14 15 16 17 18 20 21 21 21 22 22 23 24 25 26 26 27 27 27 27 27 27 27 27 27 27 27 26 26 26 26 26 27 27 27 26 26 26 26
10 10 11 11 11 12 12 12 13 13 13 14 14 14 14 14 14 14 14 14 13 13 14 14 14 15 16 16 18 19 20 20 21 21 21 22 24 25 26 26 26 27 27 27 27 27 27 27 28 28 27 27 27 27 27 27 27 27 27 26 26 26 26
10 11 11 11 12 12 12 12 13 13 13 14 14 13 13 14 14 14 14 13 13 13 13 13 14 14 15 16 17 18 19 20 20 20 21 22 24 25 25 25 25 25 26 26 27 27 27 27 27 27 27 27 27 27 27 27 27 27 27 27 26 26 26

ECMWFFLT1_925_temp_072.txt.gz
Temp
27 27 27 27 27 27 27 27 27 26 26 26 25 25 25 25 25 24 24 24 23 23 23 23 23 23 23 23 24 24 24 24 24 25 25 25 25 25 25 25 25 25 25 25 26 26 25 25 25 24 24 24 23 24 23 23 23 23 23 23 24 24 24
27 27 27 27 27 27 27 27 27 27 26 26 26 25 25 25 25 24 24 24 23 23 23 23 23 23 23 24 24 24 24 24 24 24 25 25 25 25 25 25 25 25 26 26 26 26 25 25 25 25 24 24 24 24 24 23 23 23 24 24 24 24 24
27 27 28 28 27 28 28 28 27 27 27 26 26 25 25 25 25 25 24 24 24 23 23 23 23 23 23 23 23 24 24 24 24 24 24 25 25 25 25 25 25 25 26 26 26 26 26 26 25 25 25 24 24 24 24 24 24 23 24 24 24 24 24
27 28 27 28 28 27 28 28 27 27 27 27 26 26 26 25 25 25 25 24 24 23 23 23 23 23 23 23 23 23 24 24 24 24 24 25 25 25 25 25 25 25 25 26 26 26 26 26 26 26 25 25 25 24 24 24 24 24 24 24 24 24 24
26 28 28 27 28 28 28 28 28 27 27 27 27 26 26 26 25 25 25 24 24 24 24 24 23 23 23 23 23 23 24 24 24 24 24 25 25 25 25 25 25 25 25 26 26 26 26 26 26 26 26 26 25 25 24 24 24 24 24 24 24 24 24
22 25 27 28 28 28 28 28 28 28 27 27 27 26 26 26 25 25 25 25 24 24 24 24 24 23 23 23 23 23 24 24 24 24 24 24 25 25 25 25 25 25 25 25 26 26 26 26 26 26 26 26 26 26 25 25 24 24 24 24 24 24 24
19 22 25 27 28 28 28 28 28 28 28 27 27 27 26 26 26 25 25 25 24 24 24 24 23 23 23 23 23 23 23 24 24 24 24 24 24 25 25 25 25 25 25 25 26 26 26 26 26 26 26 26 26 26 26 25 25 24 24 24 24 24 24
19 19 20 23 25 27 28 28 28 28 28 27 27 27 26 26 26 26 25 25 25 24 24 24 24 23 23 23 23 23 23 24 24 24 24 24 24 24 25 25 25 25 25 25 26 26 26 26 26 26 26 26 26 26 26 26 26 25 25 24 24 24 24
19 19 19 19 21 23 25 26 27 28 28 28 27 27 26 26 26 26 25 25 25 25 24 24 24 24 24 23 23 23 23 23 23 24 24 24 24 24 25 25 25 25 25 25 25 25 26 26 26 26 26 26 26 26 26 26 26 25 25 25 24 24 24
19 18 18 19 19 19 20 21 22 24 25 26 27 27 26 26 26 26 26 25 25 25 25 24 24 24 24 23 23 23 23 23 23 23 23 24 24 24 25 25 25 25 25 25 25 25 25 25 25 26 26 26 26 26 26 26 26 26 25 25 25 25 24
19 18 18 18 18 18 18 19 19 19 20 22 24 26 27 26 25 25 26 26 25 25 25 25 24 24 24 24 23 23 23 23 23 23 23 23 24 24 24 25 25 25 25 25 25 25 25 25 25 25 25 25 26 26 26 26 26 26 26 26 26 25 25
19 19 18 18 18 18 18 18 18 18 18 19 20 22 25 26 25 25 26 26 26 26 25 25 25 24 24 24 23 23 23 23 23 23 23 23 24 24 24 24 24 24 24 25 25 25 25 25 25 25 25 25 25 25 26 26 26 26 26 26 26 26 25
18 18 18 18 18 17 17 17 18 18 18 18 19 19 21 23 24 25 26 26 26 26 26 25 25 25 24 24 24 24 23 23 23 23 23 23 24 24 24 24 24 24 24 24 24 24 25 25 25 25 25 25 25 25 25 25 25 25 26 26 26 25 25
18 17 18 18 17 17 17 17 17 17 17 18 18 18 18 19 21 23 24 26 26 26 26 25 25 25 25 24 24 24 24 24 24 24 23 24 24 24 24 24 24 24 24 24 24 24 24 25 25 25 25 25 25 25 25 25 25 25 25 25 25 25 25
17 17 17 17 17 16 16 17 17 17 17 17 17 17 17 18 18 20 21 23 25 26 26 26 25 25 25 25 24 24 24 24 24 24 24 24 24 24 24 24 24 24 24 24 24 24 24 24 24 25 25 25 25 25 25 24 25 25 25 25 25 25 25
16 16 16 16 16 16 16 16 16 16 16 17 17 17 17 17 17 17 18 20 22 24 26 26 26 25 25 25 25 25 24 24 24 24 24 24 24 24 24 24 24 24 24 24 24 24 24 24 24 24 24 24 24 24 24 24 25 25 25 25 25 25 25
15 16 16 16 16 16 15 15 16 16 16 16 16 16 16 16 16 16 17 18 19 21 24 25 26 26 25 25 25 25 25 24 24 24 24 24 24 24 24 24 24 24 24 24 24 24 24 24 24 24 24 24 24 24 24 24 25 25 25 25 25 25 25
15 15 15 16 16 16 16 15 16 16 15 15 16 16 16 16 16 16 16 17 18 19 21 23 25 26 25 25 25 25 25 25 24 24 24 24 24 24 24 24 24 24 24 23 24 24 24 24 24 24 24 24 24 24 24 24 24 25 25 25 25 25 25
15 15 15 15 15 15 15 16 16 16 15 15 15 15 15 15 15 15 16 17 18 19 21 22 23 24 25 25 25 25 25 25 25 24 24 24 24 24 24 24 24 24 24 24 24 24 23 24 24 24 24 24 24 24 24 24 24 25 25 25 25 25 25
15 15 15 15 15 15 16 16 16 16 15 15 15 15 15 15 15 15 16 17 18 18 19 20 21 21 22 23 24 24 24 25 24 24 24 24 24 24 23 23 24 24 24 24 24 23 23 23 24 24 24 24 24 24 24 24 24 25 25 25 25 25 25
14 15 15 15 15 15 15 15 15 15 15 15 15 15 15 15 15 15 16 17 18 18 18 19 19 20 20 21 21 22 23 23 23 23 24 24 24 24 23 23 23 23 24 24 23 23 23 23 23 23 24 24 24 24 24 24 25 25 25 25 25 25 24
14 14 14 15 15 15 15 15 15 15 15 15 15 15 15 15 15 15 15 17 17 18 18 18 19 19 20 20 21 21 21 22 22 23 23 23 24 24 23 23 23 23 23 23 23 23 23 23 23 23 24 24 24 24 24 24 24 24 25 25 25 25 24
14 14 14 15 15 15 15 15 15 15 15 15 15 15 15 15 15 15 15 16 17 17 18 18 19 19 20 20 21 21 21 22 22 22 23 23 23 23 23 23 23 23 23 23 23 23 23 24 24 24 24 24 24 24 24 24 24 24 24 25 25 24 24
13 13 14 14 15 15 15 15 15 15 15 15 15 15 15 14 14 14 15 15 16 17 17 18 18 19 19 20 20 21 21 21 22 22 22 22 23 23 23 23 23 23 23 23 23 23 24 24 24 24 24 24 24 24 24 24 24 24 24 24 25 24 24
13 13 13 14 14 14 14 14 14 15 15 15 15 15 15 15 14 14 15 15 15 16 17 17 17 18 18 18 19 19 20 20 21 21 22 22 22 23 23 23 23 23 23 23 23 24 24 24 24 24 24 24 24 24 24 24 24 24 24 24 24 24 24
12 12 13 13 13 14 14 14 14 15 15 15 15 15 15 15 14 14 14 15 15 16 16 16 16 17 17 17 18 18 19 19 20 21 21 22 22 22 23 23 23 23 23 23 23 24 24 24 24 24 24 24 24 24 24 24 24 24 24 24 24 24 24
12 12 12 13 13 13 13 14 14 14 14 15 15 15 15 15 14 14 14 15 15 16 16 16 16 16 17 17 17 17 18 19 19 20 21 22 22 22 22 23 23 23 23 23 23 24 24 24 24 24 24 24 24 24 24 24 24 24 24 24 24 24 24
12 12 12 12 13 13 13 13 13 14 14 14 14 14 15 15 14 14 14 15 15 15 15 15 15 16 16 16 17 18 18 18 19 20 21 21 22 22 22 23 23 23 23 23 23 23 24 24 24 24 24 24 24 24 24 24 24 24 24 24 24 24 24
11 12 12 12 12 12 12 13 13 13 13 14 14 14 14 14 14 14 14 14 15 15 14 15 15 15 16 16 17 18 19 19 19 20 20 21 21 22 22 23 23 23 23 23 23 23 23 24 24 24 24 24 24 24 24 24 24 25 25 25 25 25 25
11 11 11 12 12 12 12 12 12 13 13 13 13 14 14 14 14 14 14 15 15 14 14 14 15 15 15 16 17 18 19 19 20 20 20 20 21 21 22 22 22 23 23 23 23 23 23 23 23 23 24 24 24 24 24 24 24 25 25 25 25 25 25
11 11 11 11 12 12 12 12 12 12 12 13 13 14 14 14 14 14 14 15 15 14 14 14 14 15 15 16 17 17 18 19 20 20 21 21 21 21 22 22 22 23 23 23 23 23 23 24 23 23 24 24 24 24 24 24 24 24 25 25 25 25 25
10 11 11 11 11 11 11 11 11 12 12 12 13 13 14 14 14 14 14 15 15 14 14 14 14 15 15 15 16 17 17 18 19 20 21 22 22 21 22 22 22 22 23 23 23 24 24 24 24 24 24 24 24 24 24 24 24 24 25 25 25 25 25
10 10 10 11 11 11 11 11 11 11 12 12 12 13 13 14 14 14 14 14 14 14 14 14 14 14 15 15 15 16 16 17 18 20 21 21 21 22 22 22 22 22 22 22 23 24 24 24 24 24 24 24 24 24 24 24 24 24 25 25 25 25 25
9 10 10 10 11 11 11 10 11 11 11 12 12 13 13 13 14 14 14 14 14 14 13 14 14 14 14 14 15 15 16 17 18 19 20 20 21 21 22 23 23 22 22 22 22 23 24 24 24 24 24 24 24 24 24 24 24 25 25 25 24 25 25
9 10 10 10 10 10 10 10 10 11 11 11 12 12 13 13 13 14 14 14 14 14 13 13 14 14 14 14 14 15 16 17 18 19 20 20 21 21 21 22 23 23 24 24 24 24 24 24 24 24 24 24 24 24 24 24 25 25 25 25 25 25 25
9 9 9 10 10 10 10 10 10 10 11 11 12 12 12 13 13 14 14 14 14 13 13 13 13 14 14 14 14 15 16 17 18 19 19 20 20 20 21 22 22 23 23 25 26 25 24 24 25 25 25 25 25 25 25 25 26 26 26 25 25 26 25
9 9 9 9 9 10 10 10 10 10 11 11 12 12 12 12 13 13 14 14 13 13 13 13 13 13 14 14 14 15 15 16 17 18 19 19 19 20 20 21 22 23 23 24 25 25 25 25 25 26 25 25 25 25 25 26 26 26 26 26 25 26 26
8 9 9 9 9 9 10 10 10 11 11 11 12 12 12 12 12 13 13 14 13 13 13 13 13 13 13 14 14 15 15 16 16 17 18 19 19 19 20 20 21 22 24 24 25 25 25 25 25 25 26 26 26 26 26 26 26 26 26 26 26 26 26

ECMWFFLT1_925_temp_075.txt.gz
Temp
29 28 28 28 28 28 28 28 28 27 27 26 26 26 26 25 25 24 24 23 23 23 23 23 23 23 23 23 24 24 24 24 24 24 24 24 24 24 24 24 24 24 24 25 25 25 25 25 25 25 24 24 24 24 24 23 23 23 23 23 23 23 23
28 29 29 28 28 28 28 29 28 28 27 27 26 26 26 26 25 24 24 24 24 23 23 23 23 23 23 23 23 24 24 24 24 24 24 24 24 24 24 24 24 25 25 25 25 25 25 25 25 25 25 24 24 24 24 23 24 23 23 23 23 23 23
25 27 29 29 29 28 29 29 28 28 28 27 27 26 26 26 25 25 24 24 24 23 23 23 23 23 23 23 23 24 24 24 24 24 24 24 24 24 24 24 24 25 25 25 25 25 25 25 25 25 25 25 24 24 24 24 24 24 24 24 23 23 23
23 25 28 29 29 29 29 29 29 28 28 28 27 27 26 26 25 25 25 24 24 24 23 23 23 23 23 23 23 23 24 24 24 24 24 24 24 24 24 24 24 24 25 25 25 25 26 26 25 25 25 25 25 25 24 24 24 24 24 24 24 23 24
22 23 26 28 29 29 29 29 29 28 28 28 27 27 26 26 26 25 25 25 24 24 24 24 24 23 23 23 23 23 24 24 24 24 24 24 24 24 24 24 24 24 25 25 25 25 25 26 26 26 25 25 25 25 25 24 24 24 24 24 24 24 24
21 22 23 25 28 29 29 30 29 29 28 27 27 27 27 26 26 26 25 25 25 25 24 24 24 23 23 23 23 23 24 24 24 24 24 24 24 24 24 24 24 24 24 25 25 25 25 25 26 26 26 26 25 25 25 25 24 24 24 24 24 24 24
21 21 22 23 24 26 28 30 30 29 28 27 27 27 27 27 27 26 26 25 25 25 24 24 24 24 23 23 23 23 23 24 24 24 24 24 24 24 24 24 24 24 24 24 25 25 25 25 26 26 26 26 26 25 25 25 25 25 24 24 24 24 24
20 20 21 22 22 23 24 26 28 29 28 28 28 27 26 27 27 26 26 25 25 25 25 25 25 24 24 23 23 23 23 23 23 24 24 23 23 24 24 24 25 24 24 24 25 25 25 25 26 26 26 26 26 26 26 26 26 25 25 25 24 24 24
20 20 20 21 21 22 22 22 23 25 26 27 28 28 27 26 25 25 24 23 24 25 25 25 25 24 24 24 24 23 23 23 23 23 23 23 23 24 24 24 24 25 24 24 24 25 25 25 25 26 26 26 26 26 26 26 26 26 25 25 25 25 24
19 19 20 20 20 21 21 21 21 21 22 23 25 27 27 26 25 25 24 23 23 24 25 25 25 25 24 24 24 24 23 23 23 23 23 24 24 24 24 24 24 24 25 24 24 24 25 25 26 26 26 26 26 26 26 26 26 26 26 26 26 25 25
18 18 18 19 19 20 20 20 20 20 20 21 22 23 25 25 25 26 25 24 23 24 25 25 25 25 24 24 24 24 24 24 24 24 24 24 24 24 24 24 24 24 25 24 24 24 25 25 25 26 26 26 26 26 26 26 26 26 26 26 26 26 25
17 17 17 17 18 18 18 18 19 19 19 20 21 21 22 23 24 25 25 25 25 25 25 25 25 25 25 25 25 24 24 24 24 24 24 24 24 24 24 24 24 24 25 25 24 24 24 25 25 26 26 26 27 26 26 26 26 26 26 26 26 26 26
17 17 17 17 17 17 17 17 18 18 18 19 20 20 20 21 21 22 23 24 25 26 26 26 25 25 25 25 25 24 24 24 24 24 24 24 24 24 24 24 24 24 24 25 25 25 24 24 25 25 26 26 26 26 26 26 26 26 26 26 26 26 26
17 17 16 16 16 16 16 16 17 17 17 18 18 18 19 19 19 20 21 21 23 25 26 26 25 25 25 25 25 24 24 24 24 24 24 24 24 24 24 24 24 24 24 24 25 25 25 25 25 25 25 26 26 26 26 26 26 26 26 26 26 26 26
17 17 16 16 16 16 16 16 16 16 16 16 17 17 18 18 18 19 20 20 21 22 24 25 25 25 25 25 25 24 24 24 24 24 24 24 24 24 24 24 24 24 24 24 24 24 24 24 24 25 25 25 25 25 25 25 26 26 26 26 26 26 26
17 17 16 16 16 16 16 16 16 16 16 16 16 16 16 17 17 17 18 19 19 21 22 23 24 25 25 25 25 24 24 24 24 24 24 24 24 24 24 24 24 24 24 24 24 24 24 24 24 24 24 24 25 25 25 25 25 26 26 26 26 26 26
17 17 16 16 16 16 16 16 16 16 16 16 16 15 15 15 16 16 17 17 18 19 20 21 22 24 25 25 25 24 24 24 24 24 24 24 24 24 24 24 23 23 24 24 24 24 24 24 24 24 24 24 24 24 24 24 25 26 26 26 26 26 25
16 16 16 16 16 16 16 16 16 16 16 16 16 16 15 15 15 16 16 16 17 18 19 20 20 22 24 25 25 25 24 24 24 24 24 24 24 24 24 23 23 23 23 23 23 24 24 24 24 24 24 24 24 24 24 24 25 26 26 26 26 26 25
15 16 16 16 16 16 16 16 16 16 16 16 16 16 16 15 15 15 16 16 17 17 17 19 20 21 21 23 24 24 24 24 24 24 24 24 24 24 23 23 23 23 23 23 23 23 23 23 23 23 24 24 24 24 24 24 25 26 26 26 26 26 25
15 15 15 16 16 17 16 16 16 16 16 16 16 16 16 15 15 15 16 17 18 17 17 18 19 20 21 21 22 23 23 23 24 24 24 24 24 23 23 23 23 23 23 23 23 23 23 23 23 23 23 24 24 24 24 24 24 25 26 26 25 25 25
15 15 15 15 15 16 16 16 16 16 16 16 16 16 16 16 16 16 16 17 17 17 17 17 18 20 21 21 21 21 22 22 23 23 23 23 23 23 23 23 23 23 23 24 24 23 23 23 23 23 23 23 23 23 24 24 24 25 25 25 25 25 24
15 15 15 15 15 15 15 16 16 16 16 16 16 16 16 16 16 16 16 16 16 16 17 17 18 19 20 20 20 20 21 22 22 22 23 23 23 23 23 23 23 23 23 23 24 24 24 23 24 23 23 23 23 24 24 24 24 24 25 25 25 24 24
15 15 15 15 15 15 15 15 15 15 16 16 16 16 15 15 15 16 16 16 16 16 17 17 18 18 18 18 19 19 20 21 21 22 22 22 23 23 23 23 23 23 23 23 24 24 24 24 24 24 24 24 24 24 24 24 24 24 24 25 25 24 24
15 15 15 15 15 15 15 14 14 15 15 16 16 15 15 15 15 15 16 16 17 17 17 17 17 17 17 17 17 18 18 19 20 21 21 21 22 23 23 23 23 24 24 23 24 24 25 25 24 24 24 24 24 24 24 24 24 24 24 24 24 24 24
15 15 15 15 15 15 15 14 14 14 15 15 15 15 15 15 15 15 16 16 17 17 17 17 17 16 16 16 17 17 18 18 19 20 20 21 21 22 22 23 23 24 24 24 24 24 25 25 25 25 25 24 24 24 24 24 25 24 24 24 24 24 24
15 15 15 15 15 14 14 14 14 14 15 15 15 15 15 15 15 15 15 16 16 17 17 17 16 16 16 16 17 17 17 18 18 19 20 20 20 21 22 22 22 23 24 24 24 25 25 25 25 25 25 25 25 25 24 24 25 25 24 24 24 24 24
14 14 14 15 14 14 14 14 14 14 14 14 14 14 15 15 15 15 15 15 16 17 17 16 16 16 16 16 16 16 17 18 18 19 19 20 20 21 22 22 23 23 24 24 24 24 25 25 25 25 25 25 25 25 25 25 25 25 25 24 24 24 24
14 14 14 14 14 14 14 14 14 14 14 14 14 14 14 14 15 15 15 15 15 16 16 16 16 16 16 16 16 16 17 18 18 19 19 20 20 20 21 21 23 23 23 24 24 24 24 24 24 25 25 25 25 25 25 25 25 25 25 24 24 24 24
13 13 13 13 13 14 14 14 14 14 14 14 13 13 14 14 14 14 15 15 15 15 15 15 15 15 15 16 16 16 17 17 18 19 19 20 20 20 20 21 22 23 23 23 23 23 23 24 24 24 25 25 25 25 25 25 25 25 25 24 24 24 24
12 12 12 13 13 13 13 13 13 13 13 13 13 13 13 14 14 14 14 15 15 15 14 15 15 15 15 16 16 16 17 17 17 18 19 19 20 20 20 20 21 21 22 22 22 22 22 23 24 24 24 25 25 26 26 25 25 25 24 24 24 24 24
12 12 12 12 12 12 12 13 13 13 13 13 13 13 13 13 13 14 14 14 14 14 14 14 14 15 15 15 16 16 16 17 17 18 19 19 20 20 20 20 20 20 20 21 21 21 22 23 24 24 24 25 25 26 26 26 25 25 24 24 24 24 24
11 11 11 12 12 12 12 12 12 13 13 13 13 13 13 13 13 13 13 14 14 14 14 14 14 15 15 15 15 16 16 16 17 17 18 19 19 20 20 20 20 20 20 20 21 22 23 23 24 24 24 25 25 26 26 26 25 25 25 25 24 24 24
11 11 11 11 11 11 11 12 12 12 13 13 13 13 13 13 13 13 13 13 14 14 14 14 14 15 15 15 15 15 15 16 16 17 17 18 19 20 21 20 20 21 21 20 21 22 23 23 24 24 25 25 25 26 26 26 25 25 25 25 25 24 24
11 10 10 11 10 11 11 11 11 12 12 12 12 12 12 12 12 12 13 13 13 14 14 14 14 15 15 15 15 15 15 15 16 17 17 18 19 20 21 21 21 21 21 21 21 22 23 24 24 24 25 25 26 26 26 26 25 25 26 26 25 25 24
10 10 10 10 10 10 10 10 11 11 11 12 12 12 12 12 12 12 13 13 13 13 13 14 14 14 15 15 15 15 15 15 16 17 18 18 19 19 20 20 20 21 21 21 21 22 22 23 24 25 25 26 26 26 26 26 26 26 26 26 26 25 25
10 10 10 10 10 10 10 10 10 11 11 11 11 12 12 12 12 12 13 13 13 13 13 13 14 14 14 15 15 15 15 15 16 17 18 18 19 19 19 20 20 20 20 20 21 21 21 21 22 23 24 25 26 26 26 26 26 26 26 25 25 25 25
10 10 10 10 10 10 10 10 10 10 11 11 11 11 12 12 12 12 12 13 13 13 13 13 14 14 14 15 15 15 15 15 15 16 17 17 18 18 19 19 19 20 20 20 21 21 21 21 21 22 22 23 24 25 25 25 25 26 25 25 25 25 25
10 10 10 10 10 10 10 10 10 11 11 11 11 11 12 12 12 12 12 12 13 13 13 13 14 14 14 14 14 15 15 15 15 15 16 16 17 18 18 19 19 20 21 21 21 21 21 21 22 22 23 23 23 23 24 24 24 25 25 25 25 25 25

ECMWFFLT1_925_temp_078.txt.gz
Temp
31 31 30 30 30 30 31 31 31 30 30 30 29 29 29 29 29 28 27 26 26 25 24 24 24 24 24 24 24 24 24 25 25 25 25 25 25 26 26 26 26 26 26 26 26 26 25 25 25 25 24 24 24 24 24 23 23 24 24 23 24 24 24
30 31 31 31 30 30 31 31 30 30 30 30 29 29 29 29 28 28 27 26 26 25 25 24 24 24 24 24 25 24 24 25 25 25 25 25 25 25 25 26 26 26 26 26 26 25 25 25 25 25 25 24 25 24 24 24 24 24 24 24 24 24 24
28 30 30 30 30 31 31 31 31 30 30 30 30 29 29 29 28 28 27 27 26 25 25 25 24 24 25 24 25 25 24 25 25 25 25 25 25 25 26 25 25 26 26 26 26 26 25 25 25 25 25 25 25 25 24 24 24 24 24 24 24 24 24
27 28 30 30 30 31 31 31 31 30 30 30 30 30 29 29 28 28 27 27 27 26 26 25 25 25 25 25 25 25 25 25 25 25 25 26 26 26 26 26 25 26 26 26 26 26 26 26 25 25 25 25 25 25 25 25 24 24 24 24 24 24 24
26 27 28 29 30 31 31 30 30 30 30 30 30 30 29 29 29 28 28 28 28 27 26 26 26 26 25 25 25 25 25 25 25 25 26 26 26 26 26 26 26 26 26 26 26 26 25 25 26 25 25 25 25 25 25 25 25 25 24 24 25 25 25
25 25 26 27 28 29 30 30 30 30 30 30 30 30 30 30 29 29 28 28 28 28 27 27 27 26 26 26 26 26 25 25 25 25 25 26 26 26 26 26 26 26 26 26 26 26 25 25 26 26 26 26 26 26 26 25 25 25 25 24 25 25 26
23 24 24 25 26 27 28 29 29 30 30 29 29 29 30 30 29 29 29 29 28 28 28 28 27 27 26 26 26 26 26 26 25 25 25 26 26 26 26 26 26 26 26 26 26 26 26 26 26 26 26 26 26 26 26 26 26 26 25 25 25 25 25
21 22 23 24 24 25 26 27 27 28 28 28 28 30 30 29 29 29 29 29 29 28 28 28 28 27 27 26 26 26 26 26 26 25 26 26 26 26 26 26 26 26 26 26 26 26 26 26 26 26 26 26 26 26 26 26 25 26 26 25 25 25 25
20 21 21 22 22 23 23 24 25 25 26 26 27 28 28 29 30 29 29 29 28 28 28 28 28 28 27 26 26 26 26 26 26 26 26 26 27 27 27 26 26 26 26 26 27 26 26 26 27 26 26 26 26 26 26 26 25 26 26 26 26 26 26
20 19 20 20 20 21 21 22 22 23 23 24 25 25 26 28 30 30 29 28 28 28 28 28 28 28 27 27 26 26 26 26 27 27 27 27 27 27 28 28 27 26 26 26 27 27 26 26 26 26 26 25 26 25 25 26 26 26 26 26 26 26 26
19 19 19 19 19 19 19 19 20 20 21 23 24 24 24 25 28 29 28 27 28 28 28 28 28 28 28 28 27 27 27 27 27 27 27 27 28 28 28 28 28 27 27 27 27 27 27 26 26 26 26 25 26 26 25 26 25 26 26 26 26 26 26
19 19 18 18 18 18 18 18 18 18 19 21 22 23 23 23 24 26 27 27 27 27 27 28 28 28 28 28 28 28 27 27 27 27 28 27 28 28 28 28 28 28 27 27 27 27 27 27 26 26 26 25 26 26 26 26 26 26 26 27 27 27 26
19 19 19 18 18 18 18 18 18 18 18 19 20 21 22 22 22 23 24 25 26 26 27 27 27 27 27 28 28 28 28 28 27 27 28 28 28 28 28 29 29 29 28 27 27 27 28 27 26 26 26 26 26 26 26 26 26 26 26 26 27 27 27
20 19 19 19 18 17 18 17 18 18 18 18 19 19 20 20 20 21 22 23 24 25 26 26 27 27 27 27 27 27 27 28 28 28 27 27 27 28 28 28 28 29 28 28 27 27 28 28 27 26 26 26 26 26 26 26 26 26 26 26 26 27 27
20 19 19 19 18 18 18 18 18 18 17 17 18 18 18 18 19 19 21 21 22 23 23 24 26 27 27 27 27 27 27 27 27 27 27 27 27 27 27 28 28 28 28 27 27 27 28 28 28 27 27 27 27 27 27 27 26 26 26 26 26 27 27
21 20 19 19 18 18 18 18 18 18 17 17 17 17 17 17 17 18 19 20 20 21 22 22 23 25 27 28 27 27 27 26 26 27 27 26 26 26 26 27 27 27 27 27 27 27 27 27 27 28 27 27 27 27 27 27 27 27 27 26 26 26 27
20 20 20 19 19 18 18 19 19 18 17 17 17 17 17 17 17 17 18 18 19 20 21 21 22 23 24 27 28 27 27 26 26 26 26 26 26 25 25 26 26 26 26 26 26 26 26 26 27 27 28 27 27 27 27 27 28 27 27 27 27 27 27
20 20 20 20 19 18 18 19 19 18 18 17 17 17 17 17 17 17 17 17 18 19 20 20 21 22 22 24 25 26 26 26 26 25 25 25 25 25 25 25 25 26 26 26 26 26 26 26 26 26 27 27 28 27 28 28 28 27 27 26 27 27 26
19 19 19 19 19 19 18 18 19 18 18 18 17 17 17 17 17 17 17 17 17 18 19 20 21 21 21 22 22 23 25 25 25 25 25 25 25 25 25 25 25 25 25 26 26 26 25 25 26 26 26 27 27 27 28 28 28 27 26 26 26 26 26
19 19 19 19 19 19 19 19 18 18 18 18 18 18 18 18 17 17 17 17 18 18 19 19 20 20 20 21 21 22 23 24 24 25 25 25 25 25 25 25 25 25 25 26 26 26 25 25 26 26 25 26 26 26 27 27 27 27 26 26 26 26 25
18 19 19 19 19 19 19 18 19 19 18 18 18 19 19 18 18 17 17 17 18 19 19 19 19 19 19 20 21 21 22 23 23 24 25 25 25 25 25 25 25 25 25 26 26 26 26 26 26 26 26 26 26 26 27 27 27 27 26 26 26 25 25
18 18 19 19 19 19 18 18 18 18 18 18 19 19 19 18 18 18 18 18 18 19 20 20 19 19 18 19 19 20 21 22 23 23 24 24 25 25 25 25 25 25 25 25 26 27 26 26 26 26 26 26 26 26 26 27 27 26 26 26 26 25 25
19 19 19 19 19 19 18 18 18 18 18 19 19 19 19 18 18 18 18 18 18 19 20 20 20 19 18 18 19 19 19 20 21 22 23 24 24 24 24 25 24 25 25 25 25 26 27 27 27 26 26 26 26 26 26 27 27 26 26 26 25 25 25
19 19 19 19 19 19 18 18 18 18 18 19 19 19 18 18 18 18 18 18 18 19 19 20 20 19 19 18 18 19 19 19 20 21 22 23 23 23 24 23 23 23 24 25 25 26 26 27 27 27 27 27 27 26 26 27 27 26 26 26 26 25 25
19 19 19 19 19 19 18 17 17 17 18 19 19 18 18 18 18 19 18 18 18 19 19 19 19 19 19 19 18 19 19 19 20 20 21 22 23 23 23 23 22 22 23 23 24 25 25 25 25 26 27 27 27 27 27 27 27 26 26 26 25 25 25
18 18 18 19 19 18 17 17 17 18 19 19 18 18 18 18 18 18 18 18 18 19 19 18 18 18 18 18 19 19 19 19 19 20 21 21 22 22 22 22 22 22 23 23 24 25 25 25 25 25 26 26 27 27 27 27 27 27 26 26 26 25 25
17 18 18 18 17 17 17 18 18 18 18 18 17 17 18 18 18 18 18 18 18 19 19 18 18 18 17 17 18 19 19 19 19 20 20 21 21 21 21 21 21 22 23 24 24 25 25 25 25 26 26 26 27 27 28 28 28 27 27 26 26 26 25
17 17 17 17 16 16 17 18 18 18 18 18 18 18 18 17 17 17 17 18 18 19 18 18 18 17 17 17 17 18 19 19 19 19 20 20 21 21 21 21 22 22 22 23 24 24 24 25 25 25 25 26 27 27 28 28 28 28 27 26 26 26 25
16 16 16 16 16 16 17 17 17 17 17 17 18 17 17 17 17 17 17 17 18 18 18 18 17 17 17 17 17 18 18 19 19 19 19 20 20 21 21 21 21 21 21 22 22 23 23 23 24 24 25 26 26 27 27 28 28 27 27 27 26 26 25
16 15 16 16 16 16 16 16 16 16 16 17 17 17 17 16 16 16 16 17 17 17 17 17 17 17 17 17 18 17 18 18 19 19 19 19 20 20 20 20 20 21 21 22 22 22 23 23 24 24 25 26 26 26 27 28 28 27 27 27 27 26 26
15 15 15 15 15 15 15 15 15 16 16 16 17 16 16 16 16 16 16 16 16 16 16 17 17 17 17 17 18 18 18 18 18 19 19 19 20 20 20 20 20 21 21 22 21 22 23 24 24 25 25 25 25 25 26 27 27 27 27 27 27 26 26
15 14 14 15 15 14 14 15 15 15 16 16 16 16 16 16 16 16 16 15 15 15 16 16 16 17 17 17 18 18 18 18 18 19 19 20 20 21 21 21 21 21 21 21 21 22 22 23 24 25 25 25 25 26 26 26 26 26 26 27 27 27 26
14 14 14 14 14 14 14 14 15 15 15 15 15 16 16 16 16 16 15 15 15 15 16 16 16 16 17 17 18 18 18 18 18 18 19 19 20 22 22 22 22 22 21 21 22 22 22 22 23 24 24 25 26 25 24 24 24 24 25 25 25 26 26
14 14 14 13 13 13 13 13 14 14 14 14 14 14 15 15 15 15 15 15 15 15 16 16 16 16 16 17 17 18 18 18 18 18 19 19 20 21 21 22 22 22 22 22 22 22 22 22 22 23 24 25 25 23 22 22 22 23 24 23 23 25 26
14 14 13 13 13 13 13 13 13 13 13 13 14 14 14 14 14 15 15 15 15 15 15 15 16 16 16 16 17 18 18 19 19 19 19 19 19 19 20 20 21 21 21 21 22 22 22 22 22 22 23 23 23 22 21 22 22 23 23 23 23 24 24
14 13 13 13 13 13 13 13 13 13 13 13 13 13 13 14 14 14 15 15 15 15 15 15 15 16 16 17 18 18 18 19 20 19 19 18 18 18 19 19 20 20 20 20 20 20 21 21 21 21 22 22 22 22 22 22 22 23 23 23 22 21 22
14 13 13 13 13 13 13 13 13 13 13 13 13 13 13 14 14 14 14 14 15 15 15 15 15 15 16 17 17 18 18 18 18 19 18 18 18 18 18 18 19 19 19 19 19 20 20 21 21 21 21 21 21 22 22 22 22 22 23 23 23 22 22
13 13 13 13 13 13 13 13 13 13 13 13 13 13 13 13 13 14 14 14 14 14 14 14 15 15 16 16 17 17 17 17 17 18 18 17 17 17 17 18 19 19 20 20 20 20 21 21 21 21 21 21 21 21 21 22 22 22 23 23 23 23 23

ECMWFFLT1_925_temp_081.txt.gz
Temp
30 29 29 29 28 28 29 28 27 28 29 30 31 31 31 31 31 30 29 28 27 27 26 26 26 26 26 26 26 26 26 26 26 26 26 27 27 27 27 27 27 26 27 27 27 27 26 26 26 26 26 25 25 25 24 24 24 24 25 24 25 25 25
30 30 29 29 28 27 26 26 26 26 27 29 30 31 31 30 30 30 29 28 27 27 27 26 26 26 26 26 26 26 26 26 26 26 26 27 27 27 27 27 27 27 27 27 27 27 26 26 26 26 26 26 26 25 25 25 24 25 25 25 25 25 25
28 29 29 28 28 28 27 27 27 27 27 29 30 30 31 30 29 29 28 27 27 27 27 26 26 27 26 26 26 26 26 26 26 26 27 27 27 27 27 27 27 27 27 27 27 27 27 26 26 26 26 26 26 26 25 25 25 25 25 25 25 25 25
26 28 28 27 28 28 27 27 26 25 26 28 30 30 30 29 29 30 28 27 27 27 27 27 27 27 27 27 27 26 26 26 27 27 27 28 28 28 28 27 27 27 27 27 27 27 27 27 26 26 26 26 26 26 26 26 25 25 25 25 25 25 25
27 28 28 28 27 27 26 25 24 24 24 26 29 29 29 28 29 30 28 27 27 27 27 27 27 28 27 27 27 27 27 26 27 27 27 28 28 28 28 28 28 28 28 28 27 27 27 27 27 26 26 26 26 26 26 26 26 26 25 25 25 26 26
27 27 28 28 27 26 26 25 24 24 24 25 27 27 27 28 28 28 28 27 28 28 27 27 28 28 28 28 28 28 27 27 27 27 27 28 28 28 28 28 28 28 28 28 28 28 27 27 27 27 27 27 27 27 27 26 26 26 26 25 26 26 26
26 26 27 27 27 26 24 24 23 24 24 26 26 25 25 26 25 26 27 28 28 27 27 27 29 29 28 28 28 28 28 27 27 27 27 28 28 28 28 28 28 28 28 28 28 28 27 27 27 27 27 27 27 27 27 27 27 27 26 26 26 26 26
24 25 25 26 26 26 25 24 24 24 24 25 25 24 24 24 25 26 26 27 27 25 25 27 30 29 29 29 29 29 28 28 28 27 27 28 28 28 28 28 28 28 28 28 28 28 28 27 27 27 27 27 27 28 27 27 27 27 27 26 26 26 26
22 23 24 25 25 25 26 25 25 25 24 24 25 25 24 24 25 26 25 24 24 24 25 27 29 29 29 29 29 28 29 29 28 28 28 28 29 28 29 28 28 28 28 29 29 28 28 28 28 28 27 27 27 27 27 27 27 27 27 27 26 26 27
22 22 23 23 24 24 24 24 24 24 25 25 25 25 25 25 25 25 24 24 23 24 26 27 29 29 29 28 29 29 29 29 29 29 29 29 29 29 29 29 29 28 28 29 29 29 28 28 28 28 27 27 27 27 27 27 27 27 27 27 27 27 27
22 22 22 22 22 22 22 22 22 22 23 24 25 25 25 24 24 24 25 25 25 25 26 27 30 31 30 29 29 29 29 29 29 29 29 29 30 30 30 30 30 29 29 29 29 30 29 28 28 28 28 27 27 27 27 27 27 27 27 28 27 27 27
22 21 21 21 21 21 21 21 21 21 22 23 24 25 24 24 24 23 24 25 25 26 27 26 27 29 30 30 29 29 29 29 29 29 29 29 30 30 30 30 30 30 29 29 29 30 30 29 28 28 28 27 27 27 27 27 27 27 27 28 28 28 28
22 22 21 20 21 21 20 20 20 20 21 22 23 23 23 23 23 23 22 23 24 25 27 26 25 27 30 30 30 29 29 29 29 29 29 29 30 30 30 31 31 31 30 30 29 30 30 30 29 28 28 27 27 27 27 27 27 27 27 27 28 28 28
23 23 22 21 21 20 20 20 20 20 20 21 22 22 22 22 22 23 22 22 22 23 25 25 25 26 28 29 29 29 29 30 29 29 29 29 29 29 30 30 31 31 31 30 30 30 30 30 30 29 28 28 27 27 28 27 27 27 27 27 28 28 28
24 23 22 21 21 20 20 20 20 20 20 20 20 21 21 21 21 22 22 22 22 22 22 22 23 25 26 27 28 29 29 29 29 29 29 29 29 29 29 30 30 31 31 30 30 30 30 30 30 30 29 28 28 28 28 28 28 27 27 27 27 28 29
24 23 23 22 21 21 20 20 20 20 20 20 20 20 20 19 20 21 21 22 22 21 21 21 22 23 24 25 25 26 27 27 28 29 29 28 28 28 28 29 29 30 30 30 30 30 30 30 30 30 30 29 28 28 28 29 29 28 28 27 27 28 28
23 23 23 22 22 21 21 21 21 20 20 20 20 20 19 18 19 19 20 21 21 21 21 21 21 22 23 23 23 23 24 24 25 26 27 27 28 28 28 28 28 29 29 29 29 29 29 29 30 30 30 30 29 29 29 29 30 29 28 28 27 28 28
23 23 23 22 22 21 21 21 21 20 20 20 20 20 19 19 19 19 19 20 20 20 21 21 21 21 22 22 22 21 22 23 23 23 24 25 26 27 27 27 27 28 28 28 28 29 29 29 29 29 29 30 30 30 30 30 30 30 29 28 28 27 28
23 23 23 23 22 22 21 22 22 21 20 20 20 21 21 20 20 19 19 19 19 20 21 20 20 20 21 21 21 20 21 23 23 23 24 24 25 25 26 26 26 26 27 28 28 28 28 28 28 28 28 29 29 30 30 30 30 30 29 29 28 28 28
22 23 23 22 22 22 22 22 22 21 21 21 21 21 21 21 20 20 19 19 19 20 21 20 20 19 19 20 20 20 21 22 22 22 23 23 24 24 24 24 24 25 26 26 27 27 28 27 28 28 28 28 28 29 29 30 30 30 29 29 28 28 28
22 22 22 22 22 22 22 22 22 22 21 21 21 21 21 21 21 21 20 20 20 20 21 21 20 19 19 19 19 19 20 21 21 22 23 23 22 22 22 22 23 24 24 23 24 25 26 27 27 28 27 27 28 28 28 29 29 29 29 29 28 28 27
21 21 22 22 22 22 21 21 22 21 21 22 22 22 21 21 21 21 21 21 20 20 21 21 21 20 20 19 19 19 19 20 20 21 22 22 21 22 22 22 23 23 23 22 23 24 25 25 27 27 27 27 27 28 28 29 29 29 28 28 28 28 27
22 22 22 22 22 22 21 21 21 21 21 22 22 22 21 21 21 21 21 21 21 21 21 21 21 20 20 20 20 20 19 19 20 20 21 21 22 22 22 22 23 23 22 23 24 24 24 25 26 27 27 28 28 28 28 28 29 28 28 28 28 27 27
22 22 22 22 22 22 21 21 20 21 21 22 22 21 21 21 21 21 21 21 21 22 22 21 20 20 20 20 20 20 20 20 20 20 21 21 21 21 21 22 22 22 23 23 24 24 24 25 26 27 27 28 28 28 28 28 28 28 28 28 27 27 27
22 22 21 22 22 21 21 20 20 20 21 22 22 21 21 21 21 21 21 21 21 22 22 22 21 20 20 20 19 19 20 20 20 20 20 21 21 21 21 21 22 22 22 23 24 24 24 25 26 27 27 28 28 28 28 28 28 28 28 28 27 27 27
22 21 21 21 21 20 20 20 20 21 22 22 21 21 21 21 21 21 20 20 21 22 22 21 20 20 20 19 19 19 19 20 20 20 21 21 21 21 21 21 22 22 22 22 23 24 24 25 26 27 27 27 28 29 29 29 29 28 28 28 27 27 27
21 20 21 21 20 19 19 20 20 21 21 21 20 21 21 21 21 20 20 20 21 21 21 21 20 20 20 19 20 19 19 19 19 20 20 21 21 21 21 22 22 22 22 22 22 23 24 25 26 26 27 27 28 28 29 29 29 28 28 28 27 27 27
20 20 20 20 19 19 19 20 20 20 20 20 20 21 21 20 20 20 19 19 20 20 20 20 20 20 20 19 20 20 20 19 19 19 20 20 21 21 21 22 22 22 22 22 22 22 23 24 24 25 26 26 27 27 28 28 28 28 28 28 28 27 27
19 19 19 19 19 19 19 19 19 19 19 20 20 20 20 20 19 19 19 19 19 19 19 19 19 19 19 19 20 20 20 20 20 19 19 19 19 20 21 22 22 22 22 22 22 22 22 23 23 24 24 25 25 26 27 27 27 28 28 29 28 28 27
18 18 18 19 19 18 18 18 18 18 18 19 19 19 19 19 19 18 18 18 18 18 18 18 18 19 19 19 20 20 20 21 20 20 20 19 19 19 20 21 21 22 22 22 22 22 22 23 23 23 23 23 24 25 25 26 26 27 27 26 27 28 28
18 18 18 18 18 17 17 17 18 18 18 19 18 18 18 18 18 18 18 18 18 18 17 17 18 18 18 19 19 20 20 21 21 21 21 21 20 20 20 20 21 21 22 22 23 23 22 23 23 23 23 23 24 24 24 24 24 24 24 24 25 27 27
17 17 17 17 17 16 16 17 17 17 18 18 18 18 18 18 18 18 18 18 18 18 18 18 18 18 18 18 19 19 20 20 21 22 22 22 22 22 21 21 21 22 22 22 23 23 23 23 23 23 23 23 23 22 23 23 23 23 23 23 24 25 25
17 16 16 16 16 16 16 16 16 17 17 17 17 17 17 17 17 17 17 17 17 18 18 17 17 17 18 18 18 19 19 20 20 21 22 22 23 23 23 23 23 23 23 23 23 24 24 24 24 23 23 23 23 23 23 23 23 23 23 23 22 23 24
16 16 16 16 16 15 15 15 15 15 15 16 16 16 16 16 16 16 16 17 17 17 17 17 17 17 18 18 18 18 19 19 20 20 21 22 23 23 23 23 22 22 23 23 23 24 24 23 23 24 24 24 23 23 23 22 22 22 23 22 22 22 23
16 16 16 16 15 15 15 15 15 15 15 15 15 15 15 15 16 16 16 16 16 17 17 17 17 17 17 18 18 19 19 20 20 21 22 22 23 23 22 21 21 21 22 22 22 22 21 21 21 21 22 22 22 22 22 22 22 23 23 22 22 22 22
16 16 16 16 15 15 15 15 15 15 15 15 15 15 15 15 15 16 16 16 16 16 16 16 16 17 17 18 19 19 20 20 21 22 22 22 22 22 22 21 21 21 20 20 20 20 21 20 20 20 21 21 21 21 22 22 22 22 22 22 22 22 22
16 16 15 15 15 15 15 15 15 15 15 15 15 15 15 15 15 15 15 16 16 16 16 16 16 16 17 17 18 18 19 19 20 20 20 20 20 21 21 21 21 20 20 20 20 20 21 21 21 21 20 20 20 20 21 21 21 21 21 22 22 22 22
15 15 15 14 14 14 14 15 15 14 14 14 14 14 15 15 15 15 15 15 15 15 15 15 16 16 16 17 17 17 17 18 18 19 19 19 19 19 20 20 21 21 21 21 21 21 21 21 21 20 20 20 20 20 20 20 20 20 20 21 21 21 21

ECMWFFLT1_925_temp_084.txt.gz
Temp
30 29 29 28 29 29 27 27 26 25 26 26 27 28 29 30 30 30 28 27 27 26 26 26 26 26 26 26 26 26 26 26 26 26 26 27 27 27 26 26 26 26 26 26 26 26 26 26 26 26 25 25 25 25 25 25 25 25 25 25 25 25 25
30 29 29 28 28 28 25 25 25 25 25 26 26 27 27 27 28 28 28 27 26 26 26 26 26 26 26 26 26 26 26 26 26 26 26 26 27 27 27 27 27 26 26 26 27 26 26 26 26 26 26 25 25 25 25 25 25 25 25 25 25 25 25
30 30 29 28 29 28 26 25 26 25 26 26 26 26 26 25 24 25 27 28 27 26 26 26 26 26 26 26 26 26 26 26 26 26 26 26 27 27 27 27 27 27 26 27 27 27 26 26 26 26 26 26 26 25 25 25 25 25 25 25 25 25 25
29 30 29 29 29 28 26 25 26 26 26 26 26 25 25 25 24 23 24 26 27 27 27 26 26 26 26 26 26 26 26 26 26 26 26 27 27 27 27 27 27 27 27 27 27 27 27 27 26 26 26 26 26 26 25 25 25 25 25 25 25 25 25
29 29 28 29 29 27 26 26 26 26 26 26 26 25 24 24 25 24 24 24 25 26 27 27 27 27 27 26 27 26 26 26 26 27 27 27 27 27 28 27 27 27 27 27 27 27 27 27 27 26 26 26 26 26 26 25 25 25 25 25 25 25 26
28 28 28 27 27 27 27 27 26 25 25 25 25 24 24 24 24 24 24 24 24 24 26 27 27 27 27 27 27 27 27 26 27 27 27 28 28 28 28 28 27 28 28 27 27 27 27 27 27 26 26 26 26 26 26 26 26 26 25 25 25 25 26
27 28 27 26 26 26 26 26 24 23 24 24 24 24 24 24 24 24 24 25 24 24 24 26 27 28 28 27 28 27 27 27 27 27 27 28 28 28 28 28 28 28 28 28 28 27 27 27 27 27 26 27 27 27 27 26 26 26 26 25 25 26 26
26 27 27 27 25 25 25 25 24 23 24 23 23 23 23 23 24 24 24 25 25 25 25 26 26 27 27 27 27 28 28 27 27 27 27 28 28 28 28 28 28 28 28 28 28 28 28 27 27 27 27 27 27 27 27 27 27 26 26 26 25 26 26
25 25 26 26 25 24 24 24 24 24 24 23 22 22 23 23 24 24 24 25 25 25 25 26 26 26 26 26 27 27 28 28 28 27 28 28 28 28 29 28 28 28 28 28 28 28 28 27 27 27 27 27 27 28 28 27 27 27 27 26 26 26 26
24 24 23 23 23 23 23 23 23 23 23 23 23 22 23 23 24 24 24 24 25 25 25 25 25 25 26 27 27 26 26 27 28 28 28 29 29 29 29 29 29 28 28 29 29 28 28 28 28 27 27 27 27 28 28 27 27 27 27 27 27 26 26
23 23 22 22 22 22 21 21 21 21 22 22 22 23 23 24 24 24 24 24 25 25 25 25 25 25 26 26 27 26 25 25 28 29 28 29 29 29 29 29 29 29 28 29 29 29 29 28 28 28 27 27 27 27 27 27 27 27 27 27 27 27 26
22 22 22 21 21 20 20 20 20 20 20 21 22 22 23 24 24 24 24 24 24 24 25 25 25 25 25 25 25 25 25 24 26 28 29 29 30 30 30 30 30 29 29 29 29 29 29 29 28 28 28 27 27 27 27 27 27 27 27 27 27 27 27
22 22 21 21 21 20 19 19 19 19 19 19 20 20 21 23 23 24 24 24 24 24 24 24 24 24 25 24 24 24 24 24 23 24 26 29 30 30 30 30 30 30 30 29 29 29 30 29 28 28 28 28 27 27 27 27 27 27 27 27 28 28 27
23 22 22 22 21 21 20 19 19 19 19 19 19 19 20 21 21 23 24 24 23 23 23 23 23 23 23 24 23 23 22 22 23 23 24 25 26 28 30 31 31 31 30 30 29 29 30 30 29 28 28 28 28 27 27 27 27 27 27 27 27 28 28
24 23 22 22 21 21 21 20 20 19 19 19 19 19 19 19 20 21 23 23 23 23 22 22 22 22 22 22 22 22 22 23 24 24 24 25 25 25 27 29 31 31 31 30 30 29 30 30 30 29 28 28 28 27 27 27 27 27 27 27 27 27 28
24 23 23 22 22 22 21 21 21 20 20 20 20 20 19 19 19 19 21 22 22 22 22 22 22 21 21 21 21 22 22 23 23 24 25 26 26 26 26 27 28 29 29 29 30 30 30 30 30 30 29 29 28 28 28 28 28 27 27 27 27 27 28
24 24 23 23 22 22 22 22 22 21 21 21 20 20 20 19 19 19 19 20 21 21 21 21 21 21 21 21 21 21 22 22 23 23 24 25 25 26 26 26 27 27 26 26 27 28 29 30 30 30 30 29 29 28 28 28 28 28 28 27 27 27 27
24 24 23 23 22 22 22 22 22 22 22 22 21 21 21 20 20 20 20 20 20 20 20 20 20 21 21 21 20 20 21 21 22 22 23 24 24 24 24 25 26 27 26 26 26 26 27 28 29 30 30 30 30 29 29 28 29 29 29 28 28 27 27
24 24 24 23 23 22 22 23 23 22 22 22 22 22 22 21 21 20 20 20 20 20 20 20 20 20 20 20 20 19 20 20 21 21 22 23 23 23 23 24 25 26 26 26 26 26 26 27 27 28 29 30 30 30 30 29 29 29 29 29 28 28 28
24 24 23 23 23 23 23 23 23 23 23 22 22 22 22 22 22 21 21 20 21 21 21 20 20 20 19 19 19 19 20 20 20 20 21 23 23 23 23 23 23 24 25 25 25 25 26 26 26 27 27 28 29 29 29 29 30 30 30 30 29 29 28
23 23 23 23 22 22 23 23 23 23 23 23 23 22 22 22 22 22 22 21 21 22 21 21 20 20 19 19 19 20 20 20 20 20 21 22 22 22 22 23 23 23 24 24 24 24 25 25 26 26 26 27 28 28 28 29 29 30 30 30 30 29 29
23 23 23 23 23 22 22 22 22 23 23 23 23 23 22 22 22 22 22 22 22 22 22 21 20 20 20 19 20 20 20 20 20 20 20 21 21 21 22 22 22 22 23 23 23 24 24 25 25 26 26 26 27 27 28 28 29 29 29 29 30 30 29
23 23 23 24 23 22 22 22 22 22 23 23 23 23 23 22 22 22 22 22 22 22 22 21 21 21 20 20 20 20 20 20 20 20 20 20 21 21 21 21 21 21 22 22 22 23 23 24 24 25 25 26 26 27 27 28 28 28 29 29 29 29 29
24 23 23 23 23 22 22 21 22 22 23 23 22 22 23 23 22 22 22 22 23 23 22 22 21 21 21 21 20 20 20 20 20 20 21 21 21 21 21 21 21 21 21 21 21 22 22 23 23 24 24 25 26 26 27 27 28 28 28 29 29 29 29
23 23 23 23 22 22 21 21 21 22 23 23 22 22 23 22 22 22 21 21 22 23 22 22 21 21 21 21 21 20 20 20 20 20 21 21 21 21 20 21 21 22 22 21 21 22 22 23 23 23 24 25 25 26 26 26 27 27 27 28 28 29 29
22 22 23 22 21 21 21 21 21 22 22 22 21 22 22 22 22 21 20 21 21 22 22 21 21 21 20 20 21 21 20 20 20 20 20 21 21 20 20 21 21 22 22 22 22 22 22 22 23 23 23 24 24 25 25 26 26 25 24 24 26 27 28
22 22 22 21 21 21 21 21 21 21 21 21 21 22 22 21 21 20 20 20 21 21 21 21 20 20 20 20 20 20 20 21 20 20 20 21 21 21 21 21 21 21 21 21 22 22 22 22 22 22 22 23 23 23 23 23 23 22 22 22 23 24 25
21 21 21 21 21 20 20 21 20 20 21 21 21 21 21 21 20 20 19 20 20 20 20 20 20 19 19 19 20 20 20 21 21 20 20 20 21 21 22 22 21 21 21 21 21 22 22 22 22 22 22 23 23 23 23 22 21 21 22 23 24 24 24
20 20 20 21 21 20 19 20 19 19 20 20 20 20 20 20 19 19 19 19 19 19 19 19 19 19 19 19 20 20 20 21 21 21 21 20 20 20 21 22 22 21 21 22 21 21 21 22 22 22 22 22 23 23 22 22 22 22 23 24 25 24 24
19 19 20 20 20 19 19 19 19 19 19 20 19 19 19 19 19 19 19 19 19 18 18 18 18 18 18 19 19 19 20 20 20 21 21 21 21 21 21 21 21 21 22 22 22 21 21 22 22 22 21 22 22 22 22 23 24 24 23 23 23 23 23
19 19 19 19 18 18 18 18 18 19 19 19 19 18 18 18 18 18 18 18 18 18 18 18 18 18 18 18 19 19 19 20 20 21 21 22 22 22 22 22 21 21 22 22 22 21 22 22 22 22 22 21 21 22 22 23 23 23 23 23 23 23 24
18 18 18 18 17 17 17 17 18 18 18 18 17 17 17 17 17 18 18 17 17 18 18 18 18 18 18 18 18 19 19 20 20 21 21 22 22 22 23 23 23 22 22 22 22 22 22 23 23 23 22 21 21 22 22 22 22 23 22 23 23 23 23
17 17 17 17 17 16 16 17 17 17 17 17 16 16 16 17 17 17 17 17 17 18 18 18 17 18 18 18 18 18 19 19 19 20 20 21 21 22 23 24 24 23 23 23 22 23 23 23 22 22 22 21 21 21 21 21 22 22 22 22 22 22 22
17 17 17 17 16 16 16 16 16 16 16 16 16 16 16 16 16 16 16 17 17 17 17 17 17 17 17 17 18 18 18 19 19 20 20 21 21 22 23 24 24 23 23 23 22 23 23 23 22 22 22 22 22 21 21 21 21 21 21 20 20 21 21
17 17 17 17 16 16 16 16 16 15 15 15 15 15 15 16 16 16 16 16 16 16 16 16 16 17 17 17 18 18 19 20 20 21 21 21 22 22 22 23 23 22 22 22 22 22 22 22 21 21 22 22 22 22 21 21 21 22 21 21 21 20 20
17 16 16 16 16 16 15 15 15 15 15 15 15 15 15 15 15 16 16 16 16 16 16 16 16 16 16 17 18 18 19 19 19 20 20 20 20 21 21 21 21 21 21 21 21 21 21 21 21 21 21 21 21 21 21 21 21 21 21 21 21 21 21
16 16 16 16 15 15 15 15 15 15 15 15 15 15 15 15 15 15 15 15 15 15 15 15 15 16 16 16 17 17 17 17 18 18 18 18 19 19 20 20 20 20 20 20 20 21 21 21 21 21 21 21 21 21 20 20 20 20 21 21 21 21 21
16 16 15 15 15 15 16 16 15 15 15 15 14 14 14 14 15 15 15 15 15 15 15 15 15 15 16 16 16 16 16 16 17 17 17 17 18 18 18 19 19 19 20 20 20 21 21 21 21 21 21 21 21 21 20 20 20 21 21 21 21 21 22

ECMWFFLT1_925_temp_087.txt.gz
Temp
28 28 29 28 28 27 26 26 27 28 28 29 29 29 29 28 27 27 26 26 26 26 26 25 25 25 25 25 25 25 26 26 26 26 27 26 26 26 26 25 25 25 25 25 25 25 25 25 25 25 25 25 25 25 25 25 25 25 25 25 25 25 25
28 28 28 28 27 27 26 26 27 27 27 27 27 27 28 27 27 26 26 26 26 26 26 25 25 25 25 25 25 25 25 26 26 26 26 26 26 26 26 26 25 25 25 25 25 25 25 25 25 25 25 25 25 25 25 25 25 25 25 25 25 25 25
28 28 28 28 27 26 25 25 26 26 26 26 26 26 27 27 27 26 26 26 26 26 26 25 25 25 25 25 25 25 25 26 26 26 26 26 26 26 26 26 26 26 25 25 26 26 25 25 25 25 25 25 25 25 25 25 25 25 25 25 25 25 25
27 26 26 26 26 25 24 24 24 25 25 25 25 25 26 26 26 26 26 26 26 26 26 26 25 25 25 25 25 25 25 25 26 26 26 26 26 26 26 26 26 26 26 26 26 26 26 26 26 25 25 25 25 25 25 25 25 25 25 25 25 25 25
24 24 24 24 24 23 23 22 23 23 24 25 25 24 25 26 27 27 26 26 26 25 26 26 25 25 25 25 25 25 25 25 26 26 26 26 26 26 26 26 26 26 26 26 26 26 26 26 26 25 25 25 25 25 25 25 25 25 25 25 25 26 25
24 23 23 23 23 22 23 23 23 24 24 25 25 25 25 26 26 26 26 26 25 25 25 26 26 25 25 25 25 25 26 26 26 26 26 26 26 26 26 27 27 27 27 27 26 26 26 26 26 26 25 25 25 25 25 25 25 25 25 25 25 25 25
23 23 22 22 22 22 23 23 23 24 24 24 25 25 25 26 26 26 25 25 24 24 25 25 26 26 25 26 26 26 26 26 26 26 26 26 26 26 27 27 27 27 27 27 27 27 26 26 26 26 26 26 26 26 26 25 25 25 25 25 25 25 25
23 23 22 22 22 22 22 23 23 23 23 23 23 23 24 24 25 25 25 25 25 24 25 25 26 26 26 26 26 26 26 26 26 26 26 26 26 27 27 27 27 27 27 27 27 27 27 27 26 26 26 26 26 26 26 26 26 25 25 25 25 25 25
22 22 22 22 22 21 21 21 22 23 23 23 22 22 23 23 23 23 24 24 24 24 25 25 25 25 26 26 26 26 26 26 26 26 26 26 26 27 27 27 27 27 27 27 27 27 27 27 27 26 26 26 26 26 26 26 26 26 26 26 25 25 25
22 21 21 21 20 20 20 20 21 22 22 22 22 22 22 22 22 23 23 23 24 24 24 25 25 24 25 26 26 26 26 26 26 26 26 26 27 27 27 27 27 27 27 27 27 27 27 27 27 26 26 26 26 26 26 26 26 26 26 26 26 26 26
21 21 21 20 20 19 19 19 20 20 20 21 21 21 22 22 22 22 23 23 23 23 23 22 22 22 22 23 25 26 26 26 26 26 26 26 27 27 27 28 28 28 28 28 28 27 27 27 27 27 27 27 26 27 27 27 27 26 26 26 26 26 26
20 20 20 20 19 19 19 19 19 19 20 20 20 20 21 21 21 21 22 23 22 21 21 21 21 22 22 22 24 25 26 26 26 26 26 26 26 27 27 27 28 28 28 28 28 28 28 28 27 27 27 27 27 27 27 27 27 27 27 26 26 26 26
20 20 20 19 19 19 19 19 18 19 19 19 19 19 20 20 21 21 21 21 21 21 21 20 21 23 23 23 24 24 25 25 26 26 26 26 26 26 26 26 27 28 28 28 28 28 28 28 28 28 27 27 27 27 27 27 27 27 27 27 26 26 26
20 20 20 20 19 19 19 19 18 18 19 19 19 19 20 20 20 20 20 20 20 21 21 21 21 21 22 22 23 23 24 24 25 25 25 26 26 26 26 26 26 27 28 28 28 28 28 28 28 28 28 27 27 27 27 27 27 27 27 27 27 26 27
20 20 20 20 19 19 19 19 19 19 19 19 19 19 19 20 20 20 20 20 20 20 20 20 20 21 21 21 22 23 23 23 24 24 24 25 25 26 26 26 26 27 27 28 28 28 28 29 28 28 28 28 28 27 27 27 27 27 27 27 27 27 27
21 21 20 20 20 20 20 19 19 19 19 19 19 19 19 19 19 19 19 20 20 20 20 20 20 21 21 21 21 22 22 23 23 24 24 24 24 25 25 25 26 26 27 27 28 28 28 29 29 28 28 28 28 27 27 27 27 27 27 27 27 27 27
22 22 21 21 21 21 21 20 20 20 20 19 19 19 19 19 19 19 19 19 20 20 20 21 21 21 20 20 20 21 21 22 22 22 23 23 24 24 24 24 25 25 26 27 27 28 28 28 28 28 28 28 28 28 27 27 27 27 27 27 27 27 27
22 22 22 21 21 21 21 21 21 20 20 20 20 20 20 20 20 19 19 19 19 20 20 21 20 20 20 20 20 20 21 21 22 22 23 24 24 24 24 24 24 25 25 26 27 28 28 28 28 28 27 27 28 28 28 27 28 27 27 27 27 27 27
22 22 22 22 22 22 21 21 21 21 21 21 21 20 20 20 20 20 20 19 19 20 20 20 20 19 19 20 20 20 21 21 22 22 22 23 23 23 24 24 24 25 25 25 25 26 27 28 28 28 27 27 27 27 27 27 28 28 27 27 27 27 27
22 22 22 22 22 22 21 21 22 22 22 22 22 21 21 21 20 20 20 20 20 20 19 19 19 19 19 19 19 20 21 21 21 21 21 22 22 22 23 24 24 25 24 24 24 25 26 26 27 27 27 27 27 27 27 27 27 28 28 28 28 28 27
22 22 21 21 21 21 21 22 22 22 22 22 22 22 22 21 21 21 21 21 20 20 19 19 19 19 19 19 19 20 20 20 20 20 21 21 21 22 22 23 23 24 23 23 23 24 25 25 25 26 26 27 27 27 27 27 27 27 27 27 27 28 28
22 21 21 21 21 20 21 22 22 22 22 22 22 22 22 22 22 21 21 21 21 20 20 20 20 20 20 20 19 19 20 20 20 20 21 21 21 21 22 22 22 22 22 23 23 23 24 24 24 24 25 25 26 26 26 27 26 25 25 25 25 26 27
22 22 21 21 21 21 21 22 22 22 22 22 22 22 22 21 21 21 22 21 21 21 21 20 20 20 20 20 20 20 20 20 20 20 20 20 21 21 21 21 21 21 22 23 23 23 23 23 23 23 23 24 24 25 26 25 25 25 25 25 25 25 25
22 22 21 21 21 21 21 21 22 22 22 22 22 22 22 21 21 21 21 21 21 21 21 20 20 20 20 20 20 20 20 20 21 21 20 20 20 20 20 21 21 21 22 22 22 22 22 22 22 22 23 23 24 24 24 24 24 25 26 26 26 26 26
22 21 21 21 21 21 21 21 21 21 21 21 21 21 21 20 20 21 20 21 21 21 20 20 20 20 20 20 20 20 20 20 21 21 21 21 20 20 20 20 20 21 21 21 22 22 22 22 22 22 22 23 23 23 23 23 24 25 25 25 25 25 26
21 21 21 21 21 21 21 21 21 21 21 21 21 21 20 20 20 20 20 20 20 20 20 19 19 19 19 19 20 20 20 20 20 20 21 21 21 21 21 21 21 21 21 21 21 21 21 21 22 22 22 23 23 23 23 23 24 24 25 25 24 24 24
21 21 21 20 20 20 20 20 20 20 20 20 20 20 20 19 19 19 19 19 19 19 19 19 19 19 19 19 19 20 20 20 20 21 21 21 21 21 21 21 21 22 21 21 21 21 21 21 21 21 22 22 22 22 23 23 24 24 25 24 24 24 24
20 20 20 20 19 19 19 19 19 19 20 19 19 19 19 19 19 19 19 18 18 18 18 18 18 18 18 18 19 19 19 20 20 20 21 21 21 21 21 21 21 22 22 22 21 21 21 22 22 21 21 22 22 23 23 23 23 23 23 23 23 23 24
19 20 20 19 18 18 18 18 18 19 19 18 18 18 18 18 18 18 18 18 18 18 18 18 18 18 18 18 18 19 19 19 19 20 20 20 21 21 21 21 22 22 22 22 22 21 22 22 22 22 22 22 23 23 23 22 22 22 22 22 22 23 23
19 19 19 18 17 17 18 18 18 18 17 17 17 17 17 17 17 17 17 17 17 17 18 18 18 18 18 18 18 18 18 18 19 19 20 20 21 21 21 21 22 22 22 22 22 22 22 22 22 22 22 22 22 22 22 21 21 21 21 21 22 22 22
18 18 18 17 17 17 17 17 17 17 16 16 16 16 16 16 16 16 16 16 17 17 17 17 17 17 17 17 17 17 18 18 18 19 19 20 20 20 21 21 22 22 22 22 22 22 22 22 22 22 22 21 21 21 22 22 22 22 22 21 21 21 21
17 17 17 17 16 16 16 16 16 16 16 16 16 16 16 16 16 16 16 16 16 17 17 17 17 17 17 17 17 17 17 18 18 18 19 19 20 20 20 21 21 22 22 22 22 22 22 22 22 22 21 21 21 21 22 22 22 22 22 22 22 21 20
17 17 16 16 16 16 16 16 16 15 15 15 15 15 15 15 16 16 16 16 16 16 16 16 16 16 16 16 17 17 17 18 18 19 19 19 19 19 20 20 21 21 21 21 21 21 22 22 21 21 21 21 21 21 21 21 22 22 22 22 22 22 21
16 17 16 16 16 16 15 15 15 15 15 15 15 15 15 15 15 15 15 15 15 15 16 16 15 15 16 16 16 17 17 17 18 18 18 18 18 19 19 19 19 19 20 20 20 20 20 20 20 20 21 21 21 21 21 21 21 21 21 22 22 22 22
16 16 16 16 15 15 15 15 15 15 15 15 15 15 15 15 15 15 15 15 15 15 15 15 15 15 15 15 16 16 17 17 17 17 17 17 18 18 18 19 18 18 18 19 19 19 19 19 20 20 20 21 20 20 20 20 20 21 21 21 21 21 21
16 16 16 15 15 15 15 15 15 15 15 14 14 14 14 14 14 14 14 14 14 15 15 15 15 15 15 15 15 16 16 16 16 16 16 16 16 17 17 18 19 18 18 18 19 19 20 20 20 20 20 20 20 20 20 20 20 21 21 21 21 21 21
16 16 15 15 15 15 15 15 15 15 14 14 14 14 14 14 14 14 14 14 14 14 15 14 14 14 14 15 15 15 15 15 15 15 15 15 16 16 16 17 17 18 18 18 18 19 19 19 19 19 19 19 20 20 20 20 20 21 21 21 21 21 21
16 15 15 15 15 15 15 15 14 14 14 14 14 14 14 14 14 14 14 14 14 14 14 14 14 14 14 14 14 14 15 15 15 15 15 15 15 15 15 15 16 16 16 17 17 18 18 18 19 19 19 20 20 20 20 20 20 20 21 21 21 21 22

ECMWFFLT1_925_temp_093.txt.gz
Temp
25 25 25 24 24 24 23 24 25 26 25 25 25 25 25 25 25 24 24 24 25 25 25 25 25 25 25 25 25 24 25 25 25 25 25 25 25 25 25 25 25 25 24 24 24 24 24 24 24 24 24 23 23 23 24 24 24 24 24 24 24 24 24
25 24 24 23 23 23 23 23 25 25 25 25 25 25 25 25 25 24 24 25 25 25 25 25 25 25 25 25 25 25 25 25 25 25 25 25 25 25 25 25 25 25 25 25 24 24 24 24 24 24 24 24 23 23 24 24 24 24 24 24 24 24 24
24 24 23 23 23 23 23 23 24 25 25 25 25 25 25 25 25 25 25 25 25 25 25 25 25 25 25 25 25 25 25 25 25 25 25 25 25 25 25 25 25 25 25 25 25 25 25 24 24 24 24 24 24 24 24 24 24 24 24 24 24 24 24
23 23 22 23 23 23 23 23 24 24 25 26 26 26 25 25 25 25 25 25 25 25 25 25 25 25 25 25 25 25 25 25 25 25 25 25 25 25 25 25 25 25 25 25 25 25 25 24 24 24 24 24 24 24 24 24 24 24 24 24 24 24 24
22 22 22 22 23 23 23 23 23 24 25 25 26 26 26 25 25 25 25 25 25 25 25 25 25 25 25 25 25 25 25 25 25 25 25 25 25 25 25 25 25 25 25 25 25 25 25 25 24 24 24 24 24 24 24 24 24 24 24 24 24 24 24
21 21 22 21 22 22 22 22 23 23 24 24 25 25 26 25 25 25 25 25 24 25 25 25 25 25 25 25 25 25 25 25 25 25 25 25 25 25 25 25 25 25 25 25 25 25 25 25 24 24 24 24 24 24 24 24 24 24 24 24 24 24 24
21 21 21 21 21 21 21 21 22 23 23 24 24 24 25 25 25 24 24 24 24 24 24 24 24 24 24 24 24 25 25 25 25 25 25 25 25 25 25 25 25 25 25 25 25 25 25 25 25 25 24 24 24 24 24 24 24 24 24 24 24 24 24
20 20 20 20 20 20 19 20 21 22 23 23 23 23 24 24 24 24 24 24 24 24 24 24 23 23 23 24 24 24 25 25 25 25 25 25 25 25 25 25 25 25 25 25 25 25 25 25 25 25 25 25 25 25 25 24 24 24 24 24 24 24 24
19 19 19 19 19 19 18 19 20 21 22 22 22 22 23 23 23 24 24 24 24 24 24 24 24 24 23 23 24 24 24 24 24 25 25 25 25 25 25 25 25 25 25 25 25 25 25 25 25 25 25 25 25 25 25 24 24 24 24 24 24 24 24
19 19 19 18 18 18 18 18 19 20 21 21 22 22 22 22 23 23 23 23 24 24 24 24 24 24 24 24 24 24 24 24 24 24 24 24 25 25 25 25 25 25 25 25 25 25 25 25 25 25 25 25 25 25 25 25 25 24 25 25 25 25 25
18 18 18 18 18 18 18 18 18 19 20 21 21 21 22 22 22 23 23 23 24 24 23 24 24 24 24 24 24 24 24 24 24 24 24 24 24 25 25 25 25 25 25 25 25 25 25 26 25 25 25 25 25 25 25 25 25 25 25 25 25 25 25
18 18 18 18 18 18 18 18 17 18 19 20 20 20 21 21 21 22 22 23 23 23 23 23 24 23 23 24 24 24 24 24 24 24 24 24 24 24 25 25 25 25 25 25 25 25 25 26 26 26 26 26 26 25 25 25 25 25 25 25 25 25 25
17 18 18 18 18 18 18 18 17 17 18 19 20 20 21 21 21 22 22 22 22 22 22 22 22 22 23 23 23 24 24 24 24 24 24 24 24 24 24 24 25 25 25 25 25 25 26 26 26 26 26 26 26 26 26 26 25 25 25 25 25 25 25
17 17 17 18 18 18 18 18 18 18 18 18 19 20 21 21 21 22 22 21 21 21 21 21 21 22 22 23 23 23 24 24 24 24 24 24 24 24 24 24 24 25 25 25 25 25 26 26 26 26 26 26 26 26 26 26 26 25 25 25 25 25 25
18 17 17 18 18 18 18 18 18 18 18 18 19 20 20 20 20 21 21 20 20 21 22 22 21 22 22 22 22 23 24 24 24 24 24 24 24 24 24 24 24 25 25 25 25 26 26 26 26 26 26 26 26 26 26 26 26 26 26 26 26 25 26
18 18 18 18 18 18 18 17 17 17 18 18 18 19 19 20 20 20 20 20 20 20 21 21 21 21 21 21 22 22 23 23 23 24 24 24 24 24 24 24 24 25 25 25 25 26 26 26 26 26 26 26 26 26 26 26 26 26 26 26 26 26 26
18 18 18 18 18 18 18 17 17 17 17 18 18 18 19 19 19 19 19 19 19 19 20 20 20 20 20 20 20 21 21 22 23 23 24 24 24 24 24 24 24 25 25 25 25 26 26 26 26 26 26 26 26 26 26 26 27 27 26 26 26 26 26
19 19 19 18 18 18 18 18 17 17 17 17 18 18 18 19 19 19 19 19 19 19 19 20 20 20 20 20 20 20 20 21 21 22 22 23 23 24 24 24 24 24 25 25 25 25 26 26 26 26 27 26 26 26 26 26 27 27 27 27 26 26 26
19 20 19 19 19 19 18 18 18 18 18 18 18 18 18 18 18 18 18 18 18 18 19 19 19 19 19 19 19 20 20 20 20 20 21 22 22 23 23 24 24 24 24 25 25 25 25 25 26 26 26 26 26 26 26 27 27 27 27 26 26 26 26
19 20 20 20 20 19 19 19 18 18 18 18 18 18 18 18 18 18 18 18 18 18 18 18 19 19 19 19 19 19 19 20 20 20 20 21 21 22 22 22 23 23 23 24 24 24 24 25 25 25 25 25 25 25 26 26 26 26 26 26 26 26 26
19 20 20 20 20 19 19 19 19 19 19 19 19 19 18 18 18 18 18 18 18 18 18 18 18 18 18 19 19 19 19 19 19 19 19 20 20 20 21 21 21 21 22 22 22 22 23 23 23 24 24 24 24 24 25 25 25 25 25 25 26 26 25
19 19 19 19 19 19 19 19 19 19 19 19 19 19 19 18 19 19 19 18 18 18 18 18 18 18 18 18 18 18 19 19 19 19 19 19 19 19 19 19 20 20 20 20 20 21 21 21 22 23 24 24 24 24 24 24 24 25 25 25 25 25 25
18 18 18 18 18 18 19 19 19 19 19 19 19 19 19 19 19 19 19 19 19 19 19 19 18 18 18 18 18 18 18 18 18 19 19 19 19 19 19 19 19 19 19 20 20 20 20 20 21 22 23 23 23 24 24 24 23 24 24 24 24 25 25
18 18 18 18 18 18 18 19 19 19 19 19 19 19 19 19 19 19 18 18 18 18 18 18 18 18 18 18 18 18 18 18 18 18 18 18 19 19 19 19 19 19 19 20 20 20 20 20 21 21 21 21 22 22 23 23 23 23 23 23 23 24 24
17 17 18 18 18 18 18 18 19 19 19 19 18 18 19 19 19 18 18 18 18 18 18 18 18 18 18 18 18 18 18 19 19 18 18 18 18 19 18 18 19 19 19 20 20 20 20 20 21 21 21 20 20 21 21 22 22 22 22 22 22 23 23
17 17 17 17 18 18 19 19 19 18 18 18 18 18 19 19 18 18 17 17 17 17 17 17 17 17 18 18 18 18 18 19 19 19 18 19 19 19 19 19 19 19 19 19 19 19 20 20 20 21 20 20 20 20 21 21 21 21 21 21 21 21 21
17 17 17 17 18 18 18 18 18 18 17 17 18 18 18 18 18 17 17 17 17 17 17 17 17 17 17 18 18 18 18 18 18 18 18 19 19 19 19 19 20 20 20 19 19 19 19 20 20 20 20 19 19 20 20 20 20 20 20 20 20 20 20
16 16 16 16 17 18 18 17 17 17 17 17 17 17 17 18 17 17 17 17 16 16 16 17 17 17 17 17 17 17 17 18 18 18 18 18 19 19 19 19 19 20 20 20 20 19 19 19 20 20 19 19 19 19 20 20 20 20 20 20 21 21 21
16 15 16 16 17 17 17 16 16 16 16 16 17 17 17 17 16 16 16 16 15 16 16 16 16 16 16 16 16 16 16 17 17 17 17 18 18 18 18 18 19 19 19 20 19 19 19 19 19 19 19 19 19 19 19 19 20 20 20 20 20 21 21
15 15 15 16 16 17 17 16 15 15 15 16 16 16 16 16 16 15 15 15 15 16 16 16 16 16 16 16 16 16 16 16 16 16 16 17 17 17 17 18 18 18 18 19 19 19 19 19 19 19 19 19 19 19 19 19 19 20 20 20 20 20 20
14 15 15 15 15 16 16 16 15 15 15 15 15 15 15 15 15 15 15 15 15 15 15 15 15 16 15 15 15 15 15 15 15 16 16 16 16 16 17 17 17 17 18 18 18 18 18 18 18 18 18 18 18 18 18 19 19 20 20 20 20 20 20
14 14 15 15 15 16 15 15 15 15 15 15 15 15 15 15 15 15 14 14 15 15 15 15 15 15 15 15 15 15 15 15 15 15 15 15 16 16 16 16 16 16 17 17 17 17 17 17 17 17 17 17 17 17 18 18 19 19 19 19 20 20 20
13 14 15 15 15 15 15 15 15 14 14 14 14 14 14 14 14 14 14 14 14 14 14 15 14 14 14 14 14 14 14 14 14 15 15 15 15 15 15 15 15 15 16 16 16 16 16 16 16 16 16 16 17 17 17 18 18 18 19 19 19 19 19
13 14 15 15 15 15 15 14 14 14 14 14 14 14 14 14 14 14 14 14 14 14 14 14 14 14 14 14 14 14 14 14 14 14 14 14 14 15 15 15 15 15 15 15 15 15 15 15 15 15 15 16 16 16 17 17 18 18 18 18 18 18 18
14 14 15 15 15 15 14 14 14 14 14 13 14 14 14 13 13 13 14 14 14 14 14 13 13 13 13 13 13 13 13 13 13 13 14 14 14 14 14 14 14 14 14 14 14 14 14 15 15 15 15 15 15 15 15 16 17 17 17 17 17 17 18
14 14 15 14 14 14 14 14 14 13 13 13 13 13 13 13 13 13 13 13 13 13 13 13 13 13 13 13 13 13 12 13 13 13 13 13 13 13 14 14 14 14 14 14 14 14 14 14 14 15 14 15 15 15 15 15 16 16 16 17 17 17 17
14 14 14 14 14 14 14 14 13 13 13 13 13 13 13 13 13 13 13 13 13 13 12 12 12 12 12 12 12 12 12 12 12 12 12 12 12 13 13 13 14 14 14 14 14 14 14 14 14 14 14 14 15 15 15 15 15 16 16 16 17 17 17
15 15 15 14 14 14 13 13 13 13 13 13 13 13 13 12 12 12 12 12 12 12 12 12 12 12 12 12 12 12 12 12 12 12 12 12 12 12 12 12 13 13 13 13 13 13 13 13 14 14 14 14 14 14 15 15 15 16 16 16 16 16 17

ECMWFFLT1_925_temp_096.txt.gz
Temp
24 23 23 23 24 24 24 24 24 24 24 24 24 24 24 24 23 23 23 23 24 24 24 24 24 24 24 24 24 24 24 24 24 24 24 24 24 25 25 24 24 24 24 24 24 24 24 24 23 23 23 23 23 23 23 23 23 23 23 23 24 24 24
24 23 23 23 24 24 23 24 24 24 24 24 24 24 24 24 24 23 23 23 23 24 24 24 24 24 24 24 24 24 24 24 24 24 24 24 25 25 25 25 25 24 24 24 24 24 24 24 24 23 23 23 23 24 23 23 23 23 23 23 24 24 24
23 23 23 23 24 23 23 23 24 24 25 24 24 24 24 24 24 24 24 23 23 23 24 24 24 24 24 24 24 24 24 24 24 24 24 25 25 25 25 25 25 25 25 24 24 24 24 24 24 24 23 23 23 23 24 24 23 23 23 23 24 24 24
23 23 23 23 23 22 22 23 23 24 24 25 24 24 24 24 24 24 24 24 24 23 24 24 25 25 25 25 24 24 24 24 24 24 25 25 25 25 25 25 25 25 25 25 25 24 24 24 24 24 24 23 23 23 24 24 24 24 24 24 24 24 24
22 23 23 22 22 21 22 22 23 23 24 25 25 25 24 24 24 24 24 24 24 24 24 24 25 25 25 25 25 25 24 24 24 25 25 25 25 25 25 25 25 25 25 25 25 25 25 24 24 24 24 24 24 23 23 23 23 24 24 24 24 24 24
21 22 21 21 21 22 21 21 22 23 24 24 25 25 25 25 24 24 24 24 24 24 24 24 24 25 25 25 25 25 25 25 24 25 25 25 25 25 25 25 25 25 25 25 25 25 25 24 24 24 24 24 24 23 23 23 23 24 24 24 24 24 24
21 21 21 21 21 21 21 21 22 22 23 24 24 25 25 25 25 24 24 24 24 24 23 23 24 24 24 25 25 25 25 25 25 25 25 25 25 25 25 25 25 25 25 25 25 25 25 24 24 24 24 24 24 24 24 24 23 23 23 24 24 24 24
21 20 20 20 20 20 20 21 21 22 22 23 24 24 25 25 25 24 24 24 24 24 24 24 24 24 24 24 24 24 25 25 25 25 24 25 25 25 25 25 25 25 25 25 25 25 25 25 24 24 24 24 24 24 24 24 24 24 24 23 23 24 24
20 20 20 19 19 19 19 20 21 21 22 22 23 24 24 24 25 24 24 24 24 24 24 24 24 24 24 24 24 24 24 24 24 24 24 24 25 25 25 25 25 25 25 25 25 25 25 25 25 25 24 24 24 24 24 24 24 24 24 24 23 24 24
19 19 19 18 18 18 18 19 20 21 21 21 22 22 23 24 24 24 24 24 24 24 24 23 23 23 24 24 24 24 24 24 24 24 24 24 24 24 24 24 25 25 25 25 25 25 25 25 25 25 25 25 24 24 24 24 24 24 24 24 24 24 24
19 19 18 18 18 18 18 18 19 20 20 21 21 22 23 23 23 24 24 24 24 23 23 23 23 23 23 23 23 24 24 24 24 24 24 25 24 24 24 24 24 24 25 25 25 25 25 25 25 25 25 25 25 25 25 25 25 25 24 24 24 24 24
18 18 18 17 17 18 18 18 18 19 20 20 21 22 22 23 23 23 23 23 22 22 22 23 23 23 23 23 23 23 23 23 24 24 24 24 24 24 24 24 24 24 24 24 24 25 25 25 25 25 25 25 25 25 25 25 25 25 25 25 24 24 24
18 18 17 17 17 17 18 18 18 18 19 20 20 21 21 22 21 21 21 21 21 22 23 23 24 23 23 23 23 23 23 23 23 24 24 24 24 24 24 24 24 24 24 24 24 24 24 25 25 25 25 25 25 25 25 25 25 25 25 25 25 25 24
18 17 17 17 17 17 17 18 18 18 19 19 20 20 21 21 21 21 21 21 21 22 22 23 23 23 23 23 23 23 23 23 23 23 23 24 24 24 24 24 24 24 24 24 24 24 24 24 25 25 25 25 25 26 26 26 25 25 25 25 25 25 25
17 17 17 17 17 17 17 17 17 18 18 19 19 20 20 20 21 21 21 21 21 21 22 22 22 22 22 22 22 22 22 22 22 22 22 22 22 23 24 24 24 24 24 24 24 24 24 24 25 25 25 25 25 25 25 25 26 26 26 25 25 25 25
18 18 17 17 17 17 17 17 17 17 18 18 19 19 20 20 20 20 20 20 20 20 21 21 21 21 21 21 21 21 21 22 23 23 22 22 21 21 22 23 23 24 24 24 24 24 24 25 25 25 25 25 25 25 25 25 26 26 26 26 26 26 25
18 18 18 17 17 17 17 17 17 17 17 17 18 19 19 19 19 19 20 20 20 20 20 20 20 20 20 20 21 21 21 21 22 22 22 22 22 22 22 21 22 23 24 24 24 24 25 25 25 25 26 26 26 26 26 26 26 26 26 26 26 26 26
18 18 18 18 18 18 17 18 18 17 17 17 17 18 18 18 18 19 19 19 19 19 19 19 19 19 20 20 20 21 21 21 21 21 21 21 21 22 22 22 21 21 22 22 23 24 24 25 25 25 25 26 26 26 26 26 26 26 26 26 26 26 26
18 18 18 18 18 18 17 18 17 17 17 17 17 17 17 18 18 18 18 18 18 18 19 19 19 19 19 20 20 20 21 21 20 20 20 20 21 21 21 21 21 20 20 21 21 21 23 24 24 25 25 25 26 26 26 26 26 26 26 26 26 26 26
19 19 19 19 18 18 18 18 17 17 17 17 17 17 17 17 17 17 17 17 18 18 18 18 18 18 19 19 19 19 20 20 20 20 20 20 20 20 20 21 21 20 20 21 21 21 22 23 24 24 25 25 25 25 25 25 25 25 25 25 25 26 25
19 19 19 19 19 18 18 18 18 18 18 18 17 17 17 17 17 17 17 17 17 17 17 18 18 18 18 18 18 19 19 19 19 19 20 20 20 20 20 20 21 20 20 21 22 22 22 23 23 23 24 24 24 25 25 25 25 25 25 25 25 25 25
19 19 19 18 18 18 18 18 18 18 18 18 18 18 18 18 18 17 17 17 17 16 17 17 17 17 17 17 17 18 18 18 18 19 19 19 19 19 19 19 20 20 20 22 22 22 22 22 22 23 23 23 24 24 24 24 24 24 24 24 24 24 24
18 18 18 18 18 18 18 18 18 18 18 18 18 18 18 18 18 18 17 17 17 16 16 16 16 16 16 17 17 17 17 18 18 18 18 18 19 19 19 19 19 19 20 21 21 21 21 21 21 22 22 23 23 23 23 22 22 23 23 23 23 23 23
17 17 18 18 18 18 18 18 18 18 18 18 17 18 18 18 18 18 17 17 17 17 17 16 16 16 16 16 17 17 17 17 18 18 18 18 18 18 18 18 19 19 19 20 20 20 20 20 20 20 21 21 22 22 21 21 22 22 22 22 23 23 23
16 17 18 18 18 17 17 17 18 18 18 17 17 17 18 18 18 18 17 16 17 17 16 16 16 16 16 17 17 17 17 17 17 17 18 18 17 18 18 18 18 19 19 19 20 20 19 19 19 19 20 20 20 20 21 21 21 21 22 22 22 22 22
16 16 17 17 17 17 17 17 18 17 17 17 17 17 18 18 18 17 16 16 16 16 16 16 16 17 17 17 17 17 17 17 17 17 17 17 18 18 18 18 18 18 18 19 19 19 18 18 19 19 19 19 19 20 20 20 20 21 21 21 21 21 21
16 16 16 17 17 17 17 17 17 17 16 16 17 17 18 18 17 16 16 16 15 15 15 16 16 16 17 17 17 17 17 17 17 17 17 17 17 18 18 18 18 19 18 18 19 18 18 18 18 19 19 18 18 19 19 19 20 20 20 20 20 20 21
16 16 16 16 17 18 17 16 16 16 16 16 17 17 17 17 16 16 16 15 15 15 15 16 16 16 16 16 16 16 17 17 17 17 17 17 17 18 18 17 18 18 19 18 18 18 18 18 18 18 18 18 18 18 18 18 19 19 19 19 19 20 20
15 15 15 16 16 17 17 16 16 16 16 16 16 16 17 17 16 15 15 15 14 15 15 15 16 16 16 16 16 16 16 16 16 17 17 17 17 18 18 17 17 18 18 18 18 18 18 18 18 18 18 17 17 17 17 18 18 18 18 19 19 19 19
14 15 15 15 15 16 17 16 15 15 15 15 16 16 16 16 16 15 15 14 14 15 15 15 15 15 15 15 15 15 15 15 16 16 16 17 17 17 17 17 17 17 17 17 18 18 17 17 17 18 17 17 17 17 17 17 18 18 18 18 19 19 19
14 14 14 14 15 16 16 16 15 15 15 15 15 15 15 15 15 15 14 14 14 15 15 15 15 15 15 15 14 14 15 15 15 15 16 16 16 17 17 17 17 17 17 17 17 17 17 17 17 17 17 17 17 17 17 17 17 17 18 18 18 18 19
14 14 14 14 15 15 16 15 15 15 14 14 15 15 15 15 15 14 14 14 14 14 14 14 14 14 14 14 14 14 14 14 14 15 15 15 15 15 15 16 16 16 16 16 16 16 16 16 16 16 16 16 16 17 17 17 17 17 17 18 18 18 18
13 14 14 14 15 15 15 15 15 14 14 14 14 14 14 14 14 14 14 14 14 14 14 14 14 14 13 13 13 14 14 14 14 14 14 14 14 15 15 15 15 15 15 15 15 15 15 15 15 15 15 15 16 16 16 17 17 17 17 17 17 17 18
13 13 14 15 15 15 15 15 14 14 14 13 13 14 14 14 13 13 14 14 13 14 14 14 13 13 13 13 13 13 13 13 13 13 13 14 14 14 14 14 14 14 14 14 14 14 14 14 14 14 15 15 15 15 16 16 16 16 16 16 16 16 17
13 14 14 15 15 15 15 15 14 14 14 13 13 13 13 13 13 13 13 13 13 13 13 13 13 13 12 12 12 12 12 12 12 12 13 13 13 13 13 13 13 14 14 14 14 14 14 14 14 14 14 14 14 14 15 15 15 15 15 15 15 16 16
13 14 14 15 15 15 15 15 14 14 14 14 13 13 13 13 13 13 13 13 13 13 13 13 13 12 12 12 12 12 12 12 12 12 12 12 12 13 13 13 13 13 13 13 13 13 13 13 13 13 13 14 14 14 14 14 14 15 15 15 15 15 16
14 14 14 14 14 14 14 14 14 14 14 13 13 13 13 13 13 12 12 12 12 12 12 12 12 12 12 12 11 11 11 12 12 12 12 12 12 12 12 12 13 13 13 13 13 13 13 13 13 13 13 13 13 14 14 14 14 14 14 15 15 15 15
14 14 14 14 14 14 14 14 13 13 13 13 13 13 13 12 12 12 12 12 12 12 12 12 12 12 11 11 11 11 11 11 11 11 11 11 11 12 12 12 12 12 12 13 13 13 13 13 13 13 13 13 13 13 13 14 14 14 14 14 15 15 15

ECMWFFLT1_925_temp_102.txt.gz
Temp
25 25 26 28 29 29 30 30 30 30 29 29 29 29 29 28 28 28 27 26 26 26 25 25 25 25 25 25 25 25 25 25 25 25 25 25 25 25 25 25 25 25 25 25 25 25 25 24 24 24 24 24 24 24 23 23 23 24 24 24 24 24 25
26 25 26 27 28 29 30 30 30 30 29 29 29 29 29 29 28 27 27 26 26 26 26 25 25 25 25 25 25 25 25 25 25 25 25 25 25 25 25 25 25 25 25 25 25 25 24 24 24 24 24 24 24 24 24 23 23 24 24 24 24 24 24
26 25 25 26 27 28 29 30 30 29 29 29 29 29 29 28 28 27 27 26 26 26 26 26 25 25 25 25 25 25 25 25 25 25 25 25 25 25 25 25 25 25 25 25 25 25 25 25 24 24 24 24 24 24 24 24 24 24 24 24 24 24 24
26 26 25 25 25 26 26 28 29 29 29 29 29 29 28 28 27 27 26 26 26 26 26 26 26 26 25 25 25 25 25 25 25 25 26 26 26 26 26 25 25 25 25 25 25 25 25 25 24 24 24 24 24 24 24 24 24 24 24 24 24 24 24
27 26 26 25 24 24 23 25 27 28 29 29 29 28 28 27 27 26 26 26 26 26 26 26 27 26 26 26 26 26 25 25 25 25 26 26 26 26 26 26 26 26 26 26 26 25 25 25 25 25 24 24 24 24 24 24 24 24 24 24 24 25 25
27 27 27 26 24 24 23 23 26 27 28 29 29 28 27 27 26 26 26 26 26 26 26 26 27 27 26 26 26 26 26 25 25 25 25 26 26 26 26 26 26 26 26 26 26 25 25 25 25 25 25 25 25 25 25 25 25 25 24 24 24 25 25
28 28 27 26 25 24 23 23 24 25 26 27 28 28 27 27 27 27 27 26 26 26 26 26 27 27 27 26 27 26 26 26 26 25 25 26 26 26 26 26 26 26 26 26 26 26 25 25 25 25 25 26 26 26 25 25 25 25 25 24 24 24 25
28 28 27 26 26 25 24 23 22 23 24 25 25 26 27 27 27 27 27 27 27 26 26 26 27 27 27 26 26 27 26 26 26 26 26 26 26 26 26 26 26 26 26 26 26 26 26 26 26 25 25 26 26 25 25 25 25 25 25 25 25 25 25
28 27 27 27 26 26 24 22 21 21 22 23 23 24 25 26 27 27 27 26 26 27 26 26 27 27 26 26 26 26 26 27 27 27 26 26 27 27 27 27 27 26 26 26 27 26 26 26 26 25 25 25 25 25 25 25 25 25 25 25 25 25 25
27 27 27 27 27 26 24 22 22 21 21 21 22 22 23 24 25 25 26 26 26 26 26 26 26 26 26 26 26 26 27 26 27 27 27 27 27 27 27 28 27 27 26 27 27 27 26 26 26 25 25 25 25 25 25 25 25 25 25 25 25 25 25
24 25 26 26 26 26 24 23 23 22 21 21 21 21 22 23 23 24 24 25 25 26 26 25 25 26 26 25 25 26 27 27 27 27 27 27 27 27 27 28 28 27 27 27 27 27 27 26 26 25 25 25 25 25 25 25 25 25 25 26 26 26 26
22 23 24 25 25 24 24 24 23 23 22 22 21 21 22 22 22 23 23 23 24 25 25 25 24 25 25 25 25 25 26 26 27 27 27 27 27 28 28 28 28 28 27 27 27 27 27 27 26 25 25 25 25 25 25 25 25 25 25 26 26 26 26
22 22 23 23 24 23 23 23 23 23 23 22 22 22 22 22 22 22 22 22 23 23 24 24 24 24 24 24 25 25 25 26 26 26 27 27 27 27 28 27 28 28 27 27 27 27 27 27 26 26 25 25 25 26 25 25 25 25 25 26 26 26 26
22 22 22 23 23 23 23 22 22 22 22 22 22 22 22 22 22 22 22 22 22 22 23 23 23 24 24 24 25 25 25 25 25 25 26 26 26 26 27 27 27 27 27 27 27 27 27 27 27 26 26 26 26 26 26 25 25 26 25 26 26 26 26
23 23 23 23 22 22 22 22 22 22 22 22 22 22 22 22 22 22 22 22 22 22 22 23 23 23 24 24 24 24 24 24 24 24 25 25 25 25 26 26 26 26 26 26 26 27 27 27 27 27 27 26 26 26 26 26 26 26 26 26 26 26 26
24 24 23 23 22 22 22 22 22 22 22 22 22 22 22 22 22 22 21 21 22 22 22 22 22 23 23 23 23 23 23 23 23 23 24 24 24 24 25 25 26 26 26 26 26 26 27 27 27 27 27 27 26 26 26 27 27 27 26 26 26 26 26
25 24 23 22 22 21 21 22 22 22 22 22 22 22 21 21 21 21 21 21 21 21 22 22 22 22 22 23 23 23 23 23 23 23 23 23 23 23 24 24 25 25 25 25 25 25 26 26 26 27 27 27 27 27 27 27 28 27 26 26 26 26 26
24 24 23 22 21 21 21 21 21 20 20 20 20 20 19 20 20 20 20 20 20 20 21 21 22 22 22 22 22 22 23 22 22 23 23 23 23 23 23 23 24 24 24 24 25 25 25 25 26 26 26 27 27 27 28 28 27 27 26 26 26 26 26
24 23 22 21 20 20 20 20 20 19 18 19 19 19 19 19 19 19 19 19 19 19 20 20 20 21 21 21 21 22 22 21 21 22 22 22 23 23 22 22 22 23 23 24 24 24 24 25 25 25 26 27 27 27 28 27 26 26 26 26 26 26 25
23 22 21 21 21 21 20 20 19 18 18 18 18 19 18 18 18 18 18 18 18 18 18 18 19 19 19 20 20 21 21 21 21 21 21 21 22 22 22 21 21 22 22 23 23 24 24 25 25 25 25 26 26 27 27 26 25 26 26 26 26 26 25
22 21 21 21 21 21 20 20 20 19 19 20 20 20 19 19 19 19 18 18 18 18 18 18 17 17 18 18 18 19 20 20 21 21 20 20 20 21 21 21 21 22 22 22 23 23 24 24 25 25 25 25 26 26 25 25 25 25 25 25 26 26 25
21 21 21 21 21 21 21 22 21 21 21 21 22 21 21 21 21 20 19 18 18 18 17 17 17 17 17 17 17 18 18 19 20 20 20 20 20 20 20 20 21 21 21 21 21 22 23 24 25 25 25 25 26 25 24 23 24 24 25 25 25 25 25
22 22 22 21 21 22 22 21 21 21 21 21 22 21 21 21 20 20 20 19 18 18 17 17 16 16 16 17 17 17 17 18 19 19 19 20 20 20 20 20 20 20 20 20 21 21 22 23 24 24 24 24 24 24 22 22 23 23 24 24 25 25 25
23 23 22 22 21 21 21 21 21 21 21 21 21 21 20 20 20 20 20 20 19 19 18 18 17 17 17 17 17 17 17 17 17 18 18 18 19 19 19 20 20 19 19 20 21 21 21 22 21 21 21 21 22 21 21 21 22 22 22 23 23 24 24
23 23 22 22 22 22 21 21 21 21 21 21 21 21 20 20 20 20 20 20 20 19 19 18 18 17 18 18 17 17 17 17 17 17 17 17 17 18 18 19 19 19 19 19 20 20 20 21 20 19 19 20 20 20 20 20 20 21 21 22 22 22 23
23 23 22 23 22 21 21 21 21 22 22 21 21 21 21 20 20 19 19 20 20 19 19 18 17 17 17 17 17 17 18 18 17 17 17 17 17 17 18 18 18 18 18 19 19 19 19 20 19 19 19 19 19 18 19 19 20 20 20 21 21 21 22
23 23 23 22 22 21 21 21 21 21 21 20 20 21 20 20 19 19 19 19 19 19 19 18 17 17 17 17 17 17 17 17 17 17 17 16 17 17 17 17 17 17 17 18 18 18 18 18 18 18 18 18 17 17 18 18 19 19 19 20 20 21 21
23 23 22 21 21 21 21 21 21 21 20 20 20 20 20 19 19 18 18 19 19 18 18 18 18 17 17 17 17 17 17 17 17 17 17 16 17 17 17 17 17 17 17 17 18 18 17 17 17 17 17 17 17 17 17 18 18 18 19 19 20 20 21
22 22 22 21 21 21 21 21 21 21 21 20 20 20 19 18 18 18 18 18 18 18 18 17 17 17 17 17 17 17 17 17 17 17 17 16 17 17 17 17 17 17 17 17 17 17 17 17 17 16 16 16 16 16 16 16 17 18 18 18 19 19 19
22 22 22 22 21 21 21 20 20 20 20 19 19 19 18 18 17 17 17 17 17 17 17 17 17 17 17 17 17 17 17 17 17 17 17 16 17 17 17 17 17 17 17 18 18 17 17 16 16 16 16 15 15 15 15 16 16 16 17 17 17 18 18
22 22 22 22 21 21 20 20 20 19 19 18 18 18 18 17 17 17 17 16 16 17 17 17 17 17 17 17 17 17 17 17 17 17 17 17 17 17 17 17 17 16 17 18 19 18 17 16 16 16 16 15 15 15 15 15 16 16 16 16 17 17 17
21 21 21 21 20 20 20 20 20 19 19 18 18 18 17 17 17 16 16 16 16 16 16 16 16 17 17 17 17 17 18 18 18 18 18 17 17 17 17 17 17 16 17 18 18 18 18 17 17 17 16 16 16 16 15 15 15 15 16 17 17 17 17
20 20 20 20 20 20 20 20 20 19 19 18 18 18 17 17 17 16 16 16 16 16 16 16 16 16 16 17 17 17 17 18 18 18 18 18 18 18 17 17 17 17 16 17 17 18 18 18 18 18 18 18 17 17 16 16 16 15 15 16 16 16 16
19 19 19 19 19 19 20 20 19 19 18 17 17 17 17 17 16 16 16 16 16 16 16 16 16 16 16 16 16 16 17 17 17 18 18 18 17 17 17 17 17 16 15 15 16 17 18 18 18 18 18 18 17 17 17 17 16 15 15 16 16 16 16
18 18 18 18 18 19 19 19 18 18 17 17 16 16 16 16 16 16 16 16 15 15 15 15 16 16 16 17 17 17 17 17 17 17 17 17 16 15 15 15 16 15 15 14 15 15 16 16 17 17 17 17 16 17 18 18 16 15 15 16 16 16 16
18 18 18 18 18 18 18 18 17 17 16 16 16 16 16 16 16 16 15 15 15 15 15 15 16 16 17 17 17 17 17 17 17 16 16 17 17 16 15 14 14 14 14 14 14 14 15 15 15 15 16 16 15 15 16 16 14 14 15 15 15 15 15
18 18 17 17 17 17 17 17 17 16 16 16 16 16 16 15 15 15 15 15 15 15 14 15 16 16 16 16 16 15 16 16 16 16 15 16 16 16 16 15 14 13 13 13 13 13 13 13 14 14 14 15 14 13 13 13 13 14 14 14 14 15 15
18 18 17 17 17 17 17 16 16 16 16 15 15 15 15 15 15 15 15 14 14 14 14 14 15 15 15 15 14 14 14 15 15 15 15 15 15 15 15 16 15 14 13 13 13 13 13 13 13 13 13 13 14 13 13 13 13 13 13 14 14 14 15

ECMWFFLT1_925_temp_108.txt.gz
Temp
28 28 28 28 31 32 31 31 31 31 31 31 31 31 30 29 28 28 27 27 27 26 26 26 26 26 26 25 25 25 25 25 25 24 25 25 25 25 25 25 25 25 26 25 26 26 26 26 26 26 26 25 25 25 25 25 25 25 25 25 25 25 26
28 28 28 28 30 31 31 31 31 31 31 31 31 31 31 29 27 28 27 27 27 26 26 26 26 26 26 25 25 25 25 25 25 25 25 25 25 25 25 25 25 25 26 26 26 26 26 26 26 26 26 25 25 25 25 25 25 25 25 25 25 25 25
26 27 28 29 30 30 30 30 31 31 31 31 31 31 31 29 28 28 27 27 27 26 27 26 26 26 26 26 25 25 25 25 25 25 25 25 25 25 25 25 25 26 25 26 26 26 26 26 26 26 26 26 26 25 25 25 25 25 25 25 25 25 25
25 27 28 28 29 30 30 30 31 31 31 31 31 31 31 30 29 28 27 27 27 27 27 27 26 26 26 26 26 25 25 25 25 25 25 25 25 25 25 25 25 26 26 26 26 26 26 26 26 26 26 26 26 26 25 25 25 25 25 25 25 25 25
25 27 28 28 28 28 30 30 30 31 31 31 31 30 30 30 29 29 28 28 28 27 27 27 27 27 27 26 27 26 26 26 26 25 25 25 25 26 25 25 25 26 26 26 26 26 26 26 26 26 26 26 26 26 25 25 25 25 25 25 25 25 25
26 27 28 28 27 27 29 29 30 31 31 31 30 29 29 29 29 29 29 28 28 28 28 28 28 27 27 27 27 27 27 26 27 26 26 26 26 26 26 26 26 26 26 26 26 26 26 26 26 26 26 26 26 26 26 25 25 25 25 25 25 25 26
27 28 28 28 27 26 27 27 28 29 30 30 29 28 28 28 28 28 28 28 28 29 29 28 28 28 28 28 28 28 27 27 27 27 27 27 26 26 26 26 26 26 26 26 26 26 26 26 26 26 26 26 26 26 26 26 26 26 25 25 25 25 25
28 28 28 28 27 27 26 25 26 27 28 28 28 28 27 27 27 27 27 26 25 27 29 29 29 29 28 28 28 28 28 28 27 27 27 27 27 27 27 26 26 26 26 26 26 26 26 26 26 26 26 26 26 26 26 26 26 26 25 25 25 25 25
28 28 28 28 28 27 25 24 24 25 26 27 26 26 26 26 26 26 26 24 22 24 28 29 29 28 28 28 28 28 28 28 28 28 28 28 28 28 28 27 27 27 27 27 26 27 26 26 27 26 26 26 26 26 26 26 26 26 25 26 25 25 26
27 27 28 28 28 27 25 24 24 24 24 25 25 25 25 25 26 25 25 24 22 24 28 29 29 28 28 28 28 28 28 28 28 28 28 28 28 29 29 28 28 27 27 27 27 27 27 26 27 27 26 26 26 26 26 26 26 26 26 26 26 26 26
24 25 26 27 28 27 25 24 24 24 23 24 24 24 24 24 25 25 25 24 24 26 27 28 28 28 28 28 28 28 29 29 29 29 28 28 29 29 29 29 29 28 28 28 27 27 27 27 27 26 26 26 27 26 26 26 26 26 26 26 26 26 26
22 23 24 25 27 27 25 24 24 24 24 23 23 23 24 24 24 25 25 25 26 27 26 26 27 28 27 27 28 28 28 29 29 29 29 29 29 29 29 29 29 29 29 28 28 28 27 27 27 26 26 26 26 26 26 26 26 26 26 26 26 26 26
23 23 23 24 25 25 25 24 24 24 24 24 24 23 23 24 25 25 25 25 25 26 25 25 25 26 27 27 27 27 27 28 28 28 29 29 29 29 29 30 30 30 29 29 29 28 28 28 27 27 26 26 26 26 26 26 26 26 26 26 27 27 26
23 23 22 22 23 23 24 24 24 24 24 24 24 23 23 24 25 25 25 24 24 24 25 25 25 26 26 26 27 27 27 27 27 27 28 28 29 29 29 30 30 30 30 29 29 29 29 28 28 27 27 26 26 26 26 26 26 26 26 26 26 26 27
23 22 22 22 22 22 23 24 24 24 24 24 25 23 23 23 24 25 25 25 24 24 24 24 25 25 25 25 26 26 25 26 25 26 26 27 28 28 28 29 29 29 29 29 29 29 29 29 29 28 27 26 26 26 26 26 26 26 26 26 26 26 27
22 22 22 22 22 22 22 22 22 23 23 24 25 24 24 23 23 24 24 24 25 25 24 24 24 24 24 24 25 25 24 24 24 25 25 26 26 26 26 27 27 27 28 29 29 29 28 28 29 29 28 27 26 26 26 26 26 26 26 26 26 26 27
22 22 22 21 21 21 21 21 21 21 22 23 24 24 24 24 23 23 23 23 23 24 24 24 23 23 24 24 24 24 23 23 24 24 25 25 25 26 26 26 25 25 25 26 27 28 28 28 28 29 29 28 27 27 26 25 26 26 26 26 26 26 26
22 23 23 22 22 21 21 21 21 20 21 22 22 23 23 23 23 22 22 22 22 22 22 22 22 22 23 23 23 23 23 23 23 24 24 24 24 24 25 25 26 26 25 24 24 25 26 27 27 27 28 28 28 27 26 25 26 26 26 26 26 26 27
21 23 23 22 22 22 21 21 20 20 20 21 21 22 22 22 21 21 20 20 20 21 21 21 21 21 22 22 22 22 22 23 23 23 24 24 24 24 24 24 24 25 25 25 24 23 25 26 26 26 26 26 26 25 25 25 25 26 26 27 26 26 27
22 23 23 23 22 22 21 21 21 20 20 20 20 20 20 20 20 20 20 20 20 20 20 20 20 20 21 20 21 21 21 22 22 22 23 23 23 23 23 23 24 23 23 24 23 24 24 25 25 25 25 24 24 24 25 25 25 26 26 26 26 26 26
23 23 22 22 22 22 22 22 21 21 20 20 20 20 20 20 20 20 20 20 20 20 20 20 20 20 20 20 20 20 20 21 21 21 21 21 21 22 22 22 23 22 22 23 23 23 23 23 23 23 24 24 23 24 24 25 25 26 26 26 26 26 26
23 23 23 23 22 22 22 22 22 22 21 22 22 22 22 22 21 21 20 20 20 20 20 20 19 19 19 19 19 19 19 20 20 20 20 20 21 21 21 21 22 21 22 22 23 23 22 21 22 23 23 23 23 23 24 24 25 25 25 25 26 26 26
23 23 24 24 23 23 23 23 23 23 23 23 23 23 22 22 21 21 21 21 20 20 20 20 19 19 19 19 19 19 19 19 19 20 20 20 20 20 20 21 21 21 21 22 22 22 22 22 22 22 22 23 22 23 23 24 24 24 24 24 25 25 25
24 24 24 24 24 24 24 24 24 24 24 24 23 23 22 22 22 22 22 21 21 21 21 21 20 20 19 19 19 19 19 19 19 19 19 19 19 20 20 20 20 20 21 21 21 21 22 22 22 22 22 22 21 22 22 23 23 24 24 24 24 24 25
24 25 25 25 25 24 24 24 24 24 24 24 24 24 23 23 22 22 22 22 22 21 21 20 20 21 21 20 20 19 19 19 19 18 18 18 19 19 19 19 19 20 20 20 20 20 21 21 21 21 20 20 21 21 21 21 22 22 23 23 23 24 24
25 25 25 25 24 24 24 24 24 24 24 24 24 24 23 23 23 23 22 22 22 21 20 20 19 20 21 21 21 20 20 19 19 19 19 18 18 19 19 18 19 19 19 19 19 19 20 20 20 20 19 19 20 19 19 19 20 20 21 22 22 22 23
25 25 24 24 24 24 24 24 24 24 23 23 23 23 22 22 22 22 22 22 22 21 20 20 19 19 20 20 20 20 20 20 20 20 19 19 19 19 19 19 18 18 18 19 19 19 19 19 19 19 18 18 18 18 18 18 19 19 20 20 21 21 22
24 24 24 24 24 24 24 24 24 24 23 23 22 22 22 21 21 21 21 21 21 21 21 20 20 20 19 19 19 19 19 19 20 20 20 19 19 19 19 19 18 18 18 18 18 18 18 18 17 17 17 17 17 17 17 18 18 19 19 20 20 21 21
24 24 24 24 24 24 24 24 24 23 23 23 22 22 21 21 20 20 20 20 21 21 20 20 20 20 20 20 20 19 19 19 20 20 20 19 20 20 20 19 19 18 17 17 17 17 17 17 17 16 16 16 16 16 16 16 17 18 18 19 19 20 20
24 24 24 24 24 24 24 23 23 23 22 22 21 21 20 20 20 20 19 19 20 20 20 20 20 20 20 20 20 20 20 19 19 20 20 19 19 20 20 20 19 18 18 18 18 17 17 17 17 17 16 16 16 16 15 15 16 16 17 18 19 19 19
24 24 24 24 23 23 23 23 22 22 21 21 21 20 20 20 19 19 19 19 19 19 20 20 20 20 21 21 21 21 20 20 20 20 20 20 19 19 20 20 19 19 19 19 19 18 18 18 18 17 17 16 16 16 16 16 15 16 17 17 17 18 18
24 24 23 23 23 23 23 23 22 22 22 21 21 20 20 20 19 19 19 19 19 19 19 19 19 20 20 20 20 21 21 21 21 21 21 20 20 20 20 20 20 19 20 20 20 19 19 19 18 18 17 17 16 16 16 16 16 16 16 16 16 17 17
23 23 23 23 23 23 23 23 22 22 22 21 21 20 20 20 19 19 19 20 20 19 19 19 19 20 20 20 20 20 21 21 21 21 21 20 20 20 19 19 19 18 18 19 19 19 20 20 20 19 19 18 17 16 16 16 16 16 16 16 16 16 16
21 22 22 22 23 23 23 22 22 21 21 20 20 20 20 20 20 19 19 19 19 19 19 19 19 20 20 20 20 20 21 21 21 21 20 19 19 19 18 18 18 17 17 17 17 18 19 19 19 19 19 18 17 17 17 16 16 16 16 17 17 17 17
20 20 21 21 22 22 22 21 21 20 20 20 19 19 19 19 19 19 19 18 18 18 18 19 19 20 20 21 21 21 21 21 21 20 19 19 18 18 17 17 17 17 17 17 17 17 17 18 18 18 17 17 17 17 16 15 15 15 16 16 17 17 17
20 20 20 21 21 21 21 20 20 20 19 19 19 19 19 19 19 19 18 18 18 18 18 18 19 20 21 21 20 20 21 21 21 20 19 18 18 17 17 17 17 17 17 17 17 17 17 17 17 16 16 16 16 16 16 15 15 15 15 16 16 16 17
20 21 20 21 21 20 20 20 19 19 19 18 19 19 19 19 18 18 18 18 18 18 18 18 19 20 20 19 18 18 19 19 19 19 18 18 18 17 17 16 16 16 16 17 17 17 17 17 16 16 16 16 16 15 15 15 15 15 15 15 16 16 16
20 20 20 20 20 20 20 19 19 18 18 18 18 18 18 18 18 18 18 17 17 17 17 18 18 19 18 18 17 17 18 18 18 18 18 18 18 18 17 17 16 15 16 16 16 16 16 16 16 16 15 15 15 15 15 15 14 15 15 15 15 15 15

ECMWFFLT1_925_temp_111.txt.gz
Temp
28 28 29 29 29 29 29 29 29 30 30 29 29 29 28 27 27 26 26 25 25 25 25 25 25 25 25 24 25 25 25 25 25 25 25 25 25 25 25 25 25 25 25 25 25 25 25 26 26 26 26 26 25 25 25 25 25 25 25 25 26 26 26
28 28 28 28 28 29 28 28 29 29 29 29 29 29 28 27 27 26 26 26 25 25 25 25 25 25 25 25 25 25 25 25 25 25 25 25 25 25 25 25 25 25 25 25 25 25 25 26 26 26 26 26 25 25 25 25 25 25 25 25 25 26 25
28 28 27 27 28 28 27 28 29 29 29 29 29 29 28 27 27 26 26 26 25 25 25 25 25 25 25 25 25 25 25 25 25 25 25 25 25 25 25 25 25 25 25 25 25 25 26 26 26 26 26 26 25 25 25 25 25 25 25 25 25 25 25
27 27 27 27 27 27 27 27 28 28 29 30 29 28 28 27 27 27 26 26 26 25 25 25 25 25 25 25 25 25 25 25 25 25 25 25 25 25 25 25 25 25 25 25 25 26 26 26 26 26 26 26 25 25 25 25 25 25 25 25 25 25 25
26 26 26 26 27 27 26 26 25 26 28 30 29 28 28 27 27 27 26 26 26 26 25 25 25 25 25 25 25 25 25 25 25 25 25 25 25 25 25 25 25 25 25 26 26 26 26 26 26 26 26 26 25 25 25 25 25 25 25 25 25 25 25
25 25 25 25 26 27 27 26 25 25 27 29 29 28 28 27 27 27 26 26 26 26 26 25 25 25 25 25 25 25 25 25 25 25 25 25 25 25 25 25 25 25 25 25 25 26 26 26 26 26 26 26 25 25 25 25 25 25 25 25 25 25 25
25 25 24 25 26 26 27 26 27 27 27 29 29 28 28 27 27 27 26 26 26 26 26 26 26 26 26 26 25 25 25 25 25 25 25 25 25 25 25 26 25 25 25 25 26 26 26 26 26 26 25 25 25 25 25 25 25 25 25 25 25 25 25
25 25 24 24 25 26 26 27 27 28 27 28 28 28 27 27 27 27 26 26 26 26 26 26 26 26 26 26 26 26 26 26 26 26 26 26 26 25 25 26 26 25 26 26 26 26 26 26 26 26 26 25 25 25 25 25 25 25 25 25 25 25 25
25 25 24 24 25 25 25 26 27 27 27 27 27 27 27 26 27 27 27 27 26 26 27 27 27 27 26 26 26 26 26 26 26 26 26 26 26 26 26 26 26 26 26 26 26 26 26 26 26 26 26 26 26 26 26 26 26 26 25 25 25 25 25
25 24 23 23 23 23 24 25 26 26 26 26 26 26 26 26 26 27 27 27 27 27 27 26 26 26 27 27 27 27 27 27 26 26 26 26 26 26 26 26 26 26 26 26 26 26 26 26 26 26 26 26 26 26 26 26 26 26 26 25 25 25 25
25 23 23 22 22 22 23 24 25 25 25 25 25 25 25 25 26 26 26 27 27 27 27 26 26 26 26 26 27 27 27 27 27 27 27 27 27 27 27 27 27 27 27 26 26 26 26 26 26 26 26 26 26 26 26 26 26 26 26 25 25 25 26
24 23 22 22 22 23 23 23 23 24 24 24 24 24 24 24 25 25 26 26 26 26 26 26 26 26 25 25 26 28 28 27 28 27 27 27 27 28 28 27 27 27 27 27 27 26 27 27 27 26 26 26 26 26 26 26 26 26 26 25 25 26 26
22 22 22 22 22 23 23 23 22 22 22 22 23 24 24 24 25 25 25 26 26 26 26 25 25 26 25 24 25 27 27 27 28 28 28 28 28 28 28 28 28 28 28 27 27 27 27 27 27 27 27 27 26 26 26 26 26 26 26 26 26 26 26
21 21 21 22 22 22 22 22 21 21 21 21 22 22 24 24 24 25 25 24 25 25 25 25 25 25 24 24 25 25 24 25 27 28 27 28 28 28 28 28 28 28 28 28 27 27 27 27 27 27 27 27 26 26 26 26 26 26 26 26 26 26 26
21 21 21 21 22 22 22 21 21 21 21 22 22 22 23 24 24 24 24 24 24 24 24 24 24 24 24 25 26 26 24 24 26 27 27 27 27 28 28 28 28 28 28 28 27 27 27 27 27 27 27 27 27 26 26 26 26 26 26 26 26 26 26
20 20 20 21 21 21 21 21 21 21 21 22 22 22 22 23 23 23 23 23 23 23 24 24 24 24 24 23 24 25 25 25 26 26 27 27 27 27 27 27 27 27 28 28 28 27 27 26 26 26 26 26 26 26 26 26 26 26 26 26 26 26 26
20 20 20 20 20 20 20 20 20 21 21 21 21 22 21 22 22 22 22 22 22 22 23 24 24 24 23 22 22 23 24 24 25 25 25 26 26 26 26 27 27 27 27 27 27 27 27 26 26 25 25 25 25 26 26 26 26 26 26 26 25 25 26
21 20 20 20 20 19 19 19 19 19 20 20 20 21 21 21 21 21 21 21 21 21 22 23 24 24 23 22 22 23 23 23 24 24 24 25 25 25 25 26 26 26 26 26 26 27 27 26 26 25 25 25 25 26 26 25 25 26 26 26 26 26 26
20 20 20 20 19 19 19 19 19 18 18 19 20 20 20 20 20 20 20 20 20 21 21 21 22 23 22 22 22 23 23 23 23 24 24 24 24 24 25 25 25 25 25 25 25 25 26 26 25 25 25 25 25 25 26 25 25 26 26 26 26 26 26
20 20 20 20 19 19 19 19 18 19 19 19 19 19 19 19 19 19 19 19 20 20 20 20 21 21 21 21 21 22 22 22 23 23 23 24 24 24 24 24 24 24 24 23 23 24 24 25 24 24 24 25 25 25 25 25 25 25 26 26 26 26 26
20 20 20 20 19 19 19 19 19 19 19 19 19 19 19 19 19 19 19 19 19 19 19 19 19 20 20 20 21 21 21 21 22 22 22 22 23 23 23 23 24 23 23 23 22 23 23 23 24 23 23 24 24 25 25 25 25 25 25 26 26 26 26
21 21 20 20 19 19 19 19 19 19 19 19 19 20 19 19 19 19 19 19 19 18 18 18 18 19 19 20 20 20 20 21 21 21 21 21 21 22 22 22 23 23 22 22 22 22 22 23 23 23 23 23 23 24 24 24 25 25 25 25 25 25 25
21 20 20 20 20 20 20 19 20 20 20 20 20 20 20 20 20 19 19 19 19 19 19 18 19 19 19 19 19 20 20 20 20 20 20 20 20 21 21 21 21 21 21 21 21 21 22 22 22 22 22 22 22 23 23 23 24 25 25 25 25 24 24
20 20 19 19 19 19 20 20 20 20 20 20 20 20 20 20 20 20 20 20 20 19 19 19 19 19 20 20 19 19 19 19 19 19 19 19 20 20 20 20 20 20 21 21 21 21 21 22 22 22 22 22 22 22 22 23 23 24 24 24 24 24 24
20 19 18 19 19 19 20 20 20 20 20 20 21 21 20 20 20 20 20 20 20 19 19 19 19 20 20 20 19 19 19 19 19 19 19 19 19 19 19 19 20 20 20 20 20 20 21 21 21 21 21 21 21 21 22 22 22 22 23 23 24 24 24
21 20 20 21 21 21 21 22 21 21 21 21 21 21 21 21 21 20 20 20 20 19 19 19 20 20 20 20 19 19 19 19 19 19 19 19 19 19 19 19 20 20 20 20 20 20 20 20 20 20 20 20 20 20 20 20 21 21 22 22 23 23 23
23 23 22 22 23 23 22 22 22 22 21 21 21 21 21 21 21 20 20 20 20 19 19 20 20 20 20 20 20 19 19 19 19 19 19 19 19 19 18 18 19 19 19 19 19 19 19 19 19 19 19 18 18 19 19 19 19 20 20 21 21 22 22
23 24 24 23 23 22 22 22 22 22 21 21 21 21 21 21 20 20 20 20 20 20 20 20 20 20 19 19 19 20 20 19 19 19 19 19 19 18 18 18 18 18 18 18 18 18 18 18 18 17 17 17 17 17 18 18 18 19 19 20 20 21 21
23 23 23 23 22 21 21 21 21 21 21 21 20 20 20 20 20 20 20 20 20 20 20 20 20 20 20 19 19 19 20 20 19 20 20 19 19 18 18 18 18 18 18 18 18 17 17 17 17 17 16 16 16 16 16 17 17 17 18 18 19 20 20
23 23 23 22 21 21 21 20 20 20 20 20 20 19 19 19 19 19 19 19 20 20 20 20 20 20 20 20 20 20 20 19 19 20 20 19 19 19 18 18 18 18 18 18 18 18 17 17 17 17 16 16 16 16 16 16 16 17 17 17 18 18 19
23 23 23 23 22 22 21 21 20 20 20 19 19 19 19 19 19 19 19 19 19 20 20 20 20 20 20 20 20 20 20 20 19 19 19 19 19 19 19 18 18 18 18 18 18 18 17 17 17 16 16 16 16 15 15 16 16 16 17 17 17 17 17
22 23 23 23 22 22 21 21 21 20 20 20 19 19 19 19 19 19 19 19 19 19 19 20 20 20 20 20 20 20 20 20 20 19 19 19 19 19 19 19 19 18 18 18 18 18 18 17 17 17 16 16 16 15 15 15 16 16 16 16 17 17 17
22 22 23 23 22 22 22 21 21 20 20 20 19 19 19 19 19 19 19 19 19 19 19 20 20 20 20 20 21 21 20 20 20 19 19 19 19 19 19 19 19 19 19 18 18 18 18 18 17 17 16 16 16 15 15 16 16 16 17 17 17 17 17
21 22 22 22 22 22 21 21 20 20 19 19 19 19 19 19 19 19 19 19 19 19 19 20 20 20 20 20 21 21 21 20 20 20 19 18 18 18 18 18 18 18 18 18 18 18 18 17 17 17 17 16 16 16 16 16 17 17 17 17 17 17 17
21 21 21 21 21 21 20 20 20 19 19 19 19 19 19 19 19 18 18 18 18 19 19 19 19 20 20 20 20 20 20 19 19 19 19 18 18 18 17 17 17 17 17 17 17 17 17 17 17 17 16 16 16 16 16 16 16 17 17 17 17 17 17
21 21 21 20 20 20 20 20 20 19 19 19 19 19 19 18 18 18 18 18 18 18 18 18 19 19 19 19 19 19 19 18 18 18 18 18 18 17 17 17 17 17 17 17 17 17 17 17 17 16 16 17 16 16 16 16 16 16 16 17 17 17 17
20 21 20 20 20 20 20 20 19 19 19 19 19 19 18 18 18 18 18 18 18 18 18 18 18 19 19 19 18 18 18 18 18 18 17 17 17 17 17 17 17 17 17 17 16 16 16 16 16 16 16 16 16 16 16 16 15 15 15 16 16 16 16
20 20 20 20 20 20 19 19 19 19 19 19 18 18 18 18 18 18 18 17 18 18 18 18 18 18 18 18 18 17 17 17 17 17 17 17 17 17 17 17 16 16 16 16 16 16 16 16 16 16 16 16 16 15 15 15 15 15 15 15 15 16 16

ECMWFFLT1_925_temp_114.txt.gz
Temp
26 26 27 28 28 28 28 27 27 27 27 27 27 27 26 26 25 25 25 25 25 25 25 25 24 24 24 24 24 24 25 25 25 25 25 25 25 25 25 25 25 25 25 25 24 25 25 25 25 25 25 25 25 25 25 25 25 25 25 25 25 25 25
27 27 27 27 27 28 28 27 28 28 27 27 27 27 26 26 25 25 25 25 25 25 25 24 24 24 24 24 24 24 24 25 25 25 25 25 25 25 25 25 25 25 25 25 25 25 25 25 25 25 25 25 25 25 25 25 25 25 25 25 25 25 25
27 27 27 27 27 27 27 27 28 28 27 27 27 27 26 26 25 25 25 25 24 25 24 24 24 24 24 24 24 24 24 25 25 25 25 25 25 25 25 24 25 25 25 25 25 25 25 25 25 25 25 25 25 25 25 25 25 25 25 25 25 25 25
27 27 26 26 27 27 26 27 27 27 27 28 27 27 26 26 26 25 25 25 24 24 24 24 24 24 24 24 24 24 24 25 25 25 25 25 25 25 25 25 25 25 25 25 25 25 25 25 25 25 25 25 25 25 25 25 25 25 25 25 25 25 25
27 27 26 26 27 27 26 26 27 27 27 27 27 27 27 26 26 25 25 25 25 25 25 24 24 24 24 24 24 24 24 25 25 25 24 25 25 25 25 25 25 25 25 25 25 25 25 25 25 25 25 25 25 25 25 25 25 25 25 25 24 24 25
27 26 26 25 26 27 26 25 26 26 26 27 27 26 26 26 26 25 25 25 25 25 25 24 24 24 24 24 24 24 25 25 25 25 25 25 25 25 25 25 25 25 25 25 25 25 25 25 25 25 26 25 25 25 25 25 25 25 25 25 25 24 24
27 26 26 25 25 26 25 25 25 26 26 27 27 26 26 26 26 25 25 25 25 25 24 24 24 24 24 24 24 24 25 25 25 25 25 25 25 25 25 25 25 25 25 25 25 25 25 25 25 25 25 25 25 25 25 25 25 25 25 24 25 25 25
27 26 25 25 25 26 25 24 25 25 25 26 26 25 25 25 25 25 25 25 25 24 24 24 24 24 24 24 24 24 25 25 25 25 25 25 25 25 25 25 25 25 25 25 25 25 25 25 25 25 25 25 25 25 25 25 25 25 25 25 24 24 25
26 26 25 25 25 25 24 24 24 24 25 25 25 25 25 25 25 25 25 25 25 25 25 25 24 24 24 24 24 25 25 25 25 25 25 25 25 25 25 25 25 25 25 25 25 25 25 25 25 25 25 25 25 25 25 25 25 25 25 25 25 25 25
25 25 24 25 25 24 24 24 24 24 24 24 24 24 25 25 25 25 25 25 25 25 25 25 25 25 24 24 24 25 25 25 25 25 25 25 25 25 25 25 25 25 25 25 25 25 25 25 25 25 25 25 25 25 25 25 25 25 25 25 25 25 25
24 24 23 23 23 23 23 23 23 24 24 24 24 24 24 25 25 25 25 25 25 25 25 25 25 25 25 25 25 25 25 25 25 25 25 25 25 25 25 25 25 25 25 25 25 25 26 26 26 25 25 25 25 25 25 25 25 25 25 25 25 25 25
24 23 21 21 21 21 21 21 22 23 24 24 24 24 24 25 25 25 25 25 25 25 25 25 25 25 25 25 25 25 25 24 24 24 25 25 26 26 26 26 26 26 26 26 26 26 26 26 26 26 26 26 26 26 25 25 25 26 26 25 25 25 25
23 22 21 21 21 21 21 22 21 21 23 24 24 24 24 24 24 25 25 25 25 25 25 25 25 25 25 25 25 25 25 25 25 24 24 25 26 26 26 26 26 26 26 26 26 26 26 26 26 26 26 26 26 26 26 26 26 26 26 26 25 25 25
21 21 21 21 21 21 21 22 21 21 21 22 22 22 22 22 22 22 23 23 23 24 25 26 26 26 25 25 25 25 25 25 25 24 24 25 26 26 26 26 26 26 27 26 26 26 26 26 26 26 26 26 26 26 26 26 26 26 26 25 25 25 25
20 21 21 21 21 20 20 20 20 20 20 20 20 20 20 20 20 21 21 21 21 22 23 24 25 26 26 25 25 25 25 25 25 25 25 25 26 26 26 26 26 26 27 27 27 27 26 26 26 26 26 26 26 26 26 26 26 26 26 25 25 25 25
20 20 21 21 20 20 20 20 20 20 20 21 20 20 20 21 21 22 22 22 21 21 21 21 23 24 24 25 25 25 25 25 25 25 25 25 26 26 26 26 27 27 27 27 27 27 26 26 26 26 26 26 26 26 26 26 26 26 26 25 25 25 25
20 20 20 20 20 20 20 20 20 20 20 20 20 21 21 21 22 22 22 22 22 21 22 22 22 22 22 22 23 24 24 25 25 25 24 24 26 26 26 26 26 26 26 26 26 26 26 26 26 26 26 26 26 26 26 25 25 26 25 25 25 25 25
20 20 20 20 20 20 20 20 20 20 20 20 20 21 21 21 21 22 22 22 21 21 22 23 23 23 23 22 22 22 23 24 25 24 24 24 25 25 25 25 25 26 26 26 26 26 26 26 26 26 26 26 26 26 26 25 25 25 25 25 25 25 25
20 19 19 19 19 19 19 19 19 19 19 19 20 20 21 21 21 21 21 21 21 21 22 22 22 23 23 23 22 21 21 22 23 23 23 23 24 24 24 24 25 25 25 25 25 25 26 26 26 26 26 26 26 26 26 25 25 25 25 25 25 25 25
19 19 19 19 19 19 19 18 18 19 19 19 19 19 20 21 21 21 21 21 21 21 21 21 22 21 21 22 22 22 21 21 21 21 21 22 22 23 23 24 24 24 24 25 25 25 25 25 25 25 26 26 26 26 26 25 25 25 25 25 25 25 25
19 19 19 19 19 18 18 18 18 18 19 19 19 19 19 20 20 20 20 20 20 20 20 20 21 21 20 20 21 22 22 22 21 22 22 22 22 23 23 23 24 24 24 24 24 24 24 24 25 25 25 25 25 26 26 25 25 25 25 25 25 25 25
19 19 19 19 19 18 18 18 18 18 19 19 18 19 19 19 19 19 19 19 19 19 19 19 19 20 20 20 20 21 21 21 21 21 21 21 22 22 21 22 22 23 23 23 23 23 23 24 24 24 24 24 25 25 25 25 25 25 24 24 24 25 25
18 19 19 18 18 18 18 18 18 18 19 19 18 18 18 19 18 18 18 18 18 18 18 18 18 19 19 20 20 20 20 20 20 20 20 21 21 21 21 21 21 22 23 22 22 22 22 22 23 23 23 23 24 24 24 24 25 25 24 24 24 24 25
18 18 18 18 19 19 19 19 19 19 19 19 18 18 18 18 18 18 18 18 18 18 18 18 18 18 19 19 19 19 19 19 19 20 20 21 20 20 20 21 21 21 22 22 22 21 21 21 21 22 22 22 22 23 23 23 24 24 24 23 23 23 24
18 18 18 18 19 19 19 19 19 19 19 19 18 18 18 18 18 18 18 18 18 18 18 18 18 18 19 19 19 19 19 19 19 19 19 19 19 19 20 20 20 20 21 21 21 21 20 20 20 20 21 21 21 21 21 22 22 23 23 22 22 22 23
18 18 19 18 18 18 19 19 19 19 19 18 18 19 19 19 19 18 18 18 18 18 18 18 19 19 19 19 19 19 19 19 18 18 18 19 19 19 19 19 20 20 20 20 20 20 19 19 19 20 20 19 19 20 20 20 20 21 22 22 22 22 22
19 19 19 18 18 18 18 18 18 18 18 18 18 18 19 19 18 18 18 18 18 18 18 19 19 19 19 19 19 19 19 19 18 18 18 18 18 18 18 19 19 19 19 19 19 19 19 18 18 19 19 18 18 18 19 19 20 20 21 21 21 21 22
19 19 19 19 19 19 19 18 18 18 18 18 18 18 18 18 18 18 19 19 19 19 19 19 19 19 19 19 19 19 19 19 18 18 18 18 18 18 18 18 18 18 18 18 18 18 18 17 17 17 17 17 17 17 18 18 19 19 20 20 20 21 21
19 19 20 20 20 20 20 19 19 18 18 18 19 19 19 19 19 19 19 19 19 19 20 20 19 19 19 19 19 19 19 19 19 19 19 18 18 18 18 18 18 18 18 18 18 18 17 17 17 16 16 16 16 16 17 18 18 18 18 19 19 20 20
20 20 20 20 20 20 20 19 19 19 19 19 19 19 20 20 19 19 19 19 19 20 20 20 19 19 19 19 19 19 19 19 19 19 19 18 18 18 18 17 17 17 18 18 18 17 17 16 17 16 16 16 16 16 16 17 17 17 17 17 17 18 18
20 20 20 19 19 20 20 19 19 19 19 19 19 19 19 20 19 19 19 19 20 20 20 20 20 20 19 19 19 19 19 19 19 18 18 18 18 18 18 17 17 17 17 17 17 17 17 16 16 16 16 16 15 15 16 16 16 16 16 16 17 17 17
20 20 20 20 19 20 19 19 19 19 19 19 19 19 19 19 19 19 19 19 20 20 20 20 20 20 20 20 19 19 19 19 19 18 18 18 18 18 18 18 17 17 17 17 17 17 17 16 16 16 16 15 15 15 16 16 16 16 16 16 16 16 17
20 20 20 20 20 19 19 19 19 19 19 19 19 19 19 19 19 19 19 19 19 20 20 20 20 20 20 20 20 19 19 19 19 19 18 18 18 18 18 18 18 18 17 17 17 17 17 16 16 16 15 15 15 16 16 16 17 17 17 17 17 17 17
19 20 20 20 20 20 19 19 19 19 19 19 18 19 19 18 18 19 19 19 19 19 19 19 19 20 20 20 19 19 19 19 19 19 19 18 18 18 18 18 18 18 17 17 17 17 17 16 16 16 15 15 16 16 17 17 17 17 17 17 17 17 17
19 20 20 20 20 20 20 19 19 19 19 19 19 19 19 19 19 19 19 19 19 19 19 19 19 19 19 19 19 19 19 19 19 19 19 18 18 18 17 17 17 17 17 17 17 17 17 16 16 16 16 16 16 16 16 17 17 17 17 17 17 17 17
19 19 19 19 20 20 20 20 19 19 19 19 19 19 18 18 18 18 18 19 19 19 19 19 19 19 19 19 19 18 18 18 18 18 18 18 18 18 17 17 17 17 17 17 17 17 17 17 16 16 16 16 16 16 16 16 16 16 16 16 16 16 16
19 19 19 19 19 19 20 20 19 19 19 19 18 18 18 18 18 18 18 18 18 18 19 19 19 18 18 18 18 18 18 18 17 17 17 17 17 17 17 16 16 16 17 17 16 16 17 16 16 16 16 16 15 15 15 15 15 16 16 16 16 15 15
20 20 20 20 20 20 19 19 19 19 19 18 18 18 18 18 18 18 18 18 18 18 18 18 18 18 18 18 18 18 17 17 17 17 17 17 17 17 17 17 16 16 16 16 16 16 16 16 16 16 15 15 15 14 14 14 14 15 15 15 15 15 15

ECMWFFLT1_925_temp_117.txt.gz
Temp
26 25 25 26 26 26 26 26 26 26 25 25 25 25 25 25 24 24 24 24 24 24 24 24 24 24 25 25 25 25 25 25 25 25 25 25 25 25 24 24 24 24 24 24 24 24 24 24 24 24 24 24 24 24 24 24 24 24 25 25 25 25 25
26 26 25 26 26 26 26 26 26 26 25 25 25 25 25 25 25 24 24 24 24 25 25 24 24 24 25 25 25 25 25 25 25 25 25 25 24 25 25 25 25 25 24 24 24 24 24 24 24 24 24 24 24 24 24 24 24 24 24 25 25 25 25
26 26 25 25 26 26 26 26 26 26 26 25 25 25 25 25 25 25 24 24 24 24 24 24 24 24 24 24 24 25 25 25 25 24 24 25 25 25 25 25 25 25 24 24 24 24 24 24 24 24 24 24 24 24 24 24 24 24 24 24 25 25 25
26 26 26 25 26 26 26 26 26 26 26 26 26 26 25 25 25 25 25 25 24 24 24 24 24 24 24 24 24 24 24 24 24 25 25 25 25 25 25 24 25 25 24 24 24 24 24 24 24 24 24 24 25 24 24 24 24 24 24 24 24 24 25
26 26 26 25 25 26 26 26 26 26 26 26 26 26 26 25 25 25 25 25 25 24 24 24 24 24 24 24 24 24 24 24 24 24 24 25 25 24 24 24 24 24 24 24 24 24 24 24 24 24 25 25 25 25 25 24 24 24 24 24 24 24 24
26 26 26 25 25 26 26 26 26 26 26 26 26 26 26 25 25 25 25 25 24 24 24 24 24 24 24 24 24 24 24 24 24 24 24 24 24 24 24 24 24 24 24 24 24 24 24 24 24 24 25 25 25 25 25 25 24 24 24 24 24 24 24
26 26 26 25 25 25 25 25 26 26 26 26 26 26 26 25 25 25 25 24 24 24 24 24 24 24 24 24 24 24 24 24 24 24 24 24 24 24 24 24 24 24 24 24 24 24 24 24 24 25 25 25 25 25 25 25 25 24 24 24 24 24 24
26 26 26 26 25 25 25 25 26 26 26 26 26 26 25 25 25 24 24 24 24 24 24 24 24 24 24 24 24 24 24 24 24 24 24 24 24 24 24 24 24 24 24 24 24 24 24 25 25 25 25 25 25 25 25 25 25 25 24 24 24 24 24
26 26 26 25 25 24 23 24 25 25 25 26 26 26 25 25 25 24 24 24 24 24 24 24 24 24 24 23 23 24 24 24 24 24 24 24 24 24 24 24 24 24 24 24 24 25 25 25 25 25 25 25 25 25 25 25 25 25 25 24 24 24 24
26 26 25 24 23 22 21 22 23 23 24 25 25 25 25 25 25 24 24 24 24 24 24 24 24 24 23 23 23 24 24 24 24 24 24 24 24 24 24 25 25 25 25 25 25 25 25 25 25 25 25 25 25 25 25 25 25 25 25 25 25 24 24
24 24 24 23 22 22 22 22 22 22 23 24 24 25 25 25 25 24 24 24 24 24 24 24 24 23 23 23 23 23 23 24 24 24 24 24 24 24 25 25 25 25 25 25 25 25 25 25 25 25 25 25 25 25 25 25 25 25 25 25 25 25 25
23 23 22 22 22 22 22 22 22 22 22 23 22 23 23 23 23 23 23 23 23 23 23 23 24 24 24 23 23 23 23 24 24 24 24 24 24 25 25 25 25 25 25 25 25 25 25 25 25 25 25 25 25 25 25 25 25 25 25 25 25 25 25
21 21 21 22 23 22 22 22 21 21 21 21 21 22 22 22 22 22 21 20 21 21 21 21 22 23 23 23 23 23 23 24 24 24 25 25 25 25 25 25 25 25 25 25 25 25 25 25 25 25 25 25 25 25 25 25 25 25 25 25 25 25 25
20 20 20 21 22 22 22 22 21 21 21 21 21 22 22 22 22 22 21 20 20 21 22 23 23 22 23 23 23 24 24 24 24 24 25 24 25 25 25 25 25 25 25 25 25 25 25 25 25 25 25 25 25 25 25 25 25 25 25 25 25 25 25
21 20 20 20 21 21 21 21 21 20 20 20 21 21 21 22 22 22 22 22 22 23 24 24 24 24 23 23 23 23 23 23 24 24 25 24 25 25 25 25 25 25 26 26 26 26 26 26 26 25 25 26 25 25 25 25 25 25 25 25 25 25 25
20 21 21 20 20 20 20 20 20 20 19 20 20 21 21 21 22 22 22 22 22 23 23 24 24 24 24 23 23 23 22 22 21 22 22 23 24 24 24 24 25 25 25 26 26 26 26 26 26 26 26 26 26 25 25 25 25 25 25 25 25 25 25
20 20 20 20 20 20 19 20 20 19 19 20 20 21 21 21 21 22 22 22 23 23 23 23 23 23 23 23 23 23 23 22 21 21 21 21 21 21 23 23 24 25 25 26 26 26 26 26 26 26 26 26 26 26 25 25 25 26 25 25 25 25 25
20 20 20 20 20 20 19 19 19 19 19 20 20 20 20 21 21 21 21 22 22 23 22 22 23 23 23 23 23 22 22 23 23 22 22 22 21 21 22 23 23 23 24 26 26 27 26 26 26 26 26 26 26 26 26 26 26 26 25 25 25 25 25
20 20 19 19 19 19 19 19 19 19 19 19 20 20 20 20 20 21 21 20 21 22 22 21 21 21 22 22 22 22 22 23 24 23 23 23 23 22 22 23 24 23 23 24 25 26 26 26 26 26 26 26 26 26 26 26 26 26 26 25 25 25 25
19 19 19 19 19 19 18 18 18 18 18 19 19 19 19 20 20 20 20 20 20 20 20 20 20 20 20 20 21 21 21 22 22 22 22 23 22 22 22 23 24 24 24 23 23 24 25 25 26 25 25 25 25 25 25 25 25 25 25 25 25 25 25
19 19 19 19 19 18 18 18 18 18 19 19 19 19 19 19 19 19 19 19 20 20 20 20 20 20 20 20 20 20 20 20 20 21 21 22 22 22 22 23 23 24 24 24 24 23 23 23 24 25 25 25 25 25 25 25 25 25 25 24 24 25 25
19 19 19 19 18 18 18 18 18 18 19 19 19 19 19 19 19 19 19 20 20 20 20 20 20 20 20 20 20 20 20 20 20 20 21 21 22 22 22 22 22 22 22 23 23 23 22 21 21 23 24 24 24 24 24 24 25 24 24 24 24 24 24
18 18 18 18 18 18 18 18 18 18 18 18 18 19 19 19 19 19 19 19 19 19 20 20 19 19 19 20 20 20 20 20 20 20 20 20 21 21 21 21 21 21 21 20 21 21 21 21 21 23 23 24 24 24 24 24 24 24 23 23 24 24 24
18 18 18 18 18 18 18 18 18 18 18 18 18 18 18 18 18 19 19 19 19 19 19 19 19 19 19 19 19 20 20 20 20 20 20 20 20 20 20 20 21 21 21 20 20 19 20 22 23 22 22 23 23 23 23 23 22 22 22 22 23 23 23
18 18 17 17 18 17 17 18 18 18 18 18 18 18 18 18 18 18 18 18 18 18 18 18 19 19 19 19 19 19 20 20 20 20 20 20 20 20 20 20 20 20 20 20 20 19 20 22 22 20 20 21 22 21 21 20 20 21 21 21 21 22 23
17 17 17 17 17 17 18 18 18 18 17 17 17 18 18 18 18 18 17 17 17 18 18 18 18 18 18 19 19 19 19 19 19 19 19 19 19 19 19 19 19 19 19 19 19 20 20 20 20 19 20 20 20 20 19 19 20 20 21 21 21 21 22
17 17 17 17 17 18 18 18 18 17 17 17 17 18 18 18 18 17 17 18 18 18 18 18 18 18 18 18 18 18 19 18 18 19 19 18 18 18 18 19 18 19 19 18 19 20 20 19 18 19 19 19 19 18 18 18 19 20 20 20 20 21 21
18 18 18 17 17 17 17 17 17 17 17 17 18 17 17 18 17 17 18 18 17 18 18 18 19 19 18 18 18 18 18 18 18 18 18 18 18 18 18 18 18 18 18 18 18 19 19 18 18 18 18 18 18 17 17 17 18 18 18 19 19 20 20
18 18 18 18 18 17 17 17 17 17 17 17 18 17 17 17 18 18 18 18 18 18 18 19 19 19 19 18 18 18 18 18 18 18 18 17 17 17 17 17 17 17 17 17 17 18 18 17 17 17 17 17 16 16 17 17 17 17 17 18 18 18 18
18 18 18 18 18 18 17 17 17 17 17 17 17 17 18 18 18 18 18 18 18 18 18 19 19 19 19 19 19 18 18 18 18 18 18 18 18 18 17 17 17 17 17 16 17 17 17 16 17 17 16 16 15 15 16 16 16 16 16 17 17 17 17
18 18 18 18 18 18 18 18 17 17 17 17 17 18 18 18 18 18 18 18 18 19 19 19 19 19 19 19 19 18 18 18 18 18 18 18 18 18 18 18 18 17 17 17 16 16 16 16 16 16 16 15 15 15 15 15 16 16 16 16 17 17 17
18 18 18 18 18 18 18 18 18 18 18 18 18 18 18 19 19 18 18 18 19 19 19 19 19 19 19 18 18 18 18 18 18 18 18 18 18 18 18 18 18 18 17 17 17 16 16 15 15 15 15 15 15 15 15 15 15 15 16 16 16 16 17
18 18 18 18 18 19 19 19 18 18 18 18 18 19 19 19 19 19 19 19 19 19 20 20 20 19 19 18 18 18 18 18 18 18 18 18 18 18 18 18 18 18 17 17 17 16 16 15 15 15 15 15 15 15 16 16 16 16 16 16 16 16 16
18 18 19 19 19 19 19 19 19 18 18 18 18 18 19 19 19 19 19 19 19 19 20 20 20 20 19 19 18 18 18 18 18 18 18 18 18 18 18 17 17 17 17 17 17 16 16 16 15 15 16 16 16 16 16 16 16 17 17 17 16 16 16
18 18 19 19 19 19 19 19 19 19 18 18 18 18 18 18 18 18 18 19 19 19 19 19 19 19 19 19 19 18 18 18 18 18 18 18 18 17 17 17 17 17 16 16 16 16 16 16 16 16 16 16 16 16 16 16 16 16 16 16 16 16 16
18 18 18 19 19 19 19 19 19 19 18 18 18 18 18 18 18 18 18 18 19 19 19 19 19 19 19 19 18 18 18 18 18 18 18 18 18 17 17 16 16 16 16 16 16 16 16 16 16 16 16 16 16 16 16 16 15 15 15 15 15 15 16
18 18 18 18 19 19 19 19 19 19 19 18 18 18 18 18 18 18 18 18 18 19 19 19 19 19 19 18 18 18 18 18 18 18 18 17 17 17 17 16 16 16 15 15 15 15 15 16 16 15 15 15 15 15 15 15 15 15 15 15 15 15 16
19 18 18 19 19 19 19 19 19 19 19 18 18 18 18 18 18 18 18 18 18 18 18 18 19 19 18 18 18 18 18 18 18 17 17 17 17 17 17 17 16 15 15 15 15 15 15 15 15 15 15 15 15 14 14 14 14 14 14 15 15 15 16

ECMWFFLT1_925_temp_123.txt.gz
Temp
25 26 27 27 27 27 27 27 26 26 25 25 25 25 25 25 24 24 24 23 24 24 24 24 24 24 24 24 24 24 24 24 24 24 24 24 24 24 24 24 24 24 24 24 23 23 23 23 24 23 23 23 23 23 23 23 23 23 24 24 24 24 24
26 26 26 27 27 27 27 27 26 26 26 25 25 25 25 25 24 24 24 23 24 24 24 24 24 24 24 24 24 24 24 24 24 24 24 24 24 24 24 24 24 24 24 24 24 24 24 24 24 23 23 23 23 23 23 23 23 23 23 24 24 24 24
26 26 26 26 27 27 27 27 26 26 26 26 25 25 25 25 24 24 24 23 24 23 23 23 24 24 24 24 24 24 24 24 24 24 24 24 24 24 24 24 24 24 24 24 24 24 24 24 24 23 23 23 23 23 23 23 23 23 23 24 24 23 23
26 26 26 25 26 26 27 27 26 26 26 26 26 25 25 24 24 24 24 24 24 23 23 23 23 24 24 24 24 24 24 24 24 24 24 24 24 24 24 25 25 24 24 24 24 24 24 24 24 24 23 23 23 23 23 23 23 23 23 23 23 23 23
25 25 25 25 26 26 26 26 26 26 26 26 26 25 25 25 24 24 24 24 23 24 24 24 24 23 23 24 24 24 24 24 24 24 24 24 24 24 24 24 24 24 24 24 24 24 24 24 23 23 24 24 23 24 24 24 23 23 23 23 23 23 23
25 25 25 25 25 25 26 26 26 26 26 26 26 25 25 25 24 24 24 23 23 24 24 24 24 23 23 23 23 23 24 24 24 24 24 24 24 24 24 24 24 24 24 24 24 24 24 24 24 23 24 24 24 24 24 24 24 24 24 24 24 24 24
25 26 25 25 25 25 26 26 26 26 26 26 26 25 25 25 25 24 24 24 24 24 24 23 24 24 23 23 23 23 24 24 24 24 24 24 24 24 24 24 24 24 24 24 24 24 24 24 24 24 24 24 24 24 24 24 24 24 24 24 24 24 24
25 25 25 25 25 25 26 26 26 26 26 26 25 25 25 25 25 24 24 24 24 24 24 24 24 24 24 23 23 23 24 24 24 24 24 24 24 24 24 23 24 24 24 24 24 24 24 24 24 24 24 24 24 24 24 24 24 24 24 24 24 24 24
25 25 25 25 25 25 26 26 26 26 25 25 25 25 25 25 24 24 24 24 24 24 24 24 24 24 23 23 23 24 24 24 24 24 24 24 24 24 24 24 23 23 23 24 24 24 24 24 24 23 24 24 23 23 24 24 24 24 24 24 24 24 24
25 25 25 25 24 24 24 25 25 25 25 25 25 25 25 24 24 24 24 24 24 24 23 24 24 24 23 24 24 24 24 24 24 24 24 24 24 24 24 24 24 23 23 24 24 24 24 24 23 23 24 24 23 23 24 24 24 24 24 24 24 24 24
24 25 24 24 24 23 23 23 24 24 24 24 24 24 24 24 24 24 24 24 24 23 23 23 23 23 23 23 23 23 24 24 24 24 24 24 24 24 24 24 24 23 23 24 24 24 24 24 23 23 24 24 23 24 24 24 24 24 24 24 24 24 24
22 23 23 23 23 22 23 23 23 23 23 23 23 23 23 23 23 24 23 23 23 23 23 23 23 23 23 23 23 23 23 23 23 23 23 24 24 24 24 24 24 24 24 24 24 24 24 24 24 24 24 24 24 24 24 24 24 24 24 24 24 24 24
21 21 21 22 22 22 22 22 22 22 22 22 23 23 23 23 23 23 23 23 23 23 23 23 23 23 23 23 23 23 23 23 23 23 23 23 24 24 24 24 24 24 24 24 24 24 24 24 24 24 24 24 24 24 24 24 24 24 24 24 24 24 24
21 21 21 21 21 21 21 21 22 22 22 22 22 23 23 23 23 23 22 22 23 23 23 23 23 23 23 23 23 23 23 23 23 22 23 23 23 23 23 23 24 24 23 23 23 24 24 24 24 24 24 24 24 24 24 24 24 24 24 24 24 24 24
21 21 21 21 21 21 21 21 22 21 21 21 22 22 23 23 23 23 23 22 23 23 24 23 22 22 22 22 23 23 23 23 23 22 22 22 22 23 23 23 23 23 23 23 23 23 24 24 24 24 24 24 24 24 24 24 24 24 24 25 24 24 24
21 21 21 21 21 21 21 21 21 21 21 21 21 22 22 22 22 22 22 22 22 23 23 23 23 22 22 22 22 23 23 23 22 22 22 22 22 22 23 23 23 23 23 23 23 23 23 23 24 24 24 24 24 24 24 24 24 25 25 25 24 23 24
21 21 21 21 21 21 21 21 21 21 21 21 21 21 21 21 22 22 21 21 22 22 22 22 22 22 22 21 21 22 22 22 22 22 22 22 22 23 23 23 23 23 23 23 23 24 24 24 24 24 24 24 24 24 24 24 25 25 25 25 24 24 24
20 20 20 20 21 21 21 21 21 21 21 20 20 20 21 21 21 21 21 21 21 21 21 21 21 22 22 22 21 21 22 21 21 21 21 22 22 23 23 23 23 23 23 23 23 24 24 24 24 24 24 24 24 24 24 24 25 25 25 25 25 24 23
20 20 20 20 20 20 20 21 21 21 21 21 20 20 20 21 21 21 21 21 21 21 21 21 20 21 21 21 21 21 21 21 21 21 21 22 22 22 22 22 23 23 23 23 23 24 24 24 24 24 25 25 24 25 25 24 25 26 25 25 25 24 24
20 20 20 20 20 20 20 20 20 20 20 20 20 20 20 20 20 20 21 20 20 21 20 20 20 20 20 20 20 20 21 21 21 21 21 22 22 22 22 22 22 23 23 23 23 23 23 24 24 24 25 25 24 24 24 24 24 25 25 25 25 24 24
20 20 20 19 19 19 19 20 20 20 19 19 20 20 20 20 20 20 20 20 20 20 20 20 20 19 20 20 20 20 20 20 20 20 20 20 21 21 22 22 22 23 23 23 23 23 23 24 24 24 24 24 24 23 23 24 24 24 24 24 24 24 24
19 19 18 18 18 18 18 18 18 18 18 18 18 19 19 19 20 20 20 20 20 20 19 19 19 19 19 19 19 19 20 20 20 19 19 19 20 20 20 21 21 21 22 22 22 22 23 23 23 23 23 24 23 23 23 24 24 24 23 23 24 24 24
18 18 18 18 18 17 17 17 17 17 17 17 17 17 18 18 19 19 19 20 20 19 19 19 19 19 19 19 19 20 20 20 20 19 19 19 19 19 19 19 19 20 21 21 21 21 22 22 22 22 22 23 23 23 23 23 23 23 23 23 23 23 23
18 18 18 18 18 17 17 17 17 17 17 17 17 17 17 18 18 18 19 19 19 19 19 19 19 19 19 19 19 19 19 19 19 19 19 19 19 19 19 19 19 19 19 20 20 20 20 20 21 22 22 21 22 22 22 22 22 22 22 22 22 22 22
19 19 18 18 18 17 17 17 17 17 17 17 17 17 17 18 18 17 17 18 18 18 18 18 18 18 18 18 18 19 19 19 19 19 19 19 19 19 19 19 19 19 19 20 20 20 20 19 20 21 20 20 20 20 20 20 21 21 21 21 21 21 21
19 19 19 19 18 17 17 17 17 17 16 16 17 17 18 18 17 17 17 17 17 17 17 18 18 18 18 18 18 18 18 18 18 18 18 18 18 18 18 19 19 19 19 19 19 19 19 19 19 19 19 19 19 19 19 19 19 19 19 19 20 20 20
18 19 19 19 18 18 18 18 17 17 16 16 17 17 18 17 17 16 16 17 17 17 17 17 17 17 17 17 17 17 17 17 18 18 18 18 18 18 18 18 18 19 19 19 19 19 19 19 19 18 18 18 18 18 17 17 18 18 18 19 19 19 19
19 19 19 19 18 18 18 18 18 17 17 17 17 17 17 17 17 16 16 16 16 17 17 17 17 17 17 17 17 17 17 17 17 17 18 18 18 18 17 17 17 18 18 18 18 18 18 18 17 17 16 16 16 16 16 16 17 17 17 18 18 19 19
19 19 19 19 19 19 18 18 18 18 18 18 18 18 18 18 17 17 17 16 16 17 17 17 17 17 17 17 17 17 17 17 17 17 17 17 17 17 17 17 17 17 17 17 17 17 16 16 16 16 16 15 16 16 16 16 16 16 16 17 18 18 18
19 19 19 19 19 19 19 18 18 18 18 18 18 18 18 18 18 17 17 17 17 18 18 18 18 17 17 17 17 17 17 17 17 17 17 17 17 17 17 17 17 16 16 16 16 16 15 15 16 16 15 15 15 16 16 16 16 16 16 17 17 17 18
19 19 19 19 18 18 18 19 18 18 18 18 18 18 18 18 18 17 17 17 18 18 18 18 17 17 17 18 18 17 17 17 17 17 18 18 18 18 17 17 16 16 16 16 16 16 15 15 15 15 15 15 15 15 15 15 15 15 16 16 17 17 18
18 19 19 18 18 18 18 19 19 18 18 18 18 18 18 18 18 18 18 18 18 18 18 18 17 17 18 18 18 17 17 17 17 18 18 18 18 18 18 17 17 16 16 15 15 15 15 15 15 15 14 14 15 14 14 15 15 15 15 16 16 17 18
18 18 18 18 18 18 18 19 19 18 18 18 17 18 18 18 18 18 18 18 18 18 18 18 18 18 18 17 17 17 18 18 18 18 18 17 17 17 17 17 17 17 17 16 16 15 15 15 15 15 14 14 14 14 14 14 15 15 16 16 17 17 17
18 17 17 17 17 18 18 18 18 18 17 17 17 17 18 18 18 18 18 19 18 18 18 18 18 18 18 17 17 18 18 18 18 18 18 17 17 17 17 17 17 17 17 16 16 16 15 15 15 15 15 15 15 15 15 15 15 15 16 16 17 17 17
17 17 17 17 18 18 18 18 17 17 17 17 17 17 17 18 18 18 18 18 18 19 18 18 18 17 18 18 18 18 18 18 18 17 17 17 16 16 16 16 16 16 16 16 16 15 15 15 15 15 15 15 15 15 15 15 15 15 16 16 16 17 17
17 17 17 18 18 18 18 18 18 17 17 17 17 17 17 17 18 18 18 18 18 18 18 18 18 17 17 17 17 18 18 17 17 17 16 16 16 15 15 14 15 15 15 15 15 15 16 16 15 15 15 15 15 15 15 15 14 15 15 15 16 16 16
17 17 17 17 18 18 17 17 17 17 17 17 17 17 17 17 17 17 18 18 18 18 18 18 18 17 17 17 17 17 18 17 17 17 16 16 15 15 15 14 14 14 15 15 15 15 15 15 15 15 15 15 15 15 15 15 14 15 15 15 16 16 16
17 17 17 17 17 17 17 17 17 17 17 17 17 17 17 17 17 17 17 17 18 18 18 18 18 17 17 17 17 17 17 17 17 17 16 16 16 15 15 15 14 13 14 14 15 15 15 15 15 15 15 15 15 15 15 15 15 15 15 15 15 16 16

ECMWFFLT1_925_temp_129.txt.gz
Temp
29 30 31 31 32 32 32 33 32 32 32 31 31 31 31 31 30 30 29 28 27 26 26 26 26 26 26 26 26 26 26 26 26 26 26 26 26 27 27 27 27 27 27 28 27 27 27 27 27 27 27 26 26 25 25 25 25 25 25 25 25 25 26
29 30 31 31 32 32 32 33 33 32 32 31 31 31 31 31 30 30 29 28 27 27 26 26 26 26 26 26 26 26 26 26 26 26 26 26 26 27 27 27 27 27 27 28 28 28 27 27 27 27 26 26 26 25 25 25 25 25 26 25 25 25 26
29 31 31 30 31 32 32 33 33 32 32 32 31 31 31 31 30 30 29 28 28 27 27 27 26 26 26 26 26 26 26 26 26 26 27 27 27 27 27 27 27 27 27 27 28 28 28 27 27 27 27 27 27 26 26 26 25 25 26 25 25 26 26
29 30 30 30 31 32 32 32 32 32 32 32 31 31 30 30 30 30 29 29 28 27 28 27 27 27 27 26 27 26 26 26 27 27 27 27 27 27 27 27 27 27 27 27 27 27 28 28 27 27 27 26 27 26 26 26 26 26 26 25 25 26 26
28 29 29 30 31 31 32 32 32 32 31 32 32 31 30 31 30 30 29 29 28 28 28 28 28 28 27 27 27 27 27 27 27 27 27 28 28 27 27 27 27 27 27 27 28 27 27 27 27 27 27 26 26 27 26 26 26 26 26 25 26 26 26
27 28 29 30 30 31 31 31 32 32 31 32 32 31 31 31 31 30 30 29 29 28 28 29 29 28 28 28 28 28 28 27 27 27 27 28 28 28 28 28 28 28 28 28 28 28 27 27 27 27 27 27 27 27 27 27 27 27 26 26 26 26 27
24 27 28 29 29 30 31 31 31 31 31 32 32 31 31 31 31 31 30 30 29 29 29 29 29 29 29 28 28 28 28 28 28 27 28 28 28 28 28 28 28 28 28 28 28 28 28 27 27 27 27 27 27 28 28 27 27 27 27 26 26 26 27
23 25 26 28 30 30 30 31 31 31 31 31 31 31 31 31 31 31 31 31 30 29 29 30 30 30 29 29 29 29 29 29 28 28 28 28 28 28 28 28 28 28 28 28 28 28 28 28 28 27 27 28 28 28 28 28 27 27 27 27 26 26 27
24 24 23 25 29 30 30 30 30 30 30 28 28 31 31 31 31 30 30 30 30 29 29 30 30 29 29 29 29 29 29 29 29 29 28 28 29 29 29 29 28 28 28 28 28 28 28 28 28 28 27 27 27 27 27 27 27 27 27 27 27 26 27
25 25 23 23 25 27 29 30 29 28 28 28 29 31 31 30 31 30 30 30 30 30 29 30 30 29 29 29 29 29 28 28 29 29 29 29 29 29 29 29 29 28 28 28 28 29 28 28 28 28 27 27 27 27 27 27 27 27 27 27 27 27 27
25 25 25 24 23 23 25 27 28 28 28 29 30 30 30 29 30 30 29 29 30 29 29 29 29 30 29 29 29 29 28 28 29 28 28 29 29 30 29 29 29 29 29 28 28 29 29 28 28 28 27 27 27 27 27 27 27 27 27 27 27 27 27
23 24 24 24 23 21 22 24 26 28 28 28 29 29 29 28 28 29 29 29 29 29 28 28 28 29 29 29 29 28 27 28 28 27 27 27 28 29 29 30 29 29 29 29 29 28 29 29 28 28 27 27 27 27 27 27 27 27 27 27 28 27 27
22 22 22 22 22 22 23 24 25 27 27 27 28 28 28 27 27 27 28 28 28 28 28 28 27 28 28 28 29 28 27 27 27 27 27 26 26 26 27 28 29 30 29 29 29 28 28 29 29 28 28 27 27 27 27 27 27 27 26 27 27 27 27
22 22 22 22 22 22 23 24 24 26 27 27 27 27 27 27 27 27 27 27 28 28 27 27 27 27 27 27 28 28 27 26 26 26 27 27 26 26 26 27 27 27 28 28 29 29 28 29 29 28 28 28 27 27 27 27 27 27 26 26 27 27 27
22 22 23 24 23 23 23 23 24 25 25 25 26 26 26 26 26 26 26 26 27 27 27 26 26 26 26 27 27 27 27 26 25 26 26 26 26 26 26 26 26 26 25 25 27 29 29 28 29 29 28 28 27 27 27 27 27 27 26 26 26 26 26
21 21 22 23 23 23 23 23 23 24 24 24 25 25 25 25 25 25 25 26 26 26 26 26 25 26 26 26 26 26 26 25 24 25 26 26 26 25 26 26 26 27 27 25 25 27 27 28 28 28 29 29 28 27 27 28 27 26 25 25 25 25 26
20 20 20 20 21 22 22 23 23 24 24 24 23 23 24 24 25 25 25 25 25 25 25 25 25 25 25 25 25 25 25 24 24 25 25 25 25 25 25 26 26 26 26 26 25 25 25 26 27 28 28 29 28 28 28 26 25 25 25 25 25 25 25
20 19 19 19 20 20 21 21 22 23 23 23 22 22 22 23 23 24 24 24 24 24 24 24 24 24 24 25 25 25 24 24 23 24 24 25 25 25 25 25 25 25 25 25 26 26 25 24 25 26 27 28 28 28 26 24 23 24 24 25 25 25 25
19 19 19 19 19 19 20 20 20 21 21 21 22 22 22 22 22 22 23 23 23 23 23 23 23 23 24 24 24 24 24 23 23 23 23 23 23 24 24 24 24 24 24 24 25 25 25 25 24 23 24 25 25 23 22 22 24 23 23 24 25 25 25
19 19 19 19 19 19 20 20 20 20 20 21 21 22 22 22 22 22 22 22 22 23 23 23 23 23 23 23 23 23 23 23 23 23 23 23 23 23 23 23 23 23 23 24 24 24 24 24 24 23 23 23 22 20 21 22 24 23 24 24 24 24 25
20 20 20 19 19 19 20 20 20 20 20 21 21 22 22 22 22 22 22 22 22 22 22 22 23 23 23 23 23 22 22 22 22 22 23 23 23 23 22 21 22 22 22 22 22 23 24 24 23 23 23 23 22 22 21 22 23 23 23 23 23 23 24
21 21 20 20 20 20 20 20 20 20 20 21 21 22 22 22 22 23 23 23 23 23 23 23 22 23 23 22 22 22 22 22 21 21 22 22 22 22 22 21 22 22 22 22 22 23 23 23 22 22 23 23 22 22 21 21 22 23 23 23 23 23 23
22 21 21 21 21 20 20 20 20 20 20 20 20 21 21 21 22 22 22 22 22 22 22 22 22 22 22 22 22 22 22 22 21 21 22 22 21 22 21 21 22 22 21 21 22 22 22 22 21 22 22 22 22 21 20 20 21 22 22 23 23 23 22
22 22 21 21 21 21 21 20 20 20 20 20 20 20 20 20 20 20 20 20 20 20 19 20 20 21 21 21 21 21 21 21 21 21 21 21 21 21 21 21 21 21 21 20 21 21 21 21 21 21 21 21 21 21 20 20 20 21 21 22 22 23 22
22 22 21 21 21 21 20 20 20 20 20 20 20 19 19 19 19 19 19 19 19 18 18 18 18 19 19 19 19 20 20 20 20 20 20 20 20 21 21 20 20 20 20 20 20 20 21 21 20 20 20 20 20 20 19 19 20 20 20 21 22 22 22
23 22 23 22 22 21 21 21 21 21 21 20 20 20 20 20 19 19 19 18 18 18 17 17 17 17 17 18 18 18 19 19 19 19 19 19 19 20 20 20 19 19 20 20 20 20 20 20 19 19 19 19 18 18 18 18 19 19 19 20 20 20 20
23 24 24 24 23 22 21 22 21 21 21 21 21 21 20 20 19 19 19 18 18 17 17 17 17 17 17 17 17 17 17 17 18 18 18 18 19 19 19 19 19 19 19 19 19 19 19 19 18 18 18 18 17 17 17 17 18 18 18 19 19 19 19
24 25 25 25 24 23 23 23 22 22 21 21 21 21 20 20 19 19 19 19 18 18 17 17 17 17 16 16 16 16 17 17 17 17 17 17 18 18 18 18 18 18 18 19 19 18 18 18 17 17 17 16 16 16 16 17 17 17 17 17 18 18 19
25 25 25 24 24 24 24 24 24 23 22 22 21 21 21 20 20 20 19 19 19 18 18 18 17 17 17 17 16 16 16 16 17 17 17 17 17 17 17 17 17 17 17 17 17 17 17 16 16 16 16 16 16 16 16 16 17 17 17 17 17 17 18
25 25 25 24 24 25 24 24 24 23 23 22 21 21 21 20 20 20 19 19 19 19 18 18 18 18 18 17 17 17 17 17 17 17 17 17 17 17 17 17 16 16 16 16 16 16 15 15 15 15 15 14 14 15 15 15 16 16 16 16 17 17 17
24 24 25 24 24 24 24 24 24 23 23 23 22 22 21 21 21 20 20 20 19 19 19 19 18 18 18 18 18 17 17 17 17 17 17 17 17 17 17 17 16 16 16 16 15 15 15 15 14 14 14 14 13 14 14 14 15 15 15 16 16 17 17
24 24 24 24 24 24 24 24 24 23 23 23 23 22 22 21 21 20 20 20 20 20 19 19 19 19 19 19 19 18 18 18 18 17 17 17 18 17 17 17 17 17 16 16 16 15 15 15 15 14 14 14 14 14 14 15 15 15 15 16 16 16 17
23 23 23 23 23 23 24 23 23 23 23 23 23 23 23 22 22 21 21 21 21 20 20 20 20 20 19 19 19 18 18 18 17 17 17 17 18 18 18 18 17 17 17 17 17 16 16 16 15 15 15 14 14 14 14 14 15 15 15 16 16 16 16
22 22 22 22 22 22 23 23 22 22 22 22 22 22 22 22 22 22 22 21 21 21 20 20 20 20 20 20 19 19 18 18 18 17 16 16 16 17 17 17 17 16 16 16 16 17 17 17 17 16 16 15 15 15 14 14 15 15 15 15 16 16 16
22 22 22 22 22 21 22 22 22 22 21 21 21 21 21 22 22 22 21 21 21 21 21 21 21 21 21 21 21 20 20 19 19 18 17 16 16 16 16 16 16 16 16 16 16 17 17 18 18 18 17 16 15 15 15 15 15 15 15 15 16 16 16
22 22 21 21 21 21 21 21 21 21 21 21 21 21 21 21 21 21 21 21 21 21 21 21 22 23 22 22 22 21 21 20 19 19 18 17 16 16 15 15 16 16 16 16 16 17 17 17 17 17 17 16 15 15 16 15 15 15 15 15 16 16 16
21 21 21 21 21 21 21 21 21 21 21 20 21 21 21 21 21 21 21 21 21 21 21 21 22 22 22 22 21 21 21 20 20 19 18 18 17 16 16 15 15 15 15 16 16 16 16 17 17 17 16 15 15 15 15 15 15 15 15 16 16 16 16
21 21 21 21 21 21 21 20 20 20 20 20 20 20 20 20 21 21 21 20 20 20 20 21 21 21 21 21 20 20 20 20 19 19 18 18 17 17 17 17 16 15 15 15 15 16 16 16 16 16 16 15 15 15 15 15 15 15 15 16 16 16 16

ECMWFFLT1_925_temp_132.txt.gz
Temp
29 29 30 31 32 33 33 32 32 32 31 31 31 30 30 31 30 29 28 27 26 26 26 26 26 26 26 26 26 26 26 26 26 26 26 26 27 27 27 27 27 27 27 27 27 27 27 27 27 27 27 26 26 26 25 25 25 25 26 26 25 25 26
28 29 30 30 31 33 33 33 32 32 31 31 32 30 30 30 30 29 28 27 27 26 26 26 26 26 26 26 26 26 26 26 26 26 26 26 26 27 27 27 27 27 27 27 28 27 27 27 27 27 27 26 26 26 25 25 25 25 26 26 25 25 25
28 29 29 29 30 31 32 32 32 32 31 31 32 31 30 30 30 29 29 27 27 26 26 26 26 26 26 26 26 26 26 26 26 26 26 26 26 27 27 27 27 27 27 28 28 28 28 28 27 27 27 27 26 26 26 25 25 25 25 26 25 25 25
28 29 29 29 30 30 30 32 32 32 32 31 31 32 31 30 30 30 28 28 27 27 27 27 26 26 26 26 26 26 26 26 26 27 27 27 27 27 27 27 27 27 27 28 28 28 28 28 28 27 27 27 27 27 26 26 26 26 26 26 25 25 26
27 28 28 28 28 28 29 31 32 32 32 32 31 31 31 30 30 30 29 28 28 27 27 27 27 27 27 27 27 27 26 26 27 27 27 27 27 27 27 27 27 27 27 28 28 28 28 28 28 28 27 27 27 27 27 26 26 26 26 26 26 26 26
25 26 28 28 27 27 28 29 31 32 32 32 31 31 31 30 30 30 29 28 28 28 28 28 28 28 27 27 27 27 27 27 27 27 27 28 28 28 28 28 28 28 28 28 28 28 28 28 28 28 27 27 27 27 27 27 26 26 26 26 26 26 26
26 26 27 28 27 27 27 27 29 32 32 32 30 30 31 31 30 30 29 29 29 28 28 28 28 28 28 28 28 28 28 27 27 27 27 28 28 28 28 28 28 28 28 28 28 28 28 28 28 28 28 28 27 27 28 27 27 27 27 27 26 26 26
26 26 27 27 27 27 26 24 25 29 32 31 30 29 30 31 30 30 30 29 29 29 29 29 29 29 28 28 28 28 28 28 28 27 27 28 28 28 28 28 28 28 28 28 28 28 28 28 28 27 28 28 28 28 28 28 28 27 27 27 27 26 26
25 24 25 25 25 25 25 23 22 25 28 30 30 29 30 30 30 30 30 30 29 29 29 29 30 30 29 28 29 29 29 29 28 28 28 28 28 29 29 29 29 28 28 28 29 28 28 28 27 27 27 28 28 28 28 28 28 27 27 27 27 27 27
24 24 24 23 23 24 23 23 23 23 24 26 28 28 29 29 30 30 30 29 29 29 29 29 29 29 29 29 29 29 29 29 29 29 29 29 29 29 29 29 29 29 29 29 29 29 28 28 28 28 27 27 27 27 27 27 27 27 27 27 27 27 27
24 24 24 23 23 23 23 23 23 23 22 23 24 27 28 28 29 30 29 29 29 29 29 29 28 28 29 29 29 29 29 29 29 29 29 29 29 29 29 30 30 29 29 29 29 29 29 28 28 28 28 27 27 27 27 27 27 27 27 27 27 27 27
24 24 24 24 23 22 22 22 22 23 23 23 23 24 26 27 28 28 28 28 28 29 29 28 28 29 29 28 28 28 29 29 29 29 29 28 28 28 29 29 29 30 29 29 29 28 28 28 27 27 27 27 27 27 27 27 27 27 27 26 27 27 27
24 24 23 23 23 22 22 22 22 22 22 23 23 22 24 26 26 26 27 27 26 28 28 28 28 29 28 28 28 28 28 28 29 29 28 28 28 28 29 29 29 29 28 28 28 28 27 28 27 26 26 26 26 27 27 27 26 27 26 26 26 27 27
23 23 23 22 22 22 22 22 22 22 22 22 22 22 22 24 25 25 25 25 24 25 26 27 28 28 28 27 27 28 28 28 28 28 28 28 28 28 28 28 28 28 28 27 27 27 27 27 26 26 26 26 25 25 26 26 26 26 26 26 26 26 26
22 22 23 22 22 21 21 21 21 21 21 21 21 21 22 22 22 23 23 23 23 23 24 25 26 26 27 27 26 27 27 27 28 27 27 27 27 28 28 27 27 27 27 27 27 27 27 27 27 26 26 26 25 23 24 25 25 25 26 26 26 26 26
21 21 21 21 21 21 21 21 21 21 21 22 22 22 22 21 21 22 22 23 23 23 23 23 23 24 26 26 26 27 27 27 27 27 26 26 26 27 27 27 27 26 26 26 26 27 27 27 27 26 25 26 25 24 24 24 24 25 25 25 26 26 26
20 20 20 20 20 21 20 20 21 21 22 22 22 22 22 22 22 22 23 23 23 23 23 23 23 23 25 26 26 26 26 25 25 25 24 25 25 25 25 26 26 26 26 26 26 26 27 27 26 25 25 25 25 25 25 24 24 24 25 25 25 25 25
20 20 20 19 19 20 20 20 20 20 21 22 22 22 22 22 23 23 23 23 23 23 23 24 23 23 24 25 24 24 25 23 22 22 22 23 24 24 24 25 25 25 25 25 25 26 26 26 26 25 24 24 24 24 25 24 24 24 25 25 25 25 25
20 19 19 19 19 19 19 20 20 20 21 21 22 22 22 22 22 22 23 23 22 23 23 23 23 23 23 24 23 24 24 22 21 22 23 23 24 24 24 24 25 25 24 24 24 25 25 25 25 24 24 24 24 24 24 24 25 25 25 24 25 25 25
20 20 19 19 19 19 19 20 20 20 21 21 22 22 22 22 22 22 23 22 22 22 23 23 23 23 23 23 23 23 23 22 22 23 23 23 24 24 23 24 24 24 24 24 24 24 24 24 24 24 24 24 23 23 24 24 24 24 24 24 24 24 24
20 19 19 19 19 19 19 20 20 20 21 21 21 22 22 22 22 22 22 22 22 22 23 23 23 23 23 22 22 22 23 22 22 22 22 23 23 23 23 23 23 23 23 24 23 23 23 24 24 23 23 23 23 23 23 23 23 24 24 24 24 24 24
20 19 19 19 19 19 20 20 20 20 20 20 21 21 21 21 21 22 21 21 21 22 22 22 22 22 22 21 21 21 22 22 22 22 22 22 22 22 22 22 22 22 23 23 22 22 22 23 23 23 22 22 22 22 22 22 22 23 23 24 24 23 23
20 20 20 20 20 20 20 20 20 20 20 20 20 20 20 20 20 20 20 20 20 20 20 20 20 20 20 20 20 20 21 21 21 21 21 21 21 22 22 21 21 22 22 22 21 21 22 22 22 22 21 22 21 21 21 21 21 21 22 23 23 23 22
21 21 20 20 20 20 20 20 20 20 20 20 19 19 19 19 19 19 19 19 19 19 19 19 19 19 19 19 19 20 20 20 21 21 21 21 21 21 21 20 20 21 21 21 21 21 21 21 21 21 21 21 21 21 20 20 20 20 21 22 22 23 22
21 21 21 21 21 21 20 20 20 20 20 20 19 19 19 19 19 19 18 18 18 18 18 18 18 18 18 18 18 19 19 20 20 20 20 20 20 20 19 19 20 20 20 20 21 21 21 21 20 20 21 20 20 20 20 20 19 19 20 21 22 22 22
22 22 22 22 22 22 21 21 21 21 21 20 20 20 19 19 19 18 18 18 18 18 18 17 17 18 17 18 18 18 18 19 19 19 19 19 19 19 19 19 20 20 20 20 20 20 20 20 20 20 20 19 19 19 19 19 19 19 19 20 21 21 21
22 23 23 22 22 22 22 22 22 21 21 20 20 20 19 19 19 18 18 18 18 18 18 18 18 17 17 17 18 17 18 18 18 18 18 18 18 18 18 18 19 20 20 20 20 19 19 19 19 18 18 18 18 17 17 17 18 18 18 19 20 20 20
23 23 23 23 23 22 22 22 23 22 21 21 20 20 20 19 19 19 19 18 18 18 18 18 18 17 17 17 17 17 17 17 17 17 17 17 17 17 17 18 18 18 19 18 18 18 17 17 17 17 16 16 16 16 16 16 16 17 17 18 18 19 19
24 24 24 23 24 24 23 23 23 22 22 21 21 20 20 19 19 19 19 19 19 18 18 18 18 18 18 17 17 17 17 17 17 17 17 17 17 17 17 17 17 17 17 17 17 16 16 15 16 15 15 14 14 14 14 14 15 16 17 17 17 17 17
25 25 25 24 24 24 24 23 23 23 22 22 21 21 20 20 19 19 19 19 19 19 19 19 19 19 18 18 18 18 17 17 18 18 17 17 17 17 17 17 16 16 17 17 17 16 15 15 15 15 14 14 14 14 14 14 15 15 16 16 16 16 16
25 25 25 25 24 24 24 24 23 23 23 22 22 21 21 20 20 20 19 19 19 19 19 19 19 19 19 19 19 19 18 18 18 18 18 18 18 17 17 17 17 16 16 16 16 15 15 15 15 14 14 14 14 14 14 15 15 15 15 15 16 16 15
24 25 25 25 25 25 24 25 24 24 23 22 22 22 21 21 21 20 20 20 20 20 19 19 19 19 19 19 19 19 19 19 19 18 18 18 18 18 18 17 17 17 17 17 16 16 15 15 15 15 14 14 14 14 14 15 15 15 15 15 15 16 16
23 24 24 24 24 24 24 24 24 24 23 23 23 22 22 21 21 21 21 21 21 20 20 20 20 19 19 19 19 19 18 18 18 18 17 17 17 17 17 17 17 17 17 17 17 17 17 17 17 16 16 15 15 14 15 15 16 15 15 15 16 16 16
22 23 23 23 23 23 23 23 23 22 22 22 22 22 22 22 22 21 21 21 21 21 21 21 20 20 20 20 19 19 19 18 18 17 17 17 17 16 16 16 16 16 16 17 17 17 18 18 18 17 17 16 16 16 16 16 16 16 16 16 16 16 16
21 22 22 22 22 22 22 22 22 22 22 22 22 22 22 22 22 21 21 21 21 21 21 21 21 21 21 21 21 21 20 19 18 17 17 16 16 16 16 16 16 16 16 16 17 17 17 17 17 17 17 16 16 16 16 16 15 15 15 16 16 16 16
21 21 22 22 21 21 21 21 21 22 21 21 22 22 21 22 21 21 21 21 21 21 21 21 22 22 22 21 21 21 21 20 19 18 18 17 16 16 16 16 16 16 16 16 17 17 17 17 17 16 16 16 16 16 16 16 15 15 15 16 16 16 16
21 21 21 21 21 21 21 21 21 21 21 21 21 21 21 21 21 21 21 21 21 21 21 21 21 21 21 21 20 20 20 20 19 18 18 18 17 16 16 16 16 16 16 16 16 16 17 17 17 16 16 16 16 15 15 15 15 15 16 16 16 16 16
18 18 19 20 21 21 21 21 21 20 21 21 21 21 21 21 21 21 21 20 20 20 20 21 21 21 20 20 20 20 20 20 19 19 18 18 18 17 17 17 16 16 16 16 17 16 16 16 16 16 16 16 15 15 15 16 16 16 16 16 16 17 17

ECMWFFLT1_925_temp_135.txt.gz
Temp
27 28 28 29 29 30 31 29 29 29 29 29 29 29 30 28 27 26 26 25 25 25 25 25 25 25 25 25 25 25 26 26 26 26 26 26 26 26 26 25 26 26 26 26 26 26 26 26 26 26 26 26 26 26 25 25 25 25 25 25 25 25 25
27 28 28 29 29 30 30 29 29 29 29 29 29 29 30 29 27 26 26 26 25 25 25 25 25 25 25 25 25 25 25 26 26 26 26 26 26 26 26 26 26 26 26 26 26 26 26 26 27 26 26 26 26 26 25 25 25 25 25 25 25 25 25
28 28 28 29 29 29 29 28 29 29 29 29 29 30 30 29 27 27 26 26 25 25 25 25 25 25 25 25 25 25 25 25 25 25 26 26 26 26 26 26 26 26 26 26 26 26 27 27 27 27 26 26 26 26 25 25 25 25 25 25 25 25 25
27 28 28 28 29 29 29 28 29 29 29 30 30 30 30 29 28 27 27 26 26 25 25 25 25 25 25 25 25 25 25 25 25 25 25 26 26 26 26 26 26 27 27 27 27 27 27 27 27 27 27 26 26 26 26 25 25 25 25 25 25 25 25
25 27 27 28 28 28 28 28 28 29 29 30 30 30 30 29 28 27 27 26 26 26 26 25 25 25 25 25 25 25 25 25 25 25 25 26 26 26 26 26 27 27 27 27 27 27 27 27 27 27 27 27 26 26 26 26 26 25 25 25 25 25 25
24 25 26 27 27 26 26 27 28 28 29 30 30 30 30 29 28 27 27 27 26 26 26 25 25 25 25 25 25 25 25 25 25 25 25 26 26 26 26 26 27 27 27 27 27 27 27 27 27 27 27 27 27 26 26 26 26 26 25 25 25 25 25
23 23 25 26 27 26 25 26 27 27 28 29 29 29 29 29 28 28 27 27 26 26 26 26 26 26 25 25 25 26 26 25 26 26 26 26 26 26 26 26 27 27 27 27 27 27 27 27 27 27 27 27 27 27 26 26 26 26 26 26 26 26 25
23 23 24 25 26 27 26 26 26 26 27 27 27 27 27 27 27 28 27 27 27 26 26 26 26 26 26 26 26 26 26 26 26 26 26 26 27 27 27 27 27 27 27 27 27 27 27 27 28 27 27 27 27 27 27 27 27 26 26 26 26 26 26
22 22 23 24 25 25 25 24 25 25 25 26 26 25 25 24 25 25 25 26 27 27 26 26 27 26 27 26 26 26 26 26 26 26 26 26 27 27 27 27 27 27 27 28 28 28 28 28 28 28 27 27 27 27 27 27 27 27 27 27 26 26 26
21 21 22 23 23 24 23 23 24 24 24 25 25 25 25 25 23 23 23 23 25 27 27 27 27 27 27 27 27 27 27 27 27 26 26 27 27 27 27 28 28 28 28 28 28 28 28 28 28 28 27 27 27 27 27 27 27 26 26 26 27 27 27
21 21 21 21 22 23 23 23 23 23 23 24 24 24 24 24 23 23 22 21 22 26 27 27 27 28 28 27 27 27 27 27 27 27 27 27 27 27 28 28 28 28 28 28 28 28 28 28 28 28 27 27 27 27 26 26 26 25 24 24 25 26 26
21 21 21 21 21 22 22 23 22 22 23 23 23 24 24 23 23 23 23 22 21 22 24 25 24 25 26 27 28 28 28 28 28 28 28 27 27 28 28 28 28 29 29 28 28 28 28 28 28 27 27 27 27 26 26 26 26 25 25 25 24 24 24
20 21 21 21 21 21 21 22 22 22 22 23 23 23 23 22 22 23 23 23 22 20 22 25 25 24 24 24 26 27 28 28 28 28 28 28 28 28 28 28 28 28 28 28 28 28 28 28 27 27 27 27 26 26 26 26 26 25 25 25 25 25 24
20 21 21 21 22 21 21 21 21 21 21 22 22 22 22 22 22 23 23 23 23 21 21 24 26 25 25 24 24 24 24 24 25 26 26 27 28 28 28 27 27 28 28 28 28 28 28 28 27 27 27 27 26 26 26 26 26 26 25 24 25 25 25
20 20 20 21 21 21 21 21 21 21 21 21 21 21 22 22 22 23 23 23 23 23 23 24 25 25 25 25 25 23 22 22 24 24 25 26 27 27 28 27 27 27 27 27 27 27 27 27 27 27 27 26 26 26 26 26 26 25 24 24 25 25 25
19 19 19 19 20 20 20 20 20 20 20 21 20 21 22 22 22 23 23 22 22 23 24 25 24 24 24 24 24 23 23 24 25 25 25 26 26 26 26 26 26 26 26 26 26 26 27 27 26 26 26 26 26 26 26 25 25 25 24 24 25 25 25
19 19 19 19 19 19 19 19 19 19 20 21 20 20 21 21 21 22 22 22 22 22 22 23 23 23 23 22 22 23 24 25 25 25 25 25 25 25 25 25 25 26 26 26 25 26 26 26 26 25 26 26 26 26 25 25 25 25 24 24 25 25 25
19 19 19 19 19 19 19 19 19 19 19 20 20 20 21 21 21 21 22 23 23 22 22 22 22 22 21 21 22 23 24 24 24 24 24 24 24 24 24 24 24 25 25 25 25 25 25 25 25 25 25 25 25 25 25 25 25 24 24 24 25 25 25
19 19 19 19 19 19 18 18 19 19 19 19 20 21 21 21 21 21 21 22 23 23 23 22 22 22 21 20 22 24 24 23 23 24 24 24 24 24 24 23 24 24 24 24 25 25 25 25 24 24 24 24 24 25 25 25 24 24 24 24 24 24 24
19 19 19 19 19 19 19 19 19 19 19 20 20 21 21 21 21 22 22 22 22 23 23 23 22 22 21 20 21 23 23 22 23 24 24 23 23 23 23 23 23 23 23 23 23 23 24 24 24 24 24 24 24 24 24 24 24 24 24 24 24 24 24
19 19 19 19 19 19 19 19 19 19 19 19 20 20 20 21 21 21 21 22 22 22 22 22 22 21 21 20 20 21 21 22 22 22 22 22 22 22 22 22 22 22 22 22 22 22 22 22 23 23 23 23 23 24 24 24 24 24 24 24 24 23 23
19 19 19 19 19 19 19 19 19 19 19 19 19 19 19 20 20 20 20 20 20 20 21 21 21 20 20 20 20 21 21 21 21 21 21 21 21 21 22 22 22 22 22 21 21 22 22 22 22 22 22 22 23 23 23 23 23 23 23 24 23 23 23
19 19 19 19 19 19 19 19 19 19 19 19 19 19 19 19 19 19 19 19 19 19 19 20 19 19 19 19 20 20 20 20 21 21 21 21 21 21 21 21 21 21 21 21 21 21 21 21 21 22 22 22 22 22 22 21 21 21 22 22 23 23 22
19 20 20 19 19 19 19 19 19 19 19 18 18 18 18 18 18 18 18 18 18 18 18 18 18 18 18 18 19 19 19 20 20 20 20 20 20 20 20 20 21 21 21 21 21 21 21 21 21 21 21 21 21 20 20 20 20 20 20 21 22 22 22
19 20 20 20 20 20 19 19 19 19 19 19 18 18 18 18 18 18 18 18 17 17 17 18 18 18 18 18 18 18 19 19 19 19 19 19 19 19 19 20 20 20 21 21 21 21 21 21 20 20 20 20 19 19 20 19 19 19 20 21 21 22 21
19 20 21 21 21 20 20 20 19 19 19 19 18 18 18 18 18 18 18 18 17 17 17 17 17 17 17 17 18 18 18 18 18 19 19 18 18 19 19 19 19 19 20 20 20 20 20 19 19 19 18 18 18 19 19 19 19 19 20 20 21 21 21
20 22 21 21 21 21 20 20 20 19 19 19 19 18 18 18 18 18 18 18 17 17 17 17 17 17 17 17 17 17 17 18 18 18 18 18 18 18 18 18 18 18 18 19 18 17 16 16 17 17 16 16 17 17 18 18 19 19 19 20 20 20 20
21 22 22 22 22 21 21 21 20 20 19 19 19 18 18 18 18 18 18 18 18 17 17 17 17 17 17 17 17 17 17 17 17 17 17 17 17 17 17 17 17 17 18 18 17 16 15 15 15 15 14 14 15 15 16 16 17 18 18 19 19 19 19
22 22 22 22 22 22 22 21 21 20 20 19 19 19 19 18 18 18 18 18 18 18 18 18 18 18 18 18 17 17 17 17 17 17 17 17 17 17 17 17 17 17 17 17 17 16 15 15 15 15 15 15 15 15 15 15 16 17 17 17 18 18 18
22 22 22 22 22 22 22 21 21 21 20 20 19 19 19 19 18 18 18 18 19 19 18 18 18 18 18 18 18 18 18 17 17 17 17 17 17 17 16 16 16 16 17 17 17 16 15 15 15 15 14 15 15 15 15 15 15 16 16 16 17 17 17
23 23 23 23 22 22 22 22 21 21 20 20 20 20 19 19 19 19 19 19 19 19 19 19 19 19 18 18 18 18 18 18 17 17 17 17 17 17 17 16 16 16 16 16 16 16 15 15 15 15 14 14 15 15 15 15 15 15 15 16 16 16 16
22 23 23 23 22 22 22 22 21 21 21 20 20 20 20 20 20 19 19 19 19 19 19 19 19 19 19 18 18 18 17 17 17 17 17 17 17 17 17 17 17 17 16 16 16 16 16 15 15 15 15 15 15 15 15 15 15 15 16 16 16 16 16
20 22 22 22 22 22 22 21 21 21 21 21 21 21 21 20 20 20 20 20 20 20 19 19 19 19 19 18 18 18 18 17 17 17 17 17 17 17 17 17 17 17 17 17 17 17 17 16 16 16 15 15 15 15 15 15 16 16 16 16 16 16 16
20 21 21 21 22 21 21 21 21 21 21 21 21 21 21 21 21 21 21 20 20 20 20 20 19 19 19 18 18 18 18 18 17 17 17 17 17 17 17 17 17 17 17 17 17 17 17 17 16 16 16 16 15 15 15 15 16 16 16 16 17 17 17
20 20 20 21 21 21 21 21 21 21 21 21 21 21 21 21 20 21 21 21 21 21 20 20 20 20 19 19 19 18 18 17 17 17 17 17 17 17 16 17 17 17 17 17 17 17 17 17 17 16 16 16 16 16 16 15 15 16 16 16 17 17 17
19 20 20 20 21 21 21 21 21 21 21 21 21 21 20 20 20 20 20 21 21 20 20 20 20 20 20 20 19 18 18 18 17 17 18 18 17 17 16 16 16 17 17 17 17 17 17 17 16 16 16 17 16 16 16 15 15 15 16 16 17 17 17
17 18 19 19 20 20 21 20 20 21 21 21 21 21 20 20 20 20 20 21 21 20 20 20 20 20 19 19 19 19 19 18 18 18 18 18 18 18 17 17 17 17 17 17 17 17 17 17 16 16 16 16 16 16 15 15 15 16 16 17 17 17 18
17 18 18 18 19 19 20 20 20 20 21 21 21 21 20 20 20 20 20 21 21 21 20 20 20 20 20 19 19 19 19 19 18 18 18 18 18 18 18 18 17 17 17 17 17 17 17 17 17 17 16 16 16 16 16 15 16 16 17 17 17 18 18

ECMWFFLT1_925_temp_138.txt.gz
Temp
26 26 26 27 27 28 28 28 28 28 28 27 27 27 26 26 25 25 25 25 25 25 25 25 25 25 25 25 26 26 26 26 26 26 26 26 26 26 26 26 26 25 25 25 25 25 25 25 25 25 25 25 25 25 25 25 25 25 25 25 25 25 25
25 26 27 27 27 28 28 28 28 28 28 28 28 27 27 26 25 25 25 25 25 25 25 25 25 25 25 25 25 26 25 25 26 26 26 26 26 26 26 26 26 25 25 25 25 25 25 25 25 25 25 25 25 25 25 25 25 25 25 25 25 25 25
23 24 25 26 27 27 27 27 27 28 28 28 28 27 26 26 26 25 25 25 25 25 24 25 25 25 25 25 25 25 25 25 25 26 26 26 26 26 26 26 25 25 25 25 25 25 25 25 25 25 25 25 25 25 25 25 25 25 25 25 25 25 25
22 22 23 24 24 25 26 26 27 28 28 28 28 28 27 26 26 25 25 25 25 24 24 24 25 24 24 24 25 25 25 25 25 26 26 26 26 26 26 25 25 25 25 25 25 26 26 26 26 26 26 26 26 26 25 25 25 25 25 24 24 25 25
22 22 22 22 22 22 23 25 26 27 28 28 28 28 27 26 26 25 25 25 25 25 25 24 24 24 24 24 24 25 25 25 25 26 26 26 26 26 26 26 25 25 25 25 25 26 26 26 26 26 26 26 26 26 26 25 25 25 25 25 25 25 25
22 21 21 22 22 22 22 22 24 25 27 28 28 28 27 26 26 26 25 25 25 25 25 24 24 24 24 24 24 24 25 25 25 25 25 26 25 25 25 26 26 26 26 26 26 26 26 26 26 26 26 26 26 26 26 26 26 26 25 25 25 25 25
21 21 21 21 22 22 21 21 22 23 25 28 28 27 26 25 25 24 24 24 24 24 24 24 24 24 24 24 24 24 24 25 25 25 25 25 25 25 26 26 26 26 26 26 26 26 26 26 26 26 27 27 27 26 26 26 26 26 26 25 25 25 25
21 21 21 21 21 21 21 21 21 21 23 26 27 26 25 25 24 23 23 23 23 23 23 24 24 24 24 24 24 24 24 24 25 25 25 25 25 25 25 26 26 26 26 26 26 26 27 27 27 27 27 27 27 26 26 26 26 26 26 26 25 25 25
21 20 21 21 21 21 20 20 21 22 22 23 25 25 25 25 24 24 24 23 23 23 23 23 23 24 24 24 24 24 24 24 25 25 25 25 25 25 25 25 26 26 26 26 26 26 27 27 27 27 26 26 26 26 26 26 26 26 26 26 26 25 25
20 20 21 21 21 21 20 20 21 22 22 22 23 24 24 24 25 24 24 23 23 23 24 24 24 23 23 24 24 24 24 25 25 25 25 25 25 25 25 25 26 26 26 26 27 27 27 27 27 27 26 26 26 26 26 26 26 26 26 25 25 25 25
20 20 20 21 21 21 20 21 21 21 22 22 22 22 23 24 24 24 24 23 23 23 23 23 24 24 24 24 24 25 25 25 25 25 25 25 25 25 25 26 26 26 26 27 27 27 27 27 27 27 27 26 26 26 26 26 26 26 26 25 25 25 25
19 20 20 20 21 20 20 21 21 21 21 22 22 22 22 23 23 23 23 23 23 23 23 23 24 24 23 23 23 24 25 25 25 25 25 25 25 25 26 26 26 27 27 27 27 27 27 27 27 27 27 27 26 26 26 26 26 26 26 26 26 25 25
19 20 20 20 20 20 20 20 20 21 21 22 22 22 22 23 23 23 23 23 23 23 23 24 24 23 23 23 23 23 24 25 25 25 25 25 26 26 26 26 26 27 27 27 27 27 27 27 26 26 26 26 26 26 26 26 26 26 26 25 25 25 25
19 19 19 19 19 20 20 20 20 20 20 21 21 21 22 23 22 22 22 23 23 23 23 24 23 22 22 23 22 22 23 24 25 25 25 25 25 26 26 26 26 26 27 27 27 27 26 26 26 26 25 25 26 26 26 26 26 26 25 25 25 25 25
19 19 19 19 19 19 19 19 19 19 20 21 21 21 21 21 22 22 22 23 23 23 23 23 22 22 22 22 23 23 23 24 25 25 25 25 25 26 26 26 26 26 26 26 27 26 26 26 26 26 25 25 25 26 26 26 26 26 26 25 25 25 25
19 19 19 19 19 19 19 19 19 19 19 20 21 20 20 21 21 22 22 23 23 23 23 22 22 22 22 23 24 24 24 24 25 25 25 25 25 26 26 26 26 26 25 26 27 26 26 26 25 25 25 26 26 26 26 26 26 26 26 26 25 25 25
19 19 19 19 19 19 18 19 19 19 19 19 20 20 20 20 21 21 22 23 22 21 21 22 22 22 23 24 25 24 23 23 24 25 25 25 24 24 25 26 25 25 25 25 26 26 26 26 26 25 26 26 26 26 26 26 26 26 25 25 25 25 25
19 19 19 19 19 19 19 19 19 18 19 19 19 19 20 20 20 20 21 21 20 20 21 21 22 22 23 24 24 23 23 23 24 24 25 25 24 23 24 24 24 24 24 24 25 25 25 26 26 26 26 25 25 26 26 26 25 25 25 25 25 25 25
19 19 19 19 19 19 19 19 19 18 19 19 19 19 20 20 20 20 21 21 20 20 21 21 21 21 22 22 22 23 23 23 23 23 24 24 24 23 23 23 23 23 24 24 24 24 24 25 25 25 25 25 25 25 25 25 25 25 25 25 25 25 24
18 19 19 18 19 19 18 18 18 18 18 19 19 19 20 20 20 21 21 20 20 20 21 21 20 20 20 21 21 22 23 22 23 23 23 23 23 23 23 23 22 23 23 23 23 23 23 24 24 25 25 25 25 25 25 25 25 25 25 24 24 24 24
18 19 19 18 18 18 18 18 18 18 18 18 18 19 19 19 19 20 20 20 19 20 20 20 20 19 19 20 21 21 22 22 22 22 23 23 22 22 22 22 22 22 22 22 22 22 22 23 23 24 24 24 24 24 24 24 24 24 24 24 24 24 24
18 18 18 18 18 18 18 18 18 18 18 18 18 18 18 19 19 19 19 19 19 19 19 19 19 19 19 20 20 21 21 21 21 21 21 22 21 21 22 21 22 21 21 22 22 22 22 22 22 23 23 23 23 23 24 24 24 24 24 24 23 23 23
18 18 19 19 18 18 18 18 18 18 18 18 17 17 18 18 18 18 18 18 18 19 19 19 19 19 19 19 20 20 20 21 21 21 20 21 21 21 21 21 21 21 21 21 21 21 21 21 22 22 22 22 22 22 22 22 22 22 22 22 23 23 23
18 19 19 19 19 19 19 18 18 18 18 18 18 17 17 18 18 18 18 18 18 18 18 18 18 19 19 19 19 19 20 20 20 20 20 20 20 20 20 20 20 20 20 20 20 20 21 21 21 21 21 21 21 21 21 21 21 21 21 21 22 22 22
18 19 19 19 19 19 19 18 18 18 18 18 17 17 17 17 18 17 17 17 17 18 18 18 18 18 18 18 19 19 19 19 20 19 19 19 19 19 19 19 19 19 19 20 20 20 20 20 21 20 20 19 19 19 19 19 19 20 20 21 21 21 22
18 18 19 19 19 19 19 18 18 18 18 18 18 18 17 17 17 17 17 17 17 17 17 17 17 18 18 18 18 18 18 18 18 18 18 18 18 18 18 18 18 18 18 19 19 19 19 19 19 18 17 17 17 17 18 18 18 19 19 20 20 21 21
19 19 19 19 19 19 18 18 18 18 18 18 18 18 17 17 17 17 17 17 17 17 17 17 17 17 17 17 17 17 17 17 17 17 17 17 17 17 17 17 17 17 17 17 17 17 17 16 16 15 15 15 15 15 16 17 17 18 18 19 20 20 20
19 19 20 19 19 19 18 18 18 18 18 18 18 18 18 17 17 17 17 17 17 17 17 17 17 17 17 17 17 17 17 17 16 17 16 17 17 17 17 17 17 17 16 16 16 16 15 15 14 14 14 14 15 15 15 16 16 17 17 18 19 19 19
19 20 20 20 20 19 19 18 18 18 18 18 18 18 18 18 17 17 17 17 17 17 17 17 17 17 17 17 16 16 16 16 16 16 16 16 17 17 16 16 17 16 16 16 16 16 15 15 15 14 14 14 15 14 15 15 15 15 16 17 18 18 18
20 20 21 21 20 20 19 19 19 18 18 18 18 18 18 18 18 17 17 17 18 18 18 17 17 17 17 17 17 17 17 17 17 17 16 16 17 17 16 16 16 16 16 16 16 16 15 15 15 14 14 14 14 14 14 15 14 14 15 15 16 17 17
19 20 20 21 20 20 19 19 19 19 19 19 19 19 19 18 18 17 17 18 18 18 18 18 18 17 17 17 17 17 17 17 17 17 17 17 17 17 17 16 16 16 16 16 16 16 15 15 15 15 14 14 14 14 14 14 14 14 14 15 15 15 15
19 19 20 20 20 20 20 19 19 19 19 19 19 19 19 19 18 18 18 18 18 18 18 18 18 17 17 17 17 17 17 17 17 17 17 17 17 17 17 17 17 16 16 16 16 16 15 15 15 15 15 14 14 14 14 15 15 15 15 15 15 15 15
18 19 19 20 20 20 20 20 19 19 19 19 19 19 19 19 19 19 19 19 19 18 18 18 18 18 17 17 17 17 17 17 17 17 17 17 18 18 17 17 17 17 16 16 16 15 15 15 15 15 15 15 14 15 15 16 16 16 16 16 16 16 16
18 18 18 19 19 20 20 20 19 19 19 19 19 19 19 19 19 19 19 19 19 18 18 18 18 17 17 17 17 18 18 18 18 18 18 18 18 18 18 18 17 17 17 16 16 16 16 16 15 15 15 15 15 15 15 16 16 16 16 16 17 17 17
18 18 19 19 19 19 20 19 19 19 19 19 20 20 19 19 19 19 20 19 19 18 18 18 18 18 17 17 17 17 18 18 18 18 18 18 18 17 17 17 17 17 17 16 16 16 16 16 16 16 16 15 15 15 15 15 16 16 16 17 17 18 18
18 18 19 19 19 19 20 20 19 19 19 19 20 20 20 20 20 20 20 19 19 19 19 18 18 18 18 18 18 17 18 18 18 18 18 17 17 17 16 16 16 17 16 16 16 16 16 16 16 16 16 16 15 16 16 16 16 16 16 17 18 18 18
18 18 19 19 19 19 19 19 19 19 19 19 20 20 20 20 20 20 20 20 19 19 19 19 19 18 18 18 18 18 18 18 18 18 18 18 18 18 17 17 16 16 16 16 16 16 16 16 16 16 16 16 16 16 16 16 16 17 17 17 18 18 18
18 18 19 19 19 19 19 19 19 19 19 19 19 19 19 19 19 20 20 20 19 19 19 19 19 19 18 18 18 18 18 18 18 18 18 18 18 18 18 18 17 17 16 17 17 17 16 16 16 16 16 16 16 16 16 17 17 17 17 18 18 18 18

ECMWFFLT1_925_temp_141.txt.gz
Temp
22 23 24 24 24 25 25 25 26 26 26 26 25 25 25 25 24 24 24 24 24 25 25 25 24 24 24 24 24 25 25 25 25 25 25 25 25 25 25 25 25 25 25 25 25 25 25 25 25 24 24 24 24 24 24 24 24 24 24 24 24 25 25
22 22 23 23 24 24 24 22 23 24 25 26 26 25 25 25 24 24 24 24 24 25 25 25 24 24 24 24 25 25 25 25 25 25 25 25 25 25 25 25 25 25 25 25 25 25 25 25 25 25 25 25 25 25 25 25 25 24 24 25 25 25 25
21 21 22 23 23 23 22 21 21 21 22 24 25 26 26 25 25 24 24 24 24 24 24 24 24 24 24 25 25 25 25 25 25 25 25 25 26 26 26 25 25 25 25 25 25 25 25 25 25 25 25 25 25 25 25 25 25 25 24 25 25 25 24
21 21 21 21 22 22 21 21 22 22 22 22 23 24 25 25 25 25 24 24 24 24 24 24 24 24 24 25 25 25 25 25 25 25 25 26 26 26 26 26 26 26 25 25 25 25 25 25 25 25 25 25 25 25 25 25 25 25 25 25 25 24 24
21 21 21 20 21 21 21 21 22 22 23 23 23 23 23 24 25 25 24 24 24 24 24 24 24 24 24 24 25 25 25 25 25 25 25 25 26 25 25 26 25 26 25 25 25 25 25 25 25 25 25 25 25 25 25 25 25 25 25 25 25 24 24
20 20 20 20 20 20 20 21 21 23 23 23 24 24 23 23 23 24 24 24 24 24 24 24 24 24 24 24 24 24 25 25 25 25 25 25 25 25 25 25 25 25 25 25 25 25 25 25 25 25 25 25 25 25 25 25 25 25 25 25 25 25 25
20 19 20 20 20 20 20 20 21 22 23 23 24 24 24 24 23 23 24 24 24 24 23 23 24 24 24 24 24 24 24 25 25 25 25 25 25 25 25 25 25 25 25 25 25 25 25 25 25 25 25 25 26 26 26 26 26 26 25 25 25 25 25
19 19 19 19 20 20 20 20 20 21 22 22 22 23 23 24 23 23 23 24 24 24 23 23 23 23 23 24 24 24 24 24 24 25 25 25 25 25 25 25 25 25 25 25 25 25 25 25 25 26 26 26 26 26 26 26 26 26 26 25 25 25 25
19 19 19 19 20 20 20 20 20 21 21 21 22 22 22 23 23 23 23 23 24 24 23 24 24 23 23 23 23 24 24 24 24 24 25 24 25 25 25 25 25 25 25 25 25 25 25 25 26 26 26 26 26 26 26 26 26 26 26 25 25 25 25
19 19 20 20 20 20 20 20 20 20 21 21 21 22 22 22 22 22 22 22 23 24 24 24 24 24 24 23 23 23 23 24 24 24 24 24 24 25 25 25 25 25 25 25 25 25 25 26 26 26 26 26 26 26 26 26 26 26 26 26 25 25 25
19 20 20 20 20 20 20 20 20 20 20 21 21 21 21 21 21 21 21 21 22 23 24 24 24 24 24 23 23 23 23 23 23 24 24 24 24 24 24 25 25 25 25 25 25 25 25 26 26 26 25 25 25 25 25 26 25 25 25 25 25 25 25
19 19 19 19 20 20 20 20 20 20 20 21 21 21 21 21 21 21 21 21 21 21 22 24 24 23 23 23 23 23 23 23 23 24 24 24 24 24 24 25 25 25 25 25 25 25 26 26 25 25 25 26 26 26 25 26 25 24 24 25 25 25 25
19 19 19 19 19 19 20 19 19 19 19 20 21 21 21 21 21 21 21 21 21 21 21 23 23 23 23 23 23 23 23 23 24 24 24 24 24 24 24 24 25 25 25 25 25 26 26 25 25 26 26 26 26 26 26 26 25 24 24 25 25 25 25
18 19 19 19 19 19 19 19 19 19 19 19 20 20 21 21 21 21 21 21 21 21 21 22 23 23 23 23 23 23 23 24 24 24 24 24 24 24 24 24 24 25 25 25 25 26 26 26 26 26 26 26 26 26 26 25 25 25 25 25 25 25 25
18 18 19 19 19 19 19 19 19 19 19 19 20 20 20 20 21 21 21 21 21 21 21 22 23 23 23 23 23 23 23 23 24 24 24 24 24 24 24 24 24 25 25 25 25 26 26 26 26 26 26 26 26 26 26 25 25 25 25 25 25 25 25
18 18 18 18 19 19 19 19 19 19 19 19 19 19 20 20 20 21 21 21 20 21 21 22 23 23 22 22 23 23 23 23 24 24 24 24 24 25 25 24 24 25 25 25 26 26 26 26 26 26 26 26 26 26 26 26 25 25 25 25 25 25 25
18 18 18 18 19 19 19 19 19 19 19 19 19 19 19 20 20 20 21 21 21 21 21 22 23 23 22 22 22 22 23 23 23 23 24 24 24 25 25 25 24 25 25 26 25 25 25 26 26 26 26 26 26 26 26 26 26 25 25 25 25 25 25
18 18 18 18 18 19 19 19 19 19 19 19 19 19 19 19 20 20 20 21 20 21 22 22 22 22 21 21 21 21 22 22 23 24 24 24 25 25 25 25 25 25 24 25 25 25 25 25 26 26 26 26 26 26 26 26 25 25 25 25 25 25 25
18 18 18 18 18 18 18 18 18 18 18 18 18 18 19 19 20 20 20 20 20 20 21 21 21 21 20 21 21 22 21 20 21 23 23 23 24 24 25 24 24 24 22 23 24 24 25 25 25 25 25 25 25 25 25 25 25 25 25 25 25 25 24
18 18 18 18 18 18 18 18 18 18 18 18 18 18 18 19 20 20 20 20 20 20 20 20 20 20 20 21 21 22 22 20 20 20 21 22 23 23 24 23 23 23 23 23 23 24 24 24 24 25 25 25 25 25 25 24 24 24 24 24 25 24 24
18 18 18 18 18 18 17 17 17 18 17 18 18 18 18 19 19 19 19 20 20 20 19 19 19 19 20 20 21 21 22 21 20 19 20 21 23 23 23 22 21 21 22 23 23 23 23 23 23 24 24 24 24 24 24 23 23 24 24 24 24 24 23
18 18 18 18 17 17 17 17 17 17 17 17 17 17 18 18 19 19 19 19 19 19 19 19 19 19 19 20 20 20 21 20 20 19 20 21 22 22 21 20 20 20 20 21 22 22 22 22 22 23 23 23 23 23 23 22 23 23 23 23 23 23 23
18 18 17 18 18 17 17 17 17 17 17 17 17 17 17 18 18 18 19 19 19 19 18 18 19 19 19 19 19 20 21 20 20 19 19 20 20 20 20 19 19 19 20 20 21 21 21 21 21 21 22 22 22 21 21 21 22 22 22 22 22 22 22
17 17 18 18 18 18 18 18 17 17 17 17 17 17 18 18 18 18 18 18 18 18 18 18 18 19 19 19 19 20 20 20 20 19 19 19 19 19 19 19 19 20 20 20 20 21 21 21 21 21 21 20 20 20 20 20 21 21 21 21 21 21 21
17 18 18 18 18 18 18 18 17 17 17 17 17 17 18 18 18 18 18 18 18 18 18 18 18 18 18 18 19 19 20 20 20 19 19 19 19 19 19 19 20 20 20 20 20 20 20 20 20 19 19 19 19 19 20 20 19 20 20 20 21 21 21
18 18 18 18 18 18 18 17 17 17 17 17 17 17 17 18 17 17 17 17 17 17 17 17 17 17 18 18 18 19 19 19 19 19 19 19 19 19 19 19 19 19 19 19 19 18 18 18 18 18 17 17 17 17 18 18 18 18 19 20 20 20 20
18 18 18 18 18 18 18 17 17 17 17 17 17 17 17 17 17 17 17 17 17 17 17 17 17 17 17 17 18 18 18 19 19 19 19 19 19 19 19 18 18 18 18 18 17 17 17 17 16 16 15 15 15 16 16 16 16 17 18 18 19 19 19
19 19 18 18 18 18 18 18 17 17 17 17 17 17 17 17 17 16 16 16 16 16 16 16 16 16 16 16 16 16 16 17 18 18 18 18 18 18 18 17 17 17 16 16 16 16 16 15 15 15 15 15 15 15 15 15 16 16 17 17 18 18 19
19 19 18 18 18 18 17 17 17 17 17 17 17 17 17 17 17 17 16 16 16 16 16 16 16 16 16 15 15 15 15 16 17 17 17 17 17 17 17 16 16 16 16 16 16 15 15 14 15 15 14 14 14 14 14 15 15 16 16 16 17 18 18
18 19 19 18 18 18 18 17 17 17 17 17 17 17 17 17 17 16 16 16 16 16 16 16 16 16 16 16 16 15 15 16 16 16 17 17 17 16 16 16 16 16 15 15 15 15 14 14 14 14 13 13 13 14 14 14 15 15 15 15 16 17 18
18 19 19 19 18 18 18 18 18 18 18 18 18 18 18 17 17 16 16 16 17 17 17 16 16 16 16 16 16 16 16 16 16 16 16 16 16 16 16 16 16 16 15 16 16 15 14 14 14 14 13 13 13 14 14 14 14 15 15 15 15 16 17
18 19 19 18 18 19 19 18 18 18 18 18 18 18 18 18 17 16 16 17 17 17 17 17 16 16 16 16 16 16 17 17 16 16 16 16 16 16 16 16 16 15 15 15 15 15 14 14 14 14 14 14 14 14 14 15 15 15 15 15 15 16 16
17 18 18 18 18 18 19 19 18 18 18 18 18 18 18 18 18 17 17 18 18 17 17 17 16 16 16 16 17 17 17 17 17 17 17 17 17 17 16 16 16 16 15 15 15 15 14 14 14 14 14 14 14 15 15 15 15 15 15 15 15 16 16
16 17 17 18 18 18 19 18 18 17 18 18 18 18 18 18 18 18 18 18 18 18 18 17 17 17 17 17 17 17 17 17 17 17 17 17 17 17 17 17 17 16 16 16 15 15 15 15 15 15 15 15 15 15 15 15 16 16 16 16 16 16 16
16 16 17 17 18 18 18 18 18 17 17 17 18 18 18 18 18 18 18 18 18 19 18 18 18 17 17 17 17 17 17 18 18 18 18 17 17 17 16 16 17 16 16 16 16 16 16 16 15 15 15 16 16 16 16 16 16 16 17 17 17 17 17
16 16 17 17 17 18 18 18 18 18 17 17 18 18 18 18 18 18 18 18 18 18 18 18 18 18 18 18 18 18 18 18 18 18 18 17 17 16 16 15 16 16 16 16 16 16 16 16 16 16 16 16 16 16 16 16 16 17 17 17 17 17 18
17 17 17 17 18 18 17 18 18 18 18 18 18 18 18 18 18 18 18 18 18 18 18 18 18 18 18 18 18 18 18 18 18 18 17 17 17 17 16 15 15 15 15 15 15 15 16 16 16 16 16 16 16 16 17 17 17 17 17 17 17 17 18
17 17 17 17 18 18 18 18 18 18 18 18 18 18 18 18 18 18 19 18 18 18 18 18 18 18 18 18 18 18 18 18 18 18 17 17 17 17 17 16 16 15 15 15 15 15 16 16 16 16 16 16 16 17 17 17 17 17 17 17 17 17 17